
Distance (Route):
Temperature : 8.2°C
Humidity : 86.3%
Pressure : 0hPa| Receiver | Frames | First received | Last received |
|---|---|---|---|
| DO3MHA-11 | 308 | 2026-09-05 11:42:04 | 2026-09-05 13:12:06 |
| OE8JPQ-2 | 289 | 2026-09-05 11:21:52 | 2026-09-05 13:17:56 |
| 9A1FER-3 | 284 | 2026-09-05 11:38:55 | 2026-09-05 13:20:42 |
| IW2NTF | 248 | 2026-09-05 12:00:45 | 2026-09-05 13:11:22 |
| OE5DRO-10 | 183 | 2026-09-05 11:39:01 | 2026-09-05 13:11:57 |
| DO3MHA-12 | 165 | 2026-09-05 11:48:54 | 2026-09-05 13:10:14 |
| IN3HCDX1 | 160 | 2026-09-05 11:41:09 | 2026-09-05 13:08:50 |
| S52SK | 155 | 2026-09-05 11:16:48 | 2026-09-05 13:26:32 |
| IN3HCDX | 143 | 2026-09-05 11:10:50 | 2026-09-05 13:10:13 |
| OE5DXL-15 | 136 | 2026-09-05 11:40:28 | 2026-09-05 13:11:06 |
| IV3AMH | 118 | 2026-09-05 11:18:03 | 2026-09-05 13:23:16 |
| PG1ADW-2 | 89 | 2026-09-05 12:07:52 | 2026-09-05 13:06:20 |
| OE5MMP-10 | 77 | 2026-09-05 12:43:10 | 2026-09-05 12:58:43 |
| OM5KV | 53 | 2026-09-05 11:52:30 | 2026-09-05 13:15:11 |
| NBG1-10 | 39 | 2026-09-05 12:08:04 | 2026-09-05 13:03:33 |
| 9A1FER-15 | 38 | 2026-09-05 13:04:14 | 2026-09-05 13:22:53 |
| DB0UT-7 | 36 | 2026-09-05 12:28:22 | 2026-09-05 13:00:29 |
| PETON7-10 | 32 | 2026-09-05 12:35:58 | 2026-09-05 13:00:19 |
| OE5WHR-10 | 21 | 2026-09-05 12:25:31 | 2026-09-05 13:03:12 |
| DB0ND-19 | 17 | 2026-09-05 12:17:24 | 2026-09-05 13:03:57 |
| Receiver | Date | Latitude | Longitude | Direction | Speed | Altitude | Climb | Temperature | Humidity | Pressure | Voltage | Killtimer | Uptime | BKT | XDATA |
|---|---|---|---|---|---|---|---|---|---|---|---|---|---|---|---|
| S52SK | 2026-09-05 13:26:32 | 45.71472 | 14.40244 | 41° | 4km/h | 2840m | -9.3m/s | 8.2°C | 86.3% | 0hPa | 2.5V | 08:00:00 | 00:00:00 | 00:00:00 | |
| S52SK | 2026-09-05 13:26:27 | 45.71469 | 14.40240 | 50° | 4km/h | 2885m | -8.8m/s | 7.8°C | 88.7% | 0hPa | 2.5V | 00:00:00 | 00:00:00 | 00:00:00 | |
| S52SK | 2026-09-05 13:25:21 | 45.71564 | 14.39852 | 106° | 29km/h | 3572m | -9.9m/s | 4.2°C | 78.6% | 0hPa | 2.5V | 00:00:00 | 00:00:00 | 00:00:00 | |
| S52SK | 2026-09-05 13:25:16 | 45.71572 | 14.39801 | 104° | 31km/h | 3620m | -9.7m/s | 3.8°C | 80.5% | 0hPa | 2.5V | 00:00:00 | 00:00:00 | 00:00:00 | |
| S52SK | 2026-09-05 13:25:10 | 45.71580 | 14.39732 | 104° | 33km/h | 3678m | -11.2m/s | 3.3°C | 80.8% | 0hPa | 2.5V | 00:00:00 | 00:00:00 | 00:00:00 | |
| S52SK | 2026-09-05 13:23:50 | 45.71614 | 14.38699 | 86° | 37km/h | 4459m | -11.1m/s | -1.1°C | 19.2% | 0hPa | 2.5V | 00:00:00 | 00:00:00 | 00:00:00 | |
| S52SK | 2026-09-05 13:23:44 | 45.71609 | 14.38614 | 83° | 38km/h | 4518m | -12.2m/s | -1.5°C | 18.3% | 0hPa | 2.5V | 00:00:00 | 00:00:00 | 00:00:00 | |
| IV3AMH | 2026-09-05 13:23:16 | 45.71579 | 14.38130 | 85° | 55km/h | 4787m | -9.7m/s | -2.3°C | 5.7% | 0hPa | 2.5V | 00:00:00 | 00:00:00 | 00:00:00 | |
| 9A1FER-15 | 2026-09-05 13:22:53 | 45.71566 | 14.37622 | 92° | 62km/h | 5010m | -9.3m/s | -3.5°C | 13.8% | 0hPa | 2.5V | 00:00:00 | 02:55:43 | 00:00:00 | |
| S52SK | 2026-09-05 13:22:38 | 45.71578 | 14.37301 | 94° | 66km/h | 5141m | -10.1m/s | -4.1°C | 18.8% | 0hPa | 2.5V | 00:00:00 | 00:00:00 | 00:00:00 | |
| IV3AMH | 2026-09-05 13:22:37 | 45.71579 | 14.37278 | 92° | 64km/h | 5151m | -9.8m/s | -4.2°C | 19.0% | 0hPa | 2.5V | 00:00:00 | 00:00:00 | 00:00:00 | |
| S52SK | 2026-09-05 13:22:32 | 45.71582 | 14.37160 | 91° | 64km/h | 5199m | -10.0m/s | -4.6°C | 20.5% | 0hPa | 2.5V | 00:00:00 | 00:00:00 | 00:00:00 | |
| S52SK | 2026-09-05 13:22:27 | 45.71585 | 14.37042 | 93° | 69km/h | 5247m | -9.9m/s | -5.0°C | 21.1% | 0hPa | 2.5V | 00:00:00 | 00:00:00 | 00:00:00 | |
| 9A1FER-15 | 2026-09-05 13:22:08 | 45.71605 | 14.36556 | 98° | 75km/h | 5445m | -9.9m/s | -6.6°C | 35.3% | 0hPa | 2.5V | 00:00:00 | 02:54:58 | 00:00:00 | |
| IV3AMH | 2026-09-05 13:22:00 | 45.71619 | 14.36384 | 97° | 71km/h | 5515m | -9.9m/s | -7.2°C | 46.7% | 0hPa | 2.5V | 08:05:00 | 00:00:00 | 00:00:00 | |
| IV3AMH | 2026-09-05 13:21:23 | 45.71714 | 14.35405 | 98° | 77km/h | 5896m | -10.7m/s | -8.2°C | 56.9% | 0hPa | 2.5V | 00:00:00 | 00:00:00 | 00:00:00 | |
| S52SK | 2026-09-05 13:21:14 | 45.71739 | 14.35158 | 100° | 75km/h | 5989m | -10.2m/s | -9.2°C | 60.2% | 0hPa | 2.5V | 00:00:00 | 00:00:00 | 00:00:00 | |
| S52SK | 2026-09-05 13:21:08 | 45.71753 | 14.34997 | 97° | 77km/h | 6051m | -10.3m/s | -9.7°C | 62.3% | 0hPa | 2.5V | 00:00:00 | 00:00:00 | 00:00:00 | |
| S52SK | 2026-09-05 13:21:03 | 45.71764 | 14.34861 | 96° | 75km/h | 6103m | -11.0m/s | -10.2°C | 64.2% | 0hPa | 2.5V | 00:00:00 | 00:00:00 | 00:00:00 | |
| S52SK | 2026-09-05 13:20:58 | 45.71772 | 14.34730 | 96° | 73km/h | 6155m | -10.4m/s | -10.7°C | 66.2% | 0hPa | 2.5V | 00:00:00 | 00:00:00 | 00:00:00 | |
| IV3AMH | 2026-09-05 13:20:46 | 45.71795 | 14.34415 | 97° | 71km/h | 6279m | -10.9m/s | -12.0°C | 71.4% | 0hPa | 2.5V | 00:00:00 | 00:00:00 | 00:00:00 | |
| 9A1FER-3 | 2026-09-05 13:20:42 | 45.71808 | 14.34284 | 97° | 73km/h | 6332m | -10.9m/s | -12.4°C | 76.1% | 0hPa | 2.5V | 00:00:00 | 02:53:32 | 00:00:00 | |
| 9A1FER-3 | 2026-09-05 13:20:21 | 45.71865 | 14.33734 | 99° | 80km/h | 6554m | -10.9m/s | -14.4°C | 87.4% | 0hPa | 2.6V | 00:00:00 | 02:53:11 | 00:00:00 | |
| IV3AMH | 2026-09-05 13:20:09 | 45.71897 | 14.33428 | 99° | 82km/h | 6684m | -12.7m/s | -15.6°C | 90.8% | 0hPa | 2.6V | 08:07:00 | 00:00:00 | 00:00:00 | |
| 9A1FER-3 | 2026-09-05 13:20:02 | 45.71925 | 14.33188 | 102° | 89km/h | 6785m | -10.4m/s | -16.2°C | 96.6% | 0hPa | 2.6V | 00:00:00 | 02:52:52 | 00:00:00 | |
| IV3AMH | 2026-09-05 13:19:32 | 45.72000 | 14.32267 | 99° | 91km/h | 7143m | -12.8m/s | -17.9°C | 72.8% | 0hPa | 2.6V | 00:00:00 | 00:00:00 | 00:00:00 | |
| 9A1FER-3 | 2026-09-05 13:19:29 | 45.72015 | 14.32136 | 99° | 86km/h | 7193m | -13.0m/s | -17.9°C | 43.2% | 0hPa | 2.6V | 08:07:00 | 02:52:19 | 00:00:00 | |
| 9A1FER-3 | 2026-09-05 13:19:04 | 45.72109 | 14.31345 | 103° | 84km/h | 7489m | -10.9m/s | -19.0°C | 3.8% | 0hPa | 2.6V | 00:00:00 | 02:51:54 | 00:00:00 | |
| IV3AMH | 2026-09-05 13:18:55 | 45.72149 | 14.31108 | 105° | 82km/h | 7579m | -11.6m/s | -19.5°C | 6.2% | 0hPa | 2.6V | 00:00:00 | 00:00:00 | 00:00:00 | |
| 9A1FER-3 | 2026-09-05 13:18:49 | 45.72187 | 14.30906 | 106° | 86km/h | 7657m | -10.7m/s | -20.1°C | 7.2% | 0hPa | 2.6V | 00:00:00 | 02:51:39 | 00:00:00 | |
| 9A1FER-3 | 2026-09-05 13:18:34 | 45.72286 | 14.30470 | 110° | 93km/h | 7836m | -11.9m/s | -21.5°C | 10.3% | 0hPa | 2.6V | 00:00:00 | 02:51:24 | 00:00:00 | |
| 9A1FER-15 | 2026-09-05 13:18:32 | 45.72301 | 14.30408 | 111° | 95km/h | 7859m | -11.2m/s | -21.6°C | 10.6% | 0hPa | 2.5V | 00:00:00 | 02:51:22 | 00:00:00 | |
| 9A1FER-3 | 2026-09-05 13:18:15 | 45.72444 | 14.29870 | 111° | 95km/h | 8049m | -9.5m/s | -23.0°C | 13.7% | 0hPa | 2.6V | 00:00:00 | 02:51:05 | 00:00:00 | |
| 9A1FER-15 | 2026-09-05 13:18:10 | 45.72488 | 14.29701 | 111° | 91km/h | 8103m | -10.6m/s | -23.3°C | 17.7% | 0hPa | 2.6V | 00:00:00 | 02:51:00 | 00:00:00 | |
| 9A1FER-3 | 2026-09-05 13:18:00 | 45.72578 | 14.29382 | 113° | 86km/h | 8225m | -12.3m/s | -24.2°C | 26.8% | 0hPa | 2.6V | 00:00:00 | 02:50:50 | 00:00:00 | |
| OE8JPQ-2 | 2026-09-05 13:17:56 | 45.72614 | 14.29260 | 113° | 89km/h | 8272m | -10.9m/s | -24.6°C | 27.2% | 0hPa | 2.6V | 00:00:00 | 02:50:46 | 00:00:00 | |
| IV3AMH | 2026-09-05 13:17:40 | 45.72750 | 14.28812 | 115° | 88km/h | 8453m | -11.3m/s | -25.9°C | 26.8% | 0hPa | 2.6V | 08:10:00 | 00:00:00 | 00:00:00 | |
| OE8JPQ-2 | 2026-09-05 13:17:36 | 45.72794 | 14.28666 | 114° | 86km/h | 8513m | -11.2m/s | -26.4°C | 29.4% | 0hPa | 2.6V | 00:00:00 | 00:00:00 | 00:00:00 | |
| S52SK | 2026-09-05 13:17:35 | 45.72794 | 14.28666 | 115° | 89km/h | 8513m | -11.3m/s | -26.5°C | 27.0% | 0hPa | 2.5V | 00:00:00 | 00:00:00 | 00:00:00 | |
| S52SK | 2026-09-05 13:17:29 | 45.72846 | 14.28493 | 113° | 88km/h | 8587m | -11.9m/s | -27.1°C | 24.6% | 0hPa | 2.5V | 00:00:00 | 00:00:00 | 00:00:00 | |
| OE8JPQ-2 | 2026-09-05 13:17:16 | 45.72962 | 14.28097 | 113° | 84km/h | 8758m | -12.8m/s | -28.6°C | 31.6% | 0hPa | 2.5V | 00:00:00 | 00:00:00 | 00:00:00 | |
| 9A1FER-3 | 2026-09-05 13:17:04 | 45.73067 | 14.27763 | 115° | 97km/h | 8908m | -13.7m/s | -30.0°C | 38.0% | 0hPa | 2.5V | 00:00:00 | 02:49:54 | 00:00:00 | |
| 9A1FER-15 | 2026-09-05 13:17:03 | 45.73076 | 14.27735 | 115° | 84km/h | 8922m | -13.0m/s | -30.1°C | 39.1% | 0hPa | 2.6V | 00:00:00 | 02:49:53 | 00:00:00 | |
| OE8JPQ-2 | 2026-09-05 13:16:56 | 45.73142 | 14.27542 | 116° | 86km/h | 9015m | -13.2m/s | -30.9°C | 42.4% | 0hPa | 2.6V | 00:00:00 | 02:49:46 | 00:00:00 | |
| 9A1FER-15 | 2026-09-05 13:16:48 | 45.73219 | 14.27324 | 117° | 91km/h | 9116m | -12.4m/s | -31.8°C | 42.1% | 0hPa | 2.6V | 08:10:00 | 02:49:38 | 00:00:00 | |
| OE8JPQ-2 | 2026-09-05 13:16:36 | 45.73351 | 14.26996 | 122° | 93km/h | 9261m | -12.3m/s | -33.0°C | 41.3% | 0hPa | 2.5V | 08:10:00 | 00:00:00 | 00:00:00 | |
| IV3AMH | 2026-09-05 13:16:26 | 45.73464 | 14.26748 | 124° | 93km/h | 9368m | -12.0m/s | -33.9°C | 38.7% | 0hPa | 2.5V | 00:00:00 | 00:00:00 | 00:00:00 | |
| S52SK | 2026-09-05 13:16:20 | 45.73544 | 14.26578 | 124° | 97km/h | 9441m | -11.5m/s | -34.5°C | 38.9% | 0hPa | 2.5V | 08:10:00 | 00:00:00 | 00:00:00 | |
| OE8JPQ-2 | 2026-09-05 13:16:16 | 45.73610 | 14.26435 | 124° | 99km/h | 9498m | -12.1m/s | -34.9°C | 44.2% | 0hPa | 2.5V | 00:00:00 | 00:00:00 | 00:00:00 | |
| S52SK | 2026-09-05 13:16:14 | 45.73623 | 14.26406 | 124° | 93km/h | 9511m | -12.3m/s | -35.0°C | 39.9% | 0hPa | 2.5V | 00:00:00 | 00:00:00 | 00:00:00 | |
| S52SK | 2026-09-05 13:16:09 | 45.73691 | 14.26264 | 126° | 97km/h | 9573m | -12.1m/s | -35.6°C | 39.6% | 0hPa | 2.5V | 00:00:00 | 00:00:00 | 00:00:00 | |
| OE8JPQ-2 | 2026-09-05 13:15:56 | 45.73895 | 14.25856 | 127° | 106km/h | 9734m | -11.9m/s | -37.0°C | 44.3% | 0hPa | 2.5V | 00:00:00 | 02:48:46 | 00:00:00 | |
| 9A1FER-15 | 2026-09-05 13:15:53 | 45.73940 | 14.25766 | 126° | 106km/h | 9769m | -11.7m/s | -37.2°C | 42.6% | 0hPa | 2.5V | 00:00:00 | 02:48:43 | 00:00:00 | |
| IV3AMH | 2026-09-05 13:15:49 | 45.73986 | 14.25673 | 126° | 106km/h | 9802m | -10.5m/s | -37.5°C | 36.9% | 0hPa | 2.5V | 00:00:00 | 00:00:00 | 00:00:00 | |
| OE8JPQ-2 | 2026-09-05 13:15:36 | 45.74199 | 14.25230 | 126° | 108km/h | 9967m | -13.1m/s | -38.9°C | 41.4% | 0hPa | 2.5V | 00:00:00 | 00:00:00 | 00:00:00 | |
| 9A1FER-15 | 2026-09-05 13:15:34 | 45.74230 | 14.25168 | 125° | 108km/h | 9992m | -11.6m/s | -39.1°C | 42.1% | 0hPa | 2.5V | 00:00:00 | 02:48:24 | 00:00:00 | |
| 9A1FER-3 | 2026-09-05 13:15:30 | 45.74292 | 14.25042 | 125° | 108km/h | 10036m | -10.5m/s | -39.5°C | 41.8% | 0hPa | 2.5V | 00:00:00 | 02:48:20 | 00:00:00 | |
| 9A1FER-15 | 2026-09-05 13:15:19 | 45.74463 | 14.24692 | 125° | 111km/h | 10179m | -13.3m/s | -40.7°C | 41.5% | 0hPa | 2.5V | 00:00:00 | 02:48:09 | 00:00:00 | |
| OE8JPQ-2 | 2026-09-05 13:15:16 | 45.74511 | 14.24593 | 125° | 113km/h | 10218m | -12.9m/s | -41.0°C | 41.4% | 0hPa | 2.6V | 00:00:00 | 00:00:00 | 00:00:00 | |
| 9A1FER-3 | 2026-09-05 13:15:15 | 45.74527 | 14.24560 | 125° | 113km/h | 10231m | -12.4m/s | -41.1°C | 41.6% | 0hPa | 2.6V | 00:00:00 | 02:48:05 | 00:00:00 | |
| IV3AMH | 2026-09-05 13:15:12 | 45.74559 | 14.24494 | 125° | 111km/h | 10254m | -11.4m/s | -41.4°C | 36.1% | 0hPa | 2.6V | 08:12:00 | 00:00:00 | 00:00:00 | |
| OM5KV | 2026-09-05 13:15:11 | 45.74575 | 14.24461 | 126° | 111km/h | 10265m | -10.2m/s | 0°C | 0% | 0hPa | 2.6V | 00:00:00 | 00:00:00 | 00:00:00 | |
| 9A1FER-15 | 2026-09-05 13:15:04 | 45.74703 | 14.24190 | 125° | 115km/h | 10367m | -13.1m/s | -42.3°C | 40.3% | 0hPa | 2.6V | 00:00:00 | 02:47:54 | 00:00:00 | |
| OM5KV | 2026-09-05 13:15:00 | 45.74769 | 14.24053 | 126° | 115km/h | 10421m | -13.8m/s | 0°C | 0% | 0hPa | 2.6V | 00:00:00 | 00:00:00 | 00:00:00 | |
| OE8JPQ-2 | 2026-09-05 13:14:56 | 45.74837 | 14.23917 | 125° | 115km/h | 10476m | -12.9m/s | -43.3°C | 42.0% | 0hPa | 2.6V | 00:00:00 | 02:47:46 | 00:00:00 | |
| S52SK | 2026-09-05 13:14:54 | 45.74853 | 14.23883 | 126° | 113km/h | 10489m | -12.2m/s | -43.5°C | 36.9% | 0hPa | 2.6V | 00:00:00 | 00:00:00 | 00:00:00 | |
| OM5KV | 2026-09-05 13:14:52 | 45.74887 | 14.23815 | 126° | 115km/h | 10513m | -12.2m/s | 0°C | 0% | 0hPa | 2.6V | 00:00:00 | 00:00:00 | 00:00:00 | |
| 9A1FER-3 | 2026-09-05 13:14:42 | 45.75063 | 14.23433 | 123° | 113km/h | 10642m | -13.1m/s | -44.7°C | 45.3% | 0hPa | 2.6V | 00:00:00 | 02:47:32 | 00:00:00 | |
| OE8JPQ-2 | 2026-09-05 13:14:36 | 45.75158 | 14.23225 | 124° | 110km/h | 10720m | -13.1m/s | -45.3°C | 46.0% | 0hPa | 2.6V | 00:00:00 | 00:00:00 | 00:00:00 | |
| IV3AMH | 2026-09-05 13:14:34 | 45.75175 | 14.23192 | 126° | 113km/h | 10733m | -12.7m/s | -45.4°C | 40.0% | 0hPa | 2.6V | 00:00:00 | 00:00:00 | 00:00:00 | |
| OE8JPQ-2 | 2026-09-05 13:14:16 | 45.75498 | 14.22593 | 132° | 111km/h | 10965m | -12.0m/s | -47.3°C | 55.0% | 0hPa | 2.6V | 00:00:00 | 00:00:00 | 00:00:00 | |
| 9A1FER-3 | 2026-09-05 13:14:07 | 45.75666 | 14.22328 | 134° | 113km/h | 11083m | -13.7m/s | -48.3°C | 61.1% | 0hPa | 2.6V | 00:00:00 | 02:46:57 | 00:00:00 | |
| IV3AMH | 2026-09-05 13:13:57 | 45.75846 | 14.22066 | 136° | 111km/h | 11202m | -13.1m/s | -49.2°C | 51.3% | 0hPa | 2.6V | 00:00:00 | 00:00:00 | 00:00:00 | |
| OE8JPQ-2 | 2026-09-05 13:13:56 | 45.75887 | 14.22008 | 136° | 115km/h | 11226m | -12.4m/s | -49.3°C | 57.3% | 0hPa | 2.6V | 00:00:00 | 02:46:46 | 00:00:00 | |
| 9A1FER-3 | 2026-09-05 13:13:52 | 45.75970 | 14.21895 | 137° | 115km/h | 11281m | -13.3m/s | -49.7°C | 54.3% | 0hPa | 2.6V | 00:00:00 | 02:46:42 | 00:00:00 | |
| S52SK | 2026-09-05 13:13:45 | 45.76096 | 14.21726 | 139° | 113km/h | 11362m | -12.4m/s | -50.3°C | 45.3% | 0hPa | 2.6V | 08:13:00 | 00:00:00 | 00:00:00 | |
| S52SK | 2026-09-05 13:13:39 | 45.76228 | 14.21558 | 140° | 119km/h | 11439m | -12.3m/s | -51.0°C | 45.7% | 0hPa | 2.6V | 00:00:00 | 00:00:00 | 00:00:00 | |
| 9A1FER-3 | 2026-09-05 13:13:37 | 45.76295 | 14.21473 | 138° | 119km/h | 11478m | -13.0m/s | -51.3°C | 55.1% | 0hPa | 2.6V | 00:00:00 | 02:46:27 | 00:00:00 | |
| OE8JPQ-2 | 2026-09-05 13:13:36 | 45.76317 | 14.21445 | 138° | 120km/h | 11491m | -13.2m/s | -51.4°C | 54.5% | 0hPa | 2.6V | 08:13:00 | 00:00:00 | 00:00:00 | |
| 9A1FER-3 | 2026-09-05 13:13:22 | 45.76630 | 14.21040 | 139° | 120km/h | 11669m | -12.0m/s | -52.9°C | 57.0% | 0hPa | 2.6V | 00:00:00 | 02:46:12 | 00:00:00 | |
| IV3AMH | 2026-09-05 13:13:20 | 45.76653 | 14.21011 | 140° | 122km/h | 11682m | -13.3m/s | -53.1°C | 48.0% | 0hPa | 2.6V | 00:00:00 | 00:00:00 | 00:00:00 | |
| OE8JPQ-2 | 2026-09-05 13:13:16 | 45.76768 | 14.20865 | 138° | 120km/h | 11747m | -13.1m/s | -53.5°C | 54.9% | 0hPa | 2.6V | 00:00:00 | 00:00:00 | 00:00:00 | |
| 9A1FER-3 | 2026-09-05 13:13:07 | 45.76967 | 14.20593 | 136° | 122km/h | 11872m | -13.6m/s | -54.4°C | 51.5% | 0hPa | 2.6V | 00:00:00 | 02:45:57 | 00:00:00 | |
| OE8JPQ-2 | 2026-09-05 13:12:56 | 45.77211 | 14.20257 | 136° | 128km/h | 12024m | -14.2m/s | -55.6°C | 47.7% | 0hPa | 2.5V | 00:00:00 | 02:45:46 | 00:00:00 | |
| 9A1FER-3 | 2026-09-05 13:12:52 | 45.77305 | 14.20132 | 139° | 128km/h | 12082m | -14.9m/s | -56.1°C | 44.9% | 0hPa | 2.5V | 00:00:00 | 02:45:42 | 00:00:00 | |
| IV3AMH | 2026-09-05 13:12:42 | 45.77522 | 14.19853 | 138° | 128km/h | 12212m | -15.5m/s | -57.1°C | 31.2% | 0hPa | 2.5V | 00:00:00 | 00:00:00 | 00:00:00 | |
| S52SK | 2026-09-05 13:12:39 | 45.77592 | 14.19757 | 136° | 128km/h | 12256m | -13.8m/s | -57.4°C | 30.5% | 0hPa | 2.5V | 00:00:00 | 00:00:00 | 00:00:00 | |
| 9A1FER-3 | 2026-09-05 13:12:37 | 45.77662 | 14.19659 | 136° | 130km/h | 12299m | -13.9m/s | -57.7°C | 38.3% | 0hPa | 2.5V | 00:00:00 | 02:45:27 | 00:00:00 | |
| OE8JPQ-2 | 2026-09-05 13:12:36 | 45.77685 | 14.19626 | 135° | 130km/h | 12312m | -12.5m/s | -57.8°C | 38.2% | 0hPa | 2.5V | 00:00:00 | 00:00:00 | 00:00:00 | |
| S52SK | 2026-09-05 13:12:34 | 45.77708 | 14.19593 | 136° | 130km/h | 12326m | -14.7m/s | -58.0°C | 29.8% | 0hPa | 2.6V | 00:00:00 | 00:00:00 | 00:00:00 | |
| S52SK | 2026-09-05 13:12:28 | 45.77845 | 14.19394 | 135° | 130km/h | 12408m | -14.2m/s | -58.6°C | 27.8% | 0hPa | 2.6V | 00:00:00 | 00:00:00 | 00:00:00 | |
| 9A1FER-3 | 2026-09-05 13:12:18 | 45.78091 | 14.19019 | 131° | 130km/h | 12570m | -15.2m/s | -58.9°C | 32.7% | 0hPa | 2.6V | 08:14:00 | 02:45:08 | 00:00:00 | |
| OE8JPQ-2 | 2026-09-05 13:12:16 | 45.78132 | 14.18947 | 129° | 133km/h | 12599m | -13.6m/s | -58.8°C | 32.6% | 0hPa | 2.5V | 00:00:00 | 00:00:00 | 00:00:00 | |
| DO3MHA-11 | 2026-09-05 13:12:06 | 45.78328 | 14.18568 | 125° | 141km/h | 12736m | -14.3m/s | -59.4°C | 31.4% | 0hPa | 2.5V | 00:00:00 | 02:44:56 | 00:00:00 | |
| IV3AMH | 2026-09-05 13:12:04 | 45.78347 | 14.18528 | 126° | 135km/h | 12750m | -13.9m/s | -59.5°C | 23.4% | 0hPa | 2.5V | 00:00:00 | 00:00:00 | 00:00:00 | |
| 9A1FER-3 | 2026-09-05 13:12:03 | 45.78386 | 14.18448 | 125° | 142km/h | 12780m | -14.9m/s | -59.7°C | 30.6% | 0hPa | 2.5V | 00:00:00 | 02:44:53 | 00:00:00 | |
| OE5DRO-10 | 2026-09-05 13:11:57 | 45.78512 | 14.18202 | 129° | 139km/h | 12868m | -14.9m/s | -59.7°C | 30.1% | 0hPa | 2.5V | 00:00:00 | 00:00:00 | 00:00:00 | |
| OE8JPQ-2 | 2026-09-05 13:11:56 | 45.78534 | 14.18162 | 130° | 137km/h | 12882m | -13.3m/s | -59.7°C | 30.6% | 0hPa | 2.6V | 00:00:00 | 02:44:46 | 00:00:00 | |
| DO3MHA-11 | 2026-09-05 13:11:51 | 45.78652 | 14.17964 | 131° | 141km/h | 12942m | -9.2m/s | -59.5°C | 29.5% | 0hPa | 2.6V | 08:15:00 | 02:44:41 | 00:00:00 | |
| 9A1FER-3 | 2026-09-05 13:11:48 | 45.78724 | 14.17849 | 134° | 128km/h | 12978m | -14.3m/s | -59.7°C | 28.1% | 0hPa | 2.5V | 00:00:00 | 02:44:38 | 00:00:00 | |
| DO3MHA-11 | 2026-09-05 13:11:41 | 45.78898 | 14.17604 | 137° | 119km/h | 13085m | -14.2m/s | -59.0°C | 23.5% | 0hPa | 2.5V | 00:00:00 | 02:44:31 | 00:00:00 | |
| OE5DRO-10 | 2026-09-05 13:11:38 | 45.78967 | 14.17508 | 135° | 104km/h | 13127m | -15.3m/s | -58.8°C | 21.3% | 0hPa | 2.5V | 00:00:00 | 00:00:00 | 00:00:00 | |
| OE8JPQ-2 | 2026-09-05 13:11:36 | 45.79009 | 14.17446 | 134° | 100km/h | 13158m | -16.0m/s | -58.5°C | 20.1% | 0hPa | 2.5V | 00:00:00 | 00:00:00 | 00:00:00 | |
| 9A1FER-3 | 2026-09-05 13:11:33 | 45.79067 | 14.17359 | 134° | 99km/h | 13204m | -15.0m/s | -58.2°C | 19.5% | 0hPa | 2.6V | 00:00:00 | 02:44:23 | 00:00:00 | |
| DO3MHA-11 | 2026-09-05 13:11:31 | 45.79104 | 14.17303 | 135° | 99km/h | 13232m | -13.3m/s | -57.9°C | 18.8% | 0hPa | 2.5V | 00:00:00 | 02:44:21 | 00:00:00 | |
| 9A1FER-15 | 2026-09-05 13:11:29 | 45.79141 | 14.17250 | 135° | 97km/h | 13258m | -15.1m/s | -58.1°C | 18.9% | 0hPa | 2.5V | 00:00:00 | 02:44:19 | 00:00:00 | |
| IV3AMH | 2026-09-05 13:11:27 | 45.79159 | 14.17224 | 135° | 99km/h | 13273m | -14.6m/s | -58.2°C | 13.6% | 0hPa | 2.5V | 00:00:00 | 00:00:00 | 00:00:00 | |
| IW2NTF | 2026-09-05 13:11:22 | 45.79285 | 14.17010 | 126° | 95km/h | 13385m | -14.7m/s | -59.3°C | 19.2% | 0hPa | 2.5V | 08:15:52 | 02:44:10 | 00:00:00 | |
| DO3MHA-11 | 2026-09-05 13:11:21 | 45.79271 | 14.17037 | 128° | 93km/h | 13370m | -14.9m/s | -59.0°C | 18.9% | 0hPa | 2.5V | 00:00:00 | 02:44:11 | 00:00:00 | |
| OE5DRO-10 | 2026-09-05 13:11:19 | 45.79299 | 14.16982 | 126° | 88km/h | 13400m | -15.0m/s | -59.4°C | 19.2% | 0hPa | 2.5V | 00:00:00 | 00:00:00 | 00:00:00 | |
| 9A1FER-3 | 2026-09-05 13:11:18 | 45.79314 | 14.16954 | 126° | 88km/h | 13415m | -15.6m/s | -59.5°C | 19.2% | 0hPa | 2.5V | 00:00:00 | 02:44:08 | 00:00:00 | |
| OE8JPQ-2 | 2026-09-05 13:11:16 | 45.79341 | 14.16898 | 124° | 86km/h | 13445m | -14.5m/s | -59.5°C | 18.8% | 0hPa | 2.5V | 00:00:00 | 00:00:00 | 00:00:00 | |
| IW2NTF | 2026-09-05 13:11:15 | 45.79410 | 14.16728 | 116° | 89km/h | 13539m | -15.1m/s | -59.8°C | 17.9% | 0hPa | 2.5V | 08:16:02 | 02:44:00 | 00:00:00 | |
| 9A1FER-15 | 2026-09-05 13:11:14 | 45.79366 | 14.16841 | 121° | 86km/h | 13474m | -16.6m/s | -59.5°C | 18.1% | 0hPa | 2.5V | 00:00:00 | 02:44:04 | 00:00:00 | |
| DO3MHA-11 | 2026-09-05 13:11:11 | 45.79399 | 14.16756 | 119° | 84km/h | 13523m | -16.8m/s | -59.7°C | 17.6% | 0hPa | 2.5V | 00:00:00 | 02:44:01 | 00:00:00 | |
| S52SK | 2026-09-05 13:11:10 | 45.79399 | 14.16756 | 119° | 89km/h | 13523m | -16.9m/s | -59.7°C | 12.1% | 0hPa | 2.5V | 00:00:00 | 00:00:00 | 00:00:00 | |
| OE5DXL-15 | 2026-09-05 13:11:06 | 45.79448 | 14.16617 | 116° | 82km/h | 13598m | -15.2m/s | -59.9°C | 17.7% | 0hPa | 2.5V | 08:16:00 | 00:00:00 | 00:00:00 | |
| IW2NTF | 2026-09-05 13:11:03 | 45.79500 | 14.16456 | 112° | 82km/h | 13692m | -16m/s | -60.8°C | 17.6% | 0hPa | 2.5V | 08:16:12 | 02:43:50 | 00:00:00 | |
| 9A1FER-3 | 2026-09-05 13:11:03 | 45.79475 | 14.16537 | 115° | 82km/h | 13643m | -15.9m/s | -60.3°C | 17.6% | 0hPa | 2.5V | 00:00:00 | 02:43:53 | 00:00:00 | |
| DO3MHA-11 | 2026-09-05 13:11:01 | 45.79492 | 14.16484 | 114° | 82km/h | 13675m | -16.7m/s | -60.6°C | 17.6% | 0hPa | 2.5V | 00:00:00 | 02:43:51 | 00:00:00 | |
| OE5DRO-10 | 2026-09-05 13:11:00 | 45.79500 | 14.16456 | 113° | 82km/h | 13692m | -15.9m/s | -60.7°C | 17.6% | 0hPa | 2.5V | 08:16:00 | 00:00:00 | 00:00:00 | |
| 9A1FER-15 | 2026-09-05 13:10:59 | 45.79508 | 14.16428 | 111° | 82km/h | 13707m | -15.7m/s | -60.8°C | 17.5% | 0hPa | 2.5V | 08:16:00 | 02:43:49 | 00:00:00 | |
| OE8JPQ-2 | 2026-09-05 13:10:56 | 45.79530 | 14.16342 | 109° | 82km/h | 13754m | -16.4m/s | -61.3°C | 17.2% | 0hPa | 2.6V | 00:00:00 | 02:43:46 | 00:00:00 | |
| DO3MHA-11 | 2026-09-05 13:10:51 | 45.79560 | 14.16201 | 107° | 80km/h | 13840m | -17.7m/s | -62.0°C | 16.6% | 0hPa | 2.6V | 00:00:00 | 02:43:41 | 00:00:00 | |
| IV3AMH | 2026-09-05 13:10:50 | 45.79560 | 14.16201 | 108° | 78km/h | 13840m | -17.8m/s | -62.0°C | 11.0% | 0hPa | 2.5V | 08:16:00 | 00:00:00 | 00:00:00 | |
| 9A1FER-3 | 2026-09-05 13:10:48 | 45.79577 | 14.16119 | 106° | 82km/h | 13889m | -16.6m/s | -62.4°C | 16.5% | 0hPa | 2.5V | 00:00:00 | 02:43:38 | 00:00:00 | |
| 9A1FER-15 | 2026-09-05 13:10:44 | 45.79597 | 14.16003 | 102° | 82km/h | 13951m | -13.7m/s | -63.0°C | 16.2% | 0hPa | 2.5V | 00:00:00 | 02:43:34 | 00:00:00 | |
| DO3MHA-11 | 2026-09-05 13:10:41 | 45.79609 | 14.15915 | 101° | 82km/h | 13997m | -12.7m/s | -63.4°C | 16.2% | 0hPa | 2.5V | 00:00:00 | 02:43:31 | 00:00:00 | |
| OE8JPQ-2 | 2026-09-05 13:10:36 | 45.79626 | 14.15769 | 100° | 84km/h | 14072m | -16.3m/s | -64.1°C | 16.2% | 0hPa | 2.5V | 08:16:00 | 00:00:00 | 00:00:00 | |
| 9A1FER-3 | 2026-09-05 13:10:33 | 45.79635 | 14.15680 | 98° | 82km/h | 14121m | -16.2m/s | -64.5°C | 16.5% | 0hPa | 2.6V | 00:00:00 | 02:43:23 | 00:00:00 | |
| DO3MHA-11 | 2026-09-05 13:10:31 | 45.79639 | 14.15620 | 95° | 82km/h | 14153m | -16.4m/s | -64.8°C | 16.7% | 0hPa | 2.6V | 00:00:00 | 02:43:21 | 00:00:00 | |
| 9A1FER-15 | 2026-09-05 13:10:29 | 45.79642 | 14.15560 | 95° | 86km/h | 14185m | -14.5m/s | -65.1°C | 17.1% | 0hPa | 2.6V | 00:00:00 | 02:43:19 | 00:00:00 | |
| OE5DXL-15 | 2026-09-05 13:10:24 | 45.79654 | 14.15413 | 99° | 91km/h | 14257m | -16.8m/s | -65.9°C | 16.7% | 0hPa | 2.6V | 00:00:00 | 00:00:00 | 00:00:00 | |
| DO3MHA-11 | 2026-09-05 13:10:21 | 45.79662 | 14.15325 | 96° | 93km/h | 14305m | -14.7m/s | -66.3°C | 16.6% | 0hPa | 2.6V | 08:16:00 | 02:43:11 | 00:00:00 | |
| 9A1FER-3 | 2026-09-05 13:10:18 | 45.79667 | 14.15230 | 93° | 97km/h | 14352m | -16.9m/s | -66.7°C | 15.9% | 0hPa | 2.5V | 00:00:00 | 02:43:08 | 00:00:00 | |
| OE8JPQ-2 | 2026-09-05 13:10:16 | 45.79670 | 14.15164 | 94° | 95km/h | 14387m | -17.9m/s | -67.1°C | 15.5% | 0hPa | 2.5V | 00:00:00 | 00:00:00 | 00:00:00 | |
| DO3MHA-12 | 2026-09-05 13:10:14 | 45.79675 | 14.15095 | 99° | 86km/h | 14423m | -17.9m/s | -67.2°C | 14.9% | 0hPa | 2.5V | 00:00:00 | 02:43:04 | 00:00:00 | |
| IN3HCDX | 2026-09-05 13:10:13 | 45.79679 | 14.15060 | 99° | 100km/h | 14440m | -16.8m/s | -67.3°C | 7.6% | 0hPa | 2.5V | 08:17:00 | 00:00:00 | 00:00:00 | |
| IV3AMH | 2026-09-05 13:10:12 | 45.79679 | 14.15060 | 99° | 100km/h | 14440m | -16.8m/s | -67.3°C | 7.6% | 0hPa | 2.5V | 00:00:00 | 00:00:00 | 00:00:00 | |
| 9A1FER-3 | 2026-09-05 13:10:03 | 45.79739 | 14.14716 | 107° | 91km/h | 14618m | -19.5m/s | -62.7°C | 9.1% | 0hPa | 2.5V | 08:17:00 | 02:42:53 | 00:00:00 | |
| DO3MHA-11 | 2026-09-05 13:10:01 | 45.79751 | 14.14653 | 105° | 91km/h | 14655m | -18.4m/s | -62.6°C | 9.1% | 0hPa | 2.6V | 00:00:00 | 02:42:51 | 00:00:00 | |
| 9A1FER-15 | 2026-09-05 13:09:59 | 45.79762 | 14.14589 | 103° | 89km/h | 14690m | -17.1m/s | -62.4°C | 8.9% | 0hPa | 2.6V | 00:00:00 | 02:42:49 | 00:00:00 | |
| OE8JPQ-2 | 2026-09-05 13:09:56 | 45.79774 | 14.14493 | 101° | 89km/h | 14742m | -17.9m/s | -62.0°C | 8.6% | 0hPa | 2.6V | 00:00:00 | 02:42:46 | 00:00:00 | |
| OE5DXL-15 | 2026-09-05 13:09:54 | 45.79783 | 14.14430 | 101° | 86km/h | 14779m | -18.6m/s | -61.9°C | 8.4% | 0hPa | 2.6V | 00:00:00 | 00:00:00 | 00:00:00 | |
| S52SK | 2026-09-05 13:09:52 | 45.79787 | 14.14397 | 101° | 93km/h | 14797m | -18.0m/s | -61.9°C | 4.0% | 0hPa | 2.6V | 00:00:00 | 00:00:00 | 00:00:00 | |
| DO3MHA-11 | 2026-09-05 13:09:50 | 45.79800 | 14.14298 | 101° | 88km/h | 14849m | -18.2m/s | -61.6°C | 8.2% | 0hPa | 2.6V | 00:00:00 | 02:42:40 | 00:00:00 | |
| IN3HCDX | 2026-09-05 13:09:49 | 45.79800 | 14.14298 | 101° | 91km/h | 14849m | -18.3m/s | -61.6°C | 3.8% | 0hPa | 2.6V | 08:17:00 | 00:00:00 | 00:00:00 | |
| 9A1FER-3 | 2026-09-05 13:09:48 | 45.79809 | 14.14234 | 102° | 64km/h | 14886m | -18.9m/s | -61.2°C | 7.9% | 0hPa | 2.6V | 00:00:00 | 02:42:38 | 00:00:00 | |
| S52SK | 2026-09-05 13:09:47 | 45.79813 | 14.14203 | 102° | 88km/h | 14905m | -19.5m/s | -60.8°C | 3.5% | 0hPa | 2.6V | 00:00:00 | 00:00:00 | 00:00:00 | |
| 9A1FER-15 | 2026-09-05 13:09:44 | 45.79823 | 14.14111 | 100° | 86km/h | 14962m | -18.9m/s | -60.6°C | 7.4% | 0hPa | 2.6V | 00:00:00 | 02:42:34 | 00:00:00 | |
| DO3MHA-11 | 2026-09-05 13:09:40 | 45.79836 | 14.13986 | 99° | 86km/h | 15037m | -19.1m/s | -60.8°C | 7.3% | 0hPa | 2.6V | 00:00:00 | 02:42:30 | 00:00:00 | |
| OE8JPQ-2 | 2026-09-05 13:09:36 | 45.79849 | 14.13858 | 98° | 80km/h | 15111m | -18.1m/s | -61.1°C | 7.6% | 0hPa | 2.6V | 00:00:00 | 00:00:00 | 00:00:00 | |
| IV3AMH | 2026-09-05 13:09:35 | 45.79849 | 14.13858 | 98° | 88km/h | 15111m | -18.2m/s | -61.2°C | 3.5% | 0hPa | 2.5V | 00:00:00 | 00:00:00 | 00:00:00 | |
| DO3MHA-11 | 2026-09-05 13:09:30 | 45.79862 | 14.13680 | 93° | 78km/h | 15213m | -16.2m/s | -61.3°C | 7.7% | 0hPa | 2.5V | 00:00:00 | 02:42:20 | 00:00:00 | |
| 9A1FER-15 | 2026-09-05 13:09:29 | 45.79863 | 14.13652 | 95° | 77km/h | 15228m | -15.4m/s | -61.3°C | 7.6% | 0hPa | 2.5V | 00:00:00 | 02:42:19 | 00:00:00 | |
| IN3HCDX | 2026-09-05 13:09:28 | 45.79863 | 14.13652 | 96° | 77km/h | 15228m | -15.4m/s | -61.3°C | 3.4% | 0hPa | 2.5V | 08:18:00 | 00:00:00 | 00:00:00 | |
| OE5DRO-10 | 2026-09-05 13:09:25 | 45.79872 | 14.13540 | 99° | 75km/h | 15301m | -19.9m/s | -61.5°C | 7.6% | 0hPa | 2.5V | 00:00:00 | 00:00:00 | 00:00:00 | |
| OE5DXL-15 | 2026-09-05 13:09:24 | 45.79875 | 14.13512 | 99° | 71km/h | 15321m | -19.4m/s | -61.3°C | 7.4% | 0hPa | 2.5V | 00:00:00 | 02:42:14 | 00:00:00 | |
| OE8JPQ-2 | 2026-09-05 13:09:16 | 45.79906 | 14.13294 | 107° | 68km/h | 15469m | -16.7m/s | -61.2°C | 7.0% | 0hPa | 2.5V | 00:00:00 | 00:00:00 | 00:00:00 | |
| DO3MHA-11 | 2026-09-05 13:09:14 | 45.79918 | 14.13242 | 110° | 71km/h | 15504m | -17.6m/s | -61.3°C | 7.1% | 0hPa | 2.5V | 00:00:00 | 02:42:04 | 00:00:00 | |
| IN3HCDX | 2026-09-05 13:09:07 | 45.79959 | 14.13095 | 113° | 71km/h | 15601m | -16.3m/s | -61.1°C | 3.0% | 0hPa | 2.6V | 08:18:00 | 00:00:00 | 00:00:00 | |
| OE5DRO-10 | 2026-09-05 13:09:06 | 45.79985 | 14.13006 | 113° | 66km/h | 15671m | -17.5m/s | -61.2°C | 7.2% | 0hPa | 2.6V | 00:00:00 | 00:00:00 | 00:00:00 | |
| 9A1FER-15 | 2026-09-05 13:08:59 | 45.80010 | 14.12899 | 107° | 66km/h | 15765m | -18.6m/s | -61.5°C | 7.4% | 0hPa | 2.5V | 00:00:00 | 02:41:49 | 00:00:00 | |
| IV3AMH | 2026-09-05 13:08:58 | 45.80010 | 14.12899 | 107° | 64km/h | 15765m | -18.6m/s | -61.6°C | 3.1% | 0hPa | 2.5V | 00:00:00 | 00:00:00 | 00:00:00 | |
| OE8JPQ-2 | 2026-09-05 13:08:56 | 45.80022 | 14.12834 | 103° | 68km/h | 15822m | -20.4m/s | -62.0°C | 7.6% | 0hPa | 2.5V | 00:00:00 | 02:41:46 | 00:00:00 | |
| OE5DXL-15 | 2026-09-05 13:08:54 | 45.80030 | 14.12786 | 105° | 66km/h | 15863m | -19.9m/s | -62.3°C | 7.6% | 0hPa | 2.5V | 00:00:00 | 00:00:00 | 00:00:00 | |
| IN3HCDX1 | 2026-09-05 13:08:50 | 45.80042 | 14.12716 | 105° | 66km/h | 15925m | -20.3m/s | -62.9°C | 3.2% | 0hPa | 2.5V | 00:00:00 | 00:00:00 | 00:00:00 | |
| OE5DRO-10 | 2026-09-05 13:08:47 | 45.80058 | 14.12620 | 103° | 66km/h | 16008m | -20.6m/s | -62.7°C | 8.3% | 0hPa | 2.5V | 00:00:00 | 00:00:00 | 00:00:00 | |
| IN3HCDX | 2026-09-05 13:08:46 | 45.80058 | 14.12620 | 103° | 66km/h | 16008m | -20.6m/s | -62.7°C | 3.3% | 0hPa | 2.5V | 08:18:00 | 00:00:00 | 00:00:00 | |
| 9A1FER-15 | 2026-09-05 13:08:44 | 45.80067 | 14.12549 | 99° | 66km/h | 16062m | -15.6m/s | -61.5°C | 7.8% | 0hPa | 2.5V | 08:18:00 | 02:41:34 | 00:00:00 | |
| DO3MHA-11 | 2026-09-05 13:08:38 | 45.80084 | 14.12405 | 103° | 64km/h | 16169m | -18.8m/s | -59.1°C | 6.0% | 0hPa | 2.6V | 00:00:00 | 02:41:28 | 00:00:00 | |
| OE8JPQ-2 | 2026-09-05 13:08:36 | 45.80091 | 14.12359 | 105° | 58km/h | 16206m | -19.0m/s | -59.0°C | 6.0% | 0hPa | 2.6V | 00:00:00 | 00:00:00 | 00:00:00 | |
| S52SK | 2026-09-05 13:08:31 | 45.80106 | 14.12269 | 102° | 64km/h | 16278m | -17.3m/s | -58.9°C | 2.3% | 0hPa | 2.6V | 00:00:00 | 00:00:00 | 00:00:00 | |
| 9A1FER-15 | 2026-09-05 13:08:29 | 45.80114 | 14.12201 | 99° | 55km/h | 16329m | -17.2m/s | -58.9°C | 5.8% | 0hPa | 2.6V | 00:00:00 | 02:41:19 | 00:00:00 | |
| DO3MHA-11 | 2026-09-05 13:08:28 | 45.80116 | 14.12178 | 99° | 57km/h | 16346m | -16.7m/s | -58.8°C | 5.7% | 0hPa | 2.6V | 00:00:00 | 02:41:18 | 00:00:00 | |
| S52SK | 2026-09-05 13:08:26 | 45.80119 | 14.12156 | 100° | 60km/h | 16364m | -19.4m/s | -58.8°C | 2.2% | 0hPa | 2.6V | 00:00:00 | 00:00:00 | 00:00:00 | |
| IN3HCDX | 2026-09-05 13:08:25 | 45.80120 | 14.12134 | 100° | 60km/h | 16382m | -17.0m/s | -58.9°C | 2.2% | 0hPa | 2.6V | 08:19:00 | 00:00:00 | 00:00:00 | |
| OE5DXL-15 | 2026-09-05 13:08:24 | 45.80125 | 14.12092 | 98° | 49km/h | 16416m | -17.2m/s | -59.1°C | 5.7% | 0hPa | 2.6V | 00:00:00 | 00:00:00 | 00:00:00 | |
| S52SK | 2026-09-05 13:08:22 | 45.80128 | 14.12051 | 97° | 55km/h | 16449m | -16.2m/s | -59.0°C | 2.2% | 0hPa | 2.6V | 00:00:00 | 00:00:00 | 00:00:00 | |
| IV3AMH | 2026-09-05 13:08:20 | 45.80129 | 14.12032 | 95° | 53km/h | 16465m | -16.2m/s | -58.9°C | 2.1% | 0hPa | 2.6V | 08:19:00 | 00:00:00 | 00:00:00 | |
| DO3MHA-11 | 2026-09-05 13:08:18 | 45.80131 | 14.11977 | 95° | 49km/h | 16514m | -17.4m/s | -58.8°C | 5.5% | 0hPa | 2.6V | 08:18:00 | 02:41:08 | 00:00:00 | |
| S52SK | 2026-09-05 13:08:17 | 45.80132 | 14.11960 | 96° | 46km/h | 16530m | -15.6m/s | -58.8°C | 1.9% | 0hPa | 2.5V | 00:00:00 | 00:00:00 | 00:00:00 | |
| OE8JPQ-2 | 2026-09-05 13:08:16 | 45.80133 | 14.11943 | 94° | 47km/h | 16547m | -18.7m/s | -58.9°C | 5.4% | 0hPa | 2.5V | 00:00:00 | 00:00:00 | 00:00:00 | |
| 9A1FER-15 | 2026-09-05 13:08:14 | 45.80135 | 14.11908 | 96° | 47km/h | 16583m | -18.8m/s | -59.1°C | 5.5% | 0hPa | 2.5V | 00:00:00 | 02:41:04 | 00:00:00 | |
| OE5DRO-10 | 2026-09-05 13:08:09 | 45.80139 | 14.11819 | 92° | 47km/h | 16668m | -17.5m/s | -59.5°C | 5.7% | 0hPa | 2.5V | 08:19:00 | 00:00:00 | 00:00:00 | |
| DO3MHA-11 | 2026-09-05 13:08:08 | 45.80140 | 14.11802 | 92° | 46km/h | 16686m | -18.7m/s | -59.7°C | 5.8% | 0hPa | 2.6V | 00:00:00 | 02:40:58 | 00:00:00 | |
| IN3HCDX | 2026-09-05 13:08:03 | 45.80139 | 14.11735 | 92° | 44km/h | 16750m | -14.8m/s | -60.1°C | 2.2% | 0hPa | 2.6V | 08:19:00 | 00:00:00 | 00:00:00 | |
| 9A1FER-15 | 2026-09-05 13:07:59 | 45.80143 | 14.11654 | 96° | 49km/h | 16833m | -18.8m/s | -60.4°C | 6.2% | 0hPa | 2.6V | 00:00:00 | 02:40:49 | 00:00:00 | |
| DO3MHA-11 | 2026-09-05 13:07:58 | 45.80144 | 14.11637 | 95° | 49km/h | 16851m | -18.4m/s | -60.4°C | 6.1% | 0hPa | 2.6V | 00:00:00 | 02:40:48 | 00:00:00 | |
| OE8JPQ-2 | 2026-09-05 13:07:56 | 45.80146 | 14.11603 | 93° | 51km/h | 16889m | -20.5m/s | -60.1°C | 6.0% | 0hPa | 2.6V | 00:00:00 | 02:40:46 | 00:00:00 | |
| OE5DXL-15 | 2026-09-05 13:07:54 | 45.80145 | 14.11567 | 87° | 53km/h | 16927m | -18.2m/s | -60.1°C | 6.0% | 0hPa | 2.6V | 00:00:00 | 00:00:00 | 00:00:00 | |
| 9A1FER-3 | 2026-09-05 13:07:51 | 45.80141 | 14.11513 | 81° | 49km/h | 16981m | -19.2m/s | -59.9°C | 5.8% | 0hPa | 2.5V | 00:00:00 | 02:40:41 | 00:00:00 | |
| OE5DRO-10 | 2026-09-05 13:07:50 | 45.80139 | 14.11495 | 81° | 51km/h | 17001m | -19.4m/s | -59.8°C | 5.8% | 0hPa | 2.5V | 00:00:00 | 00:00:00 | 00:00:00 | |
| DO3MHA-11 | 2026-09-05 13:07:48 | 45.80135 | 14.11460 | 80° | 53km/h | 17035m | -17.2m/s | -59.5°C | 5.6% | 0hPa | 2.5V | 00:00:00 | 02:40:38 | 00:00:00 | |
| 9A1FER-15 | 2026-09-05 13:07:44 | 45.80126 | 14.11388 | 78° | 53km/h | 17110m | -18.9m/s | -58.8°C | 5.3% | 0hPa | 2.5V | 00:00:00 | 02:40:34 | 00:00:00 | |
| IV3AMH | 2026-09-05 13:07:43 | 45.80126 | 14.11388 | 78° | 53km/h | 17110m | -18.9m/s | -58.9°C | 1.8% | 0hPa | 2.5V | 00:00:00 | 00:00:00 | 00:00:00 | |
| DO3MHA-12 | 2026-09-05 13:07:38 | 45.80108 | 14.11274 | 80° | 53km/h | 17222m | -18.8m/s | -59.0°C | 5.5% | 0hPa | 2.5V | 00:00:00 | 02:40:28 | 00:00:00 | |
| 9A1FER-3 | 2026-09-05 13:07:36 | 45.80104 | 14.11238 | 85° | 57km/h | 17257m | -17.6m/s | -59.0°C | 5.5% | 0hPa | 2.5V | 00:00:00 | 02:40:26 | 00:00:00 | |
| IN3HCDX1 | 2026-09-05 13:07:33 | 45.80102 | 14.11201 | 89° | 51km/h | 17293m | -19.7m/s | -59.0°C | 1.8% | 0hPa | 2.5V | 08:20:00 | 00:00:00 | 00:00:00 | |
| OE5DRO-10 | 2026-09-05 13:07:31 | 45.80103 | 14.11145 | 96° | 58km/h | 17347m | -17.8m/s | -58.7°C | 5.4% | 0hPa | 2.5V | 00:00:00 | 00:00:00 | 00:00:00 | |
| 9A1FER-15 | 2026-09-05 13:07:29 | 45.80106 | 14.11107 | 99° | 60km/h | 17382m | -16.4m/s | -58.7°C | 5.3% | 0hPa | 2.5V | 00:00:00 | 02:40:19 | 00:00:00 | |
| DO3MHA-12 | 2026-09-05 13:07:27 | 45.80111 | 14.11068 | 102° | 62km/h | 17415m | -18.1m/s | -58.9°C | 5.4% | 0hPa | 2.5V | 00:00:00 | 02:40:17 | 00:00:00 | |
| OE5DXL-15 | 2026-09-05 13:07:24 | 45.80122 | 14.11006 | 108° | 47km/h | 17470m | -18.8m/s | -58.9°C | 5.5% | 0hPa | 2.6V | 00:00:00 | 00:00:00 | 00:00:00 | |
| IN3HCDX | 2026-09-05 13:07:22 | 45.80127 | 14.10985 | 111° | 62km/h | 17488m | -17.7m/s | -58.5°C | 1.7% | 0hPa | 2.6V | 08:20:00 | 00:00:00 | 00:00:00 | |
| 9A1FER-3 | 2026-09-05 13:07:21 | 45.80139 | 14.10942 | 114° | 55km/h | 17521m | -16.7m/s | -58.3°C | 5.1% | 0hPa | 2.6V | 00:00:00 | 02:40:11 | 00:00:00 | |
| DO3MHA-11 | 2026-09-05 13:07:18 | 45.80160 | 14.10881 | 117° | 53km/h | 17574m | -19.5m/s | -58.3°C | 5.2% | 0hPa | 2.6V | 00:00:00 | 02:40:08 | 00:00:00 | |
| DO3MHA-12 | 2026-09-05 13:07:16 | 45.80173 | 14.10843 | 119° | 51km/h | 17610m | -17.1m/s | -57.9°C | 5.1% | 0hPa | 2.6V | 00:00:00 | 02:40:06 | 00:00:00 | |
| 9A1FER-15 | 2026-09-05 13:07:14 | 45.80186 | 14.10810 | 115° | 42km/h | 17644m | -17.0m/s | -57.2°C | 4.7% | 0hPa | 2.6V | 00:00:00 | 02:40:04 | 00:00:00 | |
| IN3HCDX1 | 2026-09-05 13:07:13 | 45.80186 | 14.10810 | 116° | 51km/h | 17644m | -17.0m/s | -57.2°C | 1.5% | 0hPa | 2.6V | 08:20:00 | 00:00:00 | 00:00:00 | |
| OE5DRO-10 | 2026-09-05 13:07:12 | 45.80194 | 14.10776 | 108° | 40km/h | 17678m | -16.9m/s | -57.3°C | 4.8% | 0hPa | 2.6V | 00:00:00 | 00:00:00 | 00:00:00 | |
| DO3MHA-11 | 2026-09-05 13:07:08 | 45.80208 | 14.10708 | 106° | 38km/h | 17757m | -21.3m/s | -57.7°C | 4.9% | 0hPa | 2.6V | 00:00:00 | 02:39:58 | 00:00:00 | |
| 9A1FER-3 | 2026-09-05 13:07:06 | 45.80214 | 14.10676 | 107° | 38km/h | 17801m | -22.6m/s | -58.0°C | 5.1% | 0hPa | 2.6V | 00:00:00 | 02:39:56 | 00:00:00 | |
| IV3AMH | 2026-09-05 13:07:05 | 45.80214 | 14.10676 | 108° | 44km/h | 17801m | -22.7m/s | -58.0°C | 1.6% | 0hPa | 2.6V | 00:00:00 | 00:00:00 | 00:00:00 | |
| IN3HCDX | 2026-09-05 13:07:02 | 45.80221 | 14.10636 | 97° | 33km/h | 17866m | -22.0m/s | -58.2°C | 1.6% | 0hPa | 2.6V | 08:20:00 | 00:00:00 | 00:00:00 | |
| 9A1FER-15 | 2026-09-05 13:06:59 | 45.80219 | 14.10589 | 78° | 42km/h | 17949m | -21.8m/s | -57.7°C | 5.1% | 0hPa | 2.6V | 00:00:00 | 02:39:49 | 00:00:00 | |
| DO3MHA-11 | 2026-09-05 13:06:58 | 45.80217 | 14.10577 | 82° | 42km/h | 17970m | -19.4m/s | -57.8°C | 5.1% | 0hPa | 2.6V | 00:00:00 | 02:39:48 | 00:00:00 | |
| DO3MHA-12 | 2026-09-05 13:06:56 | 45.80216 | 14.10551 | 87° | 44km/h | 18012m | -23.0m/s | -58.0°C | 5.2% | 0hPa | 2.6V | 08:20:00 | 02:39:46 | 00:00:00 | |
| OE5DXL-15 | 2026-09-05 13:06:54 | 45.80214 | 14.10522 | 89° | 35km/h | 18056m | -22.5m/s | -57.7°C | 5.1% | 0hPa | 2.6V | 00:00:00 | 00:00:00 | 00:00:00 | |
| OE5DRO-10 | 2026-09-05 13:06:53 | 45.80214 | 14.10506 | 92° | 40km/h | 18078m | -22.2m/s | -57.7°C | 5.1% | 0hPa | 2.6V | 00:00:00 | 00:00:00 | 00:00:00 | |
| 9A1FER-3 | 2026-09-05 13:06:51 | 45.80216 | 14.10473 | 100° | 40km/h | 18122m | -21.9m/s | -57.6°C | 5.1% | 0hPa | 2.6V | 00:00:00 | 02:39:41 | 00:00:00 | |
| S52SK | 2026-09-05 13:06:49 | 45.80218 | 14.10456 | 98° | 47km/h | 18144m | -22.3m/s | -57.6°C | 1.6% | 0hPa | 2.6V | 00:00:00 | 00:00:00 | 00:00:00 | |
| DO3MHA-11 | 2026-09-05 13:06:48 | 45.80223 | 14.10422 | 104° | 38km/h | 18187m | -21.9m/s | -56.8°C | 4.8% | 0hPa | 2.6V | 08:20:00 | 02:39:38 | 00:00:00 | |
| DO3MHA-12 | 2026-09-05 13:06:46 | 45.80231 | 14.10394 | 117° | 37km/h | 18229m | -20.8m/s | -56.5°C | 4.7% | 0hPa | 2.6V | 00:00:00 | 02:39:36 | 00:00:00 | |
| 9A1FER-15 | 2026-09-05 13:06:44 | 45.80241 | 14.10369 | 128° | 33km/h | 18272m | -22.2m/s | -56.5°C | 4.7% | 0hPa | 2.6V | 00:00:00 | 02:39:34 | 00:00:00 | |
| IN3HCDX | 2026-09-05 13:06:41 | 45.80254 | 14.10349 | 133° | 35km/h | 18315m | -22.0m/s | -56.7°C | 1.4% | 0hPa | 2.6V | 08:21:00 | 00:00:00 | 00:00:00 | |
| DO3MHA-11 | 2026-09-05 13:06:38 | 45.80277 | 14.10308 | 116° | 29km/h | 18402m | -22.3m/s | -56.1°C | 4.6% | 0hPa | 2.6V | 00:00:00 | 02:39:28 | 00:00:00 | |
| DO3MHA-12 | 2026-09-05 13:06:36 | 45.80284 | 14.10286 | 111° | 27km/h | 18443m | -20.2m/s | -56.0°C | 4.5% | 0hPa | 2.6V | 00:00:00 | 02:39:26 | 00:00:00 | |
| OE5DRO-10 | 2026-09-05 13:06:34 | 45.80288 | 14.10264 | 106° | 29km/h | 18484m | -20.9m/s | -56.1°C | 4.5% | 0hPa | 2.6V | 00:00:00 | 00:00:00 | 00:00:00 | |
| IN3HCDX1 | 2026-09-05 13:06:32 | 45.80290 | 14.10253 | 110° | 29km/h | 18505m | -21.0m/s | -56.1°C | 1.4% | 0hPa | 2.6V | 08:21:00 | 00:00:00 | 00:00:00 | |
| 9A1FER-15 | 2026-09-05 13:06:29 | 45.80297 | 14.10217 | 105° | 29km/h | 18586m | -20.4m/s | -56.0°C | 4.5% | 0hPa | 2.6V | 08:20:00 | 02:39:19 | 00:00:00 | |
| DO3MHA-11 | 2026-09-05 13:06:28 | 45.80299 | 14.10209 | 98° | 29km/h | 18607m | -20.6m/s | -56.0°C | 4.5% | 0hPa | 2.6V | 00:00:00 | 02:39:18 | 00:00:00 | |
| IV3AMH | 2026-09-05 13:06:27 | 45.80299 | 14.10209 | 98° | 20km/h | 18607m | -20.6m/s | -56.0°C | 1.4% | 0hPa | 2.6V | 00:00:00 | 00:00:00 | 00:00:00 | |
| DO3MHA-12 | 2026-09-05 13:06:26 | 45.80299 | 14.10193 | 94° | 31km/h | 18649m | -22.7m/s | -55.9°C | 4.5% | 0hPa | 2.6V | 00:00:00 | 02:39:16 | 00:00:00 | |
| OE5DXL-15 | 2026-09-05 13:06:24 | 45.80300 | 14.10175 | 96° | 27km/h | 18693m | -19.9m/s | -55.9°C | 4.5% | 0hPa | 2.6V | 08:20:00 | 00:00:00 | 00:00:00 | |
| 9A1FER-3 | 2026-09-05 13:06:21 | 45.80302 | 14.10141 | 98° | 31km/h | 18749m | -18.0m/s | -55.8°C | 4.5% | 0hPa | 2.6V | 00:00:00 | 02:39:11 | 00:00:00 | |
| PG1ADW-2 | 2026-09-05 13:06:20 | 45.80303 | 14.10129 | 99° | 33km/h | 18767m | -18.2m/s | 0°C | 0% | 0hPa | 2.6V | 00:00:00 | 00:00:00 | 00:00:00 | |
| DO3MHA-11 | 2026-09-05 13:06:18 | 45.80308 | 14.10103 | 109° | 31km/h | 18804m | -19.6m/s | -55.6°C | 4.3% | 0hPa | 2.6V | 00:00:00 | 02:39:08 | 00:00:00 | |
| DO3MHA-12 | 2026-09-05 13:06:16 | 45.80314 | 14.10080 | 114° | 29km/h | 18843m | -18.4m/s | -55.7°C | 4.5% | 0hPa | 2.6V | 00:00:00 | 02:39:06 | 00:00:00 | |
| OE5DRO-10 | 2026-09-05 13:06:15 | 45.80317 | 14.10069 | 120° | 26km/h | 18861m | -18.1m/s | -55.7°C | 4.4% | 0hPa | 2.6V | 00:00:00 | 00:00:00 | 00:00:00 | |
| 9A1FER-15 | 2026-09-05 13:06:14 | 45.80321 | 14.10059 | 120° | 26km/h | 18880m | -18.8m/s | -55.5°C | 4.3% | 0hPa | 2.6V | 00:00:00 | 02:39:04 | 00:00:00 | |
| IN3HCDX1 | 2026-09-05 13:06:11 | 45.80330 | 14.10041 | 131° | 29km/h | 18920m | -21.7m/s | -55.4°C | 1.3% | 0hPa | 2.6V | 08:21:00 | 00:00:00 | 00:00:00 | |
| DO3MHA-11 | 2026-09-05 13:06:08 | 45.80349 | 14.10008 | 134° | 22km/h | 18996m | -18.4m/s | -55.6°C | 4.4% | 0hPa | 2.6V | 00:00:00 | 02:38:58 | 00:00:00 | |
| 9A1FER-3 | 2026-09-05 13:06:06 | 45.80358 | 14.09995 | 135° | 26km/h | 19032m | -17.4m/s | -55.7°C | 4.5% | 0hPa | 2.6V | 08:21:00 | 02:38:56 | 00:00:00 | |
| DO3MHA-12 | 2026-09-05 13:06:05 | 45.80362 | 14.09988 | 127° | 22km/h | 19049m | -17.0m/s | -55.7°C | 4.4% | 0hPa | 2.6V | 00:00:00 | 02:38:55 | 00:00:00 | |
| 9A1FER-15 | 2026-09-05 13:05:59 | 45.80365 | 14.09946 | 86° | 24km/h | 19167m | -22.1m/s | -55.4°C | 4.1% | 0hPa | 2.6V | 00:00:00 | 02:38:49 | 00:00:00 | |
| DO3MHA-11 | 2026-09-05 13:05:58 | 45.80365 | 14.09938 | 88° | 24km/h | 19190m | -23.7m/s | -55.4°C | 4.1% | 0hPa | 2.6V | 00:00:00 | 02:38:48 | 00:00:00 | |
| OE8JPQ-2 | 2026-09-05 13:05:56 | 45.80365 | 14.09920 | 91° | 20km/h | 19234m | -20.9m/s | -55.5°C | 4.1% | 0hPa | 2.6V | 00:00:00 | 02:38:46 | 00:00:00 | |
| DO3MHA-12 | 2026-09-05 13:05:55 | 45.80365 | 14.09911 | 95° | 24km/h | 19254m | -18.4m/s | -55.6°C | 4.2% | 0hPa | 2.6V | 00:00:00 | 02:38:45 | 00:00:00 | |
| OE5DXL-15 | 2026-09-05 13:05:54 | 45.80365 | 14.09903 | 94° | 20km/h | 19271m | -15.6m/s | -55.7°C | 4.3% | 0hPa | 2.6V | 00:00:00 | 00:00:00 | 00:00:00 | |
| IN3HCDX1 | 2026-09-05 13:05:51 | 45.80368 | 14.09876 | 101° | 26km/h | 19319m | -16.7m/s | -55.9°C | 1.3% | 0hPa | 2.6V | 08:21:00 | 00:00:00 | 00:00:00 | |
| IV3AMH | 2026-09-05 13:05:50 | 45.80368 | 14.09876 | 101° | 26km/h | 19319m | -16.7m/s | -55.9°C | 1.3% | 0hPa | 2.6V | 08:21:00 | 00:00:00 | 00:00:00 | |
| PG1ADW-2 | 2026-09-05 13:05:49 | 45.80370 | 14.09858 | 105° | 26km/h | 19352m | -16.4m/s | 0°C | 0% | 0hPa | 2.6V | 00:00:00 | 00:00:00 | 00:00:00 | |
| DO3MHA-11 | 2026-09-05 13:05:48 | 45.80372 | 14.09850 | 108° | 16km/h | 19369m | -19.0m/s | -56.0°C | 4.2% | 0hPa | 2.6V | 00:00:00 | 02:38:38 | 00:00:00 | |
| DO3MHA-12 | 2026-09-05 13:05:45 | 45.80378 | 14.09832 | 119° | 15km/h | 19423m | -18.7m/s | -56.2°C | 4.4% | 0hPa | 2.6V | 00:00:00 | 02:38:35 | 00:00:00 | |
| 9A1FER-15 | 2026-09-05 13:05:44 | 45.80380 | 14.09827 | 110° | 15km/h | 19440m | -15.6m/s | -56.2°C | 4.3% | 0hPa | 2.6V | 00:00:00 | 02:38:34 | 00:00:00 | |
| DO3MHA-11 | 2026-09-05 13:05:38 | 45.80375 | 14.09797 | 55° | 18km/h | 19549m | -19.7m/s | -56.7°C | 4.4% | 0hPa | 2.6V | 00:00:00 | 02:38:28 | 00:00:00 | |
| OE5DRO-10 | 2026-09-05 13:05:37 | 45.80372 | 14.09793 | 49° | 24km/h | 19568m | -18.6m/s | -56.8°C | 4.5% | 0hPa | 2.6V | 00:00:00 | 00:00:00 | 00:00:00 | |
| OE8JPQ-2 | 2026-09-05 13:05:36 | 45.80370 | 14.09790 | 42° | 24km/h | 19586m | -17.6m/s | -56.9°C | 4.6% | 0hPa | 2.6V | 00:00:00 | 00:00:00 | 00:00:00 | |
| DO3MHA-12 | 2026-09-05 13:05:35 | 45.80368 | 14.09787 | 47° | 29km/h | 19603m | -15.9m/s | -57.0°C | 4.7% | 0hPa | 2.6V | 00:00:00 | 02:38:25 | 00:00:00 | |
| IN3HCDX1 | 2026-09-05 13:05:31 | 45.80360 | 14.09770 | 65° | 20km/h | 19672m | -18.3m/s | -57.3°C | 1.4% | 0hPa | 2.6V | 08:21:00 | 00:00:00 | 00:00:00 | |
| 9A1FER-15 | 2026-09-05 13:05:29 | 45.80354 | 14.09753 | 69° | 29km/h | 19709m | -18.2m/s | -57.4°C | 4.8% | 0hPa | 2.6V | 00:00:00 | 02:38:19 | 00:00:00 | |
| DO3MHA-11 | 2026-09-05 13:05:28 | 45.80351 | 14.09742 | 67° | 27km/h | 19728m | -20.0m/s | -57.5°C | 4.8% | 0hPa | 2.6V | 00:00:00 | 02:38:18 | 00:00:00 | |
| DO3MHA-12 | 2026-09-05 13:05:25 | 45.80342 | 14.09707 | 71° | 24km/h | 19792m | -20.7m/s | -57.9°C | 5.0% | 0hPa | 2.6V | 08:21:00 | 02:38:15 | 00:00:00 | |
| OE5DXL-15 | 2026-09-05 13:05:24 | 45.80339 | 14.09697 | 74° | 20km/h | 19812m | -21.3m/s | -58.0°C | 5.1% | 0hPa | 2.6V | 00:00:00 | 00:00:00 | 00:00:00 | |
| S52SK | 2026-09-05 13:05:22 | 45.80338 | 14.09688 | 82° | 26km/h | 19833m | -20.6m/s | -57.9°C | 1.5% | 0hPa | 2.6V | 00:00:00 | 00:00:00 | 00:00:00 | |
| DO3MHA-11 | 2026-09-05 13:05:18 | 45.80338 | 14.09645 | 96° | 26km/h | 19924m | -15.8m/s | -57.7°C | 5.2% | 0hPa | 2.6V | 08:21:00 | 02:38:08 | 00:00:00 | |
| S52SK | 2026-09-05 13:05:17 | 45.80338 | 14.09645 | 97° | 29km/h | 19924m | -15.8m/s | -57.8°C | 1.4% | 0hPa | 2.6V | 00:00:00 | 00:00:00 | 00:00:00 | |
| OE8JPQ-2 | 2026-09-05 13:05:16 | 45.80339 | 14.09623 | 89° | 18km/h | 19956m | -17.0m/s | -57.4°C | 5.1% | 0hPa | 2.6V | 00:00:00 | 00:00:00 | 00:00:00 | |
| 9A1FER-3 | 2026-09-05 13:05:15 | 45.80339 | 14.09611 | 89° | 18km/h | 19974m | -17.5m/s | -57.2°C | 4.9% | 0hPa | 2.6V | 00:00:00 | 02:38:05 | 00:00:00 | |
| 9A1FER-15 | 2026-09-05 13:05:14 | 45.80338 | 14.09600 | 89° | 16km/h | 19991m | -17.1m/s | -57.0°C | 4.8% | 0hPa | 2.6V | 00:00:00 | 02:38:04 | 00:00:00 | |
| IV3AMH | 2026-09-05 13:05:13 | 45.80339 | 14.09600 | 90° | 27km/h | 19991m | -17.1m/s | -57.1°C | 1.4% | 0hPa | 2.6V | 00:00:00 | 00:00:00 | 00:00:00 | |
| PG1ADW-2 | 2026-09-05 13:05:11 | 45.80338 | 14.09575 | 90° | 18km/h | 20045m | -18.6m/s | 0°C | 0% | 0hPa | 2.6V | 00:00:00 | 02:38:01 | 00:00:00 | |
| IN3HCDX1 | 2026-09-05 13:05:09 | 45.80338 | 14.09568 | 89° | 18km/h | 20064m | -20.6m/s | -56.6°C | 1.3% | 0hPa | 2.6V | 08:22:00 | 00:00:00 | 00:00:00 | |
| 9A1FER-3 | 2026-09-05 13:05:00 | 45.80321 | 14.09531 | 9° | 24km/h | 20263m | -18.0m/s | -56.7°C | 4.6% | 0hPa | 2.6V | 00:00:00 | 02:37:50 | 00:00:00 | |
| 9A1FER-15 | 2026-09-05 13:04:59 | 45.80317 | 14.09530 | 17° | 26km/h | 20280m | -16.4m/s | 0°C | 0% | 0hPa | 2.6V | 00:00:00 | 02:37:49 | 00:00:00 | |
| DO3MHA-11 | 2026-09-05 13:04:58 | 45.80312 | 14.09527 | 25° | 24km/h | 20297m | -16.7m/s | -56.7°C | 4.7% | 0hPa | 2.6V | 00:00:00 | 02:37:48 | 00:00:00 | |
| OE8JPQ-2 | 2026-09-05 13:04:56 | 45.80303 | 14.09519 | 36° | 27km/h | 20328m | -15.9m/s | -56.7°C | 4.7% | 0hPa | 2.6V | 00:00:00 | 02:37:46 | 00:00:00 | |
| OE5DXL-15 | 2026-09-05 13:04:54 | 45.80294 | 14.09508 | 48° | 24km/h | 20363m | -18.4m/s | -56.6°C | 4.7% | 0hPa | 2.6V | 00:00:00 | 00:00:00 | 00:00:00 | |
| PG1ADW-2 | 2026-09-05 13:04:51 | 45.80283 | 14.09488 | 54° | 26km/h | 20422m | -19.9m/s | 0°C | 0% | 0hPa | 2.6V | 00:00:00 | 00:00:00 | 00:00:00 | |
| DO3MHA-11 | 2026-09-05 13:04:48 | 45.80274 | 14.09464 | 69° | 22km/h | 20480m | -18.7m/s | -56.4°C | 4.7% | 0hPa | 2.6V | 00:00:00 | 02:37:38 | 00:00:00 | |
| 9A1FER-3 | 2026-09-05 13:04:45 | 45.80268 | 14.09433 | 78° | 26km/h | 20532m | -19.2m/s | -56.6°C | 4.7% | 0hPa | 2.6V | 00:00:00 | 02:37:35 | 00:00:00 | |
| 9A1FER-15 | 2026-09-05 13:04:44 | 45.80266 | 14.09421 | 83° | 24km/h | 20551m | -20.7m/s | 0°C | 0% | 0hPa | 2.6V | 00:00:00 | 02:37:34 | 00:00:00 | |
| OE5DRO-10 | 2026-09-05 13:04:40 | 45.80266 | 14.09375 | 97° | 18km/h | 20644m | -24.8m/s | -56.4°C | 4.6% | 0hPa | 2.6V | 00:00:00 | 00:00:00 | 00:00:00 | |
| OE8JPQ-2 | 2026-09-05 13:04:36 | 45.80270 | 14.09339 | 101° | 16km/h | 20744m | -21.8m/s | -55.9°C | 4.4% | 0hPa | 2.6V | 08:22:00 | 00:00:00 | 00:00:00 | |
| IN3HCDX | 2026-09-05 13:04:34 | 45.80272 | 14.09331 | 114° | 22km/h | 20766m | -22.5m/s | -55.9°C | 1.3% | 0hPa | 2.6V | 00:00:00 | 00:00:00 | 00:00:00 | |
| PG1ADW-2 | 2026-09-05 13:04:30 | 45.80284 | 14.09303 | 138° | 15km/h | 20887m | -23.7m/s | 0°C | 0% | 0hPa | 2.6V | 00:00:00 | 00:00:00 | 00:00:00 | |
| 9A1FER-15 | 2026-09-05 13:04:29 | 45.80287 | 14.09300 | 142° | 15km/h | 20910m | -23.2m/s | 0°C | 0% | 0hPa | 2.6V | 00:00:00 | 02:37:19 | 00:00:00 | |
| IN3HCDX1 | 2026-09-05 13:04:28 | 45.80287 | 14.09300 | 143° | 15km/h | 20910m | -23.3m/s | -56.2°C | 1.3% | 0hPa | 2.6V | 08:22:00 | 00:00:00 | 00:00:00 | |
| OE5DXL-15 | 2026-09-05 13:04:24 | 45.80298 | 14.09286 | 100° | 13km/h | 21027m | -25.3m/s | -55.5°C | 4.5% | 0hPa | 2.6V | 00:00:00 | 00:00:00 | 00:00:00 | |
| OE5DRO-10 | 2026-09-05 13:04:21 | 45.80296 | 14.09271 | 62° | 15km/h | 21106m | -24.1m/s | -56.1°C | 4.8% | 0hPa | 2.6V | 00:00:00 | 00:00:00 | 00:00:00 | |
| OE8JPQ-2 | 2026-09-05 13:04:16 | 45.80284 | 14.09241 | 78° | 11km/h | 21238m | -28.4m/s | -55.3°C | 4.4% | 0hPa | 2.6V | 00:00:00 | 00:00:00 | 00:00:00 | |
| 9A1FER-3 | 2026-09-05 13:04:15 | 45.80283 | 14.09236 | 79° | 11km/h | 21266m | -27.6m/s | -55.4°C | 4.5% | 0hPa | 2.6V | 00:00:00 | 02:37:05 | 00:00:00 | |
| 9A1FER-15 | 2026-09-05 13:04:14 | 45.80282 | 14.09230 | 79° | 16km/h | 21293m | -27.1m/s | 0°C | 0% | 0hPa | 2.6V | 00:00:00 | 02:37:04 | 00:00:00 | |
| IN3HCDX | 2026-09-05 13:04:13 | 45.80282 | 14.09230 | 79° | 16km/h | 21293m | -27.1m/s | -55.5°C | 1.2% | 0hPa | 2.6V | 08:23:00 | 00:00:00 | 00:00:00 | |
| PG1ADW-2 | 2026-09-05 13:04:10 | 45.80282 | 14.09208 | 83° | 9km/h | 21400m | -25.6m/s | 0°C | 0% | 0hPa | 2.6V | 00:00:00 | 00:00:00 | 00:00:00 | |
| IN3HCDX1 | 2026-09-05 13:04:08 | 45.80282 | 14.09204 | 80° | 9km/h | 21424m | -23.9m/s | -55.0°C | 1.2% | 0hPa | 2.6V | 08:23:00 | 00:00:00 | 00:00:00 | |
| DB0ND-19 | 2026-09-05 13:03:57 | 45.80273 | 14.09179 | 33° | 11km/h | 21729m | -24.8m/s | -54.1°C | 1.0% | -1.0hPa | 2.6V | 00:00:00 | 00:00:00 | 00:00:00 | |
| OE8JPQ-2 | 2026-09-05 13:03:56 | 45.80270 | 14.09176 | 33° | 16km/h | 21753m | -22.3m/s | -54.2°C | 4.2% | 0hPa | 2.6V | 00:00:00 | 02:36:46 | 00:00:00 | |
| OE5DXL-15 | 2026-09-05 13:03:54 | 45.80263 | 14.09170 | 33° | 13km/h | 21797m | -22.6m/s | -54.0°C | 4.2% | 0hPa | 2.6V | 00:00:00 | 00:00:00 | 00:00:00 | |
| IN3HCDX | 2026-09-05 13:03:52 | 45.80260 | 14.09167 | 36° | 15km/h | 21820m | -22.3m/s | -53.9°C | 1.1% | 0hPa | 2.6V | 08:23:00 | 00:00:00 | 00:00:00 | |
| S52SK | 2026-09-05 13:03:51 | 45.80257 | 14.09164 | 39° | 13km/h | 21842m | -22.2m/s | -53.7°C | 1.1% | 0hPa | 2.6V | 00:00:00 | 00:00:00 | 00:00:00 | |
| PG1ADW-2 | 2026-09-05 13:03:50 | 45.80251 | 14.09159 | 35° | 16km/h | 21885m | -21.4m/s | 0°C | 0% | 0hPa | 2.6V | 00:00:00 | 02:36:40 | 00:00:00 | |
| IN3HCDX1 | 2026-09-05 13:03:47 | 45.80244 | 14.09150 | 40° | 24km/h | 21929m | -22.9m/s | -53.2°C | 1.0% | 0hPa | 2.6V | 08:23:00 | 00:00:00 | 00:00:00 | |
| S52SK | 2026-09-05 13:03:46 | 45.80239 | 14.09145 | 36° | 24km/h | 21953m | -24.7m/s | -53.2°C | 1.0% | 0hPa | 2.6V | 00:00:00 | 00:00:00 | 00:00:00 | |
| 9A1FER-3 | 2026-09-05 13:03:45 | 45.80230 | 14.09133 | 44° | 11km/h | 22000m | -22.7m/s | -53.3°C | 4.1% | 0hPa | 2.6V | 00:00:00 | 02:36:35 | 00:00:00 | |
| OE5DRO-10 | 2026-09-05 13:03:43 | 45.80223 | 14.09123 | 64° | 9km/h | 22042m | -20.6m/s | -53.5°C | 4.2% | 0hPa | 2.6V | 00:00:00 | 00:00:00 | 00:00:00 | |
| OE8JPQ-2 | 2026-09-05 13:03:36 | 45.80230 | 14.09104 | 128° | 11km/h | 22185m | -19.8m/s | -52.5°C | 4.0% | 0hPa | 2.6V | 00:00:00 | 00:00:00 | 00:00:00 | |
| NBG1-10 | 2026-09-05 13:03:33 | 45.80226 | 14.09100 | 29° | 22km/h | 22242m | -19.3m/s | -52.1°C | 3.8% | 0hPa | 2.7V | 00:00:00 | 02:36:23 | 00:00:00 | |
| IN3HCDX | 2026-09-05 13:03:31 | 45.80224 | 14.09098 | 45° | 9km/h | 22262m | -20.1m/s | -51.9°C | 0.9% | 0hPa | 2.7V | 00:00:00 | 00:00:00 | 00:00:00 | |
| 9A1FER-3 | 2026-09-05 13:03:30 | 45.80223 | 14.09096 | 170° | 13km/h | 22306m | -22.7m/s | -51.8°C | 3.7% | 0hPa | 2.7V | 00:00:00 | 02:36:20 | 00:00:00 | |
| IN3HCDX1 | 2026-09-05 13:03:27 | 45.80227 | 14.09097 | 216° | 9km/h | 22347m | -20.4m/s | -51.8°C | 0.9% | 0hPa | 2.7V | 08:24:00 | 00:00:00 | 00:00:00 | |
| OE5DXL-15 | 2026-09-05 13:03:24 | 45.80230 | 14.09109 | 282° | 20km/h | 22433m | -22.8m/s | -51.0°C | 3.3% | 0hPa | 2.7V | 00:00:00 | 00:00:00 | 00:00:00 | |
| IV3AMH | 2026-09-05 13:03:21 | 45.80227 | 14.09116 | 309° | 13km/h | 22475m | -19.6m/s | -50.6°C | 0.8% | 0hPa | 2.6V | 00:00:00 | 00:00:00 | 00:00:00 | |
| OE8JPQ-2 | 2026-09-05 13:03:16 | 45.80210 | 14.09145 | 310° | 22km/h | 22587m | -18.2m/s | -50.8°C | 3.3% | 0hPa | 2.6V | 00:00:00 | 00:00:00 | 00:00:00 | |
| 9A1FER-3 | 2026-09-05 13:03:15 | 45.80207 | 14.09151 | 309° | 22km/h | 22606m | -20.6m/s | -51.0°C | 3.3% | 0hPa | 2.6V | 08:23:00 | 02:36:05 | 00:00:00 | |
| OE5WHR-10 | 2026-09-05 13:03:12 | 45.80197 | 14.09164 | 337° | 22km/h | 22670m | -21.6m/s | -51.5°C | 3.5% | 0hPa | 2.6V | 00:00:00 | 02:36:02 | 00:00:00 | |
| IN3HCDX | 2026-09-05 13:03:10 | 45.80192 | 14.09167 | 334° | 20km/h | 22690m | -19.3m/s | -51.8°C | 0.9% | 0hPa | 2.6V | 00:00:00 | 00:00:00 | 00:00:00 | |
| IN3HCDX1 | 2026-09-05 13:03:06 | 45.80170 | 14.09177 | 347° | 26km/h | 22768m | -20.7m/s | -52.3°C | 0.9% | 0hPa | 2.6V | 08:24:00 | 00:00:00 | 00:00:00 | |
| OE5DRO-10 | 2026-09-05 13:03:05 | 45.80156 | 14.09181 | 351° | 26km/h | 22810m | -21.5m/s | -52.2°C | 3.7% | 0hPa | 2.6V | 00:00:00 | 00:00:00 | 00:00:00 | |
| DB0ND-19 | 2026-09-05 13:02:55 | 45.80099 | 14.09183 | 358° | 24km/h | 23032m | -22.2m/s | -52.3°C | 0.8% | -1.0hPa | 2.6V | 00:00:00 | 00:00:00 | 00:00:00 | |
| OE5DXL-15 | 2026-09-05 13:02:54 | 45.80093 | 14.09182 | 7° | 18km/h | 23056m | -25.4m/s | -52.4°C | 3.6% | 0hPa | 2.6V | 00:00:00 | 00:00:00 | 00:00:00 | |
| OE5WHR-10 | 2026-09-05 13:02:51 | 45.80075 | 14.09175 | 31° | 18km/h | 23128m | -24.4m/s | -52.5°C | 3.6% | 0hPa | 2.6V | 00:00:00 | 00:00:00 | 00:00:00 | |
| IN3HCDX | 2026-09-05 13:02:49 | 45.80069 | 14.09168 | 42° | 31km/h | 23152m | -24.9m/s | -52.7°C | 0.9% | 0hPa | 2.6V | 00:00:00 | 00:00:00 | 00:00:00 | |
| OE5DRO-10 | 2026-09-05 13:02:46 | 45.80049 | 14.09135 | 54° | 15km/h | 23245m | -21.0m/s | -52.9°C | 3.8% | 0hPa | 2.6V | 00:00:00 | 00:00:00 | 00:00:00 | |
| 9A1FER-3 | 2026-09-05 13:02:45 | 45.80045 | 14.09128 | 46° | 15km/h | 23265m | -20.1m/s | -53.0°C | 3.8% | 0hPa | 2.6V | 00:00:00 | 02:35:35 | 00:00:00 | |
| IV3AMH | 2026-09-05 13:02:44 | 45.80045 | 14.09128 | 46° | 22km/h | 23265m | -20.1m/s | -53.0°C | 1.0% | 0hPa | 2.6V | 00:00:00 | 00:00:00 | 00:00:00 | |
| OE8JPQ-2 | 2026-09-05 13:02:36 | 45.80031 | 14.09087 | 81° | 15km/h | 23481m | -27.4m/s | -53.3°C | 3.9% | 0hPa | 2.6V | 00:00:00 | 00:00:00 | 00:00:00 | |
| S52SK | 2026-09-05 13:02:32 | 45.80029 | 14.09072 | 63° | 11km/h | 23561m | -25.2m/s | -53.5°C | 1.0% | 0hPa | 2.6V | 00:00:00 | 00:00:00 | 00:00:00 | |
| 9A1FER-3 | 2026-09-05 13:02:30 | 45.80022 | 14.09065 | 21° | 13km/h | 23633m | -25.6m/s | -53.4°C | 4.0% | 0hPa | 2.6V | 00:00:00 | 02:35:20 | 00:00:00 | |
| IN3HCDX | 2026-09-05 13:02:29 | 45.80018 | 14.09064 | 22° | 16km/h | 23657m | -23.1m/s | -53.5°C | 1.0% | 0hPa | 2.7V | 00:00:00 | 00:00:00 | 00:00:00 | |
| OE5DRO-10 | 2026-09-05 13:02:27 | 45.80009 | 14.09059 | 25° | 16km/h | 23702m | -23.5m/s | -53.5°C | 4.1% | 0hPa | 2.7V | 08:24:00 | 00:00:00 | 00:00:00 | |
| OE5WHR-10 | 2026-09-05 13:02:26 | 45.80005 | 14.09056 | 28° | 16km/h | 23725m | -22.0m/s | -53.5°C | 4.1% | 0hPa | 2.7V | 00:00:00 | 00:00:00 | 00:00:00 | |
| OE5DXL-15 | 2026-09-05 13:02:24 | 45.79996 | 14.09048 | 33° | 16km/h | 23766m | -19.8m/s | -53.4°C | 4.1% | 0hPa | 2.7V | 00:00:00 | 00:00:00 | 00:00:00 | |
| S52SK | 2026-09-05 13:02:21 | 45.79990 | 14.09042 | 31° | 15km/h | 23805m | -18.4m/s | -53.4°C | 1.0% | 0hPa | 2.7V | 00:00:00 | 00:00:00 | 00:00:00 | |
| DO3MHA-11 | 2026-09-05 13:02:19 | 45.79980 | 14.09036 | 13° | 15km/h | 23866m | -21.8m/s | -53.3°C | 4.2% | 0hPa | 2.7V | 00:00:00 | 02:35:09 | 00:00:00 | |
| OE8JPQ-2 | 2026-09-05 13:02:16 | 45.79971 | 14.09032 | 21° | 16km/h | 23932m | -22.5m/s | -53.1°C | 4.1% | 0hPa | 2.7V | 00:00:00 | 00:00:00 | 00:00:00 | |
| 9A1FER-3 | 2026-09-05 13:02:15 | 45.79968 | 14.09031 | 21° | 18km/h | 23953m | -20.9m/s | -52.8°C | 4.0% | 0hPa | 2.7V | 00:00:00 | 02:35:05 | 00:00:00 | |
| DO3MHA-11 | 2026-09-05 13:02:09 | 45.79949 | 14.09010 | 64° | 18km/h | 24083m | -23.0m/s | -52.3°C | 3.8% | 0hPa | 2.7V | 00:00:00 | 02:34:59 | 00:00:00 | |
| OE5DRO-10 | 2026-09-05 13:02:08 | 45.79947 | 14.09005 | 65° | 18km/h | 24107m | -25.4m/s | -52.3°C | 3.8% | 0hPa | 2.7V | 00:00:00 | 00:00:00 | 00:00:00 | |
| IV3AMH | 2026-09-05 13:02:06 | 45.79945 | 14.09000 | 69° | 16km/h | 24132m | -24.4m/s | -52.4°C | 1.0% | 0hPa | 2.7V | 00:00:00 | 00:00:00 | 00:00:00 | |
| OE5WHR-10 | 2026-09-05 13:02:04 | 45.79942 | 14.08980 | 84° | 16km/h | 24202m | -23.9m/s | -51.9°C | 3.7% | 0hPa | 2.7V | 00:00:00 | 02:34:54 | 00:00:00 | |
| DB0ND-19 | 2026-09-05 13:01:53 | 45.79942 | 14.08902 | 84° | 22km/h | 24496m | -25.2m/s | -51.6°C | 0.8% | -1.0hPa | 2.7V | 00:00:00 | 00:00:00 | 00:00:00 | |
| DO3MHA-12 | 2026-09-05 13:01:51 | 45.79941 | 14.08895 | 82° | 18km/h | 24521m | -24.8m/s | -51.7°C | 3.7% | 0hPa | 2.7V | 00:00:00 | 02:34:41 | 00:00:00 | |
| DO3MHA-11 | 2026-09-05 13:01:49 | 45.79939 | 14.08881 | 78° | 13km/h | 24567m | -22.1m/s | -51.7°C | 3.7% | 0hPa | 2.7V | 00:00:00 | 02:34:39 | 00:00:00 | |
| PG1ADW-2 | 2026-09-05 13:01:45 | 45.79938 | 14.08866 | 75° | 16km/h | 24666m | -24.0m/s | 0°C | 0% | 0hPa | 2.7V | 00:00:00 | 00:00:00 | 00:00:00 | |
| IN3HCDX1 | 2026-09-05 13:01:43 | 45.79937 | 14.08862 | 78° | 13km/h | 24690m | -24.2m/s | -51.4°C | 0.9% | 0hPa | 2.7V | 08:26:00 | 00:00:00 | 00:00:00 | |
| NBG1-10 | 2026-09-05 13:01:42 | 45.79934 | 14.08853 | 64° | 18km/h | 24738m | -24.0m/s | -51.2°C | 3.6% | 0hPa | 2.7V | 00:00:00 | 02:34:32 | 00:00:00 | |
| 9A1FER-3 | 2026-09-05 13:01:41 | 45.79932 | 14.08848 | 54° | 13km/h | 24763m | -24.4m/s | -51.2°C | 3.6% | 0hPa | 2.7V | 00:00:00 | 02:34:31 | 00:00:00 | |
| DO3MHA-11 | 2026-09-05 13:01:39 | 45.79927 | 14.08837 | 54° | 16km/h | 24813m | -26.2m/s | -51.3°C | 3.6% | 0hPa | 2.6V | 00:00:00 | 02:34:29 | 00:00:00 | |
| OE8JPQ-2 | 2026-09-05 13:01:36 | 45.79920 | 14.08821 | 66° | 16km/h | 24892m | -25.1m/s | -51.3°C | 3.6% | 0hPa | 2.6V | 08:25:00 | 00:00:00 | 00:00:00 | |
| OE5WHR-10 | 2026-09-05 13:01:33 | 45.79917 | 14.08807 | 85° | 15km/h | 24960m | -19.5m/s | -51.2°C | 3.7% | 0hPa | 2.7V | 00:00:00 | 00:00:00 | 00:00:00 | |
| OE5DRO-10 | 2026-09-05 13:01:30 | 45.79914 | 14.08789 | 82° | 15km/h | 25024m | -25.2m/s | -51.3°C | 3.6% | 0hPa | 2.6V | 00:00:00 | 00:00:00 | 00:00:00 | |
| DO3MHA-12 | 2026-09-05 13:01:29 | 45.79914 | 14.08782 | 82° | 20km/h | 25050m | -24.6m/s | -51.4°C | 3.8% | 0hPa | 2.7V | 00:00:00 | 02:34:19 | 00:00:00 | |
| IV3AMH | 2026-09-05 13:01:28 | 45.79914 | 14.08783 | 83° | 18km/h | 25050m | -24.6m/s | -51.4°C | 0.9% | 0hPa | 2.7V | 00:00:00 | 00:00:00 | 00:00:00 | |
| PG1ADW-2 | 2026-09-05 13:01:25 | 45.79917 | 14.08756 | 119° | 20km/h | 25141m | -23.6m/s | 0°C | 0% | 0hPa | 2.7V | 00:00:00 | 00:00:00 | 00:00:00 | |
| OE5DXL-15 | 2026-09-05 13:01:24 | 45.79919 | 14.08749 | 121° | 18km/h | 25164m | -23.0m/s | -50.7°C | 3.5% | 0hPa | 2.7V | 00:00:00 | 00:00:00 | 00:00:00 | |
| IN3HCDX1 | 2026-09-05 13:01:23 | 45.79919 | 14.08749 | 121° | 22km/h | 25164m | -23.0m/s | -50.7°C | 0.8% | 0hPa | 2.7V | 08:26:00 | 00:00:00 | 00:00:00 | |
| DO3MHA-11 | 2026-09-05 13:01:19 | 45.79930 | 14.08718 | 100° | 9km/h | 25293m | -24.2m/s | -50.3°C | 3.5% | 0hPa | 2.7V | 00:00:00 | 02:34:09 | 00:00:00 | |
| OE8JPQ-2 | 2026-09-05 13:01:16 | 45.79931 | 14.08708 | 123° | 18km/h | 25362m | -23.6m/s | -50.2°C | 3.4% | 0hPa | 2.7V | 00:00:00 | 00:00:00 | 00:00:00 | |
| OE5WHR-10 | 2026-09-05 13:01:12 | 45.79939 | 14.08707 | 172° | 26km/h | 25458m | -23.6m/s | -50.0°C | 3.3% | 0hPa | 2.7V | 00:00:00 | 00:00:00 | 00:00:00 | |
| OE5DRO-10 | 2026-09-05 13:01:11 | 45.79942 | 14.08706 | 163° | 22km/h | 25480m | -22.2m/s | -50.1°C | 3.4% | 0hPa | 2.7V | 00:00:00 | 00:00:00 | 00:00:00 | |
| DO3MHA-11 | 2026-09-05 13:01:09 | 45.79945 | 14.08701 | 96° | 18km/h | 25526m | -23.4m/s | -50.1°C | 3.4% | 0hPa | 2.7V | 00:00:00 | 02:33:59 | 00:00:00 | |
| S52SK | 2026-09-05 13:01:07 | 45.79945 | 14.08697 | 83° | 9km/h | 25551m | -26.7m/s | -50.1°C | 0.8% | 0hPa | 2.7V | 08:26:00 | 00:00:00 | 00:00:00 | |
| 9A1FER-3 | 2026-09-05 13:01:06 | 45.79942 | 14.08690 | 44° | 26km/h | 25609m | -30.0m/s | -49.9°C | 3.3% | 0hPa | 2.7V | 00:00:00 | 02:33:56 | 00:00:00 | |
| IN3HCDX1 | 2026-09-05 13:01:02 | 45.79931 | 14.08680 | 31° | 20km/h | 25696m | -26.8m/s | -50.0°C | 0.8% | 0hPa | 2.7V | 08:26:00 | 00:00:00 | 00:00:00 | |
| S52SK | 2026-09-05 13:01:01 | 45.79926 | 14.08676 | 38° | 24km/h | 25724m | -29.0m/s | -50.0°C | 0.8% | 0hPa | 2.7V | 08:26:00 | 00:00:00 | 00:00:00 | |
| DO3MHA-11 | 2026-09-05 13:00:59 | 45.79909 | 14.08657 | 44° | 27km/h | 25802m | -24.5m/s | -49.9°C | 3.5% | 0hPa | 2.7V | 00:00:00 | 02:33:49 | 00:00:00 | |
| IV3AMH | 2026-09-05 13:00:58 | 45.79909 | 14.08657 | 45° | 35km/h | 25802m | -24.6m/s | -49.9°C | 0.8% | 0hPa | 2.6V | 00:00:00 | 00:00:00 | 00:00:00 | |
| OE8JPQ-2 | 2026-09-05 13:00:56 | 45.79891 | 14.08629 | 51° | 24km/h | 25874m | -22.9m/s | -50.2°C | 3.6% | 0hPa | 2.6V | 00:00:00 | 02:33:46 | 00:00:00 | |
| OE5DXL-15 | 2026-09-05 13:00:54 | 45.79883 | 14.08609 | 69° | 18km/h | 25924m | -26.6m/s | -50.1°C | 3.6% | 0hPa | 2.6V | 00:00:00 | 00:00:00 | 00:00:00 | |
| OE5DRO-10 | 2026-09-05 13:00:52 | 45.79879 | 14.08592 | 83° | 22km/h | 25976m | -24.4m/s | -50.1°C | 3.6% | 0hPa | 2.6V | 00:00:00 | 00:00:00 | 00:00:00 | |
| 9A1FER-3 | 2026-09-05 13:00:51 | 45.79879 | 14.08586 | 86° | 26km/h | 26002m | -27.0m/s | -50.1°C | 3.7% | 0hPa | 2.6V | 00:00:00 | 02:33:41 | 00:00:00 | |
| NBG1-10 | 2026-09-05 13:00:50 | 45.79878 | 14.08581 | 81° | 13km/h | 26028m | -26.0m/s | -50.0°C | 3.6% | 0hPa | 2.6V | 00:00:00 | 02:33:40 | 00:00:00 | |
| DO3MHA-12 | 2026-09-05 13:00:49 | 45.79877 | 14.08577 | 83° | 22km/h | 26054m | -26.1m/s | -49.9°C | 3.6% | 0hPa | 2.6V | 00:00:00 | 02:33:39 | 00:00:00 | |
| IN3HCDX | 2026-09-05 13:00:46 | 45.79874 | 14.08568 | 50° | 18km/h | 26105m | -25.9m/s | -49.7°C | 0.8% | 0hPa | 2.6V | 08:27:00 | 00:00:00 | 00:00:00 | |
| IN3HCDX1 | 2026-09-05 13:00:41 | 45.79861 | 14.08529 | 73° | 27km/h | 26248m | -27.3m/s | -49.0°C | 0.7% | 0hPa | 2.6V | 08:27:00 | 00:00:00 | 00:00:00 | |
| DO3MHA-11 | 2026-09-05 13:00:39 | 45.79857 | 14.08499 | 83° | 18km/h | 26324m | -23.7m/s | -48.4°C | 3.3% | 0hPa | 2.6V | 00:00:00 | 02:33:29 | 00:00:00 | |
| OE8JPQ-2 | 2026-09-05 13:00:36 | 45.79853 | 14.08472 | 82° | 13km/h | 26396m | -23.5m/s | -47.9°C | 3.1% | 0hPa | 2.6V | 00:00:00 | 00:00:00 | 00:00:00 | |
| 9A1FER-3 | 2026-09-05 13:00:34 | 45.79851 | 14.08458 | 80° | 11km/h | 26443m | -23.1m/s | -47.9°C | 3.1% | 0hPa | 2.7V | 08:26:00 | 02:33:24 | 00:00:00 | |
| OE5DRO-10 | 2026-09-05 13:00:33 | 45.79850 | 14.08452 | 80° | 13km/h | 26465m | -22.9m/s | -47.9°C | 3.2% | 0hPa | 2.7V | 00:00:00 | 00:00:00 | 00:00:00 | |
| DB0UT-7 | 2026-09-05 13:00:29 | 45.79854 | 14.08443 | 177° | 22km/h | 26566m | -26.6m/s | -47.7°C | 3.1% | 0hPa | 2.7V | 00:00:00 | 00:00:00 | 00:00:00 | |
| IW2NTF | 2026-09-05 13:00:28 | 45.79836 | 14.08422 | 46° | 15km/h | 26780m | -27.2m/s | -47.4°C | 3.1% | 0hPa | 2.7V | 08:26:51 | 02:33:11 | 00:00:00 | |
| OE5DXL-15 | 2026-09-05 13:00:24 | 45.79845 | 14.08433 | 29° | 24km/h | 26703m | -25.5m/s | -47.6°C | 3.1% | 0hPa | 2.6V | 00:00:00 | 00:00:00 | 00:00:00 | |
| DO3MHA-11 | 2026-09-05 13:00:20 | 45.79832 | 14.08415 | 68° | 18km/h | 26836m | -28.3m/s | -47.0°C | 3.0% | 0hPa | 2.7V | 00:00:00 | 02:33:09 | 00:00:00 | |
| PETON7-10 | 2026-09-05 13:00:19 | 45.79830 | 14.08406 | 67° | 26km/h | 26895m | -30.4m/s | -46.8°C | 2.9% | 0hPa | 2.7V | 00:00:00 | 00:00:00 | 00:00:00 | |
| OE8JPQ-2 | 2026-09-05 13:00:16 | 45.79828 | 14.08401 | 56° | 27km/h | 26924m | -27.4m/s | -46.8°C | 2.9% | 0hPa | 2.7V | 00:00:00 | 00:00:00 | 00:00:00 | |
| OE5DRO-10 | 2026-09-05 13:00:14 | 45.79824 | 14.08389 | 68° | 29km/h | 26980m | -28.2m/s | -46.5°C | 2.9% | 0hPa | 2.7V | 00:00:00 | 00:00:00 | 00:00:00 | |
| IN3HCDX | 2026-09-05 13:00:13 | 45.79824 | 14.08389 | 69° | 22km/h | 26980m | -28.2m/s | -46.6°C | 0.6% | 0hPa | 2.7V | 08:27:00 | 00:00:00 | 00:00:00 | |
| IW2NTF | 2026-09-05 13:00:11 | 45.79819 | 14.08368 | 83° | 20km/h | 27065m | -27.4m/s | -45.8°C | 2.7% | 0hPa | 2.7V | 08:27:01 | 02:33:01 | 00:00:00 | |
| DO3MHA-12 | 2026-09-05 13:00:09 | 45.79819 | 14.08353 | 92° | 35km/h | 27121m | -27.4m/s | -45.7°C | 2.6% | 0hPa | 2.6V | 00:00:00 | 02:32:59 | 00:00:00 | |
| 9A1FER-3 | 2026-09-05 13:00:04 | 45.79821 | 14.08299 | 96° | 33km/h | 27269m | -32.7m/s | -46.6°C | 2.9% | 0hPa | 2.6V | 00:00:00 | 02:32:54 | 00:00:00 | |
| IW2NTF | 2026-09-05 13:00:02 | 45.79827 | 14.08241 | 100° | 35km/h | 27389m | -30m/s | -47.3°C | 3.1% | 0hPa | 2.6V | 08:27:12 | 02:32:50 | 00:00:00 | |
| OE5WHR-10 | 2026-09-05 13:00:01 | 45.79825 | 14.08255 | 98° | 29km/h | 27360m | -29.2m/s | -47.1°C | 3.1% | 0hPa | 2.7V | 00:00:00 | 02:32:51 | 00:00:00 | |
| DO3MHA-12 | 2026-09-05 12:59:59 | 45.79829 | 14.08229 | 102° | 29km/h | 27421m | -33.6m/s | -47.3°C | 3.2% | 0hPa | 2.7V | 00:00:00 | 02:32:49 | 00:00:00 | |
| OE8JPQ-2 | 2026-09-05 12:59:56 | 45.79832 | 14.08198 | 104° | 26km/h | 27512m | -30.0m/s | -47.4°C | 3.3% | 0hPa | 2.6V | 00:00:00 | 02:32:46 | 00:00:00 | |
| OE5DXL-15 | 2026-09-05 12:59:54 | 45.79834 | 14.08177 | 99° | 22km/h | 27574m | -33.6m/s | -47.3°C | 3.2% | 0hPa | 2.6V | 00:00:00 | 00:00:00 | 00:00:00 | |
| IN3HCDX | 2026-09-05 12:59:52 | 45.79836 | 14.08167 | 107° | 31km/h | 27606m | -31.6m/s | -47.2°C | 0.7% | 0hPa | 2.6V | 08:27:00 | 00:00:00 | 00:00:00 | |
| IW2NTF | 2026-09-05 12:59:51 | 45.79845 | 14.08137 | 123° | 29km/h | 27701m | -33.6m/s | -46.5°C | 3% | 0hPa | 2.6V | 08:27:22 | 02:32:40 | 00:00:00 | |
| DO3MHA-11 | 2026-09-05 12:59:49 | 45.79848 | 14.08129 | 129° | 24km/h | 27734m | -32.6m/s | -46.3°C | 3.0% | 0hPa | 2.7V | 00:00:00 | 02:32:39 | 00:00:00 | |
| PETON7-10 | 2026-09-05 12:59:46 | 45.79861 | 14.08114 | 157° | 18km/h | 27827m | -31.1m/s | -45.9°C | 2.9% | 0hPa | 2.7V | 00:00:00 | 02:32:36 | 00:00:00 | |
| NBG1-10 | 2026-09-05 12:59:43 | 45.79870 | 14.08101 | 122° | 16km/h | 27925m | -31.6m/s | -44.9°C | 2.7% | 0hPa | 2.7V | 00:00:00 | 02:32:33 | 00:00:00 | |
| IW2NTF | 2026-09-05 12:59:41 | 45.79877 | 14.08074 | 109° | 31km/h | 28018m | -30.5m/s | -44.8°C | 2.6% | 0hPa | 2.7V | 08:27:32 | 02:32:30 | 00:00:00 | |
| OE5WHR-10 | 2026-09-05 12:59:40 | 45.79877 | 14.08075 | 110° | 20km/h | 28019m | -30.4m/s | -44.8°C | 2.6% | 0hPa | 2.7V | 08:27:00 | 00:00:00 | 00:00:00 | |
| DO3MHA-11 | 2026-09-05 12:59:39 | 45.79880 | 14.08063 | 112° | 22km/h | 28049m | -30.0m/s | -44.7°C | 2.6% | 0hPa | 2.6V | 00:00:00 | 02:32:29 | 00:00:00 | |
| S52SK | 2026-09-05 12:59:38 | 45.79880 | 14.08063 | 112° | 37km/h | 28049m | -30.0m/s | -44.7°C | 0.6% | 0hPa | 2.6V | 00:00:00 | 00:00:00 | 00:00:00 | |
| OE8JPQ-2 | 2026-09-05 12:59:36 | 45.79890 | 14.08036 | 126° | 16km/h | 28149m | -34.6m/s | -44.5°C | 2.5% | 0hPa | 2.6V | 00:00:00 | 00:00:00 | 00:00:00 | |
| 9A1FER-3 | 2026-09-05 12:59:34 | 45.79897 | 14.08026 | 145° | 15km/h | 28212m | -30.0m/s | -44.7°C | 2.6% | 0hPa | 2.7V | 00:00:00 | 02:32:24 | 00:00:00 | |
| IN3HCDX | 2026-09-05 12:59:32 | 45.79905 | 14.08020 | 142° | 16km/h | 28278m | -34.0m/s | -44.9°C | 0.6% | 0hPa | 2.7V | 08:27:00 | 00:00:00 | 00:00:00 | |
| IW2NTF | 2026-09-05 12:59:31 | 45.79913 | 14.08008 | 112° | 15km/h | 28377m | -35m/s | -45°C | 2.6% | 0hPa | 2.7V | 08:27:43 | 02:32:19 | 00:00:00 | |
| DB0UT-7 | 2026-09-05 12:59:29 | 45.79913 | 14.08008 | 113° | 13km/h | 28378m | -35.0m/s | -44.9°C | 2.6% | 0hPa | 2.7V | 08:27:00 | 00:00:00 | 00:00:00 | |
| PETON7-10 | 2026-09-05 12:59:28 | 45.79914 | 14.08002 | 106° | 13km/h | 28412m | -34.5m/s | -44.9°C | 2.6% | 0hPa | 2.7V | 08:27:00 | 00:00:00 | 00:00:00 | |
| PG1ADW-2 | 2026-09-05 12:59:25 | 45.79915 | 14.07988 | 106° | 11km/h | 28517m | -34.3m/s | -44.9°C | 2.6% | 0hPa | 2.6V | 00:00:00 | 00:00:00 | 00:00:00 | |
| OE5DXL-15 | 2026-09-05 12:59:24 | 45.79916 | 14.07984 | 117° | 13km/h | 28551m | -32.7m/s | -44.9°C | 2.6% | 0hPa | 2.6V | 00:00:00 | 00:00:00 | 00:00:00 | |
| IW2NTF | 2026-09-05 12:59:22 | 45.79932 | 14.07969 | 147° | 18km/h | 28707m | -28.3m/s | -45.1°C | 2.8% | 0hPa | 2.6V | 08:27:53 | 02:32:09 | 00:00:00 | |
| 9A1FER-3 | 2026-09-05 12:59:19 | 45.79932 | 14.07969 | 148° | 9km/h | 28708m | -28.3m/s | -45.1°C | 2.8% | 0hPa | 2.6V | 00:00:00 | 02:32:09 | 00:00:00 | |
| IN3HCDX1 | 2026-09-05 12:59:18 | 45.79932 | 14.07969 | 149° | 18km/h | 28708m | -28.3m/s | -45.1°C | 0.6% | 0hPa | 2.6V | 08:27:00 | 00:00:00 | 00:00:00 | |
| OE5DRO-10 | 2026-09-05 12:59:17 | 45.79939 | 14.07962 | 139° | 11km/h | 28762m | -25.4m/s | -45.1°C | 2.8% | 0hPa | 2.6V | 00:00:00 | 00:00:00 | 00:00:00 | |
| OE8JPQ-2 | 2026-09-05 12:59:16 | 45.79941 | 14.07958 | 114° | 13km/h | 28787m | -26.0m/s | -45.1°C | 2.8% | 0hPa | 2.6V | 00:00:00 | 00:00:00 | 00:00:00 | |
| IW2NTF | 2026-09-05 12:59:12 | 45.79947 | 14.07961 | 155° | 11km/h | 29051m | -29.5m/s | -44.6°C | 2.7% | 0hPa | 2.6V | 08:28:05 | 02:31:57 | 00:00:00 | |
| PETON7-10 | 2026-09-05 12:59:11 | 45.79940 | 14.07960 | 236° | 16km/h | 28932m | -30.6m/s | -44.8°C | 2.7% | 0hPa | 2.7V | 00:00:00 | 00:00:00 | 00:00:00 | |
| IV3AMH | 2026-09-05 12:59:10 | 45.79940 | 14.07960 | 236° | 5km/h | 28932m | -30.6m/s | -44.9°C | 0.6% | 0hPa | 2.7V | 00:00:00 | 00:00:00 | 00:00:00 | |
| 9A1FER-3 | 2026-09-05 12:59:04 | 45.79948 | 14.07953 | 94° | 15km/h | 29145m | -31.1m/s | -44.5°C | 2.6% | 0hPa | 2.7V | 00:00:00 | 02:31:54 | 00:00:00 | |
| PG1ADW-2 | 2026-09-05 12:59:03 | 45.79949 | 14.07949 | 107° | 20km/h | 29176m | -32.1m/s | -44.6°C | 2.7% | 0hPa | 2.7V | 00:00:00 | 00:00:00 | 00:00:00 | |
| IW2NTF | 2026-09-05 12:59:01 | 45.79969 | 14.07907 | 142° | 22km/h | 29362m | -30.6m/s | -44.6°C | 2.8% | 0hPa | 2.7V | 08:28:15 | 02:31:47 | 00:00:00 | |
| DO3MHA-11 | 2026-09-05 12:58:58 | 45.79964 | 14.07913 | 135° | 16km/h | 29332m | -31.3m/s | -44.7°C | 2.8% | 0hPa | 2.7V | 00:00:00 | 02:31:48 | 00:00:00 | |
| OE8JPQ-2 | 2026-09-05 12:58:56 | 45.79973 | 14.07903 | 151° | 11km/h | 29394m | -32.1m/s | -44.5°C | 2.8% | 0hPa | 2.7V | 00:00:00 | 02:31:46 | 00:00:00 | |
| DB0UT-7 | 2026-09-05 12:58:54 | 45.79978 | 14.07899 | 135° | 7km/h | 29455m | -29.3m/s | -44.4°C | 2.8% | 0hPa | 2.7V | 00:00:00 | 02:31:44 | 00:00:00 | |
| IW2NTF | 2026-09-05 12:58:50 | 45.79992 | 14.07870 | 125° | 22km/h | 29739m | -40m/s | -43.9°C | 2.7% | 0hPa | 2.7V | 08:28:27 | 02:31:35 | 00:00:00 | |
| NBG1-10 | 2026-09-05 12:58:50 | 45.79980 | 14.07893 | 106° | 13km/h | 29568m | -29.9m/s | -44.2°C | 2.7% | 0hPa | 2.6V | 00:00:00 | 02:31:40 | 00:00:00 | |
| 9A1FER-3 | 2026-09-05 12:58:49 | 45.79981 | 14.07890 | 128° | 13km/h | 29598m | -30.2m/s | -44.1°C | 2.8% | 0hPa | 2.6V | 00:00:00 | 02:31:39 | 00:00:00 | |
| DO3MHA-11 | 2026-09-05 12:58:46 | 45.79988 | 14.07876 | 136° | 11km/h | 29700m | -39.0m/s | -43.8°C | 2.7% | 0hPa | 2.6V | 00:00:00 | 02:31:36 | 00:00:00 | |
| OE5MMP-10 | 2026-09-05 12:58:43 | 45.79999 | 14.07860 | 139° | 9km/h | 29817m | -38.8m/s | -43.5°C | 2.7% | 0hPa | 2.6V | 08:28:00 | 02:31:33 | 00:00:00 | |
| IW2NTF | 2026-09-05 12:58:40 | 45.80005 | 14.07855 | 350° | 5km/h | 30109m | -39m/s | -42.6°C | 2.5% | 0hPa | 2.7V | 08:28:37 | 02:31:25 | 00:00:00 | |
| OE5DRO-10 | 2026-09-05 12:58:39 | 45.80008 | 14.07851 | 220° | 13km/h | 29964m | -34.4m/s | -42.7°C | 2.5% | 0hPa | 2.7V | 00:00:00 | 00:00:00 | 00:00:00 | |
| PETON7-10 | 2026-09-05 12:58:38 | 45.80008 | 14.07853 | 297° | 11km/h | 29998m | -33.6m/s | -42.5°C | 2.5% | 0hPa | 2.6V | 00:00:00 | 00:00:00 | 00:00:00 | |
| IN3HCDX1 | 2026-09-05 12:58:37 | 45.80008 | 14.07853 | 297° | 4km/h | 29998m | -33.7m/s | -42.6°C | 0.5% | 0hPa | 2.7V | 08:28:00 | 00:00:00 | 00:00:00 | |
| DO3MHA-11 | 2026-09-05 12:58:35 | 45.80005 | 14.07855 | 351° | 11km/h | 30109m | -38.9m/s | -42.5°C | 2.5% | 0hPa | 2.7V | 00:00:00 | 02:31:25 | 00:00:00 | |
| 9A1FER-3 | 2026-09-05 12:58:34 | 45.80004 | 14.07855 | 9° | 16km/h | 30147m | -35.1m/s | -42.5°C | 2.5% | 0hPa | 2.7V | 00:00:00 | 02:31:24 | 00:00:00 | |
| OE5MMP-10 | 2026-09-05 12:58:33 | 45.80002 | 14.07855 | 3° | 16km/h | 30181m | -34.5m/s | -42.3°C | 2.4% | 0hPa | 2.7V | 00:00:00 | 02:31:23 | 00:00:00 | |
| IV3AMH | 2026-09-05 12:58:32 | 45.80002 | 14.07855 | 4° | 5km/h | 30181m | -34.6m/s | -42.4°C | 0.5% | 0hPa | 2.7V | 00:00:00 | 00:00:00 | 00:00:00 | |
| IW2NTF | 2026-09-05 12:58:31 | 45.79977 | 14.07861 | 12° | 20km/h | 30467m | -38.4m/s | -41.6°C | 2.3% | 0hPa | 2.7V | 08:28:47 | 02:31:15 | 00:00:00 | |
| IN3HCDX | 2026-09-05 12:58:29 | 45.79996 | 14.07856 | 342° | 13km/h | 30287m | -36.3m/s | -41.5°C | 0.5% | 0hPa | 2.6V | 08:28:00 | 00:00:00 | 00:00:00 | |
| DO3MHA-11 | 2026-09-05 12:58:25 | 45.79977 | 14.07860 | 13° | 20km/h | 30467m | -38.3m/s | -41.6°C | 2.3% | 0hPa | 2.6V | 00:00:00 | 02:31:15 | 00:00:00 | |
| DB0UT-7 | 2026-09-05 12:58:24 | 45.79971 | 14.07858 | 25° | 16km/h | 30505m | -37.0m/s | -41.7°C | 2.3% | 0hPa | 2.6V | 00:00:00 | 00:00:00 | 00:00:00 | |
| IW2NTF | 2026-09-05 12:58:21 | 45.79933 | 14.07826 | 91° | 7km/h | 30846m | -38.8m/s | -42.5°C | 2.6% | 0hPa | 2.6V | 08:28:57 | 02:31:05 | 00:00:00 | |
| OE5DRO-10 | 2026-09-05 12:58:20 | 45.79946 | 14.07839 | 25° | 13km/h | 30698m | -36.6m/s | -42.4°C | 2.5% | 0hPa | 2.6V | 00:00:00 | 00:00:00 | 00:00:00 | |
| 9A1FER-3 | 2026-09-05 12:58:19 | 45.79946 | 14.07839 | 25° | 13km/h | 30698m | -36.6m/s | -42.4°C | 2.5% | 0hPa | 2.6V | 08:28:00 | 02:31:09 | 00:00:00 | |
| NBG1-10 | 2026-09-05 12:58:17 | 45.79937 | 14.07832 | 35° | 24km/h | 30770m | -36.8m/s | -42.5°C | 2.5% | 0hPa | 2.7V | 00:00:00 | 02:31:07 | 00:00:00 | |
| DB0ND-19 | 2026-09-05 12:58:16 | 45.79933 | 14.07826 | 91° | 7km/h | 30846m | -38.8m/s | -42.5°C | 0.5% | -1.0hPa | 2.6V | 00:00:00 | 00:00:00 | 00:00:00 | |
| DO3MHA-11 | 2026-09-05 12:58:15 | 45.79933 | 14.07826 | 92° | 11km/h | 30847m | -38.7m/s | -42.4°C | 2.6% | 0hPa | 2.6V | 00:00:00 | 02:31:05 | 00:00:00 | |
| S52SK | 2026-09-05 12:58:12 | 45.79935 | 14.07820 | 137° | 9km/h | 30921m | -34.5m/s | -42.4°C | 0.5% | 0hPa | 2.6V | 00:00:00 | 00:00:00 | 00:00:00 | |
| IW2NTF | 2026-09-05 12:58:10 | 45.79954 | 14.07820 | 237° | 13km/h | 31203m | -38.5m/s | -40.8°C | 2.3% | 0hPa | 2.6V | 08:29:07 | 02:30:55 | 00:00:00 | |
| OE5MMP-10 | 2026-09-05 12:58:09 | 45.79946 | 14.07816 | 184° | 15km/h | 31059m | -36.8m/s | -41.2°C | 2.3% | 0hPa | 2.6V | 00:00:00 | 02:30:59 | 00:00:00 | |
| PETON7-10 | 2026-09-05 12:58:08 | 45.79948 | 14.07816 | 180° | 13km/h | 31096m | -35.6m/s | -40.9°C | 2.3% | 0hPa | 2.6V | 00:00:00 | 02:30:58 | 00:00:00 | |
| S52SK | 2026-09-05 12:58:07 | 45.79948 | 14.07816 | 181° | 7km/h | 31096m | -35.7m/s | -41.0°C | 0.4% | 0hPa | 2.6V | 00:00:00 | 00:00:00 | 00:00:00 | |
| DO3MHA-11 | 2026-09-05 12:58:05 | 45.79954 | 14.07820 | 238° | 16km/h | 31203m | -38.5m/s | -40.7°C | 2.3% | 0hPa | 2.6V | 08:29:00 | 02:30:55 | 00:00:00 | |
| 9A1FER-3 | 2026-09-05 12:58:04 | 45.79956 | 14.07824 | 245° | 13km/h | 31242m | -39.4m/s | -40.7°C | 2.3% | 0hPa | 2.7V | 00:00:00 | 02:30:54 | 00:00:00 | |
| IW2NTF | 2026-09-05 12:58:01 | 45.79945 | 14.07863 | 13° | 15km/h | 31585m | -38.9m/s | -40.9°C | 2.4% | 0hPa | 2.7V | 08:29:17 | 02:30:45 | 00:00:00 | |
| OE5MMP-10 | 2026-09-05 12:57:59 | 45.79958 | 14.07856 | 317° | 11km/h | 31433m | -38.9m/s | -40.4°C | 2.3% | 0hPa | 2.6V | 00:00:00 | 02:30:49 | 00:00:00 | |
| IN3HCDX1 | 2026-09-05 12:57:58 | 45.79955 | 14.07860 | 330° | 15km/h | 31471m | -36.9m/s | -40.6°C | 0.4% | 0hPa | 2.6V | 08:29:00 | 00:00:00 | 00:00:00 | |
| OE8JPQ-2 | 2026-09-05 12:57:56 | 45.79948 | 14.07863 | 1° | 7km/h | 31546m | -39.5m/s | -40.8°C | 2.4% | 0hPa | 2.6V | 00:00:00 | 02:30:46 | 00:00:00 | |
| DO3MHA-11 | 2026-09-05 12:57:55 | 45.79945 | 14.07863 | 14° | 5km/h | 31585m | -38.9m/s | -40.8°C | 2.4% | 0hPa | 2.6V | 00:00:00 | 02:30:45 | 00:00:00 | |
| OE5DXL-15 | 2026-09-05 12:57:54 | 45.79942 | 14.07862 | 28° | 9km/h | 31626m | -43.3m/s | -40.8°C | 2.4% | 0hPa | 2.6V | 00:00:00 | 00:00:00 | 00:00:00 | |
| PETON7-10 | 2026-09-05 12:57:53 | 45.79939 | 14.07860 | 35° | 9km/h | 31668m | -40.5m/s | -40.9°C | 2.5% | 0hPa | 2.6V | 00:00:00 | 00:00:00 | 00:00:00 | |
| IW2NTF | 2026-09-05 12:57:50 | 45.79937 | 14.07859 | 76° | 7km/h | 31992m | -49.6m/s | -38.2°C | 2% | 0hPa | 2.6V | 08:29:27 | 02:30:35 | 00:00:00 | |
| OE5MMP-10 | 2026-09-05 12:57:49 | 45.79937 | 14.07859 | 241° | 7km/h | 31816m | -37.8m/s | -39.7°C | 2.3% | 0hPa | 2.7V | 00:00:00 | 02:30:39 | 00:00:00 | |
| IN3HCDX | 2026-09-05 12:57:47 | 45.79938 | 14.07860 | 263° | 4km/h | 31856m | -42.8m/s | -39.1°C | 0.4% | 0hPa | 2.7V | 00:00:00 | 00:00:00 | 00:00:00 | |
| DB0ND-19 | 2026-09-05 12:57:45 | 45.79936 | 14.07855 | 67° | 11km/h | 32042m | -50.4m/s | -38.3°C | 0.4% | -1.0hPa | 2.7V | 00:00:00 | 00:00:00 | 00:00:00 | |
| OE5DRO-10 | 2026-09-05 12:57:42 | 45.79933 | 14.07848 | 70° | 9km/h | 32143m | -49.9m/s | -38.6°C | 2.1% | 0hPa | 2.7V | 00:00:00 | 00:00:00 | 00:00:00 | |
| IW2NTF | 2026-09-05 12:57:40 | 45.79922 | 14.07838 | 22° | 11km/h | 32492m | -49.8m/s | -38.6°C | 2.2% | 0hPa | 2.6V | 08:30:00 | 02:30:25 | 00:00:00 | |
| OE5MMP-10 | 2026-09-05 12:57:39 | 45.79930 | 14.07839 | 29° | 11km/h | 32288m | -52.8m/s | -38.5°C | 2.1% | 0hPa | 2.6V | 00:00:00 | 02:30:29 | 00:00:00 | |
| OE8JPQ-2 | 2026-09-05 12:57:36 | 45.79925 | 14.07839 | 4° | 11km/h | 32443m | -49.1m/s | -38.7°C | 2.2% | 0hPa | 2.7V | 00:00:00 | 00:00:00 | 00:00:00 | |
| DO3MHA-11 | 2026-09-05 12:57:35 | 45.79922 | 14.07838 | 23° | 13km/h | 32492m | -49.8m/s | -38.6°C | 2.2% | 0hPa | 2.6V | 00:00:00 | 02:30:25 | 00:00:00 | |
| 9A1FER-3 | 2026-09-05 12:57:34 | 45.79920 | 14.07836 | 41° | 9km/h | 32540m | -46.0m/s | -38.3°C | 2.2% | 0hPa | 2.6V | 00:00:00 | 02:30:24 | 00:00:00 | |
| OE5MMP-10 | 2026-09-05 12:57:29 | 45.79912 | 14.07816 | 77° | 7km/h | 32766m | -42.6m/s | -37.2°C | 2.0% | 0hPa | 2.6V | 00:00:00 | 02:30:19 | 00:00:00 | |
| PETON7-10 | 2026-09-05 12:57:28 | 45.79911 | 14.07814 | 41° | 11km/h | 32810m | -44.7m/s | -37.1°C | 2.0% | 0hPa | 2.6V | 00:00:00 | 00:00:00 | 00:00:00 | |
| DO3MHA-11 | 2026-09-05 12:57:25 | 45.79906 | 14.07818 | 320° | 15km/h | 32953m | -50.2m/s | -36.8°C | 1.9% | 0hPa | 2.6V | 00:00:00 | 02:30:15 | 00:00:00 | |
| DB0UT-7 | 2026-09-05 12:57:24 | 45.79905 | 14.07819 | 338° | 29km/h | 33004m | -51.9m/s | -36.7°C | 1.9% | 0hPa | 2.6V | 00:00:00 | 00:00:00 | 00:00:00 | |
| OE5DRO-10 | 2026-09-05 12:57:23 | 45.79903 | 14.07820 | 5° | 20km/h | 33055m | -51.5m/s | -36.5°C | 1.9% | 0hPa | 2.6V | 00:00:00 | 00:00:00 | 00:00:00 | |
| OE5MMP-10 | 2026-09-05 12:57:19 | 45.79895 | 14.07814 | 16° | 16km/h | 33255m | -46.4m/s | -36.4°C | 1.9% | 0hPa | 2.6V | 00:00:00 | 02:30:09 | 00:00:00 | |
| 9A1FER-3 | 2026-09-05 12:57:17 | 45.79890 | 14.07817 | 315° | 27km/h | 33344m | -43.3m/s | -36.4°C | 1.9% | 0hPa | 2.6V | 00:00:00 | 02:30:07 | 00:00:00 | |
| PETON7-10 | 2026-09-05 12:57:13 | 45.79881 | 14.07840 | 316° | 49km/h | 33526m | -44.2m/s | -35.9°C | 1.9% | 0hPa | 2.6V | 00:00:00 | 02:30:03 | 00:00:00 | |
| IW2NTF | 2026-09-05 12:57:11 | 45.79863 | 14.07833 | 41° | 31km/h | 33679m | -34.8m/s | -35.5°C | 1.8% | 0hPa | 2.6V | 08:30:00 | 02:29:59 | 00:00:00 | |
| OE5MMP-10 | 2026-09-05 12:57:09 | 45.79863 | 14.07833 | 42° | 35km/h | 33680m | -34.8m/s | -35.4°C | 1.8% | 0hPa | 2.6V | 00:00:00 | 02:29:59 | 08:30:00 | |
| OE5DRO-10 | 2026-09-05 12:57:04 | 45.79821 | 14.07851 | 299° | 37km/h | 33902m | -34.4m/s | -34.1°C | 1.6% | 0hPa | 2.6V | 00:00:00 | 00:00:00 | 00:00:00 | |
| OE5MMP-10 | 2026-09-05 12:56:59 | 45.79804 | 14.07889 | 350° | 35km/h | 34047m | -29.7m/s | -34.0°C | 1.7% | 0hPa | 2.6V | 00:00:00 | 02:29:49 | 00:00:00 | |
| OE8JPQ-2 | 2026-09-05 12:56:56 | 45.79788 | 14.07868 | 55° | 42km/h | 34114m | -17.2m/s | -34.2°C | 1.7% | 0hPa | 2.6V | 00:00:00 | 02:29:46 | 00:00:00 | |
| OE5DXL-15 | 2026-09-05 12:56:54 | 45.79769 | 14.07838 | 37° | 38km/h | 34168m | -34.0m/s | -34.2°C | 1.7% | 0hPa | 2.6V | 00:00:00 | 00:00:00 | 00:00:00 | |
| IW2NTF | 2026-09-05 12:56:50 | 45.79753 | 14.07836 | 59° | 46km/h | 34477m | -33.6m/s | -33.5°C | 1.5% | 0hPa | 2.6V | 08:30:00 | 02:29:35 | 00:00:00 | |
| 9A1FER-3 | 2026-09-05 12:56:47 | 45.79764 | 14.07862 | 65° | 55km/h | 34395m | -47.8m/s | -33.3°C | 1.5% | 0hPa | 2.6V | 00:00:00 | 02:29:37 | 00:00:00 | |
| OE5DRO-10 | 2026-09-05 12:56:45 | 45.79753 | 14.07836 | 60° | 42km/h | 34477m | -33.6m/s | -33.4°C | 1.5% | 0hPa | 2.6V | 00:00:00 | 00:00:00 | 08:30:00 | |
| S52SK | 2026-09-05 12:56:40 | 45.79701 | 14.07847 | 296° | 44km/h | 34520m | 3.4m/s | -33.6°C | 0.3% | 0hPa | 2.7V | 00:00:00 | 00:00:00 | 00:00:00 | |
| OE5MMP-10 | 2026-09-05 12:56:37 | 45.79706 | 14.07862 | 131° | 46km/h | 34500m | 8.2m/s | -33.6°C | 1.6% | 0hPa | 2.7V | 00:00:00 | 02:29:27 | 00:00:00 | |
| OE8JPQ-2 | 2026-09-05 12:56:36 | 45.79708 | 14.07850 | 94° | 35km/h | 34494m | 4.0m/s | -33.6°C | 1.6% | 0hPa | 2.7V | 00:00:00 | 00:00:00 | 00:00:00 | |
| IN3HCDX1 | 2026-09-05 12:56:33 | 45.79697 | 14.07821 | 35° | 53km/h | 34488m | 4.2m/s | -33.8°C | 0.3% | 0hPa | 2.7V | 00:00:00 | 00:00:00 | 00:00:00 | |
| 9A1FER-3 | 2026-09-05 12:56:30 | 45.79643 | 14.07843 | 303° | 46km/h | 34460m | 1.8m/s | -33.8°C | 1.6% | 0hPa | 2.7V | 00:00:00 | 02:29:20 | 00:00:00 | |
| OE5MMP-10 | 2026-09-05 12:56:27 | 45.79640 | 14.07865 | 135° | 42km/h | 34446m | 9.3m/s | -33.8°C | 1.6% | 0hPa | 2.7V | 00:00:00 | 02:29:17 | 00:00:00 | |
| OE5DXL-15 | 2026-09-05 12:56:24 | 45.79639 | 14.07821 | 58° | 40km/h | 34428m | 1.1m/s | -33.8°C | 1.6% | 0hPa | 2.7V | 00:00:00 | 00:00:00 | 00:00:00 | |
| OE5DRO-10 | 2026-09-05 12:56:22 | 45.79620 | 14.07804 | 2° | 38km/h | 34420m | 7.8m/s | -33.7°C | 1.6% | 0hPa | 2.7V | 00:00:00 | 00:00:00 | 00:00:00 | |
| IW2NTF | 2026-09-05 12:56:21 | 45.79592 | 14.07848 | 264° | 22km/h | 34398m | 1.8m/s | -33.8°C | 1.6% | 0hPa | 2.7V | 08:30:00 | 02:29:08 | 00:00:00 | |
| DB0UT-7 | 2026-09-05 12:56:17 | 45.79593 | 14.07852 | 189° | 27km/h | 34395m | 5.6m/s | -33.8°C | 1.6% | 0hPa | 2.6V | 00:00:00 | 00:00:00 | 00:00:00 | |
| OE8JPQ-2 | 2026-09-05 12:56:15 | 45.79595 | 14.07836 | 89° | 40km/h | 34378m | 8.9m/s | -33.9°C | 1.6% | 0hPa | 2.7V | 00:00:00 | 00:00:00 | 00:00:00 | |
| 9A1FER-3 | 2026-09-05 12:56:13 | 45.79586 | 14.07801 | 50° | 47km/h | 34370m | -0.0m/s | -34.0°C | 1.6% | 0hPa | 2.7V | 00:00:00 | 02:29:03 | 00:00:00 | |
| IW2NTF | 2026-09-05 12:56:11 | 45.79554 | 14.07826 | 267° | 40km/h | 34342m | 0.1m/s | -34.1°C | 1.6% | 0hPa | 2.7V | 08:30:00 | 02:28:58 | 00:00:00 | |
| OE5MMP-10 | 2026-09-05 12:56:06 | 45.79556 | 14.07839 | 141° | 42km/h | 34340m | 5.1m/s | -34.0°C | 1.6% | 0hPa | 2.7V | 00:00:00 | 02:28:56 | 00:00:00 | |
| OE5DRO-10 | 2026-09-05 12:56:03 | 45.79547 | 14.07799 | 57° | 44km/h | 34313m | 3.8m/s | -34.1°C | 1.6% | 0hPa | 2.7V | 00:00:00 | 00:00:00 | 00:00:00 | |
| IW2NTF | 2026-09-05 12:55:59 | 45.79517 | 14.07798 | 80° | 33km/h | 34276m | 7m/s | -34.4°C | 1.7% | 0hPa | 2.7V | 08:30:00 | 02:28:44 | 00:00:00 | |
| 9A1FER-3 | 2026-09-05 12:55:58 | 45.79503 | 14.07787 | 265° | 46km/h | 34290m | 8.6m/s | -34.2°C | 1.6% | 0hPa | 2.7V | 00:00:00 | 02:28:48 | 00:00:00 | |
| OE5MMP-10 | 2026-09-05 12:55:56 | 45.79512 | 14.07808 | 200° | 37km/h | 34283m | 0.1m/s | -34.2°C | 1.7% | 0hPa | 2.7V | 00:00:00 | 02:28:46 | 00:00:00 | |
| OE8JPQ-2 | 2026-09-05 12:55:55 | 45.79516 | 14.07806 | 118° | 29km/h | 34281m | 2.3m/s | -34.3°C | 1.6% | 0hPa | 2.7V | 00:00:00 | 02:28:45 | 00:00:00 | |
| OE5DXL-15 | 2026-09-05 12:55:54 | 45.79517 | 14.07797 | 81° | 42km/h | 34277m | 6.9m/s | -34.3°C | 1.7% | 0hPa | 2.7V | 00:00:00 | 00:00:00 | 00:00:00 | |
| IW2NTF | 2026-09-05 12:55:49 | 45.79462 | 14.07757 | 93° | 42km/h | 34224m | 3.7m/s | -34.8°C | 1.7% | 0hPa | 2.7V | 08:30:00 | 02:28:34 | 00:00:00 | |
| OE5MMP-10 | 2026-09-05 12:55:46 | 45.79452 | 14.07773 | 183° | 46km/h | 34230m | 3.7m/s | -34.7°C | 1.7% | 0hPa | 2.7V | 00:00:00 | 02:28:36 | 00:00:00 | |
| OE5DRO-10 | 2026-09-05 12:55:44 | 45.79462 | 14.07757 | 94° | 47km/h | 34224m | 3.6m/s | -34.7°C | 1.7% | 0hPa | 2.7V | 00:00:00 | 00:00:00 | 00:00:00 | |
| 9A1FER-3 | 2026-09-05 12:55:43 | 45.79459 | 14.07740 | 64° | 62km/h | 34219m | 6.5m/s | -34.7°C | 1.7% | 0hPa | 2.7V | 00:00:00 | 02:28:33 | 08:30:00 | |
| IW2NTF | 2026-09-05 12:55:38 | 45.79395 | 14.07726 | 59° | 58km/h | 34164m | 6.4m/s | -34.5°C | 1.7% | 0hPa | 2.6V | 08:30:00 | 02:28:23 | 00:00:00 | |
| OE5MMP-10 | 2026-09-05 12:55:36 | 45.79392 | 14.07757 | 195° | 47km/h | 34180m | 4.8m/s | -34.5°C | 1.7% | 0hPa | 2.7V | 00:00:00 | 02:28:26 | 08:30:00 | |
| OE8JPQ-2 | 2026-09-05 12:55:34 | 45.79399 | 14.07743 | 90° | 38km/h | 34171m | 5.8m/s | -34.5°C | 1.7% | 0hPa | 2.6V | 00:00:00 | 00:00:00 | 08:30:00 | |
| 9A1FER-3 | 2026-09-05 12:55:28 | 45.79330 | 14.07729 | 289° | 57km/h | 34137m | 7.4m/s | -34.2°C | 1.7% | 0hPa | 2.6V | 00:00:00 | 02:28:18 | 00:00:00 | |
| OE5MMP-10 | 2026-09-05 12:55:26 | 45.79333 | 14.07754 | 215° | 47km/h | 34127m | 2.1m/s | -34.2°C | 1.7% | 0hPa | 2.6V | 00:00:00 | 02:28:16 | 00:00:00 | |
| OE5DRO-10 | 2026-09-05 12:55:25 | 45.79337 | 14.07754 | 134° | 49km/h | 34125m | 2.8m/s | -34.2°C | 1.7% | 0hPa | 2.6V | 00:00:00 | 00:00:00 | 00:00:00 | |
| OE5DXL-15 | 2026-09-05 12:55:24 | 45.79338 | 14.07747 | 76° | 47km/h | 34120m | 6.3m/s | -34.2°C | 1.7% | 0hPa | 2.6V | 00:00:00 | 00:00:00 | 00:00:00 | |
| IW2NTF | 2026-09-05 12:55:21 | 45.79268 | 14.07771 | 200° | 20km/h | 34071m | 0.7m/s | -34°C | 1.6% | 0hPa | 2.6V | 08:30:00 | 02:28:05 | 00:00:00 | |
| OE5MMP-10 | 2026-09-05 12:55:16 | 45.79262 | 14.07764 | 234° | 57km/h | 34073m | 3.6m/s | -34.0°C | 1.6% | 0hPa | 2.7V | 00:00:00 | 02:28:06 | 00:00:00 | |
| OE8JPQ-2 | 2026-09-05 12:55:14 | 45.79270 | 14.07770 | 88° | 35km/h | 34070m | 2.4m/s | -33.9°C | 1.6% | 0hPa | 2.7V | 00:00:00 | 00:00:00 | 00:00:00 | |
| 9A1FER-3 | 2026-09-05 12:55:10 | 45.79223 | 14.07742 | 359° | 55km/h | 34044m | 2.3m/s | -34.1°C | 1.6% | 0hPa | 2.7V | 00:00:00 | 02:28:00 | 00:00:00 | |
| S52SK | 2026-09-05 12:55:09 | 45.79205 | 14.07747 | 341° | 69km/h | 34042m | 1.4m/s | -34.3°C | 0.3% | 0hPa | 2.7V | 00:00:00 | 00:00:00 | 00:00:00 | |
| IN3HCDX1 | 2026-09-05 12:55:08 | 45.79205 | 14.07747 | 341° | 69km/h | 34042m | 1.4m/s | -34.3°C | 0.3% | 0hPa | 2.7V | 00:00:00 | 00:00:00 | 00:00:00 | |
| OE5MMP-10 | 2026-09-05 12:55:06 | 45.79181 | 14.07786 | 262° | 42km/h | 34024m | 7.7m/s | -34.4°C | 1.7% | 0hPa | 2.7V | 00:00:00 | 02:27:56 | 00:00:00 | |
| IW2NTF | 2026-09-05 12:55:04 | 45.79130 | 14.07792 | 348° | 77km/h | 33990m | 0.3m/s | -34.4°C | 1.7% | 0hPa | 2.6V | 08:30:00 | 02:27:49 | 00:00:00 | |
| PG1ADW-2 | 2026-09-05 12:55:04 | 45.79187 | 14.07802 | 217° | 37km/h | 34016m | 1.0m/s | -34.5°C | 1.7% | 0hPa | 2.7V | 00:00:00 | 00:00:00 | 00:00:00 | |
| IV3AMH | 2026-09-05 12:55:02 | 45.79186 | 14.07801 | 30° | 16km/h | 34014m | 3.3m/s | -34.6°C | 0.3% | 0hPa | 2.7V | 00:00:00 | 00:00:00 | 00:00:00 | |
| OE5MMP-10 | 2026-09-05 12:54:56 | 45.79098 | 14.07822 | 285° | 42km/h | 33979m | 9.9m/s | -34.2°C | 1.6% | 0hPa | 2.7V | 00:00:00 | 02:27:46 | 00:00:00 | |
| 9A1FER-3 | 2026-09-05 12:54:55 | 45.79099 | 14.07832 | 236° | 35km/h | 33970m | 8.9m/s | -34.2°C | 1.6% | 0hPa | 2.7V | 00:00:00 | 02:27:45 | 00:00:00 | |
| OE5DXL-15 | 2026-09-05 12:54:54 | 45.79105 | 14.07840 | 209° | 37km/h | 33964m | 1.7m/s | -34.1°C | 1.6% | 0hPa | 2.6V | 00:00:00 | 00:00:00 | 00:00:00 | |
| OE8JPQ-2 | 2026-09-05 12:54:52 | 45.79108 | 14.07844 | 359° | 29km/h | 33964m | 2.2m/s | -34.1°C | 1.6% | 0hPa | 2.6V | 00:00:00 | 02:27:42 | 00:00:00 | |
| IW2NTF | 2026-09-05 12:54:49 | 45.79039 | 14.07858 | 338° | 53km/h | 33936m | -1.2m/s | -34.7°C | 1.6% | 0hPa | 2.6V | 08:30:00 | 02:27:37 | 00:00:00 | |
| IN3HCDX1 | 2026-09-05 12:54:48 | 45.79074 | 14.07847 | 355° | 82km/h | 33939m | 7.2m/s | -34.5°C | 0.3% | 0hPa | 2.7V | 00:00:00 | 00:00:00 | 00:00:00 | |
| OE5MMP-10 | 2026-09-05 12:54:46 | 45.79030 | 14.07864 | 327° | 33km/h | 33935m | 4.2m/s | -34.7°C | 1.6% | 0hPa | 2.7V | 00:00:00 | 02:27:36 | 00:00:00 | |
| PG1ADW-2 | 2026-09-05 12:54:41 | 45.79043 | 14.07872 | 79° | 29km/h | 33907m | 0.4m/s | -35.0°C | 1.7% | 0hPa | 2.7V | 00:00:00 | 00:00:00 | 00:00:00 | |
| IW2NTF | 2026-09-05 12:54:40 | 45.78987 | 14.07884 | 333° | 57km/h | 33881m | -0.5m/s | -35.2°C | 1.7% | 0hPa | 2.7V | 08:30:00 | 02:27:26 | 00:00:00 | |
| 9A1FER-3 | 2026-09-05 12:54:39 | 45.79032 | 14.07868 | 1° | 47km/h | 33897m | 9.2m/s | -35.1°C | 1.7% | 0hPa | 2.7V | 00:00:00 | 02:27:29 | 00:00:00 | |
| OE5MMP-10 | 2026-09-05 12:54:36 | 45.78986 | 14.07884 | 334° | 29km/h | 33882m | -0.4m/s | -35.2°C | 1.7% | 0hPa | 2.7V | 00:00:00 | 02:27:26 | 00:00:00 | |
| OE8JPQ-2 | 2026-09-05 12:54:30 | 45.78983 | 14.07890 | 64° | 27km/h | 33857m | 0.9m/s | -35.8°C | 1.8% | 0hPa | 2.7V | 00:00:00 | 00:00:00 | 00:00:00 | |
| OE5DRO-10 | 2026-09-05 12:54:28 | 45.78969 | 14.07882 | 4° | 35km/h | 33845m | 10.5m/s | -35.7°C | 1.7% | 0hPa | 2.6V | 00:00:00 | 00:00:00 | 00:00:00 | |
| IW2NTF | 2026-09-05 12:54:27 | 45.78907 | 14.07905 | 119° | 27km/h | 33804m | 5.4m/s | -35.8°C | 1.8% | 0hPa | 2.6V | 08:30:00 | 02:27:11 | 00:00:00 | |
| OE5MMP-10 | 2026-09-05 12:54:26 | 45.78937 | 14.07892 | 339° | 35km/h | 33829m | 3.0m/s | -35.8°C | 1.8% | 0hPa | 2.7V | 00:00:00 | 02:27:16 | 00:00:00 | |
| PETON7-10 | 2026-09-05 12:54:19 | 45.78908 | 14.07889 | 55° | 31km/h | 33800m | 2.1m/s | -35.7°C | 1.8% | 0hPa | 2.7V | 00:00:00 | 00:00:00 | 08:30:00 | |
| IW2NTF | 2026-09-05 12:54:16 | 45.78853 | 14.07910 | 110° | 18km/h | 33747m | 0.6m/s | -35.5°C | 1.7% | 0hPa | 2.6V | 08:30:00 | 02:26:59 | 00:00:00 | |
| OE5MMP-10 | 2026-09-05 12:54:16 | 45.78880 | 14.07892 | 336° | 29km/h | 33780m | 7.5m/s | -35.7°C | 1.7% | 0hPa | 2.6V | 00:00:00 | 02:27:06 | 00:00:00 | |
| 9A1FER-3 | 2026-09-05 12:54:09 | 45.78853 | 14.07910 | 111° | 27km/h | 33747m | 0.6m/s | -35.4°C | 1.7% | 0hPa | 2.6V | 00:00:00 | 02:26:59 | 00:00:00 | |
| OE8JPQ-2 | 2026-09-05 12:54:08 | 45.78853 | 14.07905 | 40° | 20km/h | 33746m | 2.7m/s | -35.5°C | 1.7% | 0hPa | 2.7V | 00:00:00 | 00:00:00 | 00:00:00 | |
| IN3HCDX1 | 2026-09-05 12:54:07 | 45.78852 | 14.07905 | 40° | 11km/h | 33746m | 2.8m/s | -35.6°C | 0.3% | 0hPa | 2.7V | 00:00:00 | 00:00:00 | 00:00:00 | |
| OE5MMP-10 | 2026-09-05 12:54:06 | 45.78841 | 14.07910 | 332° | 29km/h | 33732m | 9.9m/s | -35.8°C | 1.7% | 0hPa | 2.7V | 00:00:00 | 02:26:56 | 08:30:00 | |
| PETON7-10 | 2026-09-05 12:54:04 | 45.78819 | 14.07932 | 321° | 26km/h | 33720m | 0.3m/s | -35.9°C | 1.7% | 0hPa | 2.7V | 00:00:00 | 00:00:00 | 00:00:00 | |
| IW2NTF | 2026-09-05 12:53:59 | 45.78819 | 14.07938 | 280° | 4km/h | 33686m | 4.3m/s | -36.5°C | 1.8% | 0hPa | 2.7V | 08:30:00 | 02:26:47 | 00:00:00 | |
| PG1ADW-2 | 2026-09-05 12:53:58 | 45.78817 | 14.07938 | 147° | 26km/h | 33690m | 1.7m/s | -36.3°C | 1.8% | 0hPa | 2.6V | 00:00:00 | 02:26:48 | 00:00:00 | |
| OE5MMP-10 | 2026-09-05 12:53:56 | 45.78816 | 14.07941 | 311° | 26km/h | 33681m | 8.0m/s | -36.3°C | 1.8% | 0hPa | 2.6V | 00:00:00 | 02:26:46 | 00:00:00 | |
| 9A1FER-3 | 2026-09-05 12:53:54 | 45.78802 | 14.07962 | 317° | 29km/h | 33666m | 4.2m/s | -36.4°C | 1.8% | 0hPa | 2.6V | 00:00:00 | 02:26:44 | 00:00:00 | |
| IW2NTF | 2026-09-05 12:53:50 | 45.78798 | 14.07979 | 196° | 11km/h | 33631m | 3.3m/s | -36.4°C | 1.8% | 0hPa | 2.6V | 08:30:00 | 02:26:37 | 00:00:00 | |
| OE5DRO-10 | 2026-09-05 12:53:50 | 45.78784 | 14.07987 | 148° | 26km/h | 33646m | 8.5m/s | -36.5°C | 1.8% | 0hPa | 2.7V | 00:00:00 | 00:00:00 | 08:30:00 | |
| OE5MMP-10 | 2026-09-05 12:53:46 | 45.78799 | 14.07982 | 282° | 26km/h | 33626m | 6.3m/s | -36.4°C | 1.8% | 0hPa | 2.6V | 00:00:00 | 02:26:36 | 00:00:00 | |
| OE8JPQ-2 | 2026-09-05 12:53:45 | 45.78796 | 14.07990 | 307° | 29km/h | 33619m | 8.8m/s | -36.4°C | 1.8% | 0hPa | 2.6V | 00:00:00 | 02:26:35 | 00:00:00 | |
| IW2NTF | 2026-09-05 12:53:40 | 45.78782 | 14.08014 | 180° | 16km/h | 33576m | 1m/s | -36.7°C | 1.8% | 0hPa | 2.6V | 08:30:00 | 02:26:27 | 00:00:00 | |
| 9A1FER-3 | 2026-09-05 12:53:39 | 45.78770 | 14.08020 | 149° | 31km/h | 33583m | 7.8m/s | -36.7°C | 1.9% | 0hPa | 2.6V | 00:00:00 | 02:26:29 | 00:00:00 | |
| OE5MMP-10 | 2026-09-05 12:53:36 | 45.78784 | 14.08016 | 256° | 29km/h | 33573m | 4.5m/s | -36.6°C | 1.8% | 0hPa | 2.6V | 00:00:00 | 02:26:26 | 00:00:00 | |
| OE5DRO-10 | 2026-09-05 12:53:31 | 45.78747 | 14.08059 | 336° | 27km/h | 33547m | 2.5m/s | -36.5°C | 1.8% | 0hPa | 2.6V | 00:00:00 | 00:00:00 | 00:00:00 | |
| IW2NTF | 2026-09-05 12:53:30 | 45.78765 | 14.08047 | 176° | 22km/h | 33513m | 1.5m/s | -36.7°C | 1.8% | 0hPa | 2.6V | 08:30:00 | 02:26:16 | 00:00:00 | |
| IV3AMH | 2026-09-05 12:53:29 | 45.78743 | 14.08062 | 351° | 9km/h | 33541m | 8.6m/s | -36.7°C | 0.4% | 0hPa | 2.6V | 00:00:00 | 00:00:00 | 00:00:00 | |
| OE5MMP-10 | 2026-09-05 12:53:25 | 45.78769 | 14.08048 | 243° | 29km/h | 33510m | 4.9m/s | -36.7°C | 1.9% | 0hPa | 2.6V | 00:00:00 | 02:26:15 | 00:00:00 | |
| 9A1FER-3 | 2026-09-05 12:53:24 | 45.78768 | 14.08053 | 302° | 29km/h | 33503m | 9.1m/s | -36.8°C | 1.9% | 0hPa | 2.6V | 00:00:00 | 02:26:14 | 08:30:00 | |
| OE5DXL-15 | 2026-09-05 12:53:23 | 45.78753 | 14.08073 | 328° | 26km/h | 33488m | 3.8m/s | -36.7°C | 1.8% | 0hPa | 2.7V | 00:00:00 | 00:00:00 | 00:00:00 | |
| IW2NTF | 2026-09-05 12:53:16 | 45.78759 | 14.08069 | 193° | 22km/h | 33451m | 3.3m/s | -36.9°C | 1.9% | 0hPa | 2.7V | 08:30:00 | 02:26:05 | 00:00:00 | |
| DB0UT-7 | 2026-09-05 12:53:15 | 45.78759 | 14.08069 | 194° | 29km/h | 33452m | 3.3m/s | -36.8°C | 1.9% | 0hPa | 2.6V | 00:00:00 | 02:26:05 | 00:00:00 | |
| OE5DRO-10 | 2026-09-05 12:53:12 | 45.78755 | 14.08087 | 324° | 26km/h | 33430m | 6.6m/s | -36.7°C | 1.9% | 0hPa | 2.6V | 00:00:00 | 00:00:00 | 00:00:00 | |
| 9A1FER-3 | 2026-09-05 12:53:09 | 45.78737 | 14.08099 | 35° | 26km/h | 33417m | 6.6m/s | -36.8°C | 1.9% | 0hPa | 2.6V | 00:00:00 | 02:25:59 | 00:00:00 | |
| S52SK | 2026-09-05 12:53:08 | 45.78737 | 14.08099 | 36° | 7km/h | 33417m | 6.6m/s | -36.9°C | 0.4% | 0hPa | 2.6V | 00:00:00 | 00:00:00 | 00:00:00 | |
| IW2NTF | 2026-09-05 12:53:06 | 45.78758 | 14.08084 | 183° | 24km/h | 33393m | 2.2m/s | -36.7°C | 1.9% | 0hPa | 2.6V | 08:30:00 | 02:25:55 | 00:00:00 | |
| DB0ND-19 | 2026-09-05 12:53:06 | 45.78758 | 14.08084 | 183° | 22km/h | 33393m | 2.2m/s | -36.7°C | 0.3% | -1.0hPa | 2.7V | 00:00:00 | 00:00:00 | 00:00:00 | |
| OE8JPQ-2 | 2026-09-05 12:53:04 | 45.78762 | 14.08086 | 229° | 24km/h | 33389m | 5.7m/s | -36.6°C | 1.9% | 0hPa | 2.7V | 00:00:00 | 00:00:00 | 00:00:00 | |
| OE5MMP-10 | 2026-09-05 12:53:03 | 45.78762 | 14.08092 | 293° | 24km/h | 33382m | 9.4m/s | -36.7°C | 1.9% | 0hPa | 2.7V | 00:00:00 | 02:25:53 | 00:00:00 | |
| S52SK | 2026-09-05 12:53:02 | 45.78762 | 14.08092 | 294° | 20km/h | 33382m | 9.5m/s | -36.8°C | 0.4% | 0hPa | 2.6V | 00:00:00 | 00:00:00 | 00:00:00 | |
| IV3AMH | 2026-09-05 12:52:58 | 45.78736 | 14.08113 | 4° | 13km/h | 33361m | 5.2m/s | -36.7°C | 0.4% | 0hPa | 2.6V | 00:00:00 | 00:00:00 | 00:00:00 | |
| S52SK | 2026-09-05 12:52:57 | 45.78735 | 14.08111 | 114° | 9km/h | 33353m | 9.4m/s | -36.9°C | 0.4% | 0hPa | 2.6V | 00:00:00 | 00:00:00 | 00:00:00 | |
| IW2NTF | 2026-09-05 12:52:56 | 45.78755 | 14.08097 | 167° | 31km/h | 33334m | 1.5m/s | -36.9°C | 1.9% | 0hPa | 2.6V | 08:30:00 | 02:25:45 | 00:00:00 | |
| 9A1FER-3 | 2026-09-05 12:52:53 | 45.78762 | 14.08099 | 288° | 29km/h | 33325m | 8.1m/s | -36.7°C | 1.9% | 0hPa | 2.6V | 00:00:00 | 02:25:43 | 00:00:00 | |
| OE5DXL-15 | 2026-09-05 12:52:52 | 45.78750 | 14.08111 | 333° | 29km/h | 33308m | 6.4m/s | -36.6°C | 1.9% | 0hPa | 2.6V | 00:00:00 | 00:00:00 | 08:30:00 | |
| IW2NTF | 2026-09-05 12:52:46 | 45.78745 | 14.08111 | 162° | 42km/h | 33273m | 2.7m/s | -36.6°C | 1.9% | 0hPa | 2.6V | 08:30:00 | 02:25:35 | 00:00:00 | |
| DB0UT-7 | 2026-09-05 12:52:44 | 45.78753 | 14.08108 | 170° | 29km/h | 33272m | 1.4m/s | -36.6°C | 1.9% | 0hPa | 2.6V | 00:00:00 | 00:00:00 | 00:00:00 | |
| OE5MMP-10 | 2026-09-05 12:52:43 | 45.78758 | 14.08108 | 206° | 33km/h | 33269m | 5.2m/s | -36.5°C | 1.9% | 0hPa | 2.6V | 00:00:00 | 02:25:33 | 00:00:00 | |
| 9A1FER-3 | 2026-09-05 12:52:38 | 45.78724 | 14.08131 | 347° | 29km/h | 33241m | 3.0m/s | -36.3°C | 1.8% | 0hPa | 2.6V | 00:00:00 | 02:25:28 | 00:00:00 | |
| IW2NTF | 2026-09-05 12:52:36 | 45.78745 | 14.08122 | 170° | 42km/h | 33211m | 0.2m/s | -36.2°C | 1.9% | 0hPa | 2.7V | 08:30:00 | 02:25:24 | 00:00:00 | |
| OE5MMP-10 | 2026-09-05 12:52:33 | 45.78752 | 14.08121 | 180° | 27km/h | 33211m | 0.7m/s | -36.1°C | 1.8% | 0hPa | 2.6V | 00:00:00 | 02:25:23 | 08:30:00 | |
| IW2NTF | 2026-09-05 12:52:26 | 45.78738 | 14.08133 | 180° | 44km/h | 33147m | -0.2m/s | -35.6°C | 1.8% | 0hPa | 2.6V | 08:30:00 | 02:25:13 | 00:00:00 | |
| OE5MMP-10 | 2026-09-05 12:52:23 | 45.78738 | 14.08133 | 181° | 26km/h | 33148m | -0.1m/s | -35.6°C | 1.8% | 0hPa | 2.7V | 00:00:00 | 02:25:13 | 00:00:00 | |
| OE8JPQ-2 | 2026-09-05 12:52:22 | 45.78746 | 14.08134 | 201° | 33km/h | 33148m | 0.8m/s | -35.7°C | 1.7% | 0hPa | 2.7V | 00:00:00 | 00:00:00 | 08:30:00 | |
| IW2NTF | 2026-09-05 12:52:16 | 45.78723 | 14.08146 | 215° | 44km/h | 33084m | 2.8m/s | -36.2°C | 1.8% | 0hPa | 2.6V | 08:30:00 | 02:25:02 | 00:00:00 | |
| PG1ADW-2 | 2026-09-05 12:52:16 | 45.78703 | 14.08147 | 30° | 24km/h | 33113m | 3.7m/s | -36.1°C | 1.8% | 0hPa | 2.6V | 00:00:00 | 00:00:00 | 00:00:00 | |
| OE5MMP-10 | 2026-09-05 12:52:13 | 45.78713 | 14.08140 | 193° | 35km/h | 33089m | 6.4m/s | -36.2°C | 1.8% | 0hPa | 2.6V | 00:00:00 | 02:25:03 | 00:00:00 | |
| 9A1FER-3 | 2026-09-05 12:52:08 | 45.78717 | 14.08182 | 354° | 33km/h | 33063m | 6.1m/s | -36.5°C | 1.8% | 0hPa | 2.6V | 00:00:00 | 02:24:58 | 00:00:00 | |
| OE5DRO-10 | 2026-09-05 12:52:07 | 45.78699 | 14.08173 | 48° | 33km/h | 33054m | 4.0m/s | -36.4°C | 1.8% | 0hPa | 2.6V | 00:00:00 | 00:00:00 | 00:00:00 | |
| IW2NTF | 2026-09-05 12:52:06 | 45.78715 | 14.08161 | 214° | 38km/h | 33028m | 2.8m/s | -36.4°C | 1.8% | 0hPa | 2.6V | 08:30:00 | 02:24:52 | 00:00:00 | |
| OE5MMP-10 | 2026-09-05 12:52:03 | 45.78706 | 14.08156 | 186° | 31km/h | 33033m | 6.7m/s | -36.3°C | 1.9% | 0hPa | 2.7V | 00:00:00 | 02:24:53 | 00:00:00 | |
| OE8JPQ-2 | 2026-09-05 12:52:02 | 45.78715 | 14.08161 | 215° | 33km/h | 33028m | 2.7m/s | -36.3°C | 1.8% | 0hPa | 2.6V | 00:00:00 | 00:00:00 | 00:00:00 | |
| IN3HCDX1 | 2026-09-05 12:52:01 | 45.78715 | 14.08161 | 216° | 38km/h | 33028m | 2.8m/s | -36.4°C | 0.3% | 0hPa | 2.6V | 00:00:00 | 00:00:00 | 00:00:00 | |
| IW2NTF | 2026-09-05 12:51:56 | 45.78706 | 14.08169 | 197° | 40km/h | 32969m | 3.2m/s | -36.5°C | 1.8% | 0hPa | 2.6V | 08:30:00 | 02:24:42 | 00:00:00 | |
| IV3AMH | 2026-09-05 12:51:55 | 45.78689 | 14.08184 | 45° | 29km/h | 32996m | 3.1m/s | -36.4°C | 0.4% | 0hPa | 2.6V | 00:00:00 | 00:00:00 | 00:00:00 | |
| 9A1FER-3 | 2026-09-05 12:51:53 | 45.78697 | 14.08167 | 179° | 29km/h | 32975m | 7.3m/s | -36.5°C | 1.8% | 0hPa | 2.6V | 00:00:00 | 02:24:43 | 00:00:00 | |
| OE5DRO-10 | 2026-09-05 12:51:49 | 45.78706 | 14.08193 | 351° | 29km/h | 32946m | 7.8m/s | -36.6°C | 1.9% | 0hPa | 2.7V | 00:00:00 | 00:00:00 | 00:00:00 | |
| IW2NTF | 2026-09-05 12:51:46 | 45.78703 | 14.08171 | 182° | 44km/h | 32909m | 4.2m/s | -36.7°C | 1.9% | 0hPa | 2.7V | 08:30:00 | 02:24:32 | 00:00:00 | |
| OE5MMP-10 | 2026-09-05 12:51:43 | 45.78692 | 14.08172 | 168° | 27km/h | 32916m | 9.2m/s | -36.7°C | 1.9% | 0hPa | 2.7V | 00:00:00 | 02:24:33 | 00:00:00 | |
| OE8JPQ-2 | 2026-09-05 12:51:42 | 45.78702 | 14.08171 | 183° | 27km/h | 32910m | 4.1m/s | -36.7°C | 1.9% | 0hPa | 2.7V | 00:00:00 | 02:24:32 | 00:00:00 | |
| IN3HCDX1 | 2026-09-05 12:51:40 | 45.78712 | 14.08172 | 192° | 31km/h | 32906m | 2.4m/s | -36.8°C | 0.4% | 0hPa | 2.7V | 00:00:00 | 00:00:00 | 00:00:00 | |
| 9A1FER-3 | 2026-09-05 12:51:38 | 45.78714 | 14.08175 | 13° | 29km/h | 32888m | 8.2m/s | -37.0°C | 1.9% | 0hPa | 2.7V | 00:00:00 | 02:24:28 | 00:00:00 | |
| IW2NTF | 2026-09-05 12:51:37 | 45.78708 | 14.08135 | 164° | 38km/h | 32853m | 4.2m/s | -36.7°C | 1.9% | 0hPa | 2.7V | 08:30:00 | 02:24:22 | 00:00:00 | |
| OE5MMP-10 | 2026-09-05 12:51:33 | 45.78699 | 14.08140 | 147° | 27km/h | 32860m | 8.4m/s | -36.7°C | 1.9% | 0hPa | 2.6V | 00:00:00 | 02:24:23 | 00:00:00 | |
| OE5DRO-10 | 2026-09-05 12:51:29 | 45.78720 | 14.08132 | 5° | 26km/h | 32841m | 8.4m/s | -36.6°C | 1.9% | 0hPa | 2.6V | 00:00:00 | 00:00:00 | 00:00:00 | |
| DO3MHA-11 | 2026-09-05 12:51:27 | 45.78706 | 14.08129 | 13° | 31km/h | 32824m | 6.3m/s | -36.6°C | 1.9% | 0hPa | 2.6V | 00:00:00 | 02:24:17 | 00:00:00 | |
| IW2NTF | 2026-09-05 12:51:26 | 45.78689 | 14.08098 | 146° | 27km/h | 32795m | 5.5m/s | -36.5°C | 1.9% | 0hPa | 2.6V | 08:30:00 | 02:24:12 | 00:00:00 | |
| OE5MMP-10 | 2026-09-05 12:51:23 | 45.78685 | 14.08104 | 122° | 24km/h | 32802m | 8.0m/s | -36.4°C | 1.8% | 0hPa | 2.6V | 00:00:00 | 02:24:13 | 00:00:00 | |
| OE8JPQ-2 | 2026-09-05 12:51:22 | 45.78689 | 14.08098 | 147° | 22km/h | 32796m | 5.4m/s | -36.5°C | 1.9% | 0hPa | 2.6V | 00:00:00 | 00:00:00 | 00:00:00 | |
| IN3HCDX1 | 2026-09-05 12:51:20 | 45.78694 | 14.08094 | 151° | 20km/h | 32791m | 3.0m/s | -36.7°C | 0.4% | 0hPa | 2.7V | 00:00:00 | 00:00:00 | 00:00:00 | |
| IW2NTF | 2026-09-05 12:51:16 | 45.78658 | 14.08057 | 135° | 24km/h | 32739m | 5.9m/s | -36.5°C | 1.9% | 0hPa | 2.7V | 08:30:00 | 02:24:02 | 00:00:00 | |
| S52SK | 2026-09-05 12:51:15 | 45.78669 | 14.08081 | 18° | 42km/h | 32764m | 3.4m/s | -36.6°C | 0.4% | 0hPa | 2.7V | 00:00:00 | 00:00:00 | 00:00:00 | |
| OE5MMP-10 | 2026-09-05 12:51:13 | 45.78656 | 14.08063 | 108° | 18km/h | 32747m | 7.7m/s | -36.4°C | 1.8% | 0hPa | 2.7V | 00:00:00 | 02:24:03 | 00:00:00 | |
| DB0UT-7 | 2026-09-05 12:51:12 | 45.78658 | 14.08057 | 136° | 20km/h | 32740m | 5.9m/s | -36.4°C | 1.9% | 0hPa | 2.7V | 00:00:00 | 02:24:02 | 08:30:00 | |
| S52SK | 2026-09-05 12:51:10 | 45.78665 | 14.08048 | 128° | 9km/h | 32730m | 5.1m/s | -36.7°C | 0.4% | 0hPa | 2.6V | 00:00:00 | 00:00:00 | 00:00:00 | |
| 9A1FER-3 | 2026-09-05 12:51:08 | 45.78661 | 14.08045 | 8° | 20km/h | 32718m | 6.3m/s | -36.6°C | 1.9% | 0hPa | 2.6V | 00:00:00 | 02:23:58 | 08:30:00 | |
| IW2NTF | 2026-09-05 12:51:06 | 45.78648 | 14.08018 | 122° | 24km/h | 32686m | 3.5m/s | -36.9°C | 1.9% | 0hPa | 2.7V | 08:30:00 | 02:23:52 | 00:00:00 | |
| OE5MMP-10 | 2026-09-05 12:51:03 | 45.78645 | 14.08025 | 116° | 20km/h | 32690m | 5.5m/s | -36.7°C | 1.9% | 0hPa | 2.7V | 00:00:00 | 02:23:53 | 08:30:00 | |
| OE8JPQ-2 | 2026-09-05 12:51:02 | 45.78648 | 14.08018 | 123° | 20km/h | 32686m | 3.5m/s | -36.9°C | 1.9% | 0hPa | 2.7V | 00:00:00 | 00:00:00 | 00:00:00 | |
| IN3HCDX1 | 2026-09-05 12:51:01 | 45.78650 | 14.08012 | 112° | 15km/h | 32682m | 3.4m/s | -36.9°C | 0.4% | 0hPa | 2.7V | 00:00:00 | 00:00:00 | 00:00:00 | |
| IW2NTF | 2026-09-05 12:50:57 | 45.78628 | 14.07996 | 132° | 16km/h | 32632m | 3m/s | -37°C | 1.9% | 0hPa | 2.7V | 08:30:00 | 02:23:42 | 00:00:00 | |
| OE5MMP-10 | 2026-09-05 12:50:53 | 45.78625 | 14.08001 | 134° | 22km/h | 32636m | 5.5m/s | -36.9°C | 1.9% | 0hPa | 2.7V | 00:00:00 | 02:23:43 | 00:00:00 | |
| DO3MHA-11 | 2026-09-05 12:50:52 | 45.78628 | 14.07996 | 133° | 27km/h | 32632m | 2.9m/s | -37.0°C | 1.9% | 0hPa | 2.7V | 00:00:00 | 02:23:42 | 00:00:00 | |
| OE5DRO-10 | 2026-09-05 12:50:51 | 45.78629 | 14.07993 | 90° | 24km/h | 32629m | 3.8m/s | -36.8°C | 1.9% | 0hPa | 2.7V | 00:00:00 | 00:00:00 | 08:30:00 | |
| IW2NTF | 2026-09-05 12:50:47 | 45.78601 | 14.07984 | 126° | 5km/h | 32576m | 2.1m/s | -37.1°C | 1.9% | 0hPa | 2.7V | 08:30:00 | 02:23:31 | 00:00:00 | |
| OE5MMP-10 | 2026-09-05 12:50:43 | 45.78594 | 14.07992 | 140° | 26km/h | 32583m | 6.1m/s | -37.0°C | 1.9% | 0hPa | 2.7V | 00:00:00 | 02:23:33 | 00:00:00 | |
| DO3MHA-11 | 2026-09-05 12:50:42 | 45.78599 | 14.07987 | 144° | 27km/h | 32579m | 1.6m/s | -36.8°C | 1.9% | 0hPa | 2.7V | 00:00:00 | 02:23:32 | 08:30:00 | |
| IN3HCDX1 | 2026-09-05 12:50:39 | 45.78601 | 14.07983 | 350° | 11km/h | 32572m | 6.5m/s | -37.2°C | 0.4% | 0hPa | 2.7V | 00:00:00 | 00:00:00 | 00:00:00 | |
| 9A1FER-3 | 2026-09-05 12:50:38 | 45.78586 | 14.07990 | 342° | 27km/h | 32556m | 7.0m/s | -37.4°C | 1.9% | 0hPa | 2.7V | 00:00:00 | 02:23:28 | 00:00:00 | |
| IW2NTF | 2026-09-05 12:50:37 | 45.78571 | 14.07979 | 142° | 22km/h | 32522m | 1.7m/s | -37.8°C | 2% | 0hPa | 2.7V | 08:30:00 | 02:23:21 | 00:00:00 | |
| OE5MMP-10 | 2026-09-05 12:50:33 | 45.78559 | 14.07991 | 142° | 26km/h | 32530m | 8.5m/s | -37.6°C | 1.9% | 0hPa | 2.6V | 00:00:00 | 02:23:23 | 00:00:00 | |
| OE5DRO-10 | 2026-09-05 12:50:32 | 45.78565 | 14.07984 | 147° | 24km/h | 32525m | 2.8m/s | -37.7°C | 2.0% | 0hPa | 2.7V | 00:00:00 | 00:00:00 | 00:00:00 | |
| DO3MHA-11 | 2026-09-05 12:50:30 | 45.78573 | 14.07975 | 94° | 22km/h | 32519m | 4.4m/s | -37.7°C | 1.9% | 0hPa | 2.7V | 00:00:00 | 02:23:20 | 00:00:00 | |
| IW2NTF | 2026-09-05 12:50:26 | 45.78550 | 14.07971 | 109° | 20km/h | 32465m | 4.1m/s | -38.2°C | 1.9% | 0hPa | 2.7V | 08:30:00 | 02:23:10 | 00:00:00 | |
| OE5MMP-10 | 2026-09-05 12:50:23 | 45.78536 | 14.07992 | 144° | 22km/h | 32481m | 8.7m/s | -38.0°C | 2.0% | 0hPa | 2.6V | 00:00:00 | 02:23:13 | 00:00:00 | |
| OE8JPQ-2 | 2026-09-05 12:50:22 | 45.78540 | 14.07986 | 140° | 22km/h | 32473m | 5.6m/s | -38.1°C | 2.0% | 0hPa | 2.6V | 00:00:00 | 00:00:00 | 00:00:00 | |
| IN3HCDX1 | 2026-09-05 12:50:19 | 45.78549 | 14.07971 | 110° | 20km/h | 32465m | 4.1m/s | -38.2°C | 0.4% | 0hPa | 2.7V | 00:00:00 | 00:00:00 | 00:00:00 | |
| DO3MHA-11 | 2026-09-05 12:50:17 | 45.78539 | 14.07966 | 342° | 20km/h | 32448m | 5.0m/s | -38.3°C | 2.0% | 0hPa | 2.7V | 00:00:00 | 02:23:07 | 00:00:00 | |
| IW2NTF | 2026-09-05 12:50:14 | 45.78538 | 14.07943 | 3° | 26km/h | 32403m | 7.6m/s | -38.5°C | 2% | 0hPa | 2.7V | 08:30:00 | 02:22:58 | 00:00:00 | |
| OE5MMP-10 | 2026-09-05 12:50:13 | 45.78532 | 14.07973 | 150° | 22km/h | 32429m | 7.0m/s | -38.1°C | 2.0% | 0hPa | 2.6V | 00:00:00 | 02:23:03 | 00:00:00 | |
| DB0UT-7 | 2026-09-05 12:50:12 | 45.78537 | 14.07967 | 138° | 20km/h | 32423m | 4.0m/s | -38.1°C | 2.0% | 0hPa | 2.6V | 00:00:00 | 02:23:02 | 00:00:00 | |
| 9A1FER-3 | 2026-09-05 12:50:08 | 45.78538 | 14.07943 | 4° | 22km/h | 32404m | 7.5m/s | -38.4°C | 2.0% | 0hPa | 2.6V | 00:00:00 | 02:22:58 | 00:00:00 | |
| DO3MHA-11 | 2026-09-05 12:50:06 | 45.78524 | 14.07947 | 336° | 22km/h | 32394m | 2.4m/s | -38.3°C | 2.0% | 0hPa | 2.6V | 00:00:00 | 02:22:56 | 00:00:00 | |
| OE5MMP-10 | 2026-09-05 12:50:03 | 45.78525 | 14.07948 | 152° | 24km/h | 32378m | 6.5m/s | -38.5°C | 2.0% | 0hPa | 2.7V | 00:00:00 | 02:22:53 | 00:00:00 | |
| OE8JPQ-2 | 2026-09-05 12:50:02 | 45.78531 | 14.07942 | 141° | 22km/h | 32373m | 3.0m/s | -38.5°C | 2.0% | 0hPa | 2.6V | 00:00:00 | 00:00:00 | 00:00:00 | |
| IW2NTF | 2026-09-05 12:50:00 | 45.78532 | 14.07915 | 13° | 29km/h | 32352m | 7.3m/s | -38.6°C | 2% | 0hPa | 2.6V | 08:30:00 | 02:22:48 | 00:00:00 | |
| DB0ND-19 | 2026-09-05 12:49:59 | 45.78537 | 14.07919 | 46° | 20km/h | 32360m | 7.5m/s | -38.6°C | 0.4% | -1.0hPa | 2.7V | 00:00:00 | 00:00:00 | 00:00:00 | |
| IN3HCDX1 | 2026-09-05 12:49:58 | 45.78537 | 14.07919 | 48° | 20km/h | 32360m | 7.5m/s | -38.5°C | 0.4% | 0hPa | 2.7V | 00:00:00 | 00:00:00 | 00:00:00 | |
| DO3MHA-11 | 2026-09-05 12:49:56 | 45.78517 | 14.07914 | 360° | 18km/h | 32343m | 3.6m/s | -38.4°C | 2.1% | 0hPa | 2.7V | 00:00:00 | 02:22:46 | 00:00:00 | |
| IW2NTF | 2026-09-05 12:49:54 | 45.78506 | 14.07876 | 23° | 31km/h | 32303m | 5.2m/s | -38.5°C | 2.1% | 0hPa | 2.7V | 08:30:00 | 02:22:38 | 00:00:00 | |
| 9A1FER-3 | 2026-09-05 12:49:53 | 45.78512 | 14.07906 | 123° | 20km/h | 32328m | 4.7m/s | -38.7°C | 2.1% | 0hPa | 2.7V | 00:00:00 | 02:22:43 | 00:00:00 | |
| DO3MHA-11 | 2026-09-05 12:49:46 | 45.78493 | 14.07868 | 34° | 16km/h | 32296m | 3.8m/s | -38.5°C | 2.0% | 0hPa | 2.7V | 00:00:00 | 02:22:36 | 00:00:00 | |
| IW2NTF | 2026-09-05 12:49:44 | 45.78486 | 14.07846 | 18° | 33km/h | 32255m | 3.8m/s | -38.4°C | 2% | 0hPa | 2.7V | 08:30:00 | 02:22:28 | 00:00:00 | |
| OE5MMP-10 | 2026-09-05 12:49:43 | 45.78495 | 14.07856 | 154° | 18km/h | 32279m | 3.8m/s | -38.4°C | 2.1% | 0hPa | 2.7V | 00:00:00 | 02:22:33 | 00:00:00 | |
| DB0UT-7 | 2026-09-05 12:49:42 | 45.78498 | 14.07853 | 154° | 22km/h | 32276m | 2.3m/s | -38.3°C | 2.1% | 0hPa | 2.7V | 00:00:00 | 00:00:00 | 00:00:00 | |
| 9A1FER-3 | 2026-09-05 12:49:38 | 45.78486 | 14.07846 | 19° | 24km/h | 32255m | 3.7m/s | -38.3°C | 2.0% | 0hPa | 2.7V | 00:00:00 | 02:22:28 | 00:00:00 | |
| DO3MHA-11 | 2026-09-05 12:49:36 | 45.78474 | 14.07835 | 58° | 20km/h | 32248m | 5.0m/s | -38.1°C | 2.0% | 0hPa | 2.7V | 00:00:00 | 02:22:26 | 00:00:00 | |
| OE5DRO-10 | 2026-09-05 12:49:35 | 45.78480 | 14.07817 | 158° | 22km/h | 32232m | 2.3m/s | -38.1°C | 2.0% | 0hPa | 2.6V | 00:00:00 | 00:00:00 | 00:00:00 | |
| IW2NTF | 2026-09-05 12:49:34 | 45.78467 | 14.07819 | 4° | 35km/h | 32207m | 2.4m/s | -38.3°C | 2% | 0hPa | 2.6V | 08:30:00 | 02:22:18 | 00:00:00 | |
| OE5MMP-10 | 2026-09-05 12:49:33 | 45.78480 | 14.07817 | 158° | 20km/h | 32232m | 2.3m/s | -38.1°C | 2.0% | 0hPa | 2.6V | 00:00:00 | 02:22:23 | 08:30:00 | |
| DB0ND-19 | 2026-09-05 12:49:28 | 45.78459 | 14.07817 | 21° | 24km/h | 32205m | 2.2m/s | -38.5°C | 0.4% | -1.0hPa | 2.6V | 00:00:00 | 00:00:00 | 00:00:00 | |
| PG1ADW-2 | 2026-09-05 12:49:27 | 45.78459 | 14.07817 | 22° | 20km/h | 32205m | 2.2m/s | -38.4°C | 2.0% | 0hPa | 2.6V | 00:00:00 | 02:22:17 | 00:00:00 | |
| DO3MHA-11 | 2026-09-05 12:49:26 | 45.78456 | 14.07813 | 60° | 22km/h | 32201m | 5.7m/s | -38.5°C | 2.0% | 0hPa | 2.6V | 00:00:00 | 02:22:16 | 00:00:00 | |
| IW2NTF | 2026-09-05 12:49:23 | 45.78457 | 14.07806 | 352° | 38km/h | 32159m | 2.3m/s | -38.8°C | 2.1% | 0hPa | 2.6V | 08:30:00 | 02:22:08 | 00:00:00 | |
| OE5DXL-15 | 2026-09-05 12:49:23 | 45.78468 | 14.07798 | 167° | 22km/h | 32183m | 1.4m/s | -38.5°C | 2.0% | 0hPa | 2.7V | 00:00:00 | 00:00:00 | 00:00:00 | |
| OE8JPQ-2 | 2026-09-05 12:49:22 | 45.78473 | 14.07797 | 182° | 22km/h | 32182m | 1.7m/s | -38.5°C | 2.0% | 0hPa | 2.7V | 00:00:00 | 00:00:00 | 08:30:00 | |
| 9A1FER-3 | 2026-09-05 12:49:21 | 45.78476 | 14.07798 | 257° | 24km/h | 32178m | 5.9m/s | -38.7°C | 2.1% | 0hPa | 2.6V | 00:00:00 | 02:22:11 | 00:00:00 | |
| IN3HCDX1 | 2026-09-05 12:49:17 | 45.78457 | 14.07806 | 354° | 38km/h | 32159m | 2.3m/s | -38.8°C | 0.4% | 0hPa | 2.6V | 00:00:00 | 00:00:00 | 00:00:00 | |
| DO3MHA-11 | 2026-09-05 12:49:16 | 45.78445 | 14.07806 | 35° | 22km/h | 32153m | 5.3m/s | -38.9°C | 2.1% | 0hPa | 2.6V | 00:00:00 | 02:22:06 | 00:00:00 | |
| OE5MMP-10 | 2026-09-05 12:49:13 | 45.78456 | 14.07792 | 155° | 22km/h | 32135m | 1.5m/s | -38.7°C | 2.1% | 0hPa | 2.6V | 00:00:00 | 02:22:03 | 00:00:00 | |
| IW2NTF | 2026-09-05 12:49:11 | 45.78430 | 14.07786 | 144° | 7km/h | 32100m | 7.1m/s | -38.4°C | 2% | 0hPa | 2.6V | 08:30:00 | 02:21:55 | 00:00:00 | |
| S52SK | 2026-09-05 12:49:10 | 45.78464 | 14.07785 | 90° | 5km/h | 32130m | 5.0m/s | -38.8°C | 0.4% | 0hPa | 2.6V | 00:00:00 | 00:00:00 | 00:00:00 | |
| PG1ADW-2 | 2026-09-05 12:49:07 | 45.78436 | 14.07786 | 357° | 20km/h | 32109m | 2.1m/s | -38.5°C | 2.0% | 0hPa | 2.6V | 00:00:00 | 00:00:00 | 00:00:00 | |
| 9A1FER-3 | 2026-09-05 12:49:06 | 45.78431 | 14.07786 | 4° | 18km/h | 32106m | 4.5m/s | -38.5°C | 2.0% | 0hPa | 2.7V | 00:00:00 | 02:21:56 | 00:00:00 | |
| OE5MMP-10 | 2026-09-05 12:49:03 | 45.78440 | 14.07782 | 167° | 20km/h | 32088m | 3.1m/s | -38.1°C | 2.0% | 0hPa | 2.7V | 00:00:00 | 02:21:53 | 00:00:00 | |
| DO3MHA-12 | 2026-09-05 12:49:02 | 45.78446 | 14.07780 | 172° | 18km/h | 32086m | 1.7m/s | -38.2°C | 2.0% | 0hPa | 2.6V | 00:00:00 | 02:21:52 | 00:00:00 | |
| IW2NTF | 2026-09-05 12:48:57 | 45.78422 | 14.07790 | 182° | 5km/h | 32052m | 7.6m/s | -38.4°C | 1.9% | 0hPa | 2.6V | 08:30:00 | 02:21:45 | 00:00:00 | |
| DO3MHA-11 | 2026-09-05 12:48:56 | 45.78423 | 14.07789 | 345° | 20km/h | 32059m | 4.5m/s | -38.3°C | 1.9% | 0hPa | 2.7V | 00:00:00 | 02:21:46 | 00:00:00 | |
| OE5MMP-10 | 2026-09-05 12:48:53 | 45.78433 | 14.07788 | 176° | 22km/h | 32040m | 3.2m/s | -38.4°C | 2.0% | 0hPa | 2.7V | 00:00:00 | 02:21:43 | 00:00:00 | |
| 9A1FER-3 | 2026-09-05 12:48:51 | 45.78442 | 14.07789 | 221° | 24km/h | 32035m | 4.4m/s | -38.3°C | 1.9% | 0hPa | 2.7V | 00:00:00 | 02:21:41 | 08:30:00 | |
| IW2NTF | 2026-09-05 12:48:49 | 45.78429 | 14.07806 | 176° | 40km/h | 31991m | 4.4m/s | -39.2°C | 2% | 0hPa | 2.7V | 08:30:00 | 02:21:33 | 00:00:00 | |
| PG1ADW-2 | 2026-09-05 12:48:48 | 45.78419 | 14.07800 | 340° | 26km/h | 32016m | 0.6m/s | -38.7°C | 1.9% | 0hPa | 2.6V | 00:00:00 | 00:00:00 | 00:00:00 | |
| DO3MHA-12 | 2026-09-05 12:48:46 | 45.78415 | 14.07803 | 321° | 20km/h | 32013m | 4.2m/s | -38.7°C | 1.9% | 0hPa | 2.6V | 00:00:00 | 02:21:36 | 00:00:00 | |
| OE5MMP-10 | 2026-09-05 12:48:43 | 45.78429 | 14.07806 | 177° | 26km/h | 31991m | 4.4m/s | -39.2°C | 2.0% | 0hPa | 2.7V | 00:00:00 | 02:21:33 | 00:00:00 | |
| DB0UT-7 | 2026-09-05 12:48:42 | 45.78438 | 14.07805 | 175° | 18km/h | 31988m | 1.5m/s | -39.3°C | 2.0% | 0hPa | 2.7V | 00:00:00 | 00:00:00 | 00:00:00 | |
| IN3HCDX1 | 2026-09-05 12:48:37 | 45.78428 | 14.07813 | 338° | 27km/h | 31964m | 2.4m/s | -39.8°C | 0.4% | 0hPa | 2.7V | 00:00:00 | 00:00:00 | 00:00:00 | |
| 9A1FER-3 | 2026-09-05 12:48:36 | 45.78423 | 14.07817 | 319° | 24km/h | 31961m | 3.8m/s | -39.8°C | 2.0% | 0hPa | 2.7V | 00:00:00 | 02:21:26 | 00:00:00 | |
| DO3MHA-12 | 2026-09-05 12:48:35 | 45.78423 | 14.07820 | 228° | 15km/h | 31956m | 6.4m/s | -39.9°C | 2.0% | 0hPa | 2.7V | 00:00:00 | 02:21:25 | 00:00:00 | |
| IW2NTF | 2026-09-05 12:48:34 | 45.78442 | 14.07820 | 169° | 27km/h | 31941m | 0.5m/s | -40.4°C | 2.1% | 0hPa | 2.7V | 08:30:00 | 02:21:22 | 00:00:00 | |
| IV3AMH | 2026-09-05 12:48:34 | 45.78427 | 14.07822 | 187° | 26km/h | 31949m | 7.5m/s | -40.1°C | 0.5% | 0hPa | 2.7V | 00:00:00 | 00:00:00 | 00:00:00 | |
| OE5MMP-10 | 2026-09-05 12:48:33 | 45.78434 | 14.07822 | 176° | 20km/h | 31943m | 3.8m/s | -40.2°C | 2.1% | 0hPa | 2.7V | 00:00:00 | 02:21:23 | 00:00:00 | |
| DB0ND-19 | 2026-09-05 12:48:26 | 45.78413 | 14.07824 | 318° | 9km/h | 31907m | 6.0m/s | -41.1°C | -1.0% | -1.0hPa | 2.7V | 00:00:00 | 00:00:00 | 00:00:00 | |
| IW2NTF | 2026-09-05 12:48:23 | 45.78425 | 14.07824 | 162° | 24km/h | 31891m | 1.6m/s | -41.4°C | 2.3% | 0hPa | 2.7V | 08:30:00 | 02:21:12 | 00:00:00 | |
| OE5MMP-10 | 2026-09-05 12:48:23 | 45.78419 | 14.07826 | 176° | 29km/h | 31894m | 5.0m/s | -41.3°C | 2.3% | 0hPa | 2.6V | 00:00:00 | 02:21:13 | 00:00:00 | |
| DO3MHA-12 | 2026-09-05 12:48:22 | 45.78425 | 14.07824 | 163° | 26km/h | 31891m | 1.5m/s | -41.3°C | 2.3% | 0hPa | 2.6V | 00:00:00 | 02:21:12 | 00:00:00 | |
| OE8JPQ-2 | 2026-09-05 12:48:20 | 45.78428 | 14.07818 | 37° | 27km/h | 31885m | 6.2m/s | -41.4°C | 2.2% | 0hPa | 2.6V | 00:00:00 | 00:00:00 | 00:00:00 | |
| DO3MHA-11 | 2026-09-05 12:48:16 | 45.78392 | 14.07827 | 330° | 27km/h | 31862m | 2.7m/s | -41.6°C | 2.3% | 0hPa | 2.7V | 00:00:00 | 02:21:06 | 00:00:00 | |
| IW2NTF | 2026-09-05 12:48:13 | 45.78392 | 14.07832 | 125° | 26km/h | 31842m | 4.2m/s | -42.2°C | 2.4% | 0hPa | 2.7V | 08:30:00 | 02:21:02 | 00:00:00 | |
| OE5MMP-10 | 2026-09-05 12:48:13 | 45.78388 | 14.07837 | 157° | 29km/h | 31847m | 5.4m/s | -42.0°C | 2.3% | 0hPa | 2.7V | 00:00:00 | 02:21:03 | 00:00:00 | |
| DO3MHA-11 | 2026-09-05 12:48:06 | 45.78359 | 14.07819 | 307° | 26km/h | 31812m | 6.1m/s | -42.1°C | 2.5% | 0hPa | 2.7V | 00:00:00 | 02:20:56 | 00:00:00 | |
| IW2NTF | 2026-09-05 12:48:04 | 45.78360 | 14.07843 | 87° | 9km/h | 31792m | 5.6m/s | -42.2°C | 2.4% | 0hPa | 2.6V | 08:30:00 | 02:20:52 | 00:00:00 | |
| OE5MMP-10 | 2026-09-05 12:48:03 | 45.78358 | 14.07843 | 209° | 27km/h | 31797m | 3.3m/s | -42.1°C | 2.4% | 0hPa | 2.6V | 00:00:00 | 02:20:53 | 08:30:00 | |
| DB0ND-19 | 2026-09-05 12:47:55 | 45.78324 | 14.07843 | 253° | 38km/h | 31754m | 8.9m/s | 0°C | -1.0% | -1.0hPa | 2.7V | 00:00:00 | 00:00:00 | 00:00:00 | |
| IW2NTF | 2026-09-05 12:47:54 | 45.78334 | 14.07873 | 267° | 11km/h | 31745m | 4.7m/s | -42.1°C | 2.4% | 0hPa | 2.7V | 08:30:00 | 02:20:42 | 00:00:00 | |
| OE5DXL-15 | 2026-09-05 12:47:53 | 45.78332 | 14.07867 | 242° | 26km/h | 31747m | 0.3m/s | -42.0°C | 2.4% | 0hPa | 2.7V | 00:00:00 | 00:00:00 | 00:00:00 | |
| 9A1FER-3 | 2026-09-05 12:47:51 | 45.78332 | 14.07875 | 9° | 24km/h | 31738m | 9.0m/s | -41.9°C | 2.3% | 0hPa | 2.7V | 00:00:00 | 02:20:41 | 00:00:00 | |
| DO3MHA-11 | 2026-09-05 12:47:46 | 45.78299 | 14.07862 | 285° | 26km/h | 31713m | 7.9m/s | -42.1°C | 2.5% | 0hPa | 2.7V | 00:00:00 | 02:20:36 | 00:00:00 | |
| IW2NTF | 2026-09-05 12:47:44 | 45.78313 | 14.07916 | 294° | 16km/h | 31684m | 6m/s | -42.2°C | 2.4% | 0hPa | 2.7V | 08:30:00 | 02:20:31 | 00:00:00 | |
| OE5MMP-10 | 2026-09-05 12:47:41 | 45.78313 | 14.07916 | 295° | 22km/h | 31685m | 6.0m/s | -42.2°C | 2.4% | 0hPa | 2.7V | 00:00:00 | 02:20:31 | 00:00:00 | |
| OE8JPQ-2 | 2026-09-05 12:47:40 | 45.78310 | 14.07919 | 356° | 26km/h | 31678m | 7.4m/s | -42.2°C | 2.4% | 0hPa | 2.7V | 00:00:00 | 02:20:30 | 00:00:00 | |
| DO3MHA-11 | 2026-09-05 12:47:36 | 45.78294 | 14.07911 | 238° | 22km/h | 31657m | 6.0m/s | -41.9°C | 2.4% | 0hPa | 2.7V | 00:00:00 | 02:20:26 | 08:30:00 | |
| IN3HCDX1 | 2026-09-05 12:47:35 | 45.78294 | 14.07911 | 239° | 5km/h | 31657m | 6.1m/s | -41.9°C | 0.5% | 0hPa | 2.6V | 00:00:00 | 00:00:00 | 00:00:00 | |
| IW2NTF | 2026-09-05 12:47:34 | 45.78306 | 14.07955 | 295° | 22km/h | 31631m | 6.8m/s | -41.8°C | 2.4% | 0hPa | 2.6V | 08:30:00 | 02:20:21 | 00:00:00 | |
| 9A1FER-3 | 2026-09-05 12:47:34 | 45.78301 | 14.07923 | 235° | 29km/h | 31644m | 5.4m/s | -41.8°C | 2.4% | 0hPa | 2.7V | 00:00:00 | 02:20:24 | 00:00:00 | |
| OE5MMP-10 | 2026-09-05 12:47:28 | 45.78293 | 14.07955 | 51° | 27km/h | 31614m | 2.6m/s | -41.7°C | 2.4% | 0hPa | 2.7V | 00:00:00 | 02:20:18 | 00:00:00 | |
| DO3MHA-11 | 2026-09-05 12:47:26 | 45.78295 | 14.07951 | 196° | 27km/h | 31605m | 7.0m/s | -41.5°C | 2.3% | 0hPa | 2.6V | 00:00:00 | 02:20:16 | 00:00:00 | |
| OE5DRO-10 | 2026-09-05 12:47:25 | 45.78301 | 14.07956 | 219° | 27km/h | 31598m | 6.7m/s | -41.6°C | 2.3% | 0hPa | 2.6V | 00:00:00 | 00:00:00 | 00:00:00 | |
| IW2NTF | 2026-09-05 12:47:24 | 45.78299 | 14.08011 | 19° | 18km/h | 31566m | 3.4m/s | -41.6°C | 2.3% | 0hPa | 2.6V | 08:30:00 | 02:20:09 | 00:00:00 | |
| OE5DXL-15 | 2026-09-05 12:47:23 | 45.78312 | 14.07981 | 256° | 27km/h | 31589m | 3.3m/s | -41.6°C | 2.3% | 0hPa | 2.6V | 00:00:00 | 02:20:13 | 00:00:00 | |
| OE8JPQ-2 | 2026-09-05 12:47:20 | 45.78304 | 14.08011 | 346° | 27km/h | 31571m | 5.9m/s | -41.6°C | 2.3% | 0hPa | 2.6V | 00:00:00 | 00:00:00 | 00:00:00 | |
| 9A1FER-3 | 2026-09-05 12:47:19 | 45.78299 | 14.08011 | 20° | 29km/h | 31566m | 3.4m/s | -41.5°C | 2.3% | 0hPa | 2.6V | 00:00:00 | 02:20:09 | 00:00:00 | |
| OE5MMP-10 | 2026-09-05 12:47:18 | 45.78297 | 14.08008 | 84° | 31km/h | 31563m | 3.5m/s | -41.6°C | 2.3% | 0hPa | 2.6V | 00:00:00 | 02:20:08 | 00:00:00 | |
| DO3MHA-11 | 2026-09-05 12:47:16 | 45.78304 | 14.08008 | 198° | 29km/h | 31550m | 7.9m/s | -41.5°C | 2.3% | 0hPa | 2.6V | 00:00:00 | 02:20:06 | 00:00:00 | |
| IN3HCDX1 | 2026-09-05 12:47:15 | 45.78313 | 14.08014 | 215° | 46km/h | 31543m | 5.5m/s | -41.5°C | 0.5% | 0hPa | 2.6V | 00:00:00 | 00:00:00 | 00:00:00 | |
| IW2NTF | 2026-09-05 12:47:13 | 45.78312 | 14.08063 | 9° | 15km/h | 31512m | 2.9m/s | -41.6°C | 2.4% | 0hPa | 2.6V | 08:30:00 | 02:19:59 | 00:00:00 | |
| S52SK | 2026-09-05 12:47:11 | 45.78323 | 14.08058 | 321° | 27km/h | 31523m | 8.0m/s | -41.8°C | 0.5% | 0hPa | 2.7V | 00:00:00 | 00:00:00 | 00:00:00 | |
| OE5MMP-10 | 2026-09-05 12:47:08 | 45.78310 | 14.08062 | 153° | 27km/h | 31509m | 4.7m/s | -41.5°C | 2.4% | 0hPa | 2.7V | 00:00:00 | 02:19:58 | 00:00:00 | |
| DO3MHA-11 | 2026-09-05 12:47:06 | 45.78319 | 14.08067 | 207° | 29km/h | 31495m | 7.4m/s | -41.7°C | 2.4% | 0hPa | 2.7V | 00:00:00 | 02:19:56 | 00:00:00 | |
| S52SK | 2026-09-05 12:47:05 | 45.78319 | 14.08067 | 207° | 37km/h | 31495m | 7.5m/s | -41.8°C | 0.5% | 0hPa | 2.6V | 00:00:00 | 00:00:00 | 00:00:00 | |
| IW2NTF | 2026-09-05 12:47:04 | 45.78339 | 14.08124 | 301° | 15km/h | 31457m | 4.2m/s | -41.5°C | 2.3% | 0hPa | 2.6V | 08:30:00 | 02:19:49 | 00:00:00 | |
| 9A1FER-3 | 2026-09-05 12:47:01 | 45.78345 | 14.08113 | 300° | 22km/h | 31468m | 6.5m/s | -41.6°C | 2.3% | 0hPa | 2.6V | 00:00:00 | 02:19:51 | 00:00:00 | |
| OE8JPQ-2 | 2026-09-05 12:47:00 | 45.78342 | 14.08119 | 316° | 20km/h | 31462m | 4.9m/s | -41.5°C | 2.3% | 0hPa | 2.6V | 00:00:00 | 00:00:00 | 00:00:00 | |
| DB0UT-7 | 2026-09-05 12:46:59 | 45.78339 | 14.08123 | 302° | 18km/h | 31457m | 4.2m/s | -41.5°C | 2.3% | 0hPa | 2.6V | 00:00:00 | 02:19:49 | 00:00:00 | |
| OE5MMP-10 | 2026-09-05 12:46:58 | 45.78339 | 14.08129 | 254° | 20km/h | 31453m | 5.1m/s | -41.6°C | 2.3% | 0hPa | 2.7V | 00:00:00 | 02:19:48 | 00:00:00 | |
| DO3MHA-11 | 2026-09-05 12:46:56 | 45.78347 | 14.08140 | 210° | 24km/h | 31441m | 5.4m/s | -41.5°C | 2.4% | 0hPa | 2.6V | 00:00:00 | 02:19:46 | 00:00:00 | |
| IN3HCDX1 | 2026-09-05 12:46:54 | 45.78355 | 14.08145 | 206° | 35km/h | 31436m | 4.2m/s | -41.4°C | 0.5% | 0hPa | 2.6V | 00:00:00 | 00:00:00 | 00:00:00 | |
| IW2NTF | 2026-09-05 12:46:53 | 45.78369 | 14.08172 | 248° | 18km/h | 31404m | 4.7m/s | -41.3°C | 2.3% | 0hPa | 2.6V | 08:30:00 | 02:19:39 | 00:00:00 | |
| IN3HCDX | 2026-09-05 12:46:53 | 45.78367 | 14.08154 | 215° | 18km/h | 31426m | 6.1m/s | -41.4°C | 0.5% | 0hPa | 2.7V | 00:00:00 | 00:00:00 | 00:00:00 | |
| OE5DXL-15 | 2026-09-05 12:46:52 | 45.78369 | 14.08158 | 251° | 20km/h | 31420m | 6.7m/s | -41.4°C | 2.4% | 0hPa | 2.7V | 00:00:00 | 00:00:00 | 00:00:00 | |
| OE5MMP-10 | 2026-09-05 12:46:48 | 45.78372 | 14.08178 | 224° | 26km/h | 31399m | 6.8m/s | -41.2°C | 2.3% | 0hPa | 2.7V | 00:00:00 | 02:19:38 | 00:00:00 | |
| OE5DRO-10 | 2026-09-05 12:46:47 | 45.78379 | 14.08184 | 209° | 20km/h | 31393m | 6.2m/s | -41.2°C | 2.3% | 0hPa | 2.7V | 00:00:00 | 00:00:00 | 00:00:00 | |
| DO3MHA-11 | 2026-09-05 12:46:46 | 45.78387 | 14.08190 | 200° | 20km/h | 31387m | 3.9m/s | -41.3°C | 2.3% | 0hPa | 2.6V | 00:00:00 | 02:19:36 | 00:00:00 | |
| IW2NTF | 2026-09-05 12:46:44 | 45.78402 | 14.08204 | 225° | 20km/h | 31351m | 6.7m/s | -41.3°C | 2.3% | 0hPa | 2.6V | 08:30:00 | 02:19:29 | 00:00:00 | |
| OE8JPQ-2 | 2026-09-05 12:46:40 | 45.78400 | 14.08199 | 263° | 18km/h | 31357m | 4.0m/s | -41.2°C | 2.3% | 0hPa | 2.7V | 00:00:00 | 02:19:30 | 00:00:00 | |
| OE5MMP-10 | 2026-09-05 12:46:38 | 45.78408 | 14.08209 | 209° | 16km/h | 31345m | 6.9m/s | -41.2°C | 2.3% | 0hPa | 2.7V | 00:00:00 | 02:19:28 | 00:00:00 | |
| DO3MHA-11 | 2026-09-05 12:46:36 | 45.78425 | 14.08218 | 192° | 18km/h | 31336m | 3.0m/s | -41.1°C | 2.3% | 0hPa | 2.7V | 00:00:00 | 02:19:26 | 00:00:00 | |
| IW2NTF | 2026-09-05 12:46:35 | 45.78433 | 14.08216 | 210° | 22km/h | 31297m | 7m/s | -41°C | 2.3% | 0hPa | 2.6V | 08:30:00 | 02:19:19 | 00:00:00 | |
| IN3HCDX1 | 2026-09-05 12:46:34 | 45.78435 | 14.08218 | 148° | 9km/h | 31325m | 7.7m/s | -41.2°C | 0.5% | 0hPa | 2.6V | 00:00:00 | 00:00:00 | 00:00:00 | |
| 9A1FER-3 | 2026-09-05 12:46:31 | 45.78430 | 14.08212 | 3° | 22km/h | 31308m | 3.4m/s | -41.0°C | 2.3% | 0hPa | 2.6V | 00:00:00 | 02:19:21 | 08:30:00 | |
| DB0UT-7 | 2026-09-05 12:46:29 | 45.78433 | 14.08216 | 211° | 20km/h | 31297m | 7.0m/s | -41.0°C | 2.3% | 0hPa | 2.7V | 00:00:00 | 00:00:00 | 00:00:00 | |
| OE5MMP-10 | 2026-09-05 12:46:28 | 45.78439 | 14.08221 | 204° | 20km/h | 31291m | 5.3m/s | -41.0°C | 2.3% | 0hPa | 2.7V | 00:00:00 | 02:19:18 | 08:30:00 | |
| DO3MHA-11 | 2026-09-05 12:46:26 | 45.78454 | 14.08227 | 190° | 18km/h | 31283m | 4.5m/s | -41.1°C | 2.3% | 0hPa | 2.6V | 00:00:00 | 02:19:16 | 00:00:00 | |
| IW2NTF | 2026-09-05 12:46:24 | 45.78465 | 14.08216 | 204° | 27km/h | 31243m | 6.1m/s | -41.2°C | 2.3% | 0hPa | 2.6V | 08:30:00 | 02:19:09 | 00:00:00 | |
| OE5DXL-15 | 2026-09-05 12:46:22 | 45.78458 | 14.08216 | 68° | 20km/h | 31260m | 3.4m/s | -41.1°C | 2.2% | 0hPa | 2.6V | 00:00:00 | 00:00:00 | 00:00:00 | |
| OE8JPQ-2 | 2026-09-05 12:46:20 | 45.78460 | 14.08213 | 195° | 22km/h | 31250m | 6.4m/s | -41.2°C | 2.3% | 0hPa | 2.6V | 00:00:00 | 00:00:00 | 08:30:00 | |
| OE5MMP-10 | 2026-09-05 12:46:18 | 45.78471 | 14.08221 | 210° | 22km/h | 31238m | 4.0m/s | 0°C | 0% | 0hPa | 2.6V | 00:00:00 | 02:19:08 | 00:00:00 | |
| DO3MHA-11 | 2026-09-05 12:46:16 | 45.78482 | 14.08229 | 210° | 20km/h | 31230m | 5.7m/s | -41.1°C | 2.3% | 0hPa | 2.6V | 00:00:00 | 02:19:06 | 00:00:00 | |
| IW2NTF | 2026-09-05 12:46:15 | 45.78502 | 14.08212 | 186° | 38km/h | 31190m | 4.4m/s | -41.4°C | 2.3% | 0hPa | 2.6V | 08:30:00 | 02:18:59 | 00:00:00 | |
| 9A1FER-3 | 2026-09-05 12:46:15 | 45.78483 | 14.08230 | 119° | 24km/h | 31224m | 6.7m/s | -41.1°C | 2.3% | 0hPa | 2.7V | 00:00:00 | 02:19:05 | 00:00:00 | |
| PG1ADW-2 | 2026-09-05 12:46:13 | 45.78482 | 14.08223 | 80° | 24km/h | 31213m | 3.8m/s | -41.2°C | 2.2% | 0hPa | 2.7V | 00:00:00 | 00:00:00 | 00:00:00 | |
| IN3HCDX | 2026-09-05 12:46:10 | 45.78486 | 14.08214 | 157° | 22km/h | 31204m | 6.5m/s | -41.4°C | 0.5% | 0hPa | 2.7V | 00:00:00 | 00:00:00 | 00:00:00 | |
| OE5DRO-10 | 2026-09-05 12:46:09 | 45.78502 | 14.08212 | 187° | 24km/h | 31191m | 4.4m/s | -41.3°C | 2.3% | 0hPa | 2.7V | 00:00:00 | 00:00:00 | 00:00:00 | |
| OE5MMP-10 | 2026-09-05 12:46:08 | 45.78510 | 14.08214 | 189° | 26km/h | 31188m | 2.3m/s | 0°C | 0% | 0hPa | 2.7V | 00:00:00 | 02:18:58 | 00:00:00 | |
| DO3MHA-11 | 2026-09-05 12:46:06 | 45.78520 | 14.08214 | 132° | 24km/h | 31178m | 7.6m/s | -41.6°C | 2.2% | 0hPa | 2.7V | 00:00:00 | 02:18:56 | 08:30:00 | |
| IW2NTF | 2026-09-05 12:46:05 | 45.78535 | 14.08177 | 178° | 35km/h | 31138m | 4m/s | -42°C | 2.4% | 0hPa | 2.6V | 08:30:00 | 02:18:49 | 00:00:00 | |
| OE8JPQ-2 | 2026-09-05 12:46:00 | 45.78527 | 14.08179 | 171° | 20km/h | 31143m | 5.6m/s | -42.0°C | 2.4% | 0hPa | 2.7V | 00:00:00 | 00:00:00 | 00:00:00 | |
| DB0UT-7 | 2026-09-05 12:45:59 | 45.78535 | 14.08177 | 179° | 16km/h | 31139m | 3.9m/s | -42.0°C | 2.4% | 0hPa | 2.7V | 00:00:00 | 02:18:49 | 00:00:00 | |
| OE5MMP-10 | 2026-09-05 12:45:58 | 45.78543 | 14.08177 | 181° | 20km/h | 31134m | 4.3m/s | 0°C | 0% | 0hPa | 2.7V | 00:00:00 | 02:18:48 | 00:00:00 | |
| 9A1FER-3 | 2026-09-05 12:45:56 | 45.78549 | 14.08176 | 71° | 13km/h | 31123m | 6.5m/s | -42.2°C | 2.4% | 0hPa | 2.7V | 00:00:00 | 02:18:46 | 00:00:00 | |
| IW2NTF | 2026-09-05 12:45:55 | 45.78563 | 14.08152 | 164° | 22km/h | 31088m | 2.8m/s | -42.5°C | 2.4% | 0hPa | 2.7V | 08:30:00 | 02:18:39 | 00:00:00 | |
| PG1ADW-2 | 2026-09-05 12:45:53 | 45.78544 | 14.08166 | 90° | 20km/h | 31109m | 5.0m/s | -42.3°C | 2.4% | 0hPa | 2.6V | 00:00:00 | 00:00:00 | 08:30:00 | |
| OE5DXL-15 | 2026-09-05 12:45:52 | 45.78545 | 14.08162 | 136° | 20km/h | 31103m | 6.5m/s | -42.4°C | 2.4% | 0hPa | 2.6V | 00:00:00 | 00:00:00 | 00:00:00 | |
| IN3HCDX | 2026-09-05 12:45:50 | 45.78556 | 14.08154 | 166° | 29km/h | 31092m | 3.9m/s | -42.5°C | 0.5% | 0hPa | 2.6V | 00:00:00 | 00:00:00 | 00:00:00 | |
| OE5MMP-10 | 2026-09-05 12:45:48 | 45.78567 | 14.08150 | 151° | 18km/h | 31085m | 5.2m/s | 0°C | 0% | 0hPa | 2.6V | 00:00:00 | 02:18:38 | 00:00:00 | |
| IW2NTF | 2026-09-05 12:45:45 | 45.78569 | 14.08109 | 130° | 9km/h | 31036m | 5.1m/s | -43.2°C | 2.5% | 0hPa | 2.6V | 08:30:00 | 02:18:29 | 00:00:00 | |
| DO3MHA-11 | 2026-09-05 12:45:45 | 45.78561 | 14.08139 | 40° | 20km/h | 31066m | 3.9m/s | -42.7°C | 2.4% | 0hPa | 2.7V | 00:00:00 | 02:18:35 | 00:00:00 | |
| 9A1FER-3 | 2026-09-05 12:45:41 | 45.78562 | 14.08116 | 150° | 24km/h | 31045m | 4.5m/s | -43.1°C | 2.5% | 0hPa | 2.7V | 00:00:00 | 02:18:31 | 00:00:00 | |
| OE8JPQ-2 | 2026-09-05 12:45:40 | 45.78567 | 14.08112 | 153° | 20km/h | 31041m | 3.4m/s | -43.1°C | 2.5% | 0hPa | 2.7V | 00:00:00 | 02:18:30 | 00:00:00 | |
| OE5MMP-10 | 2026-09-05 12:45:38 | 45.78569 | 14.08107 | 37° | 16km/h | 31031m | 6.6m/s | 0°C | 0% | 0hPa | 2.7V | 00:00:00 | 02:18:28 | 00:00:00 | |
| DO3MHA-11 | 2026-09-05 12:45:35 | 45.78553 | 14.08097 | 31° | 26km/h | 31015m | 3.5m/s | -43.2°C | 2.5% | 0hPa | 2.7V | 00:00:00 | 02:18:25 | 00:00:00 | |
| PG1ADW-2 | 2026-09-05 12:45:33 | 45.78548 | 14.08087 | 98° | 15km/h | 31004m | 6.7m/s | -43.3°C | 2.5% | 0hPa | 2.7V | 00:00:00 | 02:18:23 | 00:00:00 | |
| IN3HCDX1 | 2026-09-05 12:45:31 | 45.78550 | 14.08082 | 127° | 20km/h | 30998m | 5.1m/s | -43.4°C | 0.6% | 0hPa | 2.7V | 00:00:00 | 00:00:00 | 00:00:00 | |
| IW2NTF | 2026-09-05 12:45:30 | 45.78552 | 14.08067 | 39° | 18km/h | 30984m | 6.6m/s | -43.5°C | 2.6% | 0hPa | 2.7V | 08:30:00 | 02:18:19 | 00:00:00 | |
| IW2NTF | 2026-09-05 12:45:25 | 45.78512 | 14.08031 | 27° | 31km/h | 30932m | 6.1m/s | -43.2°C | 2.5% | 0hPa | 2.7V | 08:30:00 | 02:18:09 | 00:00:00 | |
| DO3MHA-11 | 2026-09-05 12:45:25 | 45.78523 | 14.08056 | 15° | 24km/h | 30964m | 5.3m/s | -43.2°C | 2.6% | 0hPa | 2.6V | 00:00:00 | 02:18:15 | 00:00:00 | |
| OE5MMP-10 | 2026-09-05 12:45:24 | 45.78520 | 14.08054 | 42° | 20km/h | 30958m | 6.2m/s | 0°C | 0% | 0hPa | 2.6V | 00:00:00 | 02:18:14 | 00:00:00 | |
| OE5DXL-15 | 2026-09-05 12:45:22 | 45.78520 | 14.08047 | 102° | 20km/h | 30948m | 3.5m/s | -43.1°C | 2.5% | 0hPa | 2.6V | 00:00:00 | 00:00:00 | 00:00:00 | |
| OE8JPQ-2 | 2026-09-05 12:45:20 | 45.78517 | 14.08036 | 47° | 22km/h | 30939m | 6.2m/s | -43.2°C | 2.5% | 0hPa | 2.6V | 00:00:00 | 00:00:00 | 00:00:00 | |
| IW2NTF | 2026-09-05 12:45:15 | 45.78466 | 14.07996 | 23° | 40km/h | 30881m | 4.2m/s | -43.6°C | 2.6% | 0hPa | 2.7V | 08:30:00 | 02:17:59 | 00:00:00 | |
| S52SK | 2026-09-05 12:45:14 | 45.78485 | 14.08022 | 2° | 9km/h | 30913m | 6.8m/s | -43.2°C | 0.5% | 0hPa | 2.7V | 00:00:00 | 00:00:00 | 00:00:00 | |
| OE5MMP-10 | 2026-09-05 12:45:13 | 45.78484 | 14.08019 | 103° | 13km/h | 30902m | 3.6m/s | 0°C | 0% | 0hPa | 2.7V | 00:00:00 | 02:18:03 | 00:00:00 | |
| OE5DRO-10 | 2026-09-05 12:45:12 | 45.78483 | 14.08015 | 70° | 22km/h | 30898m | 4.8m/s | -43.3°C | 2.5% | 0hPa | 2.7V | 00:00:00 | 00:00:00 | 00:00:00 | |
| IN3HCDX1 | 2026-09-05 12:45:11 | 45.78484 | 14.08015 | 70° | 15km/h | 30898m | 4.9m/s | -43.3°C | 0.6% | 0hPa | 2.7V | 00:00:00 | 00:00:00 | 00:00:00 | |
| S52SK | 2026-09-05 12:45:08 | 45.78466 | 14.07996 | 24° | 40km/h | 30881m | 4.2m/s | -43.6°C | 0.6% | 0hPa | 2.7V | 00:00:00 | 00:00:00 | 00:00:00 | |
| IW2NTF | 2026-09-05 12:45:05 | 45.78409 | 14.07961 | 27° | 49km/h | 30830m | 2.8m/s | -43.3°C | 2.5% | 0hPa | 2.7V | 08:30:00 | 02:17:49 | 00:00:00 | |
| DO3MHA-11 | 2026-09-05 12:45:05 | 45.78442 | 14.07989 | 288° | 24km/h | 30860m | 5.4m/s | -43.2°C | 2.6% | 0hPa | 2.6V | 00:00:00 | 02:17:55 | 00:00:00 | |
| IN3HCDX | 2026-09-05 12:45:02 | 45.78437 | 14.07984 | 36° | 24km/h | 30849m | 6.2m/s | -43.3°C | 0.6% | 0hPa | 2.7V | 00:00:00 | 00:00:00 | 00:00:00 | |
| OE8JPQ-2 | 2026-09-05 12:45:00 | 45.78421 | 14.07970 | 29° | 27km/h | 30834m | 5.7m/s | -43.3°C | 2.5% | 0hPa | 2.7V | 00:00:00 | 00:00:00 | 00:00:00 | |
| DO3MHA-11 | 2026-09-05 12:44:55 | 45.78390 | 14.07949 | 238° | 29km/h | 30808m | 5.1m/s | -43.1°C | 2.5% | 0hPa | 2.7V | 00:00:00 | 02:17:45 | 00:00:00 | |
| IW2NTF | 2026-09-05 12:44:54 | 45.78352 | 14.07926 | 38° | 51km/h | 30779m | 2.6m/s | -43°C | 2.5% | 0hPa | 2.7V | 08:30:00 | 02:17:39 | 00:00:00 | |
| OE5DRO-10 | 2026-09-05 12:44:53 | 45.78388 | 14.07952 | 5° | 22km/h | 30801m | 3.8m/s | -43.2°C | 2.5% | 0hPa | 2.7V | 00:00:00 | 00:00:00 | 08:30:00 | |
| OE5DXL-15 | 2026-09-05 12:44:52 | 45.78383 | 14.07951 | 17° | 22km/h | 30796m | 6.6m/s | -43.2°C | 2.6% | 0hPa | 2.6V | 00:00:00 | 00:00:00 | 00:00:00 | |
| IN3HCDX1 | 2026-09-05 12:44:50 | 45.78374 | 14.07945 | 26° | 47km/h | 30789m | 7.6m/s | -43.3°C | 0.5% | 0hPa | 2.6V | 00:00:00 | 00:00:00 | 00:00:00 | |
| IW2NTF | 2026-09-05 12:44:44 | 45.78291 | 14.07869 | 22° | 5km/h | 30707m | 4.2m/s | -42.9°C | 2.5% | 0hPa | 2.6V | 08:30:00 | 02:17:25 | 00:00:00 | |
| OE8JPQ-2 | 2026-09-05 12:44:40 | 45.78308 | 14.07898 | 26° | 24km/h | 30732m | 3.6m/s | -42.9°C | 2.5% | 0hPa | 2.6V | 00:00:00 | 02:17:30 | 00:00:00 | |
| OE5MMP-10 | 2026-09-05 12:44:39 | 45.78299 | 14.07890 | 37° | 20km/h | 30728m | 5.0m/s | 0°C | 0% | 0hPa | 2.6V | 00:00:00 | 02:17:29 | 00:00:00 | |
| IN3HCDX | 2026-09-05 12:44:38 | 45.78300 | 14.07890 | 37° | 37km/h | 30728m | 5.0m/s | -43.0°C | 0.5% | 0hPa | 2.6V | 00:00:00 | 00:00:00 | 00:00:00 | |
| DO3MHA-11 | 2026-09-05 12:44:35 | 45.78291 | 14.07869 | 23° | 22km/h | 30708m | 4.1m/s | -42.9°C | 2.5% | 0hPa | 2.6V | 00:00:00 | 02:17:25 | 08:30:00 | |
| 9A1FER-3 | 2026-09-05 12:44:31 | 45.78262 | 14.07871 | 3° | 40km/h | 30685m | 3.2m/s | -42.9°C | 2.6% | 0hPa | 2.6V | 00:00:00 | 02:17:21 | 00:00:00 | |
| IW2NTF | 2026-09-05 12:44:30 | 45.78238 | 14.07859 | 358° | 37km/h | 30642m | 7.1m/s | -42.9°C | 2.5% | 0hPa | 2.6V | 08:30:00 | 02:17:13 | 00:00:00 | |
| OE5MMP-10 | 2026-09-05 12:44:30 | 45.78247 | 14.07868 | 18° | 15km/h | 30678m | 6.6m/s | 0°C | 0% | 0hPa | 2.7V | 00:00:00 | 02:17:19 | 00:00:00 | |
| DO3MHA-12 | 2026-09-05 12:44:26 | 45.78249 | 14.07861 | 141° | 11km/h | 30660m | 2.7m/s | -42.8°C | 2.6% | 0hPa | 2.7V | 00:00:00 | 02:17:16 | 08:30:00 | |
| DO3MHA-11 | 2026-09-05 12:44:25 | 45.78249 | 14.07860 | 34° | 16km/h | 30656m | 4.5m/s | -42.8°C | 2.5% | 0hPa | 2.7V | 00:00:00 | 02:17:15 | 00:00:00 | |
| OE5DXL-15 | 2026-09-05 12:44:22 | 45.78227 | 14.07860 | 355° | 18km/h | 30637m | 4.4m/s | -42.9°C | 2.5% | 0hPa | 2.7V | 00:00:00 | 00:00:00 | 00:00:00 | |
| OE5WHR-10 | 2026-09-05 12:44:20 | 45.78210 | 14.07864 | 347° | 13km/h | 30630m | 5.1m/s | -42.8°C | 2.5% | 0hPa | 2.7V | 00:00:00 | 00:00:00 | 00:00:00 | |
| IW2NTF | 2026-09-05 12:44:18 | 45.78197 | 14.07853 | 3° | 35km/h | 30590m | 5.3m/s | -42.9°C | 2.5% | 0hPa | 2.6V | 08:30:00 | 02:17:03 | 00:00:00 | |
| OE5MMP-10 | 2026-09-05 12:44:18 | 45.78206 | 14.07866 | 173° | 15km/h | 30617m | 6.3m/s | 0°C | 0% | 0hPa | 2.6V | 00:00:00 | 02:17:08 | 00:00:00 | |
| IN3HCDX | 2026-09-05 12:44:17 | 45.78206 | 14.07866 | 173° | 7km/h | 30617m | 6.4m/s | -42.8°C | 0.6% | 0hPa | 2.6V | 00:00:00 | 00:00:00 | 00:00:00 | |
| DO3MHA-12 | 2026-09-05 12:44:16 | 45.78210 | 14.07861 | 113° | 20km/h | 30607m | 4.2m/s | -42.6°C | 2.5% | 0hPa | 2.6V | 00:00:00 | 02:17:06 | 00:00:00 | |
| DO3MHA-11 | 2026-09-05 12:44:15 | 45.78209 | 14.07858 | 47° | 20km/h | 30602m | 5.7m/s | -42.7°C | 2.5% | 0hPa | 2.6V | 00:00:00 | 02:17:05 | 00:00:00 | |
| 9A1FER-3 | 2026-09-05 12:44:14 | 45.78205 | 14.07854 | 17° | 20km/h | 30596m | 6.5m/s | -42.8°C | 2.5% | 0hPa | 2.6V | 00:00:00 | 02:17:04 | 00:00:00 | |
| OE5DRO-10 | 2026-09-05 12:44:11 | 45.78181 | 14.07856 | 338° | 13km/h | 30582m | 4.6m/s | -42.8°C | 2.5% | 0hPa | 2.6V | 00:00:00 | 00:00:00 | 00:00:00 | |
| IN3HCDX1 | 2026-09-05 12:44:09 | 45.78177 | 14.07860 | 309° | 16km/h | 30576m | 7.0m/s | -42.9°C | 0.5% | 0hPa | 2.6V | 00:00:00 | 00:00:00 | 00:00:00 | |
| OE5MMP-10 | 2026-09-05 12:44:08 | 45.78179 | 14.07867 | 207° | 11km/h | 30563m | 4.7m/s | 0°C | 0% | 0hPa | 2.6V | 00:00:00 | 02:16:58 | 00:00:00 | |
| IW2NTF | 2026-09-05 12:44:05 | 45.78169 | 14.07859 | 13° | 26km/h | 30535m | 4.5m/s | -42.6°C | 2.4% | 0hPa | 2.6V | 08:30:00 | 02:16:53 | 00:00:00 | |
| PETON7-10 | 2026-09-05 12:44:01 | 45.78160 | 14.07859 | 326° | 18km/h | 30525m | 5.9m/s | -42.4°C | 2.4% | 0hPa | 2.7V | 00:00:00 | 00:00:00 | 00:00:00 | |
| OE8JPQ-2 | 2026-09-05 12:44:00 | 45.78158 | 14.07862 | 266° | 9km/h | 30519m | 5.6m/s | -42.5°C | 2.4% | 0hPa | 2.6V | 00:00:00 | 00:00:00 | 00:00:00 | |
| IW2NTF | 2026-09-05 12:43:59 | 45.78148 | 14.07861 | 53° | 11km/h | 30482m | 5.6m/s | -42.8°C | 2.4% | 0hPa | 2.6V | 08:30:00 | 02:16:43 | 00:00:00 | |
| DB0ND-19 | 2026-09-05 12:43:47 | 45.78140 | 14.07850 | 30° | 4km/h | 30439m | 5.6m/s | -43.1°C | 0.5% | -1.0hPa | 2.7V | 00:00:00 | 00:00:00 | 00:00:00 | |
| IW2NTF | 2026-09-05 12:43:44 | 45.78143 | 14.07850 | 189° | 15km/h | 30426m | 5.8m/s | -43.2°C | 2.5% | 0hPa | 2.7V | 08:30:00 | 02:16:33 | 00:00:00 | |
| 9A1FER-3 | 2026-09-05 12:43:44 | 45.78140 | 14.07850 | 183° | 13km/h | 30433m | 7.0m/s | -43.2°C | 2.5% | 0hPa | 2.7V | 00:00:00 | 02:16:34 | 00:00:00 | |
| OE8JPQ-2 | 2026-09-05 12:43:40 | 45.78149 | 14.07851 | 41° | 13km/h | 30413m | 6.4m/s | -43.4°C | 2.5% | 0hPa | 2.7V | 00:00:00 | 02:16:30 | 00:00:00 | |
| IW2NTF | 2026-09-05 12:43:38 | 45.78139 | 14.07843 | 211° | 18km/h | 30372m | 4.3m/s | -43.9°C | 2.6% | 0hPa | 2.7V | 08:30:00 | 02:16:23 | 00:00:00 | |
| IN3HCDX | 2026-09-05 12:43:36 | 45.78133 | 14.07840 | 29° | 9km/h | 30391m | 5.4m/s | -43.8°C | 0.6% | 0hPa | 2.6V | 00:00:00 | 00:00:00 | 00:00:00 | |
| DO3MHA-11 | 2026-09-05 12:43:35 | 45.78133 | 14.07839 | 189° | 15km/h | 30385m | 7.1m/s | -43.9°C | 2.6% | 0hPa | 2.6V | 00:00:00 | 02:16:25 | 00:00:00 | |
| OE5DRO-10 | 2026-09-05 12:43:33 | 45.78139 | 14.07843 | 212° | 15km/h | 30373m | 4.3m/s | -43.9°C | 2.6% | 0hPa | 2.7V | 00:00:00 | 00:00:00 | 00:00:00 | |
| IN3HCDX1 | 2026-09-05 12:43:29 | 45.78140 | 14.07853 | 343° | 18km/h | 30357m | 6.3m/s | -43.9°C | 0.6% | 0hPa | 2.7V | 00:00:00 | 00:00:00 | 00:00:00 | |
| PG1ADW-2 | 2026-09-05 12:43:27 | 45.78126 | 14.07857 | 223° | 15km/h | 30335m | 6.0m/s | -44.0°C | 2.7% | 0hPa | 2.7V | 00:00:00 | 00:00:00 | 00:00:00 | |
| OE5WHR-10 | 2026-09-05 12:43:26 | 45.78126 | 14.07857 | 223° | 22km/h | 30335m | 6.0m/s | 0°C | 0% | 0hPa | 2.7V | 00:00:00 | 00:00:00 | 00:00:00 | |
| IW2NTF | 2026-09-05 12:43:25 | 45.78135 | 14.07862 | 205° | 11km/h | 30319m | 5.6m/s | -43.9°C | 2.6% | 0hPa | 2.7V | 08:30:00 | 02:16:13 | 00:00:00 | |
| DO3MHA-11 | 2026-09-05 12:43:24 | 45.78132 | 14.07860 | 200° | 13km/h | 30324m | 4.4m/s | -43.9°C | 2.6% | 0hPa | 2.6V | 00:00:00 | 02:16:14 | 00:00:00 | |
| OE5DXL-15 | 2026-09-05 12:43:22 | 45.78136 | 14.07864 | 252° | 18km/h | 30313m | 6.2m/s | -43.9°C | 2.6% | 0hPa | 2.6V | 00:00:00 | 00:00:00 | 00:00:00 | |
| OE5MMP-10 | 2026-09-05 12:43:20 | 45.78134 | 14.07867 | 333° | 15km/h | 30302m | 4.8m/s | 0°C | 0% | 0hPa | 2.6V | 00:00:00 | 02:16:10 | 00:00:00 | |
| IW2NTF | 2026-09-05 12:43:18 | 45.78151 | 14.07878 | 106° | 7km/h | 30264m | 7.5m/s | -44.1°C | 2.7% | 0hPa | 2.6V | 08:30:00 | 02:16:03 | 00:00:00 | |
| S52SK | 2026-09-05 12:43:18 | 45.78132 | 14.07869 | 304° | 7km/h | 30297m | 4.3m/s | -44.0°C | 0.6% | 0hPa | 2.6V | 00:00:00 | 00:00:00 | 00:00:00 | |
| IN3HCDX | 2026-09-05 12:43:15 | 45.78139 | 14.07877 | 200° | 24km/h | 30280m | 5.5m/s | -43.9°C | 0.6% | 0hPa | 2.6V | 00:00:00 | 00:00:00 | 00:00:00 | |
| 9A1FER-3 | 2026-09-05 12:43:14 | 45.78149 | 14.07880 | 171° | 16km/h | 30271m | 5.2m/s | -44.0°C | 2.7% | 0hPa | 2.6V | 00:00:00 | 02:16:04 | 00:00:00 | |
| S52SK | 2026-09-05 12:43:13 | 45.78149 | 14.07880 | 171° | 13km/h | 30271m | 5.3m/s | -44.1°C | 0.6% | 0hPa | 2.6V | 00:00:00 | 00:00:00 | 00:00:00 | |
| OE5MMP-10 | 2026-09-05 12:43:10 | 45.78147 | 14.07863 | 88° | 24km/h | 30248m | 4.2m/s | 0°C | 0% | 0hPa | 2.6V | 00:00:00 | 02:16:00 | 08:30:00 | |
| IN3HCDX1 | 2026-09-05 12:43:08 | 45.78148 | 14.07858 | 134° | 16km/h | 30242m | 6.6m/s | -44.0°C | 0.6% | 0hPa | 2.6V | 00:00:00 | 00:00:00 | 00:00:00 | |
| PG1ADW-2 | 2026-09-05 12:43:06 | 45.78167 | 14.07856 | 193° | 24km/h | 30224m | 3.8m/s | -43.9°C | 2.7% | 0hPa | 2.6V | 00:00:00 | 02:15:56 | 00:00:00 | |
| IW2NTF | 2026-09-05 12:43:04 | 45.78176 | 14.07858 | 46° | 11km/h | 30206m | 7.5m/s | -44°C | 2.6% | 0hPa | 2.6V | 08:30:00 | 02:15:53 | 00:00:00 | |
| DO3MHA-11 | 2026-09-05 12:43:04 | 45.78176 | 14.07859 | 185° | 26km/h | 30214m | 7.3m/s | -44.0°C | 2.6% | 0hPa | 2.6V | 00:00:00 | 02:15:54 | 08:30:00 | |
| OE8JPQ-2 | 2026-09-05 12:43:00 | 45.78172 | 14.07840 | 116° | 24km/h | 30192m | 5.7m/s | -43.7°C | 2.5% | 0hPa | 2.6V | 00:00:00 | 00:00:00 | 00:00:00 | |
| 9A1FER-3 | 2026-09-05 12:42:59 | 45.78176 | 14.07834 | 151° | 20km/h | 30186m | 7.4m/s | -43.8°C | 2.6% | 0hPa | 2.6V | 00:00:00 | 02:15:49 | 00:00:00 | |
| IW2NTF | 2026-09-05 12:42:58 | 45.78211 | 14.07823 | 80° | 13km/h | 30150m | 5m/s | -43.7°C | 2.6% | 0hPa | 2.6V | 08:30:00 | 02:15:43 | 00:00:00 | |
| IN3HCDX | 2026-09-05 12:42:55 | 45.78208 | 14.07828 | 173° | 18km/h | 30162m | 6.1m/s | -43.7°C | 0.6% | 0hPa | 2.7V | 00:00:00 | 00:00:00 | 00:00:00 | |
| DO3MHA-11 | 2026-09-05 12:42:53 | 45.78211 | 14.07823 | 81° | 22km/h | 30150m | 5.0m/s | -43.7°C | 2.6% | 0hPa | 2.7V | 00:00:00 | 02:15:43 | 00:00:00 | |
| OE5DXL-15 | 2026-09-05 12:42:52 | 45.78211 | 14.07817 | 94° | 26km/h | 30145m | 4.8m/s | -43.7°C | 2.6% | 0hPa | 2.7V | 00:00:00 | 00:00:00 | 00:00:00 | |
| IN3HCDX1 | 2026-09-05 12:42:48 | 45.78223 | 14.07799 | 155° | 35km/h | 30127m | 6.1m/s | -43.7°C | 0.6% | 0hPa | 2.7V | 00:00:00 | 00:00:00 | 00:00:00 | |
| IW2NTF | 2026-09-05 12:42:45 | 45.78255 | 14.07779 | 146° | 13km/h | 30093m | 4.7m/s | -43.9°C | 2.6% | 0hPa | 2.7V | 08:30:00 | 02:15:33 | 00:00:00 | |
| DO3MHA-11 | 2026-09-05 12:42:43 | 45.78255 | 14.07779 | 147° | 22km/h | 30094m | 4.7m/s | -43.8°C | 2.6% | 0hPa | 2.7V | 00:00:00 | 02:15:33 | 00:00:00 | |
| OE8JPQ-2 | 2026-09-05 12:42:40 | 45.78272 | 14.07771 | 165° | 29km/h | 30076m | 4.7m/s | -43.5°C | 2.5% | 0hPa | 2.7V | 00:00:00 | 02:15:30 | 00:00:00 | |
| IW2NTF | 2026-09-05 12:42:38 | 45.78304 | 14.07747 | 165° | 31km/h | 30036m | 7m/s | -43.6°C | 2.5% | 0hPa | 2.7V | 08:30:00 | 02:15:23 | 00:00:00 | |
| DB0UT-7 | 2026-09-05 12:42:35 | 45.78294 | 14.07753 | 139° | 29km/h | 30048m | 4.6m/s | -43.7°C | 2.6% | 0hPa | 2.6V | 00:00:00 | 02:15:25 | 00:00:00 | |
| OE5DRO-10 | 2026-09-05 12:42:33 | 45.78322 | 14.07740 | 166° | 35km/h | 30026m | 3.1m/s | -43.5°C | 2.5% | 0hPa | 2.6V | 00:00:00 | 00:00:00 | 00:00:00 | |
| DO3MHA-11 | 2026-09-05 12:42:31 | 45.78322 | 14.07740 | 166° | 29km/h | 30026m | 3.1m/s | -43.5°C | 2.5% | 0hPa | 2.6V | 00:00:00 | 02:15:21 | 00:00:00 | |
| 9A1FER-3 | 2026-09-05 12:42:28 | 45.78338 | 14.07729 | 107° | 31km/h | 30009m | 7.2m/s | -43.8°C | 2.5% | 0hPa | 2.6V | 00:00:00 | 02:15:18 | 00:00:00 | |
| IN3HCDX1 | 2026-09-05 12:42:27 | 45.78338 | 14.07729 | 108° | 15km/h | 30009m | 7.3m/s | -43.8°C | 0.6% | 0hPa | 2.6V | 00:00:00 | 00:00:00 | 00:00:00 | |
| IW2NTF | 2026-09-05 12:42:25 | 45.78358 | 14.07699 | 161° | 51km/h | 29981m | 7.7m/s | -44.2°C | 2.7% | 0hPa | 2.6V | 08:30:00 | 02:15:13 | 00:00:00 | |
| OE5DXL-15 | 2026-09-05 12:42:22 | 45.78371 | 14.07693 | 167° | 29km/h | 29976m | 3.4m/s | -44.0°C | 2.7% | 0hPa | 2.7V | 00:00:00 | 00:00:00 | 00:00:00 | |
| DO3MHA-11 | 2026-09-05 12:42:21 | 45.78384 | 14.07689 | 167° | 35km/h | 29973m | 1.9m/s | -44.0°C | 2.7% | 0hPa | 2.6V | 00:00:00 | 02:15:11 | 00:00:00 | |
| OE8JPQ-2 | 2026-09-05 12:42:20 | 45.78393 | 14.07685 | 164° | 29km/h | 29970m | 5.4m/s | -44.1°C | 2.7% | 0hPa | 2.6V | 00:00:00 | 00:00:00 | 00:00:00 | |
| IW2NTF | 2026-09-05 12:42:18 | 45.78415 | 14.07634 | 159° | 53km/h | 29926m | 6.2m/s | -43.8°C | 2.5% | 0hPa | 2.6V | 08:30:00 | 02:15:03 | 00:00:00 | |
| PETON7-10 | 2026-09-05 12:42:16 | 45.78396 | 14.07661 | 90° | 22km/h | 29944m | 3.8m/s | -43.9°C | 2.6% | 0hPa | 2.6V | 00:00:00 | 00:00:00 | 00:00:00 | |
| IN3HCDX | 2026-09-05 12:42:13 | 45.78415 | 14.07634 | 160° | 53km/h | 29926m | 6.2m/s | -43.8°C | 0.6% | 0hPa | 2.6V | 00:00:00 | 00:00:00 | 00:00:00 | |
| 9A1FER-3 | 2026-09-05 12:42:11 | 45.78439 | 14.07625 | 171° | 26km/h | 29916m | 5.1m/s | -43.9°C | 2.6% | 0hPa | 2.6V | 00:00:00 | 02:15:01 | 00:00:00 | |
| IN3HCDX1 | 2026-09-05 12:42:07 | 45.78455 | 14.07616 | 110° | 15km/h | 29898m | 5.7m/s | -44.1°C | 0.6% | 0hPa | 2.6V | 00:00:00 | 00:00:00 | 00:00:00 | |
| IW2NTF | 2026-09-05 12:42:04 | 45.78476 | 14.07575 | 144° | 37km/h | 29871m | 4.2m/s | -44.2°C | 2.6% | 0hPa | 2.6V | 08:30:00 | 02:14:53 | 00:00:00 | |
| OE8JPQ-2 | 2026-09-05 12:42:00 | 45.78492 | 14.07560 | 151° | 20km/h | 29853m | 6.2m/s | -44.5°C | 2.6% | 0hPa | 2.7V | 00:00:00 | 00:00:00 | 00:00:00 | |
| IW2NTF | 2026-09-05 12:41:58 | 45.78524 | 14.07529 | 121° | 20km/h | 29815m | 6.7m/s | -44.5°C | 2.7% | 0hPa | 2.7V | 08:30:00 | 02:14:43 | 00:00:00 | |
| DO3MHA-11 | 2026-09-05 12:41:58 | 45.78497 | 14.07557 | 157° | 24km/h | 29842m | 5.2m/s | -44.5°C | 2.7% | 0hPa | 2.6V | 00:00:00 | 02:14:48 | 00:00:00 | |
| PETON7-10 | 2026-09-05 12:41:57 | 45.78502 | 14.07554 | 154° | 18km/h | 29837m | 6.4m/s | -44.4°C | 2.7% | 0hPa | 2.6V | 00:00:00 | 02:14:47 | 00:00:00 | |
| 9A1FER-3 | 2026-09-05 12:41:56 | 45.78508 | 14.07549 | 151° | 22km/h | 29830m | 5.5m/s | -44.5°C | 2.7% | 0hPa | 2.6V | 00:00:00 | 02:14:46 | 00:00:00 | |
| OE5DRO-10 | 2026-09-05 12:41:55 | 45.78515 | 14.07543 | 145° | 22km/h | 29826m | 4.3m/s | -44.6°C | 2.7% | 0hPa | 2.7V | 00:00:00 | 00:00:00 | 08:30:00 | |
| IN3HCDX | 2026-09-05 12:41:52 | 45.78526 | 14.07524 | 98° | 13km/h | 29809m | 6.6m/s | -44.5°C | 0.6% | 0hPa | 2.6V | 00:00:00 | 00:00:00 | 00:00:00 | |
| DO3MHA-11 | 2026-09-05 12:41:48 | 45.78534 | 14.07515 | 165° | 24km/h | 29787m | 7.0m/s | -44.3°C | 2.8% | 0hPa | 2.6V | 00:00:00 | 02:14:38 | 00:00:00 | |
| IW2NTF | 2026-09-05 12:41:46 | 45.78561 | 14.07491 | 75° | 13km/h | 29759m | 6.8m/s | -44.4°C | 2.7% | 0hPa | 2.6V | 08:30:00 | 02:14:33 | 00:00:00 | |
| NBG1-10 | 2026-09-05 12:41:44 | 45.78560 | 14.07496 | 123° | 20km/h | 29766m | 7.4m/s | -44.3°C | 2.7% | 0hPa | 2.7V | 00:00:00 | 02:14:34 | 00:00:00 | |
| 9A1FER-3 | 2026-09-05 12:41:41 | 45.78559 | 14.07484 | 103° | 18km/h | 29749m | 4.6m/s | -44.3°C | 2.7% | 0hPa | 2.7V | 00:00:00 | 02:14:31 | 00:00:00 | |
| OE8JPQ-2 | 2026-09-05 12:41:40 | 45.78561 | 14.07482 | 152° | 20km/h | 29743m | 6.3m/s | -44.2°C | 2.7% | 0hPa | 2.7V | 00:00:00 | 02:14:30 | 00:00:00 | |
| IW2NTF | 2026-09-05 12:41:37 | 45.78601 | 14.07451 | 153° | 20km/h | 29693m | 5.9m/s | -44.2°C | 2.7% | 0hPa | 2.7V | 08:30:00 | 02:14:21 | 00:00:00 | |
| OE5WHR-10 | 2026-09-05 12:41:37 | 45.78582 | 14.07474 | 166° | 27km/h | 29726m | 5.1m/s | 0°C | 0% | 0hPa | 2.6V | 00:00:00 | 02:14:27 | 00:00:00 | |
| OE5DRO-10 | 2026-09-05 12:41:36 | 45.78588 | 14.07471 | 159° | 18km/h | 29721m | 5.9m/s | -44.2°C | 2.6% | 0hPa | 2.6V | 00:00:00 | 00:00:00 | 00:00:00 | |
| DB0UT-7 | 2026-09-05 12:41:35 | 45.78592 | 14.07467 | 140° | 18km/h | 29715m | 5.8m/s | -44.3°C | 2.7% | 0hPa | 2.6V | 00:00:00 | 02:14:25 | 00:00:00 | |
| IN3HCDX | 2026-09-05 12:41:30 | 45.78601 | 14.07451 | 154° | 20km/h | 29693m | 5.9m/s | -44.2°C | 0.6% | 0hPa | 2.6V | 00:00:00 | 00:00:00 | 00:00:00 | |
| IW2NTF | 2026-09-05 12:41:26 | 45.78643 | 14.07425 | 156° | 31km/h | 29638m | 4.3m/s | -44.2°C | 2.6% | 0hPa | 2.6V | 08:30:00 | 02:14:11 | 00:00:00 | |
| IN3HCDX1 | 2026-09-05 12:41:26 | 45.78621 | 14.07446 | 133° | 4km/h | 29666m | 5.0m/s | -44.4°C | 0.6% | 0hPa | 2.7V | 00:00:00 | 00:00:00 | 00:00:00 | |
| S52SK | 2026-09-05 12:41:25 | 45.78622 | 14.07444 | 126° | 9km/h | 29661m | 4.0m/s | -44.4°C | 0.6% | 0hPa | 2.7V | 00:00:00 | 00:00:00 | 00:00:00 | |
| PETON7-10 | 2026-09-05 12:41:23 | 45.78629 | 14.07436 | 146° | 18km/h | 29650m | 7.0m/s | -44.2°C | 2.7% | 0hPa | 2.7V | 00:00:00 | 00:00:00 | 00:00:00 | |
| OE5DXL-15 | 2026-09-05 12:41:22 | 45.78635 | 14.07430 | 152° | 22km/h | 29643m | 5.5m/s | -44.2°C | 2.7% | 0hPa | 2.7V | 00:00:00 | 00:00:00 | 00:00:00 | |
| OE8JPQ-2 | 2026-09-05 12:41:21 | 45.78649 | 14.07421 | 158° | 18km/h | 29633m | 5.9m/s | -44.1°C | 2.6% | 0hPa | 2.7V | 00:00:00 | 00:00:00 | 00:00:00 | |
| S52SK | 2026-09-05 12:41:19 | 45.78649 | 14.07421 | 158° | 24km/h | 29633m | 6.0m/s | -44.2°C | 0.6% | 0hPa | 2.6V | 00:00:00 | 00:00:00 | 00:00:00 | |
| OE5DRO-10 | 2026-09-05 12:41:17 | 45.78658 | 14.07415 | 154° | 18km/h | 29616m | 4.5m/s | -44.0°C | 2.6% | 0hPa | 2.6V | 00:00:00 | 00:00:00 | 00:00:00 | |
| IW2NTF | 2026-09-05 12:41:15 | 45.78686 | 14.07393 | 134° | 16km/h | 29583m | 6.9m/s | -44.4°C | 2.8% | 0hPa | 2.6V | 08:30:00 | 02:14:01 | 00:00:00 | |
| 9A1FER-3 | 2026-09-05 12:41:11 | 45.78686 | 14.07393 | 135° | 20km/h | 29583m | 6.9m/s | -44.4°C | 2.8% | 0hPa | 2.6V | 00:00:00 | 02:14:01 | 08:30:00 | |
| NBG1-10 | 2026-09-05 12:41:09 | 45.78688 | 14.07387 | 119° | 24km/h | 29572m | 4.4m/s | -44.1°C | 2.7% | 0hPa | 2.7V | 00:00:00 | 02:13:59 | 00:00:00 | |
| IW2NTF | 2026-09-05 12:41:07 | 45.78727 | 14.07363 | 86° | 11km/h | 29527m | 5.2m/s | -44°C | 2.6% | 0hPa | 2.6V | 08:30:00 | 02:13:51 | 00:00:00 | |
| PETON7-10 | 2026-09-05 12:41:06 | 45.78700 | 14.07379 | 164° | 22km/h | 29555m | 6.3m/s | -44.1°C | 2.7% | 0hPa | 2.7V | 00:00:00 | 02:13:56 | 00:00:00 | |
| DB0UT-7 | 2026-09-05 12:41:05 | 45.78708 | 14.07376 | 165° | 26km/h | 29549m | 4.6m/s | -44.2°C | 2.7% | 0hPa | 2.7V | 00:00:00 | 00:00:00 | 00:00:00 | |
| OE8JPQ-2 | 2026-09-05 12:41:00 | 45.78727 | 14.07359 | 102° | 26km/h | 29523m | 3.5m/s | -44.1°C | 2.7% | 0hPa | 2.7V | 00:00:00 | 00:00:00 | 00:00:00 | |
| OE5DRO-10 | 2026-09-05 12:40:58 | 45.78733 | 14.07348 | 147° | 27km/h | 29513m | 7.2m/s | -43.9°C | 2.7% | 0hPa | 2.7V | 00:00:00 | 00:00:00 | 00:00:00 | |
| 9A1FER-3 | 2026-09-05 12:40:56 | 45.78751 | 14.07337 | 162° | 26km/h | 29501m | 4.4m/s | -43.8°C | 2.7% | 0hPa | 2.7V | 00:00:00 | 02:13:46 | 00:00:00 | |
| IW2NTF | 2026-09-05 12:40:55 | 45.78774 | 14.07323 | 113° | 11km/h | 29474m | 3.4m/s | -44°C | 2.6% | 0hPa | 2.7V | 08:30:00 | 02:13:41 | 00:00:00 | |
| OE5DXL-15 | 2026-09-05 12:40:52 | 45.78773 | 14.07326 | 105° | 24km/h | 29479m | 5.0m/s | -43.9°C | 2.6% | 0hPa | 2.7V | 00:00:00 | 00:00:00 | 00:00:00 | |
| PETON7-10 | 2026-09-05 12:40:50 | 45.78776 | 14.07319 | 132° | 26km/h | 29471m | 5.2m/s | -43.8°C | 2.6% | 0hPa | 2.6V | 00:00:00 | 00:00:00 | 08:30:00 | |
| IN3HCDX | 2026-09-05 12:40:48 | 45.78781 | 14.07313 | 144° | 31km/h | 29464m | 6.9m/s | -43.9°C | 0.6% | 0hPa | 2.6V | 00:00:00 | 00:00:00 | 00:00:00 | |
| IN3HCDX1 | 2026-09-05 12:40:45 | 45.78815 | 14.07285 | 155° | 31km/h | 29441m | 5.8m/s | -43.9°C | 0.6% | 0hPa | 2.6V | 00:00:00 | 00:00:00 | 00:00:00 | |
| IW2NTF | 2026-09-05 12:40:45 | 45.78835 | 14.07272 | 149° | 26km/h | 29417m | 5.7m/s | -43.8°C | 2.6% | 0hPa | 2.7V | 08:30:00 | 02:13:31 | 00:00:00 | |
| DB0ND-19 | 2026-09-05 12:40:41 | 45.78841 | 14.07267 | 144° | 27km/h | 29412m | 4.9m/s | -43.9°C | 0.6% | -1.0hPa | 2.6V | 00:00:00 | 00:00:00 | 00:00:00 | |
| OE8JPQ-2 | 2026-09-05 12:40:40 | 45.78840 | 14.07267 | 145° | 26km/h | 29412m | 4.8m/s | -43.8°C | 2.6% | 0hPa | 2.6V | 00:00:00 | 02:13:30 | 00:00:00 | |
| OE5DRO-10 | 2026-09-05 12:40:39 | 45.78846 | 14.07260 | 140° | 26km/h | 29408m | 4.7m/s | -43.7°C | 2.6% | 0hPa | 2.6V | 00:00:00 | 00:00:00 | 00:00:00 | |
| NBG1-10 | 2026-09-05 12:40:36 | 45.78858 | 14.07242 | 132° | 22km/h | 29390m | 4.7m/s | -43.8°C | 2.6% | 0hPa | 2.6V | 00:00:00 | 02:13:26 | 00:00:00 | |
| IW2NTF | 2026-09-05 12:40:35 | 45.78890 | 14.07219 | 155° | 27km/h | 29365m | 3m/s | -44°C | 2.6% | 0hPa | 2.6V | 08:30:00 | 02:13:21 | 00:00:00 | |
| DB0UT-7 | 2026-09-05 12:40:35 | 45.78862 | 14.07237 | 144° | 24km/h | 29386m | 4.1m/s | -44.0°C | 2.6% | 0hPa | 2.6V | 00:00:00 | 02:13:25 | 00:00:00 | |
| PETON7-10 | 2026-09-05 12:40:34 | 45.78868 | 14.07232 | 153° | 24km/h | 29381m | 6.0m/s | -44.0°C | 2.6% | 0hPa | 2.6V | 00:00:00 | 00:00:00 | 00:00:00 | |
| IN3HCDX | 2026-09-05 12:40:28 | 45.78897 | 14.07209 | 36° | 11km/h | 29348m | 6.4m/s | -44.2°C | 0.6% | 0hPa | 2.6V | 00:00:00 | 00:00:00 | 00:00:00 | |
| 9A1FER-3 | 2026-09-05 12:40:26 | 45.78894 | 14.07204 | 115° | 24km/h | 29340m | 3.2m/s | -44.2°C | 2.7% | 0hPa | 2.6V | 00:00:00 | 02:13:16 | 00:00:00 | |
| PG1ADW-2 | 2026-09-05 12:40:25 | 45.78897 | 14.07199 | 144° | 22km/h | 29335m | 6.9m/s | -44.3°C | 2.7% | 0hPa | 2.6V | 00:00:00 | 00:00:00 | 00:00:00 | |
| IW2NTF | 2026-09-05 12:40:24 | 45.78932 | 14.07176 | 149° | 31km/h | 29312m | 4.9m/s | -44.6°C | 2.8% | 0hPa | 2.6V | 08:30:00 | 02:13:11 | 00:00:00 | |
| IN3HCDX1 | 2026-09-05 12:40:23 | 45.78903 | 14.07195 | 156° | 37km/h | 29328m | 8.3m/s | -44.5°C | 0.6% | 0hPa | 2.6V | 00:00:00 | 00:00:00 | 00:00:00 | |
| OE5DXL-15 | 2026-09-05 12:40:22 | 45.78923 | 14.07182 | 157° | 20km/h | 29317m | 2.9m/s | -44.5°C | 2.8% | 0hPa | 2.6V | 00:00:00 | 00:00:00 | 00:00:00 | |
| OE8JPQ-2 | 2026-09-05 12:40:20 | 45.78936 | 14.07171 | 130° | 20km/h | 29307m | 6.7m/s | -44.6°C | 2.7% | 0hPa | 2.6V | 00:00:00 | 00:00:00 | 08:30:00 | |
| PETON7-10 | 2026-09-05 12:40:19 | 45.78937 | 14.07167 | 72° | 20km/h | 29300m | 6.0m/s | -44.7°C | 2.8% | 0hPa | 2.7V | 00:00:00 | 02:13:09 | 00:00:00 | |
| OE5WHR-10 | 2026-09-05 12:40:16 | 45.78934 | 14.07149 | 107° | 16km/h | 29285m | 5.4m/s | 0°C | 0% | 0hPa | 2.7V | 00:00:00 | 00:00:00 | 00:00:00 | |
| IW2NTF | 2026-09-05 12:40:13 | 45.78960 | 14.07109 | 142° | 22km/h | 29257m | 5.2m/s | -44.4°C | 2.7% | 0hPa | 2.7V | 08:30:00 | 02:13:01 | 00:00:00 | |
| 9A1FER-3 | 2026-09-05 12:40:08 | 45.78971 | 14.07100 | 157° | 18km/h | 29241m | 5.8m/s | -44.3°C | 2.8% | 0hPa | 2.7V | 00:00:00 | 02:12:58 | 00:00:00 | |
| IN3HCDX | 2026-09-05 12:40:06 | 45.78975 | 14.07097 | 147° | 15km/h | 29235m | 5.0m/s | -44.2°C | 0.6% | 0hPa | 2.7V | 00:00:00 | 00:00:00 | 00:00:00 | |
| DB0UT-7 | 2026-09-05 12:40:05 | 45.78978 | 14.07090 | 97° | 18km/h | 29224m | 6.7m/s | -44.3°C | 2.7% | 0hPa | 2.7V | 00:00:00 | 00:00:00 | 00:00:00 | |
| IW2NTF | 2026-09-05 12:40:04 | 45.78987 | 14.07069 | 150° | 29km/h | 29202m | 7.3m/s | -44.5°C | 2.7% | 0hPa | 2.6V | 08:30:00 | 02:12:51 | 00:00:00 | |
| PETON7-10 | 2026-09-05 12:40:03 | 45.78979 | 14.07080 | 109° | 20km/h | 29213m | 4.0m/s | 0°C | 0% | 0hPa | 2.6V | 00:00:00 | 00:00:00 | 00:00:00 | |
| IN3HCDX1 | 2026-09-05 12:40:02 | 45.78979 | 14.07080 | 110° | 16km/h | 29213m | 4.1m/s | -44.6°C | 0.6% | 0hPa | 2.6V | 00:00:00 | 00:00:00 | 00:00:00 | |
| OE5DRO-10 | 2026-09-05 12:40:01 | 45.78987 | 14.07069 | 151° | 20km/h | 29203m | 7.3m/s | -44.5°C | 2.7% | 0hPa | 2.6V | 00:00:00 | 00:00:00 | 00:00:00 | |
| OE8JPQ-2 | 2026-09-05 12:40:00 | 45.78994 | 14.07064 | 164° | 20km/h | 29196m | 5.6m/s | -44.3°C | 2.6% | 0hPa | 2.6V | 00:00:00 | 00:00:00 | 00:00:00 | |
| PG1ADW-2 | 2026-09-05 12:39:59 | 45.79003 | 14.07061 | 169° | 20km/h | 29192m | 2.2m/s | -44.3°C | 2.7% | 0hPa | 2.6V | 00:00:00 | 00:00:00 | 00:00:00 | |
| IW2NTF | 2026-09-05 12:39:54 | 45.79020 | 14.07049 | 169° | 38km/h | 29142m | 4.4m/s | -44.3°C | 2.7% | 0hPa | 2.6V | 08:30:00 | 02:12:40 | 00:00:00 | |
| OE5DXL-15 | 2026-09-05 12:39:52 | 45.79005 | 14.07053 | 163° | 15km/h | 29156m | 7.2m/s | -44.3°C | 2.7% | 0hPa | 2.6V | 00:00:00 | 00:00:00 | 00:00:00 | |
| PETON7-10 | 2026-09-05 12:39:48 | 45.79034 | 14.07044 | 152° | 11km/h | 29134m | 5.6m/s | 0°C | 0% | 0hPa | 2.6V | 00:00:00 | 00:00:00 | 00:00:00 | |
| IN3HCDX | 2026-09-05 12:39:46 | 45.79036 | 14.07041 | 85° | 9km/h | 29127m | 6.8m/s | -44.3°C | 0.6% | 0hPa | 2.6V | 00:00:00 | 00:00:00 | 00:00:00 | |
| IW2NTF | 2026-09-05 12:39:44 | 45.79039 | 14.07033 | 167° | 22km/h | 29089m | 4.8m/s | -44.2°C | 2.6% | 0hPa | 2.6V | 08:30:00 | 02:12:30 | 00:00:00 | |
| OE5DRO-10 | 2026-09-05 12:39:42 | 45.79029 | 14.07034 | 178° | 13km/h | 29099m | 5.9m/s | -44.1°C | 2.6% | 0hPa | 2.7V | 00:00:00 | 00:00:00 | 00:00:00 | |
| IN3HCDX1 | 2026-09-05 12:39:41 | 45.79029 | 14.07034 | 179° | 16km/h | 29099m | 5.9m/s | -44.1°C | 0.6% | 0hPa | 2.7V | 00:00:00 | 00:00:00 | 00:00:00 | |
| OE8JPQ-2 | 2026-09-05 12:39:40 | 45.79039 | 14.07033 | 168° | 13km/h | 29089m | 4.8m/s | -44.1°C | 2.6% | 0hPa | 2.7V | 00:00:00 | 02:12:30 | 00:00:00 | |
| PG1ADW-2 | 2026-09-05 12:39:39 | 45.79043 | 14.07031 | 155° | 11km/h | 29084m | 6.1m/s | -44.2°C | 2.6% | 0hPa | 2.7V | 00:00:00 | 00:00:00 | 00:00:00 | |
| DB0ND-19 | 2026-09-05 12:39:38 | 45.79045 | 14.07029 | 103° | 4km/h | 29077m | 6.5m/s | -44.2°C | 0.6% | -1.0hPa | 2.7V | 00:00:00 | 00:00:00 | 00:00:00 | |
| S52SK | 2026-09-05 12:39:36 | 45.79045 | 14.07028 | 12° | 7km/h | 29071m | 6.2m/s | -44.2°C | 0.6% | 0hPa | 2.7V | 00:00:00 | 00:00:00 | 00:00:00 | |
| DB0UT-7 | 2026-09-05 12:39:35 | 45.79041 | 14.07030 | 299° | 16km/h | 29060m | 5.9m/s | -44.3°C | 2.7% | 0hPa | 2.7V | 00:00:00 | 02:12:25 | 00:00:00 | |
| IW2NTF | 2026-09-05 12:39:34 | 45.79049 | 14.07045 | 110° | 2km/h | 29032m | 7.2m/s | -44.4°C | 2.7% | 0hPa | 2.7V | 08:30:00 | 02:12:20 | 00:00:00 | |
| 9A1FER-3 | 2026-09-05 12:39:34 | 45.79041 | 14.07034 | 252° | 15km/h | 29054m | 6.3m/s | -44.3°C | 2.7% | 0hPa | 2.6V | 00:00:00 | 02:12:24 | 00:00:00 | |
| PETON7-10 | 2026-09-05 12:39:33 | 45.79042 | 14.07038 | 227° | 13km/h | 29048m | 5.2m/s | 0°C | 0% | 0hPa | 2.7V | 00:00:00 | 02:12:23 | 00:00:00 | |
| S52SK | 2026-09-05 12:39:31 | 45.79045 | 14.07042 | 217° | 15km/h | 29043m | 4.2m/s | -44.3°C | 0.6% | 0hPa | 2.7V | 00:00:00 | 00:00:00 | 00:00:00 | |
| NBG1-10 | 2026-09-05 12:39:30 | 45.79049 | 14.07045 | 111° | 16km/h | 29033m | 7.2m/s | -44.4°C | 2.7% | 0hPa | 2.7V | 00:00:00 | 02:12:20 | 08:30:00 | |
| OE5WHR-10 | 2026-09-05 12:39:29 | 45.79048 | 14.07043 | 48° | 15km/h | 29026m | 6.5m/s | 0°C | 0% | 0hPa | 2.6V | 00:00:00 | 00:00:00 | 00:00:00 | |
| S52SK | 2026-09-05 12:39:26 | 45.79045 | 14.07037 | 75° | 7km/h | 29015m | 4.8m/s | -44.5°C | 0.6% | 0hPa | 2.6V | 00:00:00 | 00:00:00 | 00:00:00 | |
| IN3HCDX | 2026-09-05 12:39:25 | 45.79046 | 14.07036 | 161° | 7km/h | 29009m | 6.7m/s | -44.4°C | 0.6% | 0hPa | 2.6V | 00:00:00 | 00:00:00 | 00:00:00 | |
| IW2NTF | 2026-09-05 12:39:23 | 45.79056 | 14.07052 | 21° | 18km/h | 28975m | 6.2m/s | -44.8°C | 2.6% | 0hPa | 2.6V | 08:30:00 | 02:12:10 | 00:00:00 | |
| OE5DRO-10 | 2026-09-05 12:39:23 | 45.79057 | 14.07044 | 229° | 22km/h | 28993m | 3.4m/s | -44.5°C | 2.6% | 0hPa | 2.6V | 00:00:00 | 00:00:00 | 00:00:00 | |
| OE5DXL-15 | 2026-09-05 12:39:22 | 45.79059 | 14.07049 | 257° | 18km/h | 28989m | 5.6m/s | -44.6°C | 2.7% | 0hPa | 2.6V | 00:00:00 | 00:00:00 | 08:30:00 | |
| IN3HCDX1 | 2026-09-05 12:39:21 | 45.79059 | 14.07052 | 328° | 11km/h | 28982m | 7.3m/s | -44.8°C | 0.6% | 0hPa | 2.6V | 00:00:00 | 00:00:00 | 00:00:00 | |
| OE8JPQ-2 | 2026-09-05 12:39:20 | 45.79056 | 14.07052 | 22° | 22km/h | 28976m | 6.1m/s | -44.8°C | 2.6% | 0hPa | 2.6V | 00:00:00 | 00:00:00 | 00:00:00 | |
| IV3AMH | 2026-09-05 12:39:18 | 45.79050 | 14.07042 | 86° | 20km/h | 28965m | 5.3m/s | -44.8°C | 0.7% | 0hPa | 2.6V | 00:00:00 | 00:00:00 | 00:00:00 | |
| PETON7-10 | 2026-09-05 12:39:17 | 45.79051 | 14.07035 | 126° | 22km/h | 28959m | 6.8m/s | 0°C | 0% | 0hPa | 2.6V | 00:00:00 | 00:00:00 | 00:00:00 | |
| IW2NTF | 2026-09-05 12:39:12 | 45.79062 | 14.07050 | 358° | 22km/h | 28920m | 3.2m/s | -45°C | 2.7% | 0hPa | 2.6V | 08:30:00 | 02:12:00 | 00:00:00 | |
| OE5WHR-10 | 2026-09-05 12:39:08 | 45.79056 | 14.07045 | 104° | 18km/h | 28910m | 7.3m/s | 0°C | 0% | 0hPa | 2.6V | 00:00:00 | 02:11:58 | 00:00:00 | |
| DB0ND-19 | 2026-09-05 12:39:07 | 45.79059 | 14.07040 | 141° | 26km/h | 28903m | 7.9m/s | -45.2°C | 0.6% | -1.0hPa | 2.6V | 00:00:00 | 00:00:00 | 00:00:00 | |
| DB0UT-7 | 2026-09-05 12:39:05 | 45.79073 | 14.07029 | 157° | 16km/h | 28892m | 3.9m/s | -44.9°C | 2.8% | 0hPa | 2.6V | 00:00:00 | 00:00:00 | 00:00:00 | |
| OE5DRO-10 | 2026-09-05 12:39:04 | 45.79080 | 14.07025 | 160° | 13km/h | 28887m | 4.9m/s | -45.0°C | 2.8% | 0hPa | 2.6V | 00:00:00 | 00:00:00 | 08:30:00 | |
| IW2NTF | 2026-09-05 12:39:02 | 45.79077 | 14.07029 | 327° | 11km/h | 28862m | 5.2m/s | -45.1°C | 2.8% | 0hPa | 2.7V | 08:30:00 | 02:11:50 | 00:00:00 | |
| 9A1FER-3 | 2026-09-05 12:39:02 | 45.79083 | 14.07024 | 327° | 11km/h | 28874m | 7.1m/s | -45.2°C | 2.8% | 0hPa | 2.7V | 00:00:00 | 02:11:52 | 00:00:00 | |
| OE8JPQ-2 | 2026-09-05 12:39:00 | 45.79077 | 14.07029 | 328° | 16km/h | 28862m | 5.2m/s | -45.1°C | 2.8% | 0hPa | 2.7V | 00:00:00 | 00:00:00 | 00:00:00 | |
| IN3HCDX1 | 2026-09-05 12:38:59 | 45.79077 | 14.07029 | 329° | 11km/h | 28862m | 5.2m/s | -45.2°C | 0.7% | 0hPa | 2.7V | 00:00:00 | 00:00:00 | 00:00:00 | |
| IW2NTF | 2026-09-05 12:38:55 | 45.79102 | 14.07005 | 210° | 15km/h | 28804m | 4.8m/s | -45.2°C | 2.8% | 0hPa | 2.7V | 08:30:00 | 02:11:40 | 00:00:00 | |
| OE5DXL-15 | 2026-09-05 12:38:52 | 45.79095 | 14.07002 | 179° | 18km/h | 28817m | 6.9m/s | -45.2°C | 2.8% | 0hPa | 2.6V | 00:00:00 | 00:00:00 | 00:00:00 | |
| PG1ADW-2 | 2026-09-05 12:38:51 | 45.79098 | 14.07003 | 199° | 18km/h | 28810m | 6.4m/s | -45.1°C | 2.8% | 0hPa | 2.6V | 00:00:00 | 00:00:00 | 00:00:00 | |
| 9A1FER-3 | 2026-09-05 12:38:47 | 45.79104 | 14.07007 | 53° | 18km/h | 28787m | 6.7m/s | -45.3°C | 2.8% | 0hPa | 2.6V | 00:00:00 | 02:11:37 | 08:30:00 | |
| IV3AMH | 2026-09-05 12:38:45 | 45.79104 | 14.06997 | 116° | 20km/h | 28777m | 4.6m/s | -45.3°C | 0.7% | 0hPa | 2.6V | 00:00:00 | 00:00:00 | 00:00:00 | |
| IW2NTF | 2026-09-05 12:38:43 | 45.79135 | 14.06980 | 195° | 13km/h | 28749m | 6.5m/s | -45.2°C | 2.8% | 0hPa | 2.6V | 08:30:00 | 02:11:30 | 00:00:00 | |
| IN3HCDX | 2026-09-05 12:38:43 | 45.79108 | 14.06990 | 137° | 27km/h | 28771m | 7.6m/s | -45.4°C | 0.7% | 0hPa | 2.7V | 00:00:00 | 00:00:00 | 00:00:00 | |
| OE8JPQ-2 | 2026-09-05 12:38:40 | 45.79135 | 14.06980 | 196° | 18km/h | 28750m | 6.5m/s | -45.2°C | 2.8% | 0hPa | 2.7V | 00:00:00 | 02:11:30 | 00:00:00 | |
| IN3HCDX1 | 2026-09-05 12:38:39 | 45.79135 | 14.06980 | 196° | 13km/h | 28750m | 6.5m/s | -45.2°C | 0.7% | 0hPa | 2.7V | 00:00:00 | 00:00:00 | 00:00:00 | |
| IW2NTF | 2026-09-05 12:38:36 | 45.79154 | 14.06946 | 190° | 5km/h | 28689m | 6.3m/s | -45.2°C | 2.8% | 0hPa | 2.7V | 08:30:00 | 02:11:20 | 00:00:00 | |
| DB0UT-7 | 2026-09-05 12:38:35 | 45.79127 | 14.06966 | 115° | 20km/h | 28718m | 6.4m/s | -45.1°C | 2.8% | 0hPa | 2.6V | 00:00:00 | 02:11:25 | 08:30:00 | |
| 9A1FER-3 | 2026-09-05 12:38:32 | 45.79146 | 14.06948 | 163° | 15km/h | 28701m | 5.3m/s | -45.1°C | 2.8% | 0hPa | 2.6V | 00:00:00 | 02:11:22 | 00:00:00 | |
| PG1ADW-2 | 2026-09-05 12:38:31 | 45.79151 | 14.06946 | 171° | 24km/h | 28695m | 6.1m/s | -45.1°C | 2.8% | 0hPa | 2.6V | 00:00:00 | 00:00:00 | 00:00:00 | |
| PETON7-10 | 2026-09-05 12:38:28 | 45.79154 | 14.06946 | 25° | 15km/h | 28679m | 4.2m/s | 0°C | 0% | 0hPa | 2.6V | 00:00:00 | 00:00:00 | 08:30:00 | |
| OE5WHR-10 | 2026-09-05 12:38:26 | 45.79155 | 14.06941 | 133° | 22km/h | 28668m | 6.8m/s | 0°C | 0% | 0hPa | 2.6V | 00:00:00 | 00:00:00 | 00:00:00 | |
| IW2NTF | 2026-09-05 12:38:24 | 45.79177 | 14.06899 | 72° | 11km/h | 28631m | 5.4m/s | -44.9°C | 2.8% | 0hPa | 2.6V | 08:30:00 | 02:11:10 | 00:00:00 | |
| OE5DXL-15 | 2026-09-05 12:38:22 | 45.79176 | 14.06910 | 120° | 18km/h | 28644m | 6.8m/s | -45.0°C | 2.8% | 0hPa | 2.7V | 00:00:00 | 00:00:00 | 00:00:00 | |
| OE8JPQ-2 | 2026-09-05 12:38:18 | 45.79177 | 14.06892 | 128° | 18km/h | 28620m | 6.5m/s | -44.9°C | 2.7% | 0hPa | 2.7V | 00:00:00 | 00:00:00 | 00:00:00 | |
| 9A1FER-3 | 2026-09-05 12:38:17 | 45.79180 | 14.06889 | 149° | 16km/h | 28613m | 6.8m/s | -44.9°C | 2.8% | 0hPa | 2.6V | 00:00:00 | 02:11:07 | 00:00:00 | |
| DO3MHA-11 | 2026-09-05 12:38:16 | 45.79186 | 14.06885 | 152° | 22km/h | 28607m | 5.4m/s | -44.9°C | 2.8% | 0hPa | 2.6V | 00:00:00 | 02:11:06 | 00:00:00 | |
| IW2NTF | 2026-09-05 12:38:13 | 45.79195 | 14.06857 | 79° | 15km/h | 28574m | 4.7m/s | -44.8°C | 2.8% | 0hPa | 2.6V | 08:30:00 | 02:11:00 | 00:00:00 | |
| PETON7-10 | 2026-09-05 12:38:13 | 45.79198 | 14.06871 | 110° | 18km/h | 28591m | 7.3m/s | 0°C | 0% | 0hPa | 2.7V | 00:00:00 | 00:00:00 | 00:00:00 | |
| OE5DRO-10 | 2026-09-05 12:38:07 | 45.79203 | 14.06837 | 141° | 18km/h | 28556m | 4.4m/s | -44.6°C | 2.8% | 0hPa | 2.7V | 00:00:00 | 00:00:00 | 00:00:00 | |
| OE5WHR-10 | 2026-09-05 12:38:05 | 45.79213 | 14.06826 | 134° | 20km/h | 28548m | 5.8m/s | 0°C | 0% | 0hPa | 2.7V | 00:00:00 | 02:10:55 | 00:00:00 | |
| IW2NTF | 2026-09-05 12:38:04 | 45.79203 | 14.06814 | 110° | 11km/h | 28518m | 7m/s | -44.7°C | 2.7% | 0hPa | 2.7V | 08:30:00 | 02:10:50 | 00:00:00 | |
| 9A1FER-3 | 2026-09-05 12:38:02 | 45.79207 | 14.06819 | 14° | 13km/h | 28528m | 4.1m/s | -44.5°C | 2.7% | 0hPa | 2.6V | 00:00:00 | 02:10:52 | 00:00:00 | |
| DO3MHA-11 | 2026-09-05 12:38:01 | 45.79204 | 14.06817 | 43° | 18km/h | 28524m | 3.7m/s | -44.6°C | 2.7% | 0hPa | 2.6V | 00:00:00 | 02:10:51 | 08:30:00 | |
| OE8JPQ-2 | 2026-09-05 12:37:58 | 45.79213 | 14.06802 | 146° | 16km/h | 28504m | 5.7m/s | -44.7°C | 2.7% | 0hPa | 2.6V | 00:00:00 | 00:00:00 | 00:00:00 | |
| IW2NTF | 2026-09-05 12:37:54 | 45.79222 | 14.06781 | 165° | 11km/h | 28457m | 6.8m/s | -44.7°C | 2.7% | 0hPa | 2.6V | 08:30:00 | 02:10:40 | 00:00:00 | |
| PETON7-10 | 2026-09-05 12:37:52 | 45.79222 | 14.06780 | 338° | 11km/h | 28470m | 5.5m/s | 0°C | 0% | 0hPa | 2.6V | 00:00:00 | 02:10:42 | 00:00:00 | |
| DO3MHA-11 | 2026-09-05 12:37:51 | 45.79220 | 14.06781 | 268° | 13km/h | 28464m | 5.9m/s | -44.7°C | 2.7% | 0hPa | 2.6V | 00:00:00 | 02:10:41 | 00:00:00 | |
| OE5DRO-10 | 2026-09-05 12:37:48 | 45.79229 | 14.06775 | 139° | 16km/h | 28446m | 5.2m/s | -44.7°C | 2.7% | 0hPa | 2.6V | 00:00:00 | 00:00:00 | 00:00:00 | |
| IV3AMH | 2026-09-05 12:37:46 | 45.79232 | 14.06770 | 118° | 16km/h | 28440m | 6.6m/s | -44.8°C | 0.7% | 0hPa | 2.6V | 00:00:00 | 00:00:00 | 00:00:00 | |
| IW2NTF | 2026-09-05 12:37:45 | 45.79245 | 14.06744 | 95° | 4km/h | 28388m | 6.8m/s | -44.9°C | 2.8% | 0hPa | 2.6V | 08:30:00 | 02:10:28 | 00:00:00 | |
| PG1ADW-2 | 2026-09-05 12:37:43 | 45.79231 | 14.06753 | 117° | 16km/h | 28416m | 6.8m/s | -44.6°C | 2.7% | 0hPa | 2.7V | 00:00:00 | 02:10:33 | 00:00:00 | |
| OE5WHR-10 | 2026-09-05 12:37:42 | 45.79233 | 14.06750 | 152° | 22km/h | 28409m | 6.2m/s | 0°C | 0% | 0hPa | 2.7V | 00:00:00 | 00:00:00 | 00:00:00 | |
| DO3MHA-11 | 2026-09-05 12:37:41 | 45.79237 | 14.06748 | 162° | 15km/h | 28404m | 5.2m/s | -44.7°C | 2.8% | 0hPa | 2.7V | 00:00:00 | 02:10:31 | 00:00:00 | |
| OE8JPQ-2 | 2026-09-05 12:37:38 | 45.79245 | 14.06744 | 96° | 20km/h | 28388m | 6.7m/s | -44.8°C | 2.8% | 0hPa | 2.7V | 00:00:00 | 02:10:28 | 00:00:00 | |
| PETON7-10 | 2026-09-05 12:37:36 | 45.79243 | 14.06740 | 71° | 16km/h | 28377m | 4.1m/s | 0°C | 0% | 0hPa | 2.7V | 00:00:00 | 00:00:00 | 00:00:00 | |
| DB0UT-7 | 2026-09-05 12:37:35 | 45.79243 | 14.06735 | 110° | 24km/h | 28372m | 4.8m/s | -45.0°C | 2.8% | 0hPa | 2.7V | 00:00:00 | 02:10:25 | 00:00:00 | |
| IW2NTF | 2026-09-05 12:37:34 | 45.79268 | 14.06696 | 39° | 13km/h | 28328m | 5.4m/s | -45.1°C | 2.9% | 0hPa | 2.7V | 08:30:00 | 02:10:18 | 00:00:00 | |
| DO3MHA-11 | 2026-09-05 12:37:31 | 45.79264 | 14.06709 | 142° | 29km/h | 28348m | 4.4m/s | -45.1°C | 2.8% | 0hPa | 2.6V | 00:00:00 | 02:10:21 | 00:00:00 | |
| OE5DRO-10 | 2026-09-05 12:37:30 | 45.79269 | 14.06699 | 80° | 24km/h | 28335m | 7.4m/s | -45.2°C | 2.8% | 0hPa | 2.7V | 00:00:00 | 00:00:00 | 00:00:00 | |
| 9A1FER-3 | 2026-09-05 12:37:27 | 45.79266 | 14.06693 | 54° | 20km/h | 28324m | 4.1m/s | -44.8°C | 2.8% | 0hPa | 2.7V | 00:00:00 | 02:10:17 | 00:00:00 | |
| IW2NTF | 2026-09-05 12:37:22 | 45.79295 | 14.06617 | 126° | 31km/h | 28260m | 6.8m/s | -44.7°C | 2.8% | 0hPa | 2.7V | 08:30:00 | 02:10:06 | 00:00:00 | |
| IN3HCDX | 2026-09-05 12:37:22 | 45.79286 | 14.06662 | 130° | 33km/h | 28296m | 5.4m/s | -44.8°C | 0.7% | 0hPa | 2.6V | 00:00:00 | 00:00:00 | 00:00:00 | |
| DO3MHA-11 | 2026-09-05 12:37:21 | 45.79290 | 14.06653 | 115° | 29km/h | 28291m | 6.5m/s | -44.8°C | 2.8% | 0hPa | 2.6V | 00:00:00 | 02:10:11 | 00:00:00 | |
| PETON7-10 | 2026-09-05 12:37:18 | 45.79290 | 14.06632 | 91° | 26km/h | 28273m | 4.8m/s | 0°C | 0% | 0hPa | 2.6V | 00:00:00 | 00:00:00 | 00:00:00 | |
| 9A1FER-3 | 2026-09-05 12:37:12 | 45.79311 | 14.06579 | 94° | 27km/h | 28237m | 6.8m/s | -44.6°C | 2.7% | 0hPa | 2.6V | 00:00:00 | 02:10:02 | 00:00:00 | |
| IW2NTF | 2026-09-05 12:37:11 | 45.79318 | 14.06529 | 122° | 27km/h | 28203m | 4.8m/s | -44.6°C | 2.8% | 0hPa | 2.6V | 08:30:00 | 02:09:56 | 00:00:00 | |
| OE5DRO-10 | 2026-09-05 12:37:09 | 45.79310 | 14.06554 | 97° | 27km/h | 28219m | 6.3m/s | -44.6°C | 2.7% | 0hPa | 2.7V | 00:00:00 | 00:00:00 | 00:00:00 | |
| DO3MHA-11 | 2026-09-05 12:37:08 | 45.79311 | 14.06546 | 114° | 31km/h | 28213m | 5.7m/s | -44.5°C | 2.7% | 0hPa | 2.6V | 00:00:00 | 02:09:58 | 00:00:00 | |
| DB0UT-7 | 2026-09-05 12:37:05 | 45.79321 | 14.06521 | 114° | 31km/h | 28198m | 6.0m/s | -44.6°C | 2.7% | 0hPa | 2.6V | 00:00:00 | 00:00:00 | 00:00:00 | |
| IW2NTF | 2026-09-05 12:37:01 | 45.79331 | 14.06422 | 67° | 22km/h | 28144m | 6.2m/s | -44.4°C | 2.6% | 0hPa | 2.6V | 08:30:00 | 02:09:46 | 00:00:00 | |
| DO3MHA-11 | 2026-09-05 12:36:58 | 45.79332 | 14.06440 | 100° | 29km/h | 28158m | 5.2m/s | -44.3°C | 2.6% | 0hPa | 2.7V | 00:00:00 | 02:09:48 | 00:00:00 | |
| 9A1FER-3 | 2026-09-05 12:36:57 | 45.79332 | 14.06430 | 87° | 24km/h | 28152m | 7.2m/s | -44.4°C | 2.6% | 0hPa | 2.7V | 00:00:00 | 02:09:47 | 00:00:00 | |
| IW2NTF | 2026-09-05 12:36:52 | 45.79335 | 14.06335 | 80° | 26km/h | 28088m | 5.1m/s | -44.9°C | 2.8% | 0hPa | 2.7V | 08:30:00 | 02:09:36 | 00:00:00 | |
| OE5DRO-10 | 2026-09-05 12:36:50 | 45.79338 | 14.06373 | 108° | 26km/h | 28111m | 5.8m/s | -44.6°C | 2.7% | 0hPa | 2.7V | 00:00:00 | 00:00:00 | 00:00:00 | |
| PETON7-10 | 2026-09-05 12:36:46 | 45.79335 | 14.06335 | 81° | 24km/h | 28089m | 5.0m/s | 0°C | 0% | 0hPa | 2.7V | 00:00:00 | 00:00:00 | 00:00:00 | |
| DO3MHA-11 | 2026-09-05 12:36:45 | 45.79335 | 14.06326 | 100° | 26km/h | 28083m | 6.7m/s | -44.8°C | 2.8% | 0hPa | 2.7V | 00:00:00 | 02:09:35 | 00:00:00 | |
| PG1ADW-2 | 2026-09-05 12:36:42 | 45.79345 | 14.06299 | 123° | 26km/h | 28066m | 4.1m/s | -44.9°C | 2.7% | 0hPa | 2.7V | 00:00:00 | 00:00:00 | 00:00:00 | |
| IW2NTF | 2026-09-05 12:36:40 | 45.79341 | 14.06255 | 107° | 33km/h | 28032m | 6.2m/s | -44.8°C | 2.7% | 0hPa | 2.7V | 08:30:00 | 02:09:26 | 00:00:00 | |
| OE8JPQ-2 | 2026-09-05 12:36:38 | 45.79342 | 14.06274 | 64° | 26km/h | 28043m | 4.3m/s | -45.0°C | 2.7% | 0hPa | 2.6V | 00:00:00 | 02:09:28 | 00:00:00 | |
| IN3HCDX1 | 2026-09-05 12:36:37 | 45.79342 | 14.06274 | 65° | 24km/h | 28043m | 4.4m/s | -45.1°C | 0.7% | 0hPa | 2.6V | 00:00:00 | 00:00:00 | 00:00:00 | |
| DO3MHA-11 | 2026-09-05 12:36:35 | 45.79345 | 14.06244 | 123° | 26km/h | 28026m | 4.9m/s | -44.7°C | 2.7% | 0hPa | 2.6V | 00:00:00 | 02:09:25 | 00:00:00 | |
| OE5WHR-10 | 2026-09-05 12:36:33 | 45.79355 | 14.06225 | 129° | 24km/h | 28017m | 5.5m/s | 0°C | 0% | 0hPa | 2.6V | 00:00:00 | 02:09:23 | 00:00:00 | |
| IW2NTF | 2026-09-05 12:36:32 | 45.79363 | 14.06173 | 124° | 29km/h | 27976m | 5.1m/s | -45°C | 2.7% | 0hPa | 2.6V | 08:30:00 | 02:09:16 | 00:00:00 | |
| OE5DRO-10 | 2026-09-05 12:36:32 | 45.79358 | 14.06214 | 83° | 26km/h | 28005m | 5.8m/s | -44.6°C | 2.8% | 0hPa | 2.6V | 00:00:00 | 00:00:00 | 00:00:00 | |
| PETON7-10 | 2026-09-05 12:36:31 | 45.79358 | 14.06214 | 83° | 20km/h | 28005m | 5.8m/s | 0°C | 0% | 0hPa | 2.6V | 00:00:00 | 00:00:00 | 00:00:00 | |
| DO3MHA-11 | 2026-09-05 12:36:25 | 45.79367 | 14.06166 | 135° | 20km/h | 27971m | 6.5m/s | -45.1°C | 2.7% | 0hPa | 2.6V | 00:00:00 | 02:09:15 | 08:30:00 | |
| OE5DXL-15 | 2026-09-05 12:36:22 | 45.79380 | 14.06154 | 149° | 29km/h | 27955m | 5.5m/s | -45.2°C | 2.8% | 0hPa | 2.7V | 00:00:00 | 00:00:00 | 00:00:00 | |
| PG1ADW-2 | 2026-09-05 12:36:21 | 45.79385 | 14.06149 | 137° | 29km/h | 27949m | 5.9m/s | -45.1°C | 2.7% | 0hPa | 2.7V | 00:00:00 | 02:09:11 | 00:00:00 | |
| IW2NTF | 2026-09-05 12:36:20 | 45.79399 | 14.06114 | 126° | 15km/h | 27922m | 5.4m/s | -45.5°C | 2.8% | 0hPa | 2.7V | 08:30:00 | 02:09:06 | 00:00:00 | |
| IN3HCDX | 2026-09-05 12:36:19 | 45.79389 | 14.06142 | 126° | 27km/h | 27943m | 5.0m/s | -45.2°C | 0.7% | 0hPa | 2.7V | 00:00:00 | 00:00:00 | 00:00:00 | |
| IN3HCDX1 | 2026-09-05 12:36:18 | 45.79395 | 14.06125 | 113° | 24km/h | 27934m | 5.3m/s | -45.3°C | 0.7% | 0hPa | 2.7V | 00:00:00 | 00:00:00 | 00:00:00 | |
| PETON7-10 | 2026-09-05 12:36:14 | 45.79407 | 14.06104 | 142° | 26km/h | 27912m | 5.3m/s | 0°C | 0% | 0hPa | 2.7V | 00:00:00 | 02:09:04 | 00:00:00 | |
| IW2NTF | 2026-09-05 12:36:12 | 45.79430 | 14.06035 | 96° | 11km/h | 27868m | 4.5m/s | -45.6°C | 2.7% | 0hPa | 2.7V | 08:30:00 | 02:08:56 | 00:00:00 | |
| NBG1-10 | 2026-09-05 12:36:11 | 45.79428 | 14.06072 | 122° | 37km/h | 27896m | 3.1m/s | -45.3°C | 2.8% | 0hPa | 2.7V | 00:00:00 | 02:09:01 | 00:00:00 | |
| 9A1FER-3 | 2026-09-05 12:36:05 | 45.79432 | 14.06030 | 126° | 27km/h | 27864m | 5.5m/s | -45.4°C | 2.8% | 0hPa | 2.7V | 00:00:00 | 02:08:55 | 08:30:00 | |
| DO3MHA-11 | 2026-09-05 12:36:04 | 45.79436 | 14.06021 | 132° | 37km/h | 27858m | 5.8m/s | -45.5°C | 2.8% | 0hPa | 2.6V | 00:00:00 | 02:08:54 | 00:00:00 | |
| IW2NTF | 2026-09-05 12:36:01 | 45.79462 | 14.05931 | 110° | 37km/h | 27815m | 6.2m/s | -45.8°C | 2.9% | 0hPa | 2.6V | 08:30:00 | 02:08:46 | 00:00:00 | |
| PG1ADW-2 | 2026-09-05 12:36:01 | 45.79456 | 14.05984 | 119° | 33km/h | 27843m | 5.6m/s | -45.6°C | 2.9% | 0hPa | 2.6V | 00:00:00 | 00:00:00 | 08:30:00 | |
| DB0UT-7 | 2026-09-05 12:36:00 | 45.79459 | 14.05973 | 105° | 33km/h | 27836m | 6.0m/s | -45.6°C | 2.9% | 0hPa | 2.6V | 00:00:00 | 02:08:50 | 00:00:00 | |
| IN3HCDX | 2026-09-05 12:35:59 | 45.79460 | 14.05962 | 91° | 27km/h | 27831m | 5.6m/s | -45.6°C | 0.7% | 0hPa | 2.6V | 00:00:00 | 00:00:00 | 00:00:00 | |
| PETON7-10 | 2026-09-05 12:35:58 | 45.79460 | 14.05953 | 88° | 29km/h | 27825m | 4.5m/s | 0°C | 0% | 0hPa | 2.6V | 00:00:00 | 00:00:00 | 00:00:00 | |
| IN3HCDX1 | 2026-09-05 12:35:57 | 45.79460 | 14.05953 | 88° | 27km/h | 27825m | 4.6m/s | -45.7°C | 0.7% | 0hPa | 2.6V | 00:00:00 | 00:00:00 | 00:00:00 | |
| DO3MHA-11 | 2026-09-05 12:35:54 | 45.79472 | 14.05905 | 124° | 35km/h | 27804m | 3.8m/s | -45.9°C | 2.9% | 0hPa | 2.6V | 00:00:00 | 02:08:44 | 00:00:00 | |
| OE5DXL-15 | 2026-09-05 12:35:52 | 45.79481 | 14.05882 | 111° | 35km/h | 27794m | 6.7m/s | -45.9°C | 2.9% | 0hPa | 2.7V | 00:00:00 | 00:00:00 | 00:00:00 | |
| IW2NTF | 2026-09-05 12:35:51 | 45.79490 | 14.05817 | 115° | 46km/h | 27761m | 4.7m/s | -45.8°C | 2.8% | 0hPa | 2.7V | 08:30:00 | 02:08:36 | 00:00:00 | |
| 9A1FER-3 | 2026-09-05 12:35:50 | 45.79482 | 14.05864 | 84° | 27km/h | 27783m | 4.5m/s | -45.6°C | 2.8% | 0hPa | 2.7V | 00:00:00 | 02:08:40 | 00:00:00 | |
| DO3MHA-12 | 2026-09-05 12:35:47 | 45.79486 | 14.05831 | 111° | 40km/h | 27767m | 6.1m/s | -45.8°C | 2.8% | 0hPa | 2.7V | 00:00:00 | 02:08:37 | 00:00:00 | |
| IV3AMH | 2026-09-05 12:35:46 | 45.79490 | 14.05817 | 117° | 46km/h | 27762m | 4.7m/s | -45.8°C | 0.7% | 0hPa | 2.7V | 00:00:00 | 00:00:00 | 00:00:00 | |
| DO3MHA-11 | 2026-09-05 12:35:44 | 45.79498 | 14.05790 | 108° | 37km/h | 27754m | 4.6m/s | -45.7°C | 2.9% | 0hPa | 2.7V | 00:00:00 | 02:08:34 | 00:00:00 | |
| IW2NTF | 2026-09-05 12:35:42 | 45.79504 | 14.05695 | 98° | 51km/h | 27711m | 5m/s | -46.3°C | 2.9% | 0hPa | 2.7V | 08:30:00 | 02:08:26 | 00:00:00 | |
| PG1ADW-2 | 2026-09-05 12:35:41 | 45.79497 | 14.05765 | 70° | 37km/h | 27736m | 4.1m/s | -45.9°C | 2.9% | 0hPa | 2.7V | 00:00:00 | 00:00:00 | 00:00:00 | |
| IN3HCDX | 2026-09-05 12:35:38 | 45.79498 | 14.05731 | 107° | 47km/h | 27720m | 5.3m/s | -46.1°C | 0.7% | 0hPa | 2.7V | 00:00:00 | 00:00:00 | 00:00:00 | |
| OE5WHR-10 | 2026-09-05 12:35:37 | 45.79501 | 14.05714 | 105° | 38km/h | 27715m | 4.1m/s | 0°C | 0% | 0hPa | 2.7V | 00:00:00 | 00:00:00 | 00:00:00 | |
| NBG1-10 | 2026-09-05 12:35:36 | 45.79504 | 14.05695 | 99° | 37km/h | 27711m | 4.9m/s | -46.2°C | 2.9% | 0hPa | 2.7V | 00:00:00 | 02:08:26 | 00:00:00 | |
| DO3MHA-11 | 2026-09-05 12:35:34 | 45.79503 | 14.05663 | 76° | 37km/h | 27700m | 5.3m/s | -46.1°C | 2.8% | 0hPa | 2.7V | 00:00:00 | 02:08:24 | 00:00:00 | |
| OE5DRO-10 | 2026-09-05 12:35:33 | 45.79501 | 14.05652 | 69° | 33km/h | 27695m | 4.5m/s | -46.1°C | 2.9% | 0hPa | 2.7V | 00:00:00 | 00:00:00 | 00:00:00 | |
| 9A1FER-3 | 2026-09-05 12:35:31 | 45.79499 | 14.05636 | 105° | 29km/h | 27686m | 6.0m/s | -46.1°C | 2.9% | 0hPa | 2.7V | 00:00:00 | 02:08:21 | 00:00:00 | |
| DB0UT-7 | 2026-09-05 12:35:30 | 45.79502 | 14.05629 | 127° | 37km/h | 27679m | 6.3m/s | -46.2°C | 2.9% | 0hPa | 2.7V | 00:00:00 | 00:00:00 | 00:00:00 | |
| IW2NTF | 2026-09-05 12:35:24 | 45.79515 | 14.05518 | 118° | 40km/h | 27632m | 5m/s | -46.5°C | 2.9% | 0hPa | 2.7V | 08:30:00 | 02:08:11 | 00:00:00 | |
| DO3MHA-12 | 2026-09-05 12:35:22 | 45.79511 | 14.05530 | 105° | 38km/h | 27638m | 5.8m/s | -46.4°C | 2.9% | 0hPa | 2.7V | 00:00:00 | 02:08:12 | 00:00:00 | |
| PG1ADW-2 | 2026-09-05 12:35:21 | 45.79515 | 14.05518 | 119° | 35km/h | 27633m | 5.0m/s | -46.5°C | 2.9% | 0hPa | 2.6V | 00:00:00 | 00:00:00 | 00:00:00 | |
| OE8JPQ-2 | 2026-09-05 12:35:18 | 45.79527 | 14.05480 | 101° | 37km/h | 27619m | 6.1m/s | -46.8°C | 3.0% | 0hPa | 2.6V | 00:00:00 | 00:00:00 | 00:00:00 | |
| IN3HCDX1 | 2026-09-05 12:35:17 | 45.79527 | 14.05469 | 84° | 31km/h | 27612m | 6.3m/s | -47.1°C | 0.7% | 0hPa | 2.6V | 00:00:00 | 00:00:00 | 00:00:00 | |
| 9A1FER-3 | 2026-09-05 12:35:16 | 45.79526 | 14.05458 | 72° | 33km/h | 27607m | 5.1m/s | -47.2°C | 3.1% | 0hPa | 2.6V | 00:00:00 | 02:08:06 | 00:00:00 | |
| IN3HCDX | 2026-09-05 12:35:15 | 45.79526 | 14.05458 | 73° | 29km/h | 27607m | 5.2m/s | -47.3°C | 0.8% | 0hPa | 2.6V | 00:00:00 | 00:00:00 | 00:00:00 | |
| DO3MHA-11 | 2026-09-05 12:35:14 | 45.79523 | 14.05438 | 93° | 40km/h | 27597m | 5.6m/s | -47.1°C | 3.1% | 0hPa | 2.6V | 00:00:00 | 02:08:04 | 00:00:00 | |
| IW2NTF | 2026-09-05 12:35:13 | 45.79531 | 14.05400 | 105° | 44km/h | 27582m | 3.6m/s | -47.1°C | 3% | 0hPa | 2.6V | 08:30:00 | 02:08:01 | 00:00:00 | |
| OE5WHR-10 | 2026-09-05 12:35:12 | 45.79528 | 14.05414 | 112° | 29km/h | 27587m | 3.9m/s | 0°C | 0% | 0hPa | 2.7V | 00:00:00 | 00:00:00 | 00:00:00 | |
| IV3AMH | 2026-09-05 12:35:07 | 45.79531 | 14.05350 | 74° | 47km/h | 27566m | 5.5m/s | -47.3°C | 0.8% | 0hPa | 2.7V | 00:00:00 | 00:00:00 | 00:00:00 | |
| IW2NTF | 2026-09-05 12:35:04 | 45.79533 | 14.05274 | 86° | 35km/h | 27529m | 6.5m/s | -47.2°C | 3.1% | 0hPa | 2.7V | 08:30:00 | 02:07:51 | 00:00:00 | |
| DO3MHA-12 | 2026-09-05 12:35:03 | 45.79530 | 14.05295 | 121° | 33km/h | 27540m | 3.3m/s | -47.1°C | 3.1% | 0hPa | 2.7V | 00:00:00 | 02:07:53 | 00:00:00 | |
| 9A1FER-3 | 2026-09-05 12:35:01 | 45.79533 | 14.05273 | 87° | 38km/h | 27530m | 6.5m/s | -47.2°C | 3.1% | 0hPa | 2.7V | 00:00:00 | 02:07:51 | 00:00:00 | |
| DB0UT-7 | 2026-09-05 12:35:00 | 45.79532 | 14.05260 | 75° | 40km/h | 27523m | 5.9m/s | -47.1°C | 3.1% | 0hPa | 2.7V | 00:00:00 | 02:07:50 | 00:00:00 | |
| NBG1-10 | 2026-09-05 12:34:59 | 45.79528 | 14.05244 | 70° | 38km/h | 27517m | 5.6m/s | -47.0°C | 3.1% | 0hPa | 2.7V | 00:00:00 | 02:07:49 | 00:00:00 | |
| OE8JPQ-2 | 2026-09-05 12:34:58 | 45.79524 | 14.05229 | 71° | 38km/h | 27512m | 5.6m/s | -47.1°C | 3.1% | 0hPa | 2.7V | 00:00:00 | 00:00:00 | 00:00:00 | |
| IN3HCDX | 2026-09-05 12:34:56 | 45.79518 | 14.05202 | 76° | 33km/h | 27501m | 5.2m/s | -47.3°C | 0.7% | 0hPa | 2.7V | 00:00:00 | 00:00:00 | 00:00:00 | |
| OE5DRO-10 | 2026-09-05 12:34:55 | 45.79516 | 14.05191 | 76° | 40km/h | 27496m | 5.9m/s | -47.3°C | 3.1% | 0hPa | 2.7V | 00:00:00 | 00:00:00 | 00:00:00 | |
| DO3MHA-11 | 2026-09-05 12:34:54 | 45.79514 | 14.05181 | 77° | 40km/h | 27490m | 5.8m/s | -47.1°C | 3.0% | 0hPa | 2.7V | 00:00:00 | 02:07:44 | 08:30:00 | |
| DO3MHA-12 | 2026-09-05 12:34:52 | 45.79513 | 14.05161 | 95° | 40km/h | 27480m | 4.3m/s | -47.2°C | 3.0% | 0hPa | 2.7V | 00:00:00 | 02:07:42 | 00:00:00 | |
| IW2NTF | 2026-09-05 12:34:52 | 45.79509 | 14.05057 | 53° | 46km/h | 27441m | 4.5m/s | -47.2°C | 3.1% | 0hPa | 2.7V | 08:30:00 | 02:07:35 | 00:00:00 | |
| 9A1FER-3 | 2026-09-05 12:34:45 | 45.79508 | 14.05057 | 54° | 42km/h | 27441m | 4.4m/s | -47.2°C | 3.1% | 0hPa | 2.7V | 00:00:00 | 02:07:35 | 00:00:00 | |
| DO3MHA-11 | 2026-09-05 12:34:44 | 45.79503 | 14.05045 | 61° | 44km/h | 27437m | 3.9m/s | -47.3°C | 3.2% | 0hPa | 2.7V | 00:00:00 | 02:07:34 | 00:00:00 | |
| PG1ADW-2 | 2026-09-05 12:34:41 | 45.79503 | 14.05008 | 115° | 38km/h | 27420m | 4.7m/s | -47.4°C | 3.2% | 0hPa | 2.7V | 00:00:00 | 00:00:00 | 00:00:00 | |
| IW2NTF | 2026-09-05 12:34:38 | 45.79487 | 14.04858 | 93° | 31km/h | 27368m | 4.8m/s | -47.2°C | 3.2% | 0hPa | 2.7V | 08:30:00 | 02:07:21 | 00:00:00 | |
| IN3HCDX1 | 2026-09-05 12:34:36 | 45.79498 | 14.04929 | 60° | 53km/h | 27394m | 4.5m/s | -47.6°C | 0.8% | 0hPa | 2.7V | 00:00:00 | 00:00:00 | 00:00:00 | |
| IV3AMH | 2026-09-05 12:34:35 | 45.79498 | 14.04929 | 60° | 53km/h | 27394m | 4.5m/s | -47.6°C | 0.8% | 0hPa | 2.7V | 00:00:00 | 00:00:00 | 00:00:00 | |
| DO3MHA-11 | 2026-09-05 12:34:34 | 45.79488 | 14.04897 | 75° | 37km/h | 27384m | 5.6m/s | -47.3°C | 3.1% | 0hPa | 2.7V | 00:00:00 | 02:07:24 | 00:00:00 | |
| DO3MHA-12 | 2026-09-05 12:34:32 | 45.79486 | 14.04869 | 97° | 35km/h | 27373m | 4.6m/s | -47.1°C | 3.2% | 0hPa | 2.7V | 00:00:00 | 02:07:22 | 00:00:00 | |
| DB0UT-7 | 2026-09-05 12:34:30 | 45.79486 | 14.04846 | 80° | 33km/h | 27363m | 6.1m/s | -47.2°C | 3.2% | 0hPa | 2.7V | 00:00:00 | 00:00:00 | 00:00:00 | |
| NBG1-10 | 2026-09-05 12:34:26 | 45.79472 | 14.04801 | 75° | 31km/h | 27341m | 6.0m/s | -47.1°C | 3.2% | 0hPa | 2.7V | 00:00:00 | 02:07:16 | 00:00:00 | |
| DO3MHA-11 | 2026-09-05 12:34:24 | 45.79471 | 14.04774 | 96° | 33km/h | 27330m | 4.5m/s | -46.9°C | 3.2% | 0hPa | 2.7V | 00:00:00 | 02:07:14 | 00:00:00 | |
| S52SK | 2026-09-05 12:34:22 | 45.79471 | 14.04749 | 81° | 31km/h | 27320m | 6.4m/s | -47.0°C | 0.8% | 0hPa | 2.7V | 00:00:00 | 00:00:00 | 00:00:00 | |
| PG1ADW-2 | 2026-09-05 12:34:21 | 45.79469 | 14.04740 | 62° | 29km/h | 27313m | 6.2m/s | -47.0°C | 3.1% | 0hPa | 2.7V | 00:00:00 | 00:00:00 | 00:00:00 | |
| OE8JPQ-2 | 2026-09-05 12:34:18 | 45.79459 | 14.04714 | 74° | 33km/h | 27298m | 6.0m/s | -46.6°C | 3.0% | 0hPa | 2.7V | 00:00:00 | 00:00:00 | 08:30:00 | |
| 9A1FER-3 | 2026-09-05 12:34:15 | 45.79459 | 14.04680 | 92° | 33km/h | 27283m | 3.7m/s | -46.6°C | 3.1% | 0hPa | 2.6V | 00:00:00 | 02:07:05 | 00:00:00 | |
| DO3MHA-11 | 2026-09-05 12:34:14 | 45.79458 | 14.04667 | 79° | 31km/h | 27278m | 5.3m/s | -46.7°C | 3.1% | 0hPa | 2.6V | 00:00:00 | 02:07:04 | 00:00:00 | |
| S52SK | 2026-09-05 12:34:10 | 45.79445 | 14.04632 | 52° | 35km/h | 27262m | 3.4m/s | -46.4°C | 0.8% | 0hPa | 2.6V | 00:00:00 | 00:00:00 | 00:00:00 | |
| DO3MHA-12 | 2026-09-05 12:34:09 | 45.79438 | 14.04613 | 87° | 29km/h | 27252m | 6.9m/s | -46.3°C | 3.1% | 0hPa | 2.6V | 00:00:00 | 02:06:59 | 08:30:00 | |
| DO3MHA-11 | 2026-09-05 12:34:04 | 45.79441 | 14.04570 | 52° | 33km/h | 27224m | 5.7m/s | -46.2°C | 2.9% | 0hPa | 2.7V | 00:00:00 | 02:06:54 | 00:00:00 | |
| IW2NTF | 2026-09-05 12:34:02 | 45.79427 | 14.04492 | 87° | 27km/h | 27189m | 5.5m/s | -45.9°C | 3% | 0hPa | 2.7V | 08:30:00 | 02:06:47 | 00:00:00 | |
| PG1ADW-2 | 2026-09-05 12:34:01 | 45.79426 | 14.04539 | 70° | 26km/h | 27210m | 6.0m/s | -45.9°C | 2.9% | 0hPa | 2.6V | 00:00:00 | 00:00:00 | 00:00:00 | |
| DB0UT-7 | 2026-09-05 12:34:00 | 45.79424 | 14.04527 | 89° | 24km/h | 27204m | 6.1m/s | -46.0°C | 3.0% | 0hPa | 2.6V | 00:00:00 | 02:06:50 | 00:00:00 | |
| DO3MHA-12 | 2026-09-05 12:33:59 | 45.79425 | 14.04514 | 101° | 29km/h | 27199m | 4.4m/s | -46.0°C | 2.9% | 0hPa | 2.6V | 00:00:00 | 02:06:49 | 00:00:00 | |
| OE8JPQ-2 | 2026-09-05 12:33:58 | 45.79426 | 14.04503 | 100° | 26km/h | 27195m | 4.1m/s | -46.0°C | 3.0% | 0hPa | 2.6V | 00:00:00 | 00:00:00 | 00:00:00 | |
| IN3HCDX1 | 2026-09-05 12:33:56 | 45.79425 | 14.04482 | 68° | 27km/h | 27184m | 6.1m/s | -45.8°C | 0.7% | 0hPa | 2.6V | 00:00:00 | 00:00:00 | 00:00:00 | |
| DO3MHA-11 | 2026-09-05 12:33:54 | 45.79417 | 14.04465 | 52° | 27km/h | 27174m | 4.1m/s | -45.7°C | 2.9% | 0hPa | 2.6V | 00:00:00 | 02:06:44 | 00:00:00 | |
| NBG1-10 | 2026-09-05 12:33:53 | 45.79412 | 14.04456 | 61° | 24km/h | 27169m | 4.7m/s | -45.7°C | 2.9% | 0hPa | 2.6V | 00:00:00 | 02:06:43 | 00:00:00 | |
| OE5DXL-15 | 2026-09-05 12:33:52 | 45.79410 | 14.04447 | 80° | 22km/h | 27163m | 6.3m/s | -45.7°C | 2.8% | 0hPa | 2.6V | 00:00:00 | 00:00:00 | 00:00:00 | |
| DO3MHA-12 | 2026-09-05 12:33:49 | 45.79414 | 14.04419 | 98° | 20km/h | 27147m | 4.0m/s | -46.0°C | 2.8% | 0hPa | 2.6V | 00:00:00 | 02:06:39 | 00:00:00 | |
| DO3MHA-11 | 2026-09-05 12:33:44 | 45.79396 | 14.04381 | 40° | 20km/h | 27121m | 5.7m/s | -45.8°C | 2.9% | 0hPa | 2.6V | 00:00:00 | 02:06:34 | 00:00:00 | |
| DO3MHA-12 | 2026-09-05 12:33:39 | 45.79401 | 14.04350 | 84° | 20km/h | 27094m | 5.4m/s | -46.1°C | 2.9% | 0hPa | 2.6V | 00:00:00 | 02:06:29 | 00:00:00 | |
| OE8JPQ-2 | 2026-09-05 12:33:38 | 45.79399 | 14.04340 | 70° | 22km/h | 27088m | 4.7m/s | -46.1°C | 2.9% | 0hPa | 2.7V | 00:00:00 | 02:06:28 | 00:00:00 | |
| IN3HCDX1 | 2026-09-05 12:33:36 | 45.79394 | 14.04324 | 61° | 18km/h | 27078m | 6.1m/s | -46.2°C | 0.7% | 0hPa | 2.7V | 00:00:00 | 00:00:00 | 00:00:00 | |
| DO3MHA-11 | 2026-09-05 12:33:34 | 45.79392 | 14.04317 | 80° | 20km/h | 27067m | 4.7m/s | -46.0°C | 2.8% | 0hPa | 2.7V | 00:00:00 | 02:06:24 | 00:00:00 | |
| IN3HCDX | 2026-09-05 12:33:32 | 45.79391 | 14.04315 | 83° | 7km/h | 27062m | 4.9m/s | -46.0°C | 0.7% | 0hPa | 2.7V | 00:00:00 | 00:00:00 | 00:00:00 | |
| DO3MHA-12 | 2026-09-05 12:33:29 | 45.79389 | 14.04286 | 93° | 24km/h | 27041m | 5.2m/s | -46.1°C | 2.8% | 0hPa | 2.7V | 00:00:00 | 02:06:19 | 00:00:00 | |
| IW2NTF | 2026-09-05 12:33:27 | 45.79368 | 14.04225 | 51° | 22km/h | 26999m | 5.4m/s | -46.8°C | 2.9% | 0hPa | 2.7V | 08:30:00 | 02:06:11 | 00:00:00 | |
| 9A1FER-3 | 2026-09-05 12:33:27 | 45.79391 | 14.04268 | 100° | 27km/h | 27030m | 4.6m/s | -46.4°C | 3.0% | 0hPa | 2.6V | 00:00:00 | 02:06:17 | 00:00:00 | |
| DO3MHA-11 | 2026-09-05 12:33:24 | 45.79385 | 14.04246 | 45° | 26km/h | 27014m | 7.2m/s | -46.5°C | 2.9% | 0hPa | 2.6V | 00:00:00 | 02:06:14 | 08:30:00 | |
| OE5DXL-15 | 2026-09-05 12:33:22 | 45.79373 | 14.04232 | 41° | 22km/h | 27003m | 3.5m/s | -46.6°C | 2.9% | 0hPa | 2.7V | 00:00:00 | 00:00:00 | 00:00:00 | |
| NBG1-10 | 2026-09-05 12:33:20 | 45.79366 | 14.04219 | 81° | 24km/h | 26993m | 6.7m/s | -46.8°C | 2.9% | 0hPa | 2.6V | 00:00:00 | 02:06:10 | 00:00:00 | |
| DO3MHA-12 | 2026-09-05 12:33:19 | 45.79367 | 14.04213 | 111° | 22km/h | 26987m | 5.0m/s | -46.8°C | 2.9% | 0hPa | 2.6V | 00:00:00 | 02:06:09 | 00:00:00 | |
| OE8JPQ-2 | 2026-09-05 12:33:18 | 45.79368 | 14.04207 | 106° | 24km/h | 26983m | 3.5m/s | -46.7°C | 2.9% | 0hPa | 2.6V | 00:00:00 | 00:00:00 | 00:00:00 | |
| DO3MHA-11 | 2026-09-05 12:33:14 | 45.79355 | 14.04173 | 36° | 22km/h | 26962m | 3.8m/s | -46.8°C | 3.0% | 0hPa | 2.7V | 00:00:00 | 02:06:04 | 00:00:00 | |
| IV3AMH | 2026-09-05 12:33:13 | 45.79355 | 14.04173 | 37° | 35km/h | 26962m | 3.8m/s | -46.9°C | 0.8% | 0hPa | 2.7V | 00:00:00 | 00:00:00 | 00:00:00 | |
| 9A1FER-3 | 2026-09-05 12:33:12 | 45.79344 | 14.04162 | 41° | 22km/h | 26952m | 6.4m/s | -46.9°C | 3.0% | 0hPa | 2.7V | 00:00:00 | 02:06:02 | 00:00:00 | |
| IN3HCDX | 2026-09-05 12:33:11 | 45.79344 | 14.04162 | 42° | 18km/h | 26952m | 6.5m/s | -46.9°C | 0.7% | 0hPa | 2.7V | 00:00:00 | 00:00:00 | 00:00:00 | |
| DO3MHA-12 | 2026-09-05 12:33:09 | 45.79342 | 14.04150 | 93° | 24km/h | 26935m | 4.9m/s | -47.0°C | 3.0% | 0hPa | 2.7V | 00:00:00 | 02:05:59 | 00:00:00 | |
| IW2NTF | 2026-09-05 12:33:06 | 45.79321 | 14.04101 | 54° | 18km/h | 26903m | 4.7m/s | -47°C | 3% | 0hPa | 2.6V | 08:30:00 | 02:05:53 | 00:00:00 | |
| DO3MHA-11 | 2026-09-05 12:33:04 | 45.79324 | 14.04107 | 52° | 18km/h | 26909m | 5.6m/s | -47.1°C | 3.0% | 0hPa | 2.7V | 00:00:00 | 02:05:54 | 00:00:00 | |
| OE5DRO-10 | 2026-09-05 12:33:01 | 45.79316 | 14.04092 | 38° | 22km/h | 26894m | 4.9m/s | -47.1°C | 3.0% | 0hPa | 2.7V | 00:00:00 | 00:00:00 | 00:00:00 | |
| IW2NTF | 2026-09-05 12:32:59 | 45.79289 | 14.04056 | 72° | 22km/h | 26852m | 4.8m/s | -47.6°C | 3% | 0hPa | 2.7V | 08:30:00 | 02:05:43 | 00:00:00 | |
| DO3MHA-12 | 2026-09-05 12:32:59 | 45.79306 | 14.04085 | 25° | 24km/h | 26883m | 5.6m/s | -47.3°C | 3.1% | 0hPa | 2.6V | 00:00:00 | 02:05:49 | 00:00:00 | |
| OE8JPQ-2 | 2026-09-05 12:32:58 | 45.79300 | 14.04081 | 26° | 22km/h | 26878m | 4.5m/s | -47.3°C | 3.0% | 0hPa | 2.6V | 00:00:00 | 00:00:00 | 00:00:00 | |
| 9A1FER-3 | 2026-09-05 12:32:57 | 45.79295 | 14.04077 | 33° | 22km/h | 26874m | 4.3m/s | -47.3°C | 3.0% | 0hPa | 2.6V | 00:00:00 | 02:05:47 | 00:00:00 | |
| DB0UT-7 | 2026-09-05 12:32:56 | 45.79292 | 14.04073 | 51° | 18km/h | 26868m | 6.4m/s | -47.3°C | 3.0% | 0hPa | 2.6V | 00:00:00 | 00:00:00 | 08:30:00 | |
| IN3HCDX1 | 2026-09-05 12:32:54 | 45.79290 | 14.04069 | 87° | 13km/h | 26862m | 5.8m/s | -47.4°C | 0.7% | 0hPa | 2.6V | 00:00:00 | 00:00:00 | 00:00:00 | |
| DO3MHA-11 | 2026-09-05 12:32:53 | 45.79286 | 14.04048 | 55° | 24km/h | 26847m | 6.2m/s | -47.5°C | 3.0% | 0hPa | 2.6V | 00:00:00 | 02:05:42 | 00:00:00 | |
| IN3HCDX | 2026-09-05 12:32:51 | 45.79286 | 14.04048 | 55° | 29km/h | 26847m | 6.3m/s | -47.6°C | 0.7% | 0hPa | 2.6V | 00:00:00 | 00:00:00 | 00:00:00 | |
| DO3MHA-12 | 2026-09-05 12:32:49 | 45.79265 | 14.04032 | 4° | 22km/h | 26831m | 5.9m/s | -47.8°C | 3.1% | 0hPa | 2.6V | 00:00:00 | 02:05:39 | 00:00:00 | |
| NBG1-10 | 2026-09-05 12:32:47 | 45.79254 | 14.04035 | 334° | 13km/h | 26821m | 4.2m/s | -47.9°C | 3.2% | 0hPa | 2.6V | 00:00:00 | 02:05:37 | 00:00:00 | |
| IW2NTF | 2026-09-05 12:32:42 | 45.79226 | 14.03998 | 293° | 9km/h | 26774m | 4.9m/s | -48°C | 3.2% | 0hPa | 2.6V | 08:30:00 | 02:05:28 | 00:00:00 | |
| 9A1FER-3 | 2026-09-05 12:32:42 | 45.79238 | 14.04010 | 52° | 15km/h | 26796m | 2.9m/s | -48.2°C | 3.3% | 0hPa | 2.7V | 00:00:00 | 02:05:32 | 00:00:00 | |
| DO3MHA-12 | 2026-09-05 12:32:39 | 45.79227 | 14.03996 | 341° | 13km/h | 26780m | 6.4m/s | -48.0°C | 3.2% | 0hPa | 2.7V | 00:00:00 | 02:05:29 | 08:30:00 | |
| OE8JPQ-2 | 2026-09-05 12:32:38 | 45.79226 | 14.03998 | 294° | 13km/h | 26775m | 4.9m/s | -47.9°C | 3.2% | 0hPa | 2.6V | 00:00:00 | 02:05:28 | 00:00:00 | |
| IV3AMH | 2026-09-05 12:32:34 | 45.79218 | 14.04001 | 20° | 20km/h | 26759m | 4.9m/s | -48.1°C | 0.8% | 0hPa | 2.6V | 00:00:00 | 00:00:00 | 00:00:00 | |
| IW2NTF | 2026-09-05 12:32:32 | 45.79198 | 14.03982 | 30° | 15km/h | 26724m | 5.6m/s | -48.2°C | 3.2% | 0hPa | 2.6V | 08:30:00 | 02:05:18 | 00:00:00 | |
| IN3HCDX | 2026-09-05 12:32:31 | 45.79203 | 14.03987 | 43° | 7km/h | 26739m | 4.9m/s | -48.0°C | 0.9% | 0hPa | 2.6V | 00:00:00 | 00:00:00 | 00:00:00 | |
| S52SK | 2026-09-05 12:32:30 | 45.79203 | 14.03987 | 43° | 7km/h | 26739m | 4.9m/s | -48.0°C | 0.8% | 0hPa | 2.6V | 00:00:00 | 00:00:00 | 00:00:00 | |
| DO3MHA-12 | 2026-09-05 12:32:29 | 45.79201 | 14.03984 | 31° | 11km/h | 26730m | 5.7m/s | -48.0°C | 3.2% | 0hPa | 2.6V | 00:00:00 | 02:05:19 | 00:00:00 | |
| 9A1FER-3 | 2026-09-05 12:32:27 | 45.79195 | 14.03979 | 34° | 13km/h | 26719m | 4.6m/s | -48.1°C | 3.2% | 0hPa | 2.6V | 00:00:00 | 02:05:17 | 00:00:00 | |
| DB0UT-7 | 2026-09-05 12:32:26 | 45.79192 | 14.03976 | 37° | 16km/h | 26715m | 4.0m/s | -48.0°C | 3.2% | 0hPa | 2.6V | 00:00:00 | 02:05:16 | 00:00:00 | |
| S52SK | 2026-09-05 12:32:24 | 45.79190 | 14.03973 | 48° | 7km/h | 26710m | 5.7m/s | -48.1°C | 0.8% | 0hPa | 2.6V | 00:00:00 | 00:00:00 | 00:00:00 | |
| OE5DRO-10 | 2026-09-05 12:32:23 | 45.79190 | 14.03971 | 140° | 15km/h | 26698m | 4.5m/s | -48.0°C | 3.2% | 0hPa | 2.6V | 00:00:00 | 00:00:00 | 00:00:00 | |
| IW2NTF | 2026-09-05 12:32:22 | 45.79180 | 14.03948 | 53° | 18km/h | 26674m | 4.2m/s | -48.1°C | 3.1% | 0hPa | 2.7V | 08:30:00 | 02:05:08 | 00:00:00 | |
| DO3MHA-11 | 2026-09-05 12:32:22 | 45.79190 | 14.03969 | 93° | 15km/h | 26694m | 4.2m/s | -47.9°C | 3.2% | 0hPa | 2.6V | 00:00:00 | 02:05:12 | 00:00:00 | |
| DO3MHA-12 | 2026-09-05 12:32:19 | 45.79183 | 14.03954 | 48° | 15km/h | 26678m | 3.9m/s | -48.0°C | 3.1% | 0hPa | 2.7V | 00:00:00 | 02:05:09 | 00:00:00 | |
| OE8JPQ-2 | 2026-09-05 12:32:18 | 45.79180 | 14.03948 | 54° | 18km/h | 26674m | 4.1m/s | -48.1°C | 3.1% | 0hPa | 2.7V | 00:00:00 | 00:00:00 | 00:00:00 | |
| PG1ADW-2 | 2026-09-05 12:32:17 | 45.79178 | 14.03943 | 73° | 16km/h | 26669m | 6.1m/s | -48.1°C | 3.1% | 0hPa | 2.6V | 00:00:00 | 02:05:07 | 00:00:00 | |
| IN3HCDX1 | 2026-09-05 12:32:14 | 45.79180 | 14.03938 | 143° | 9km/h | 26658m | 5.1m/s | -48.3°C | 0.8% | 0hPa | 2.6V | 00:00:00 | 00:00:00 | 00:00:00 | |
| IW2NTF | 2026-09-05 12:32:12 | 45.79180 | 14.03902 | 82° | 11km/h | 26622m | 4.3m/s | -48.4°C | 3.2% | 0hPa | 2.6V | 08:30:00 | 02:04:58 | 00:00:00 | |
| DO3MHA-12 | 2026-09-05 12:32:09 | 45.79180 | 14.03906 | 90° | 20km/h | 26627m | 5.0m/s | -48.4°C | 3.2% | 0hPa | 2.6V | 00:00:00 | 02:04:59 | 00:00:00 | |
| NBG1-10 | 2026-09-05 12:32:07 | 45.79179 | 14.03897 | 60° | 24km/h | 26618m | 4.4m/s | -48.5°C | 3.2% | 0hPa | 2.6V | 00:00:00 | 02:04:57 | 00:00:00 | |
| OE5DRO-10 | 2026-09-05 12:32:04 | 45.79171 | 14.03880 | 67° | 22km/h | 26603m | 3.3m/s | -48.4°C | 3.2% | 0hPa | 2.6V | 00:00:00 | 00:00:00 | 00:00:00 | |
| IW2NTF | 2026-09-05 12:32:02 | 45.79182 | 14.03834 | 75° | 20km/h | 26573m | 6.7m/s | -48.6°C | 3.3% | 0hPa | 2.6V | 08:30:00 | 02:04:48 | 00:00:00 | |
| DO3MHA-12 | 2026-09-05 12:31:59 | 45.79182 | 14.03842 | 110° | 20km/h | 26579m | 4.3m/s | -48.5°C | 3.3% | 0hPa | 2.6V | 00:00:00 | 02:04:49 | 00:00:00 | |
| OE8JPQ-2 | 2026-09-05 12:31:58 | 45.79182 | 14.03834 | 76° | 24km/h | 26574m | 6.6m/s | -48.6°C | 3.3% | 0hPa | 2.6V | 00:00:00 | 00:00:00 | 00:00:00 | |
| 9A1FER-3 | 2026-09-05 12:31:57 | 45.79179 | 14.03827 | 47° | 24km/h | 26568m | 5.8m/s | -48.6°C | 3.3% | 0hPa | 2.6V | 00:00:00 | 02:04:47 | 00:00:00 | |
| DB0UT-7 | 2026-09-05 12:31:55 | 45.79169 | 14.03815 | 42° | 27km/h | 26558m | 4.7m/s | -48.6°C | 3.2% | 0hPa | 2.6V | 00:00:00 | 00:00:00 | 00:00:00 | |
| IN3HCDX1 | 2026-09-05 12:31:54 | 45.79169 | 14.03815 | 42° | 22km/h | 26558m | 4.7m/s | -48.6°C | 0.8% | 0hPa | 2.6V | 00:00:00 | 00:00:00 | 00:00:00 | |
| OE5DXL-15 | 2026-09-05 12:31:52 | 45.79167 | 14.03800 | 116° | 31km/h | 26544m | 4.5m/s | -48.6°C | 3.2% | 0hPa | 2.6V | 00:00:00 | 00:00:00 | 00:00:00 | |
| IW2NTF | 2026-09-05 12:31:51 | 45.79167 | 14.03760 | 74° | 24km/h | 26518m | 5.3m/s | -48.5°C | 3.3% | 0hPa | 2.6V | 08:30:00 | 02:04:37 | 00:00:00 | |
| DO3MHA-12 | 2026-09-05 12:31:49 | 45.79169 | 14.03777 | 82° | 27km/h | 26529m | 5.0m/s | -48.4°C | 3.3% | 0hPa | 2.6V | 00:00:00 | 02:04:39 | 00:00:00 | |
| OE5DRO-10 | 2026-09-05 12:31:45 | 45.79162 | 14.03742 | 66° | 31km/h | 26510m | 4.1m/s | -48.6°C | 3.3% | 0hPa | 2.6V | 00:00:00 | 00:00:00 | 00:00:00 | |
| DO3MHA-11 | 2026-09-05 12:31:42 | 45.79150 | 14.03710 | 64° | 33km/h | 26494m | 3.9m/s | -48.6°C | 3.1% | 0hPa | 2.6V | 00:00:00 | 02:04:32 | 00:00:00 | |
| IW2NTF | 2026-09-05 12:31:41 | 45.79148 | 14.03669 | 78° | 24km/h | 26473m | 3.1m/s | -48.7°C | 3.2% | 0hPa | 2.6V | 08:30:00 | 02:04:27 | 00:00:00 | |
| DO3MHA-12 | 2026-09-05 12:31:39 | 45.79147 | 14.03683 | 111° | 33km/h | 26480m | 4.9m/s | -48.6°C | 3.1% | 0hPa | 2.6V | 00:00:00 | 02:04:29 | 00:00:00 | |
| OE8JPQ-2 | 2026-09-05 12:31:38 | 45.79149 | 14.03677 | 104° | 35km/h | 26476m | 2.2m/s | -48.6°C | 3.1% | 0hPa | 2.7V | 00:00:00 | 02:04:28 | 00:00:00 | |
| PG1ADW-2 | 2026-09-05 12:31:37 | 45.79149 | 14.03669 | 79° | 31km/h | 26473m | 3.1m/s | -48.6°C | 3.2% | 0hPa | 2.7V | 00:00:00 | 00:00:00 | 00:00:00 | |
| NBG1-10 | 2026-09-05 12:31:34 | 45.79133 | 14.03634 | 50° | 33km/h | 26456m | 4.4m/s | -48.8°C | 3.2% | 0hPa | 2.7V | 00:00:00 | 02:04:24 | 08:30:00 | |
| IN3HCDX1 | 2026-09-05 12:31:33 | 45.79133 | 14.03634 | 50° | 51km/h | 26456m | 4.4m/s | -48.8°C | 0.8% | 0hPa | 2.7V | 00:00:00 | 00:00:00 | 00:00:00 | |
| IW2NTF | 2026-09-05 12:31:32 | 45.79110 | 14.03558 | 74° | 37km/h | 26423m | 4.5m/s | -49.3°C | 3.3% | 0hPa | 2.7V | 08:30:00 | 02:04:17 | 00:00:00 | |
| DO3MHA-11 | 2026-09-05 12:31:32 | 45.79119 | 14.03608 | 57° | 33km/h | 26447m | 4.9m/s | -48.8°C | 3.2% | 0hPa | 2.7V | 00:00:00 | 02:04:22 | 00:00:00 | |
| DO3MHA-12 | 2026-09-05 12:31:29 | 45.79113 | 14.03580 | 87° | 37km/h | 26433m | 4.6m/s | -49.0°C | 3.2% | 0hPa | 2.7V | 00:00:00 | 02:04:19 | 00:00:00 | |
| 9A1FER-3 | 2026-09-05 12:31:27 | 45.79110 | 14.03558 | 75° | 35km/h | 26423m | 4.5m/s | -49.2°C | 3.3% | 0hPa | 2.7V | 00:00:00 | 02:04:17 | 08:30:00 | |
| OE5DRO-10 | 2026-09-05 12:31:26 | 45.79108 | 14.03545 | 70° | 33km/h | 26419m | 4.3m/s | -49.4°C | 3.4% | 0hPa | 2.7V | 00:00:00 | 00:00:00 | 00:00:00 | |
| DB0UT-7 | 2026-09-05 12:31:25 | 45.79103 | 14.03532 | 65° | 26km/h | 26414m | 5.3m/s | -49.4°C | 3.3% | 0hPa | 2.6V | 00:00:00 | 02:04:15 | 00:00:00 | |
| IW2NTF | 2026-09-05 12:31:22 | 45.79059 | 14.03462 | 93° | 24km/h | 26375m | 6.1m/s | -49.7°C | 3.4% | 0hPa | 2.6V | 08:30:00 | 02:04:07 | 00:00:00 | |
| DO3MHA-11 | 2026-09-05 12:31:22 | 45.79086 | 14.03501 | 37° | 33km/h | 26400m | 5.0m/s | -49.5°C | 3.3% | 0hPa | 2.6V | 00:00:00 | 02:04:12 | 00:00:00 | |
| DO3MHA-12 | 2026-09-05 12:31:19 | 45.79064 | 14.03477 | 48° | 33km/h | 26387m | 3.5m/s | -49.6°C | 3.4% | 0hPa | 2.6V | 00:00:00 | 02:04:09 | 00:00:00 | |
| OE8JPQ-2 | 2026-09-05 12:31:18 | 45.79060 | 14.03470 | 67° | 29km/h | 26382m | 6.5m/s | -49.6°C | 3.4% | 0hPa | 2.6V | 00:00:00 | 00:00:00 | 08:30:00 | |
| PG1ADW-2 | 2026-09-05 12:31:14 | 45.79056 | 14.03433 | 57° | 27km/h | 26364m | 6.0m/s | -49.8°C | 3.4% | 0hPa | 2.7V | 00:00:00 | 00:00:00 | 00:00:00 | |
| IN3HCDX1 | 2026-09-05 12:31:13 | 45.79056 | 14.03433 | 58° | 33km/h | 26364m | 6.1m/s | -49.8°C | 0.8% | 0hPa | 2.7V | 00:00:00 | 00:00:00 | 00:00:00 | |
| 9A1FER-3 | 2026-09-05 12:31:12 | 45.79039 | 14.03415 | 25° | 29km/h | 26351m | 4.8m/s | -49.8°C | 3.3% | 0hPa | 2.7V | 00:00:00 | 02:04:02 | 00:00:00 | |
| IW2NTF | 2026-09-05 12:31:10 | 45.79011 | 14.03392 | 102° | 20km/h | 26329m | 4.9m/s | -49.7°C | 3.4% | 0hPa | 2.7V | 08:30:00 | 02:03:57 | 00:00:00 | |
| DO3MHA-12 | 2026-09-05 12:31:09 | 45.79013 | 14.03401 | 29° | 26km/h | 26339m | 5.4m/s | -49.7°C | 3.4% | 0hPa | 2.6V | 00:00:00 | 02:03:59 | 08:30:00 | |
| OE5DRO-10 | 2026-09-05 12:31:07 | 45.79011 | 14.03392 | 103° | 24km/h | 26329m | 4.8m/s | -49.7°C | 3.4% | 0hPa | 2.6V | 00:00:00 | 00:00:00 | 00:00:00 | |
| DO3MHA-11 | 2026-09-05 12:31:02 | 45.78997 | 14.03338 | 44° | 22km/h | 26305m | 4.9m/s | -49.8°C | 3.3% | 0hPa | 2.6V | 00:00:00 | 02:03:52 | 00:00:00 | |
| NBG1-10 | 2026-09-05 12:31:01 | 45.78992 | 14.03332 | 33° | 20km/h | 26300m | 5.5m/s | -49.8°C | 3.3% | 0hPa | 2.6V | 00:00:00 | 02:03:51 | 00:00:00 | |
| IV3AMH | 2026-09-05 12:31:00 | 45.78992 | 14.03332 | 34° | 24km/h | 26300m | 5.6m/s | -49.9°C | 0.8% | 0hPa | 2.6V | 00:00:00 | 00:00:00 | 00:00:00 | |
| IW2NTF | 2026-09-05 12:30:59 | 45.78975 | 14.03320 | 37° | 24km/h | 26279m | 5.6m/s | -50.3°C | 3.4% | 0hPa | 2.6V | 08:30:00 | 02:03:47 | 00:00:00 | |
| DO3MHA-12 | 2026-09-05 12:30:59 | 45.78983 | 14.03327 | 19° | 18km/h | 26290m | 4.1m/s | -50.1°C | 3.4% | 0hPa | 2.7V | 00:00:00 | 02:03:49 | 00:00:00 | |
| OE8JPQ-2 | 2026-09-05 12:30:58 | 45.78979 | 14.03324 | 28° | 18km/h | 26285m | 5.2m/s | -50.2°C | 3.4% | 0hPa | 2.7V | 00:00:00 | 00:00:00 | 00:00:00 | |
| 9A1FER-3 | 2026-09-05 12:30:57 | 45.78975 | 14.03320 | 38° | 16km/h | 26280m | 5.6m/s | -50.3°C | 3.4% | 0hPa | 2.7V | 00:00:00 | 02:03:47 | 00:00:00 | |
| PG1ADW-2 | 2026-09-05 12:30:54 | 45.78962 | 14.03300 | 54° | 16km/h | 26266m | 5.7m/s | -50.1°C | 3.5% | 0hPa | 2.7V | 00:00:00 | 02:03:44 | 00:00:00 | |
| DO3MHA-11 | 2026-09-05 12:30:52 | 45.78958 | 14.03293 | 44° | 15km/h | 26255m | 4.6m/s | -50.2°C | 3.5% | 0hPa | 2.6V | 00:00:00 | 02:03:42 | 00:00:00 | |
| IW2NTF | 2026-09-05 12:30:50 | 45.78939 | 14.03263 | 109° | 7km/h | 26218m | 5.1m/s | -50.8°C | 3.6% | 0hPa | 2.6V | 08:30:00 | 02:03:35 | 00:00:00 | |
| DO3MHA-12 | 2026-09-05 12:30:49 | 45.78949 | 14.03283 | 41° | 18km/h | 26239m | 5.0m/s | -50.4°C | 3.5% | 0hPa | 2.7V | 00:00:00 | 02:03:39 | 00:00:00 | |
| S52SK | 2026-09-05 12:30:46 | 45.78941 | 14.03271 | 57° | 18km/h | 26230m | 5.1m/s | -50.6°C | 0.9% | 0hPa | 2.7V | 00:00:00 | 00:00:00 | 00:00:00 | |
| 9A1FER-3 | 2026-09-05 12:30:42 | 45.78938 | 14.03251 | 60° | 20km/h | 26203m | 6.2m/s | -50.6°C | 3.6% | 0hPa | 2.7V | 00:00:00 | 02:03:32 | 00:00:00 | |
| S52SK | 2026-09-05 12:30:41 | 45.78935 | 14.03244 | 51° | 24km/h | 26198m | 4.9m/s | -50.6°C | 0.9% | 0hPa | 2.7V | 00:00:00 | 00:00:00 | 00:00:00 | |
| IW2NTF | 2026-09-05 12:30:39 | 45.78919 | 14.03211 | 77° | 24km/h | 26166m | 5.6m/s | -50.7°C | 3.4% | 0hPa | 2.7V | 08:30:00 | 02:03:25 | 00:00:00 | |
| DO3MHA-12 | 2026-09-05 12:30:39 | 45.78927 | 14.03233 | 42° | 18km/h | 26187m | 5.6m/s | -50.5°C | 3.5% | 0hPa | 2.6V | 00:00:00 | 02:03:29 | 00:00:00 | |
| OE8JPQ-2 | 2026-09-05 12:30:38 | 45.78924 | 14.03229 | 50° | 24km/h | 26182m | 4.5m/s | -50.4°C | 3.5% | 0hPa | 2.6V | 00:00:00 | 02:03:28 | 00:00:00 | |
| PG1ADW-2 | 2026-09-05 12:30:34 | 45.78918 | 14.03202 | 81° | 26km/h | 26161m | 4.6m/s | -50.6°C | 3.4% | 0hPa | 2.6V | 00:00:00 | 00:00:00 | 00:00:00 | |
| DO3MHA-11 | 2026-09-05 12:30:32 | 45.78916 | 14.03187 | 80° | 24km/h | 26151m | 5.7m/s | -50.7°C | 3.5% | 0hPa | 2.6V | 00:00:00 | 02:03:22 | 00:00:00 | |
| IW2NTF | 2026-09-05 12:30:30 | 45.78885 | 14.03140 | 69° | 24km/h | 26116m | 6.5m/s | -51.1°C | 3.7% | 0hPa | 2.6V | 08:30:00 | 02:03:15 | 00:00:00 | |
| DO3MHA-12 | 2026-09-05 12:30:29 | 45.78907 | 14.03174 | 34° | 26km/h | 26136m | 6.2m/s | -50.9°C | 3.6% | 0hPa | 2.7V | 00:00:00 | 02:03:19 | 00:00:00 | |
| NBG1-10 | 2026-09-05 12:30:28 | 45.78901 | 14.03168 | 39° | 31km/h | 26130m | 6.1m/s | -50.8°C | 3.6% | 0hPa | 2.7V | 00:00:00 | 02:03:18 | 00:00:00 | |
| 9A1FER-3 | 2026-09-05 12:30:27 | 45.78894 | 14.03158 | 47° | 29km/h | 26125m | 4.1m/s | -50.8°C | 3.6% | 0hPa | 2.7V | 00:00:00 | 02:03:17 | 00:00:00 | |
| IV3AMH | 2026-09-05 12:30:23 | 45.78885 | 14.03128 | 113° | 11km/h | 26104m | 4.0m/s | -51.1°C | 1.0% | 0hPa | 2.7V | 00:00:00 | 00:00:00 | 00:00:00 | |
| DO3MHA-11 | 2026-09-05 12:30:22 | 45.78885 | 14.03124 | 74° | 31km/h | 26101m | 2.7m/s | -51.0°C | 3.7% | 0hPa | 2.7V | 00:00:00 | 02:03:12 | 08:30:00 | |
| DO3MHA-12 | 2026-09-05 12:30:19 | 45.78869 | 14.03102 | 39° | 37km/h | 26084m | 5.8m/s | -51.0°C | 3.6% | 0hPa | 2.7V | 00:00:00 | 02:03:09 | 00:00:00 | |
| IW2NTF | 2026-09-05 12:30:18 | 45.78841 | 14.03059 | 70° | 26km/h | 26063m | 5.6m/s | -51°C | 3.6% | 0hPa | 2.7V | 08:30:00 | 02:03:05 | 00:00:00 | |
| PG1ADW-2 | 2026-09-05 12:30:14 | 45.78839 | 14.03051 | 80° | 31km/h | 26058m | 4.7m/s | -50.9°C | 3.6% | 0hPa | 2.7V | 00:00:00 | 00:00:00 | 00:00:00 | |
| 9A1FER-3 | 2026-09-05 12:30:12 | 45.78834 | 14.03036 | 49° | 35km/h | 26048m | 5.7m/s | -51.0°C | 3.6% | 0hPa | 2.7V | 00:00:00 | 02:03:02 | 00:00:00 | |
| IN3HCDX1 | 2026-09-05 12:30:11 | 45.78834 | 14.03036 | 50° | 26km/h | 26048m | 5.7m/s | -51.0°C | 0.9% | 0hPa | 2.7V | 00:00:00 | 00:00:00 | 00:00:00 | |
| IW2NTF | 2026-09-05 12:30:10 | 45.78787 | 14.02989 | 53° | 27km/h | 26010m | 4.5m/s | -51.2°C | 3.8% | 0hPa | 2.7V | 08:30:00 | 02:02:55 | 00:00:00 | |
| DO3MHA-12 | 2026-09-05 12:30:09 | 45.78812 | 14.03016 | 27° | 37km/h | 26031m | 4.6m/s | -51.0°C | 3.7% | 0hPa | 2.6V | 00:00:00 | 02:02:59 | 00:00:00 | |
| IW2NTF | 2026-09-05 12:29:59 | 45.78726 | 14.02920 | 8° | 35km/h | 25956m | 5.7m/s | -50.8°C | 3.6% | 0hPa | 2.6V | 08:30:00 | 02:02:45 | 00:00:00 | |
| DO3MHA-12 | 2026-09-05 12:29:59 | 45.78749 | 14.02925 | 42° | 29km/h | 25978m | 6.5m/s | -51.1°C | 3.6% | 0hPa | 2.7V | 00:00:00 | 02:02:49 | 00:00:00 | |
| 9A1FER-3 | 2026-09-05 12:29:57 | 45.78740 | 14.02920 | 358° | 29km/h | 25967m | 4.7m/s | -50.9°C | 3.6% | 0hPa | 2.7V | 00:00:00 | 02:02:47 | 00:00:00 | |
| NBG1-10 | 2026-09-05 12:29:55 | 45.78726 | 14.02920 | 9° | 22km/h | 25956m | 5.6m/s | -50.7°C | 3.6% | 0hPa | 2.6V | 00:00:00 | 02:02:45 | 00:00:00 | |
| PG1ADW-2 | 2026-09-05 12:29:54 | 45.78717 | 14.02916 | 22° | 26km/h | 25951m | 4.4m/s | -50.7°C | 3.6% | 0hPa | 2.6V | 00:00:00 | 00:00:00 | 08:30:00 | |
| DB0UT-7 | 2026-09-05 12:29:52 | 45.78702 | 14.02902 | 50° | 22km/h | 25941m | 6.6m/s | -51.0°C | 3.7% | 0hPa | 2.7V | 00:00:00 | 00:00:00 | 00:00:00 | |
| IW2NTF | 2026-09-05 12:29:50 | 45.78668 | 14.02858 | 9° | 40km/h | 25901m | 4.5m/s | -51.2°C | 3.6% | 0hPa | 2.7V | 08:30:00 | 02:02:35 | 00:00:00 | |
| OE5DRO-10 | 2026-09-05 12:29:50 | 45.78697 | 14.02884 | 79° | 24km/h | 25928m | 4.9m/s | -51.0°C | 3.8% | 0hPa | 2.6V | 00:00:00 | 00:00:00 | 00:00:00 | |
| DO3MHA-12 | 2026-09-05 12:29:49 | 45.78695 | 14.02877 | 68° | 24km/h | 25924m | 3.9m/s | -51.0°C | 3.7% | 0hPa | 2.6V | 00:00:00 | 02:02:39 | 00:00:00 | |
| IV3AMH | 2026-09-05 12:29:45 | 45.78678 | 14.02862 | 18° | 40km/h | 25907m | 6.3m/s | -51.2°C | 1.0% | 0hPa | 2.6V | 00:00:00 | 00:00:00 | 00:00:00 | |
| 9A1FER-3 | 2026-09-05 12:29:42 | 45.78647 | 14.02857 | 359° | 18km/h | 25885m | 6.1m/s | -51.1°C | 3.7% | 0hPa | 2.6V | 00:00:00 | 02:02:32 | 00:00:00 | |
| IW2NTF | 2026-09-05 12:29:41 | 45.78613 | 14.02836 | 359° | 22km/h | 25845m | 6.4m/s | -50.8°C | 3.7% | 0hPa | 2.6V | 08:30:00 | 02:02:25 | 00:00:00 | |
| DO3MHA-12 | 2026-09-05 12:29:39 | 45.78639 | 14.02849 | 39° | 22km/h | 25867m | 5.7m/s | -50.7°C | 3.6% | 0hPa | 2.7V | 00:00:00 | 02:02:29 | 08:30:00 | |
| OE8JPQ-2 | 2026-09-05 12:29:38 | 45.78634 | 14.02844 | 30° | 18km/h | 25862m | 5.2m/s | -50.7°C | 3.6% | 0hPa | 2.6V | 00:00:00 | 02:02:28 | 00:00:00 | |
| PG1ADW-2 | 2026-09-05 12:29:34 | 45.78608 | 14.02836 | 353° | 15km/h | 25839m | 5.8m/s | -50.8°C | 3.7% | 0hPa | 2.6V | 00:00:00 | 02:02:24 | 00:00:00 | |
| DO3MHA-11 | 2026-09-05 12:29:32 | 45.78601 | 14.02836 | 16° | 18km/h | 25828m | 6.4m/s | -50.9°C | 3.7% | 0hPa | 2.6V | 00:00:00 | 02:02:22 | 00:00:00 | |
| OE5DRO-10 | 2026-09-05 12:29:31 | 45.78597 | 14.02834 | 29° | 16km/h | 25821m | 5.9m/s | -50.9°C | 3.7% | 0hPa | 2.6V | 00:00:00 | 00:00:00 | 00:00:00 | |
| IN3HCDX1 | 2026-09-05 12:29:30 | 45.78593 | 14.02830 | 36° | 18km/h | 25816m | 5.2m/s | -51.1°C | 0.9% | 0hPa | 2.7V | 00:00:00 | 00:00:00 | 00:00:00 | |
| DO3MHA-12 | 2026-09-05 12:29:29 | 45.78589 | 14.02827 | 35° | 16km/h | 25810m | 5.4m/s | -51.0°C | 3.7% | 0hPa | 2.7V | 00:00:00 | 02:02:19 | 00:00:00 | |
| IW2NTF | 2026-09-05 12:29:27 | 45.78576 | 14.02828 | 346° | 24km/h | 25787m | 7m/s | -50.8°C | 3.6% | 0hPa | 2.7V | 08:30:00 | 02:02:15 | 00:00:00 | |
| DO3MHA-11 | 2026-09-05 12:29:22 | 45.78556 | 14.02829 | 9° | 15km/h | 25771m | 4.9m/s | -50.4°C | 3.6% | 0hPa | 2.6V | 00:00:00 | 02:02:12 | 00:00:00 | |
| IW2NTF | 2026-09-05 12:29:19 | 45.78545 | 14.02817 | 6° | 26km/h | 25731m | 4.5m/s | -50.5°C | 3.6% | 0hPa | 2.6V | 08:30:00 | 02:02:05 | 00:00:00 | |
| OE8JPQ-2 | 2026-09-05 12:29:18 | 45.78555 | 14.02824 | 96° | 11km/h | 25749m | 4.3m/s | -50.6°C | 3.7% | 0hPa | 2.7V | 00:00:00 | 00:00:00 | 00:00:00 | |
| PG1ADW-2 | 2026-09-05 12:29:14 | 45.78538 | 14.02817 | 357° | 9km/h | 25727m | 4.9m/s | -50.3°C | 3.6% | 0hPa | 2.6V | 00:00:00 | 00:00:00 | 00:00:00 | |
| DO3MHA-12 | 2026-09-05 12:29:09 | 45.78532 | 14.02827 | 97° | 9km/h | 25698m | 6.4m/s | -50.4°C | 3.5% | 0hPa | 2.6V | 00:00:00 | 02:01:59 | 00:00:00 | |
| IN3HCDX1 | 2026-09-05 12:29:08 | 45.78532 | 14.02827 | 98° | 4km/h | 25698m | 6.5m/s | -50.4°C | 0.9% | 0hPa | 2.6V | 00:00:00 | 00:00:00 | 00:00:00 | |
| IW2NTF | 2026-09-05 12:29:07 | 45.78526 | 14.02819 | 352° | 5km/h | 25676m | 6m/s | -50.3°C | 3.5% | 0hPa | 2.6V | 08:30:00 | 02:01:55 | 00:00:00 | |
| DO3MHA-11 | 2026-09-05 12:29:02 | 45.78524 | 14.02825 | 292° | 7km/h | 25660m | 4.8m/s | -50.2°C | 3.5% | 0hPa | 2.7V | 00:00:00 | 02:01:52 | 00:00:00 | |
| IW2NTF | 2026-09-05 12:29:01 | 45.78524 | 14.02821 | 193° | 9km/h | 25621m | 4.3m/s | -50.4°C | 3.5% | 0hPa | 2.7V | 08:30:00 | 02:01:45 | 00:00:00 | |
| DO3MHA-12 | 2026-09-05 12:28:59 | 45.78519 | 14.02825 | 47° | 7km/h | 25643m | 4.8m/s | -50.3°C | 3.5% | 0hPa | 2.6V | 00:00:00 | 02:01:49 | 00:00:00 | |
| OE8JPQ-2 | 2026-09-05 12:28:58 | 45.78518 | 14.02823 | 93° | 9km/h | 25638m | 5.8m/s | -50.2°C | 3.5% | 0hPa | 2.6V | 00:00:00 | 00:00:00 | 00:00:00 | |
| 9A1FER-3 | 2026-09-05 12:28:57 | 45.78519 | 14.02821 | 156° | 11km/h | 25632m | 6.5m/s | -50.4°C | 3.5% | 0hPa | 2.6V | 00:00:00 | 02:01:47 | 00:00:00 | |
| OE5DRO-10 | 2026-09-05 12:28:53 | 45.78522 | 14.02821 | 5° | 11km/h | 25604m | 4.7m/s | -50.4°C | 3.5% | 0hPa | 2.6V | 00:00:00 | 00:00:00 | 00:00:00 | |
| DO3MHA-11 | 2026-09-05 12:28:52 | 45.78522 | 14.02821 | 5° | 11km/h | 25604m | 4.7m/s | -50.4°C | 3.5% | 0hPa | 2.6V | 00:00:00 | 02:01:42 | 08:30:00 | |
| DO3MHA-12 | 2026-09-05 12:28:49 | 45.78519 | 14.02822 | 188° | 13km/h | 25589m | 6.8m/s | -50.4°C | 3.6% | 0hPa | 2.6V | 00:00:00 | 02:01:39 | 00:00:00 | |
| IW2NTF | 2026-09-05 12:28:47 | 45.78537 | 14.02818 | 142° | 11km/h | 25566m | 4.8m/s | -50.5°C | 3.6% | 0hPa | 2.6V | 08:30:00 | 02:01:35 | 00:00:00 | |
| S52SK | 2026-09-05 12:28:42 | 45.78540 | 14.02815 | 263° | 4km/h | 25551m | 6.1m/s | -50.6°C | 0.9% | 0hPa | 2.7V | 00:00:00 | 00:00:00 | 00:00:00 | |
| IW2NTF | 2026-09-05 12:28:41 | 45.78535 | 14.02827 | 136° | 9km/h | 25514m | 5.8m/s | -50.4°C | 3.4% | 0hPa | 2.7V | 08:30:00 | 02:01:25 | 00:00:00 | |
| DO3MHA-12 | 2026-09-05 12:28:39 | 45.78539 | 14.02826 | 292° | 11km/h | 25536m | 4.7m/s | -50.5°C | 3.5% | 0hPa | 2.6V | 00:00:00 | 02:01:29 | 00:00:00 | |
| OE8JPQ-2 | 2026-09-05 12:28:38 | 45.78538 | 14.02829 | 318° | 13km/h | 25530m | 6.3m/s | -50.5°C | 3.5% | 0hPa | 2.7V | 00:00:00 | 02:01:28 | 00:00:00 | |
| S52SK | 2026-09-05 12:28:35 | 45.78535 | 14.02829 | 69° | 5km/h | 25519m | 4.4m/s | -50.4°C | 0.9% | 0hPa | 2.7V | 00:00:00 | 00:00:00 | 00:00:00 | |
| PG1ADW-2 | 2026-09-05 12:28:34 | 45.78538 | 14.02825 | 166° | 15km/h | 25508m | 6.9m/s | -50.5°C | 3.5% | 0hPa | 2.7V | 00:00:00 | 00:00:00 | 00:00:00 | |
| DO3MHA-11 | 2026-09-05 12:28:32 | 45.78547 | 14.02825 | 197° | 13km/h | 25498m | 3.5m/s | -50.5°C | 3.6% | 0hPa | 2.7V | 00:00:00 | 02:01:22 | 00:00:00 | |
| DO3MHA-12 | 2026-09-05 12:28:29 | 45.78547 | 14.02832 | 339° | 13km/h | 25481m | 5.1m/s | -50.5°C | 3.6% | 0hPa | 2.7V | 00:00:00 | 02:01:19 | 00:00:00 | |
| IW2NTF | 2026-09-05 12:28:27 | 45.78551 | 14.02819 | 139° | 15km/h | 25450m | 4.8m/s | -50.6°C | 3.6% | 0hPa | 2.7V | 08:30:00 | 02:01:13 | 00:00:00 | |
| IN3HCDX1 | 2026-09-05 12:28:26 | 45.78541 | 14.02834 | 28° | 5km/h | 25471m | 5.4m/s | -50.6°C | 0.9% | 0hPa | 2.6V | 00:00:00 | 00:00:00 | 00:00:00 | |
| DO3MHA-11 | 2026-09-05 12:28:23 | 45.78553 | 14.02817 | 168° | 15km/h | 25445m | 4.9m/s | -50.6°C | 3.6% | 0hPa | 2.6V | 00:00:00 | 02:01:12 | 00:00:00 | |
| DB0UT-7 | 2026-09-05 12:28:22 | 45.78553 | 14.02817 | 168° | 11km/h | 25445m | 4.9m/s | 0°C | 0% | 0hPa | 2.7V | 00:00:00 | 02:01:12 | 00:00:00 | |
| DO3MHA-12 | 2026-09-05 12:28:19 | 45.78558 | 14.02826 | 255° | 18km/h | 25429m | 3.7m/s | -50.7°C | 3.6% | 0hPa | 2.7V | 00:00:00 | 02:01:09 | 00:00:00 | |
| IW2NTF | 2026-09-05 12:28:18 | 45.78564 | 14.02799 | 142° | 26km/h | 25399m | 6.1m/s | -50.6°C | 3.6% | 0hPa | 2.7V | 08:30:00 | 02:01:03 | 00:00:00 | |
| OE8JPQ-2 | 2026-09-05 12:28:18 | 45.78558 | 14.02829 | 269° | 18km/h | 25425m | 3.4m/s | -50.7°C | 3.6% | 0hPa | 2.7V | 00:00:00 | 00:00:00 | 08:30:00 | |
| OE5DRO-10 | 2026-09-05 12:28:14 | 45.78564 | 14.02799 | 143° | 18km/h | 25399m | 6.1m/s | -50.6°C | 3.6% | 0hPa | 2.6V | 00:00:00 | 00:00:00 | 00:00:00 | |
| 9A1FER-3 | 2026-09-05 12:28:12 | 45.78569 | 14.02795 | 176° | 16km/h | 25393m | 5.5m/s | -50.6°C | 3.6% | 0hPa | 2.6V | 00:00:00 | 02:01:02 | 00:00:00 | |
| DO3MHA-12 | 2026-09-05 12:28:09 | 45.78578 | 14.02803 | 302° | 16km/h | 25378m | 5.4m/s | -50.8°C | 3.6% | 0hPa | 2.6V | 00:00:00 | 02:00:59 | 08:30:00 | |
| IN3HCDX1 | 2026-09-05 12:28:07 | 45.78575 | 14.02799 | 67° | 18km/h | 25368m | 5.1m/s | -50.9°C | 0.9% | 0hPa | 2.7V | 00:00:00 | 00:00:00 | 00:00:00 | |
| IW2NTF | 2026-09-05 12:28:05 | 45.78592 | 14.02759 | 89° | 18km/h | 25328m | 5m/s | -50.7°C | 3.6% | 0hPa | 2.7V | 08:30:00 | 02:00:49 | 00:00:00 | |
| DO3MHA-12 | 2026-09-05 12:27:59 | 45.78592 | 14.02759 | 90° | 16km/h | 25328m | 4.9m/s | -50.6°C | 3.6% | 0hPa | 2.7V | 00:00:00 | 02:00:49 | 00:00:00 | |
| OE8JPQ-2 | 2026-09-05 12:27:58 | 45.78593 | 14.02752 | 98° | 18km/h | 25323m | 5.0m/s | -50.7°C | 3.5% | 0hPa | 2.7V | 00:00:00 | 00:00:00 | 00:00:00 | |
| 9A1FER-3 | 2026-09-05 12:27:57 | 45.78594 | 14.02746 | 115° | 18km/h | 25318m | 5.3m/s | -50.5°C | 3.5% | 0hPa | 2.7V | 00:00:00 | 02:00:47 | 00:00:00 | |
| OE5DRO-10 | 2026-09-05 12:27:55 | 45.78600 | 14.02735 | 138° | 18km/h | 25308m | 4.2m/s | -50.6°C | 3.5% | 0hPa | 2.7V | 00:00:00 | 00:00:00 | 00:00:00 | |
| IW2NTF | 2026-09-05 12:27:53 | 45.78609 | 14.02706 | 127° | 26km/h | 25276m | 5m/s | -50.8°C | 3.7% | 0hPa | 2.7V | 08:30:00 | 02:00:39 | 00:00:00 | |
| OE5DXL-15 | 2026-09-05 12:27:52 | 45.78604 | 14.02723 | 87° | 18km/h | 25292m | 5.0m/s | -50.9°C | 3.6% | 0hPa | 2.6V | 00:00:00 | 00:00:00 | 00:00:00 | |
| DO3MHA-12 | 2026-09-05 12:27:49 | 45.78608 | 14.02706 | 128° | 22km/h | 25276m | 5.0m/s | -50.8°C | 3.7% | 0hPa | 2.6V | 00:00:00 | 02:00:39 | 00:00:00 | |
| IN3HCDX1 | 2026-09-05 12:27:45 | 45.78619 | 14.02682 | 108° | 22km/h | 25262m | 6.1m/s | -50.6°C | 0.9% | 0hPa | 2.6V | 00:00:00 | 00:00:00 | 00:00:00 | |
| PG1ADW-2 | 2026-09-05 12:27:44 | 45.78620 | 14.02668 | 95° | 16km/h | 25251m | 4.7m/s | -50.6°C | 3.5% | 0hPa | 2.6V | 00:00:00 | 00:00:00 | 00:00:00 | |
| IW2NTF | 2026-09-05 12:27:43 | 45.78629 | 14.02640 | 103° | 13km/h | 25226m | 6m/s | -50.8°C | 3.5% | 0hPa | 2.6V | 08:30:00 | 02:00:29 | 00:00:00 | |
| 9A1FER-3 | 2026-09-05 12:27:42 | 45.78623 | 14.02656 | 121° | 16km/h | 25240m | 5.0m/s | -50.7°C | 3.6% | 0hPa | 2.7V | 00:00:00 | 02:00:32 | 00:00:00 | |
| DO3MHA-12 | 2026-09-05 12:27:39 | 45.78629 | 14.02640 | 104° | 18km/h | 25227m | 6.0m/s | -50.7°C | 3.5% | 0hPa | 2.6V | 00:00:00 | 02:00:29 | 00:00:00 | |
| OE8JPQ-2 | 2026-09-05 12:27:38 | 45.78629 | 14.02636 | 70° | 16km/h | 25221m | 6.0m/s | -50.7°C | 3.5% | 0hPa | 2.7V | 00:00:00 | 02:00:28 | 00:00:00 | |
| OE5DRO-10 | 2026-09-05 12:27:36 | 45.78629 | 14.02622 | 114° | 16km/h | 25206m | 6.2m/s | -50.8°C | 3.5% | 0hPa | 2.7V | 00:00:00 | 00:00:00 | 08:30:00 | |
| IW2NTF | 2026-09-05 12:27:33 | 45.78639 | 14.02582 | 78° | 11km/h | 25175m | 5.1m/s | -51°C | 3.7% | 0hPa | 2.6V | 08:30:00 | 02:00:19 | 00:00:00 | |
| DO3MHA-11 | 2026-09-05 12:27:32 | 45.78638 | 14.02600 | 115° | 15km/h | 25191m | 5.4m/s | -51.0°C | 3.7% | 0hPa | 2.7V | 00:00:00 | 02:00:22 | 00:00:00 | |
| DO3MHA-12 | 2026-09-05 12:27:29 | 45.78639 | 14.02582 | 79° | 15km/h | 25176m | 5.1m/s | -51.0°C | 3.7% | 0hPa | 2.7V | 00:00:00 | 02:00:19 | 00:00:00 | |
| 9A1FER-3 | 2026-09-05 12:27:27 | 45.78639 | 14.02575 | 114° | 13km/h | 25166m | 4.4m/s | -51.0°C | 3.6% | 0hPa | 2.7V | 00:00:00 | 02:00:17 | 00:00:00 | |
| IN3HCDX1 | 2026-09-05 12:27:25 | 45.78640 | 14.02568 | 87° | 11km/h | 25156m | 5.9m/s | -51.2°C | 0.9% | 0hPa | 2.7V | 00:00:00 | 00:00:00 | 00:00:00 | |
| PG1ADW-2 | 2026-09-05 12:27:24 | 45.78640 | 14.02563 | 74° | 11km/h | 25150m | 5.5m/s | -51.2°C | 3.6% | 0hPa | 2.7V | 00:00:00 | 00:00:00 | 00:00:00 | |
| IW2NTF | 2026-09-05 12:27:23 | 45.78645 | 14.02535 | 136° | 13km/h | 25126m | 3.6m/s | -51.1°C | 3.7% | 0hPa | 2.7V | 08:30:00 | 02:00:09 | 00:00:00 | |
| DO3MHA-11 | 2026-09-05 12:27:22 | 45.78638 | 14.02550 | 96° | 13km/h | 25140m | 5.2m/s | -51.3°C | 3.7% | 0hPa | 2.6V | 00:00:00 | 02:00:12 | 08:30:00 | |
| DO3MHA-12 | 2026-09-05 12:27:19 | 45.78645 | 14.02535 | 137° | 11km/h | 25126m | 3.6m/s | -51.1°C | 3.7% | 0hPa | 2.7V | 00:00:00 | 02:00:09 | 00:00:00 | |
| OE8JPQ-2 | 2026-09-05 12:27:18 | 45.78647 | 14.02532 | 111° | 11km/h | 25121m | 5.6m/s | -51.1°C | 3.7% | 0hPa | 2.7V | 00:00:00 | 00:00:00 | 00:00:00 | |
| OE5DRO-10 | 2026-09-05 12:27:17 | 45.78643 | 14.02528 | 23° | 11km/h | 25110m | 4.8m/s | -51.0°C | 3.6% | 0hPa | 2.6V | 00:00:00 | 00:00:00 | 00:00:00 | |
| IV3AMH | 2026-09-05 12:27:15 | 45.78644 | 14.02528 | 23° | 15km/h | 25110m | 4.8m/s | -51.1°C | 1.0% | 0hPa | 2.6V | 00:00:00 | 00:00:00 | 00:00:00 | |
| IW2NTF | 2026-09-05 12:27:13 | 45.78642 | 14.02504 | 54° | 7km/h | 25076m | 4.7m/s | -51.2°C | 3.6% | 0hPa | 2.6V | 08:30:00 | 01:59:59 | 00:00:00 | |
| 9A1FER-3 | 2026-09-05 12:27:12 | 45.78640 | 14.02515 | 125° | 9km/h | 25091m | 3.9m/s | -51.1°C | 3.7% | 0hPa | 2.6V | 00:00:00 | 02:00:02 | 00:00:00 | |
| DO3MHA-12 | 2026-09-05 12:27:09 | 45.78642 | 14.02504 | 55° | 9km/h | 25076m | 4.7m/s | -51.2°C | 3.6% | 0hPa | 2.6V | 00:00:00 | 01:59:59 | 00:00:00 | |
| PG1ADW-2 | 2026-09-05 12:27:04 | 45.78640 | 14.02499 | 77° | 13km/h | 25053m | 3.3m/s | -51.1°C | 3.7% | 0hPa | 2.7V | 00:00:00 | 00:00:00 | 00:00:00 | |
| IW2NTF | 2026-09-05 12:27:03 | 45.78627 | 14.02480 | 81° | 7km/h | 25029m | 5.7m/s | -51.1°C | 3.7% | 0hPa | 2.7V | 08:30:00 | 01:59:49 | 00:00:00 | |
| DO3MHA-11 | 2026-09-05 12:27:02 | 45.78636 | 14.02493 | 41° | 15km/h | 25043m | 6.1m/s | -51.2°C | 3.7% | 0hPa | 2.6V | 00:00:00 | 01:59:52 | 00:00:00 | |
| DO3MHA-12 | 2026-09-05 12:26:59 | 45.78627 | 14.02480 | 82° | 13km/h | 25030m | 5.7m/s | -51.1°C | 3.7% | 0hPa | 2.6V | 00:00:00 | 01:59:49 | 00:00:00 | |
| OE8JPQ-2 | 2026-09-05 12:26:58 | 45.78628 | 14.02478 | 158° | 15km/h | 25024m | 6.2m/s | -51.0°C | 3.7% | 0hPa | 2.6V | 00:00:00 | 00:00:00 | 00:00:00 | |
| 9A1FER-3 | 2026-09-05 12:26:57 | 45.78631 | 14.02477 | 175° | 13km/h | 25019m | 4.1m/s | -51.0°C | 3.7% | 0hPa | 2.6V | 00:00:00 | 01:59:47 | 08:30:00 | |
| IW2NTF | 2026-09-05 12:26:54 | 45.78620 | 14.02450 | 107° | 7km/h | 24980m | 4.4m/s | -51.2°C | 3.6% | 0hPa | 2.7V | 08:30:00 | 01:59:39 | 00:00:00 | |
| DO3MHA-11 | 2026-09-05 12:26:52 | 45.78626 | 14.02461 | 36° | 11km/h | 24995m | 4.3m/s | -51.0°C | 3.6% | 0hPa | 2.6V | 00:00:00 | 01:59:42 | 00:00:00 | |
| DO3MHA-12 | 2026-09-05 12:26:49 | 45.78620 | 14.02450 | 108° | 11km/h | 24981m | 4.4m/s | -51.1°C | 3.6% | 0hPa | 2.7V | 00:00:00 | 01:59:39 | 00:00:00 | |
| PG1ADW-2 | 2026-09-05 12:26:43 | 45.78615 | 14.02435 | 352° | 13km/h | 24950m | 5.0m/s | -51.1°C | 3.7% | 0hPa | 2.7V | 00:00:00 | 01:59:33 | 08:30:00 | |
| IW2NTF | 2026-09-05 12:26:42 | 45.78600 | 14.02428 | 41° | 24km/h | 24930m | 4.1m/s | -51.1°C | 3.7% | 0hPa | 2.6V | 08:30:00 | 01:59:29 | 00:00:00 | |
| DO3MHA-12 | 2026-09-05 12:26:39 | 45.78600 | 14.02427 | 42° | 15km/h | 24930m | 4.1m/s | -51.1°C | 3.7% | 0hPa | 2.6V | 00:00:00 | 01:59:29 | 08:30:00 | |
| OE8JPQ-2 | 2026-09-05 12:26:38 | 45.78596 | 14.02422 | 50° | 13km/h | 24926m | 3.7m/s | -51.1°C | 3.7% | 0hPa | 2.6V | 00:00:00 | 01:59:28 | 00:00:00 | |
| IV3AMH | 2026-09-05 12:26:37 | 45.78596 | 14.02422 | 51° | 18km/h | 24926m | 3.7m/s | -51.1°C | 1.0% | 0hPa | 2.6V | 00:00:00 | 00:00:00 | 00:00:00 | |
| DO3MHA-11 | 2026-09-05 12:26:32 | 45.78586 | 14.02415 | 24° | 18km/h | 24896m | 4.9m/s | -51.2°C | 3.7% | 0hPa | 2.6V | 00:00:00 | 01:59:22 | 00:00:00 | |
| IW2NTF | 2026-09-05 12:26:31 | 45.78569 | 14.02405 | 13° | 20km/h | 24882m | 5m/s | -50.9°C | 3.5% | 0hPa | 2.6V | 08:30:00 | 01:59:19 | 00:00:00 | |
| DO3MHA-12 | 2026-09-05 12:26:29 | 45.78569 | 14.02405 | 14° | 13km/h | 24882m | 4.9m/s | -50.9°C | 3.5% | 0hPa | 2.7V | 00:00:00 | 01:59:19 | 00:00:00 | |
| 9A1FER-3 | 2026-09-05 12:26:27 | 45.78561 | 14.02403 | 17° | 15km/h | 24873m | 4.4m/s | -50.9°C | 3.6% | 0hPa | 2.7V | 00:00:00 | 01:59:17 | 00:00:00 | |
| IW2NTF | 2026-09-05 12:26:24 | 45.78543 | 14.02390 | 359° | 11km/h | 24833m | 4.9m/s | -51.1°C | 3.7% | 0hPa | 2.7V | 08:30:00 | 01:59:09 | 00:00:00 | |
| IN3HCDX1 | 2026-09-05 12:26:23 | 45.78552 | 14.02389 | 44° | 13km/h | 24853m | 4.1m/s | -50.9°C | 1.0% | 0hPa | 2.6V | 00:00:00 | 00:00:00 | 00:00:00 | |
| DO3MHA-11 | 2026-09-05 12:26:22 | 45.78549 | 14.02387 | 18° | 16km/h | 24848m | 5.7m/s | -50.9°C | 3.7% | 0hPa | 2.6V | 00:00:00 | 01:59:12 | 00:00:00 | |
| PG1ADW-2 | 2026-09-05 12:26:21 | 45.78547 | 14.02388 | 334° | 15km/h | 24843m | 5.3m/s | -51.0°C | 3.7% | 0hPa | 2.7V | 00:00:00 | 00:00:00 | 00:00:00 | |
| OE5DRO-10 | 2026-09-05 12:26:20 | 45.78545 | 14.02389 | 333° | 16km/h | 24838m | 3.8m/s | -51.0°C | 3.7% | 0hPa | 2.7V | 00:00:00 | 00:00:00 | 00:00:00 | |
| DO3MHA-12 | 2026-09-05 12:26:19 | 45.78543 | 14.02390 | 360° | 16km/h | 24834m | 4.8m/s | -51.1°C | 3.7% | 0hPa | 2.7V | 00:00:00 | 01:59:09 | 00:00:00 | |
| OE8JPQ-2 | 2026-09-05 12:26:18 | 45.78539 | 14.02388 | 24° | 16km/h | 24828m | 6.0m/s | -51.1°C | 3.7% | 0hPa | 2.7V | 00:00:00 | 00:00:00 | 00:00:00 | |
| IW2NTF | 2026-09-05 12:26:13 | 45.78506 | 14.02377 | 62° | 18km/h | 24783m | 4.6m/s | -51.3°C | 3.7% | 0hPa | 2.7V | 08:30:00 | 01:58:59 | 00:00:00 | |
| 9A1FER-3 | 2026-09-05 12:26:12 | 45.78512 | 14.02381 | 317° | 15km/h | 24799m | 4.1m/s | -51.0°C | 3.6% | 0hPa | 2.6V | 00:00:00 | 01:59:02 | 00:00:00 | |
| DO3MHA-12 | 2026-09-05 12:26:09 | 45.78506 | 14.02377 | 63° | 16km/h | 24783m | 4.6m/s | -51.3°C | 3.7% | 0hPa | 2.7V | 00:00:00 | 01:58:59 | 00:00:00 | |
| DO3MHA-11 | 2026-09-05 12:26:02 | 45.78480 | 14.02369 | 38° | 13km/h | 24750m | 5.8m/s | -51.1°C | 3.6% | 0hPa | 2.7V | 00:00:00 | 01:58:52 | 00:00:00 | |
| NBG1-10 | 2026-09-05 12:26:01 | 45.78477 | 14.02365 | 66° | 13km/h | 24744m | 4.9m/s | -51.2°C | 3.7% | 0hPa | 2.7V | 00:00:00 | 01:58:51 | 00:00:00 | |
| DO3MHA-12 | 2026-09-05 12:25:59 | 45.78474 | 14.02355 | 54° | 13km/h | 24735m | 5.1m/s | -51.1°C | 3.6% | 0hPa | 2.6V | 00:00:00 | 01:58:49 | 00:00:00 | |
| OE8JPQ-2 | 2026-09-05 12:25:58 | 45.78472 | 14.02353 | 2° | 13km/h | 24730m | 5.5m/s | -51.0°C | 3.6% | 0hPa | 2.6V | 00:00:00 | 00:00:00 | 00:00:00 | |
| IW2NTF | 2026-09-05 12:25:57 | 45.78460 | 14.02354 | 65° | 16km/h | 24705m | 4.7m/s | -51.3°C | 3.6% | 0hPa | 2.6V | 08:30:00 | 01:58:43 | 00:00:00 | |
| DO3MHA-11 | 2026-09-05 12:25:52 | 45.78458 | 14.02349 | 66° | 13km/h | 24701m | 3.5m/s | -51.3°C | 3.6% | 0hPa | 2.6V | 00:00:00 | 01:58:42 | 08:30:00 | |
| DO3MHA-12 | 2026-09-05 12:25:49 | 45.78453 | 14.02343 | 315° | 15km/h | 24686m | 5.4m/s | -51.1°C | 3.7% | 0hPa | 2.6V | 00:00:00 | 01:58:39 | 00:00:00 | |
| IW2NTF | 2026-09-05 12:25:48 | 45.78442 | 14.02328 | 42° | 24km/h | 24656m | 6m/s | -51.7°C | 3.8% | 0hPa | 2.6V | 08:30:00 | 01:58:33 | 00:00:00 | |
| DO3MHA-11 | 2026-09-05 12:25:42 | 45.78437 | 14.02323 | 24° | 11km/h | 24651m | 5.3m/s | -51.6°C | 3.8% | 0hPa | 2.7V | 00:00:00 | 01:58:32 | 00:00:00 | |
| DO3MHA-12 | 2026-09-05 12:25:39 | 45.78425 | 14.02319 | 22° | 11km/h | 24635m | 5.6m/s | -51.4°C | 3.7% | 0hPa | 2.7V | 00:00:00 | 01:58:29 | 00:00:00 | |
| OE8JPQ-2 | 2026-09-05 12:25:38 | 45.78425 | 14.02319 | 102° | 13km/h | 24630m | 4.7m/s | -51.4°C | 3.7% | 0hPa | 2.6V | 00:00:00 | 01:58:28 | 00:00:00 | |
| IW2NTF | 2026-09-05 12:25:33 | 45.78413 | 14.02288 | 53° | 16km/h | 24585m | 5.9m/s | -51.2°C | 3.5% | 0hPa | 2.6V | 08:30:00 | 01:58:19 | 00:00:00 | |
| DO3MHA-11 | 2026-09-05 12:25:32 | 45.78419 | 14.02306 | 68° | 13km/h | 24600m | 6.0m/s | -51.2°C | 3.6% | 0hPa | 2.7V | 00:00:00 | 01:58:22 | 00:00:00 | |
| OE5WHR-10 | 2026-09-05 12:25:31 | 45.78417 | 14.02300 | 75° | 15km/h | 24595m | 4.7m/s | 0°C | 0% | 0hPa | 2.7V | 00:00:00 | 01:58:21 | 00:00:00 | |
| 9A1FER-3 | 2026-09-05 12:25:27 | 45.78409 | 14.02283 | 31° | 15km/h | 24575m | 3.9m/s | -51.4°C | 3.7% | 0hPa | 2.7V | 00:00:00 | 01:58:17 | 00:00:00 | |
| IW2NTF | 2026-09-05 12:25:23 | 45.78398 | 14.02243 | 72° | 24km/h | 24535m | 5.5m/s | -51.7°C | 3.8% | 0hPa | 2.6V | 08:30:00 | 01:58:09 | 00:00:00 | |
| OE5DXL-15 | 2026-09-05 12:25:22 | 45.78407 | 14.02265 | 62° | 15km/h | 24550m | 6.0m/s | -51.8°C | 3.8% | 0hPa | 2.7V | 00:00:00 | 01:58:12 | 00:00:00 | |
| DO3MHA-11 | 2026-09-05 12:25:21 | 45.78404 | 14.02258 | 52° | 16km/h | 24544m | 4.8m/s | -51.7°C | 3.8% | 0hPa | 2.7V | 00:00:00 | 01:58:11 | 00:00:00 | |
| OE8JPQ-2 | 2026-09-05 12:25:18 | 45.78397 | 14.02235 | 95° | 13km/h | 24530m | 5.4m/s | -51.6°C | 3.8% | 0hPa | 2.6V | 00:00:00 | 00:00:00 | 08:30:00 | |
| S52SK | 2026-09-05 12:25:16 | 45.78398 | 14.02228 | 111° | 18km/h | 24525m | 4.3m/s | -51.6°C | 1.0% | 0hPa | 2.7V | 00:00:00 | 00:00:00 | 00:00:00 | |
| IW2NTF | 2026-09-05 12:25:13 | 45.78387 | 14.02200 | 59° | 20km/h | 24483m | 5.2m/s | -51.7°C | 3.7% | 0hPa | 2.7V | 08:30:00 | 01:57:59 | 00:00:00 | |
| 9A1FER-3 | 2026-09-05 12:25:12 | 45.78393 | 14.02215 | 35° | 13km/h | 24499m | 5.6m/s | -51.6°C | 3.7% | 0hPa | 2.6V | 00:00:00 | 01:58:02 | 00:00:00 | |
| DO3MHA-11 | 2026-09-05 12:25:11 | 45.78390 | 14.02211 | 60° | 13km/h | 24493m | 5.2m/s | -51.6°C | 3.7% | 0hPa | 2.6V | 00:00:00 | 01:58:01 | 00:00:00 | |
| OE5DRO-10 | 2026-09-05 12:25:04 | 45.78377 | 14.02183 | 165° | 15km/h | 24458m | 5.2m/s | -51.4°C | 3.6% | 0hPa | 2.6V | 00:00:00 | 00:00:00 | 00:00:00 | |
| IN3HCDX1 | 2026-09-05 12:25:02 | 45.78379 | 14.02182 | 149° | 5km/h | 24453m | 3.8m/s | -51.5°C | 0.9% | 0hPa | 2.6V | 00:00:00 | 00:00:00 | 00:00:00 | |
| DO3MHA-11 | 2026-09-05 12:25:01 | 45.78378 | 14.02179 | 29° | 13km/h | 24444m | 6.1m/s | -51.5°C | 3.6% | 0hPa | 2.6V | 00:00:00 | 01:57:51 | 00:00:00 | |
| IW2NTF | 2026-09-05 12:24:59 | 45.78369 | 14.02159 | 144° | 7km/h | 24409m | 5m/s | -51.7°C | 3.8% | 0hPa | 2.6V | 08:30:00 | 01:57:44 | 00:00:00 | |
| OE8JPQ-2 | 2026-09-05 12:24:58 | 45.78365 | 14.02170 | 38° | 15km/h | 24430m | 4.5m/s | -51.3°C | 3.7% | 0hPa | 2.7V | 00:00:00 | 00:00:00 | 00:00:00 | |
| 9A1FER-3 | 2026-09-05 12:24:57 | 45.78364 | 14.02167 | 79° | 15km/h | 24425m | 6.2m/s | -51.5°C | 3.7% | 0hPa | 2.7V | 00:00:00 | 01:57:47 | 00:00:00 | |
| OE5DXL-15 | 2026-09-05 12:24:52 | 45.78367 | 14.02156 | 27° | 16km/h | 24399m | 4.7m/s | -51.8°C | 3.8% | 0hPa | 2.7V | 00:00:00 | 00:00:00 | 00:00:00 | |
| DO3MHA-11 | 2026-09-05 12:24:51 | 45.78363 | 14.02153 | 34° | 15km/h | 24394m | 4.6m/s | -51.8°C | 3.8% | 0hPa | 2.7V | 00:00:00 | 01:57:41 | 00:00:00 | |
| NBG1-10 | 2026-09-05 12:24:50 | 45.78359 | 14.02147 | 49° | 15km/h | 24389m | 5.1m/s | -51.9°C | 3.8% | 0hPa | 2.6V | 00:00:00 | 01:57:40 | 00:00:00 | |
| IV3AMH | 2026-09-05 12:24:49 | 45.78359 | 14.02148 | 49° | 22km/h | 24389m | 5.2m/s | -51.9°C | 1.0% | 0hPa | 2.6V | 00:00:00 | 00:00:00 | 00:00:00 | |
| IW2NTF | 2026-09-05 12:24:47 | 45.78354 | 14.02115 | 36° | 9km/h | 24357m | 4.6m/s | -51.8°C | 3.8% | 0hPa | 2.6V | 08:30:00 | 01:57:34 | 00:00:00 | |
| OE5DRO-10 | 2026-09-05 12:24:45 | 45.78356 | 14.02117 | 63° | 16km/h | 24363m | 5.9m/s | -51.7°C | 3.8% | 0hPa | 2.6V | 00:00:00 | 00:00:00 | 08:30:00 | |
| 9A1FER-3 | 2026-09-05 12:24:42 | 45.78351 | 14.02109 | 67° | 16km/h | 24347m | 5.8m/s | -51.7°C | 3.8% | 0hPa | 2.7V | 00:00:00 | 01:57:32 | 08:30:00 | |
| DO3MHA-11 | 2026-09-05 12:24:41 | 45.78350 | 14.02105 | 77° | 15km/h | 24342m | 4.7m/s | -51.5°C | 3.7% | 0hPa | 2.7V | 00:00:00 | 01:57:31 | 00:00:00 | |
| IW2NTF | 2026-09-05 12:24:39 | 45.78337 | 14.02069 | 109° | 13km/h | 24305m | 4.9m/s | -51.6°C | 3.8% | 0hPa | 2.7V | 08:30:00 | 01:57:24 | 00:00:00 | |
| OE8JPQ-2 | 2026-09-05 12:24:38 | 45.78344 | 14.02088 | 46° | 16km/h | 24326m | 5.4m/s | -51.6°C | 3.8% | 0hPa | 2.7V | 00:00:00 | 01:57:28 | 00:00:00 | |
| DO3MHA-11 | 2026-09-05 12:24:31 | 45.78334 | 14.02059 | 26° | 20km/h | 24290m | 5.9m/s | -51.8°C | 3.7% | 0hPa | 2.7V | 00:00:00 | 01:57:21 | 00:00:00 | |
| 9A1FER-3 | 2026-09-05 12:24:27 | 45.78317 | 14.02042 | 72° | 15km/h | 24270m | 6.1m/s | -51.6°C | 3.7% | 0hPa | 2.7V | 00:00:00 | 01:57:17 | 00:00:00 | |
| IW2NTF | 2026-09-05 12:24:26 | 45.78315 | 14.02024 | 68° | 13km/h | 24254m | 5.9m/s | -51.7°C | 3.7% | 0hPa | 2.7V | 08:30:00 | 01:57:14 | 00:00:00 | |
| DO3MHA-11 | 2026-09-05 12:24:21 | 45.78307 | 14.02016 | 27° | 11km/h | 24239m | 5.5m/s | -51.6°C | 3.8% | 0hPa | 2.6V | 00:00:00 | 01:57:11 | 08:30:00 | |
| NBG1-10 | 2026-09-05 12:24:17 | 45.78303 | 14.02000 | 75° | 15km/h | 24218m | 5.7m/s | -51.6°C | 3.7% | 0hPa | 2.7V | 00:00:00 | 01:57:07 | 08:30:00 | |
| IV3AMH | 2026-09-05 12:24:15 | 45.78302 | 14.01995 | 57° | 13km/h | 24213m | 5.6m/s | -51.6°C | 1.0% | 0hPa | 2.7V | 00:00:00 | 00:00:00 | 00:00:00 | |
| IW2NTF | 2026-09-05 12:24:14 | 45.78286 | 14.01968 | 50° | 13km/h | 24167m | 5.9m/s | -51.7°C | 3.8% | 0hPa | 2.7V | 08:30:00 | 01:56:57 | 00:00:00 | |
| 9A1FER-3 | 2026-09-05 12:24:12 | 45.78297 | 14.01982 | 91° | 15km/h | 24192m | 4.4m/s | -51.5°C | 3.6% | 0hPa | 2.7V | 00:00:00 | 01:57:02 | 00:00:00 | |
| DO3MHA-11 | 2026-09-05 12:24:11 | 45.78297 | 14.01979 | 67° | 13km/h | 24188m | 4.7m/s | -51.6°C | 3.7% | 0hPa | 2.7V | 00:00:00 | 01:57:01 | 00:00:00 | |
| OE5DRO-10 | 2026-09-05 12:24:07 | 45.78286 | 14.01968 | 51° | 16km/h | 24167m | 5.9m/s | -51.7°C | 3.8% | 0hPa | 2.7V | 00:00:00 | 00:00:00 | 00:00:00 | |
| IW2NTF | 2026-09-05 12:24:02 | 45.78254 | 14.01932 | 32° | 20km/h | 24110m | 5.4m/s | -52.1°C | 3.8% | 0hPa | 2.7V | 08:30:00 | 01:56:46 | 00:00:00 | |
| DO3MHA-11 | 2026-09-05 12:24:01 | 45.78273 | 14.01951 | 11° | 18km/h | 24136m | 4.2m/s | -52.1°C | 3.8% | 0hPa | 2.6V | 00:00:00 | 01:56:51 | 00:00:00 | |
| IN3HCDX1 | 2026-09-05 12:24:00 | 45.78273 | 14.01951 | 11° | 20km/h | 24136m | 4.2m/s | -52.1°C | 1.0% | 0hPa | 2.6V | 00:00:00 | 00:00:00 | 00:00:00 | |
| OE8JPQ-2 | 2026-09-05 12:23:58 | 45.78262 | 14.01941 | 50° | 18km/h | 24121m | 4.4m/s | -52.1°C | 3.7% | 0hPa | 2.6V | 00:00:00 | 00:00:00 | 00:00:00 | |
| 9A1FER-3 | 2026-09-05 12:23:57 | 45.78258 | 14.01936 | 44° | 18km/h | 24116m | 5.6m/s | -52.0°C | 3.8% | 0hPa | 2.6V | 00:00:00 | 01:56:47 | 00:00:00 | |
| OE5DXL-15 | 2026-09-05 12:23:52 | 45.78238 | 14.01919 | 21° | 16km/h | 24090m | 4.1m/s | -51.8°C | 3.9% | 0hPa | 2.7V | 00:00:00 | 00:00:00 | 00:00:00 | |
| DO3MHA-11 | 2026-09-05 12:23:51 | 45.78234 | 14.01918 | 6° | 20km/h | 24086m | 4.8m/s | -51.9°C | 3.9% | 0hPa | 2.7V | 00:00:00 | 01:56:41 | 00:00:00 | |
| IW2NTF | 2026-09-05 12:23:49 | 45.78207 | 14.01902 | 45° | 16km/h | 24051m | 4.6m/s | -52.1°C | 3.7% | 0hPa | 2.7V | 08:30:00 | 01:56:34 | 00:00:00 | |
| OE5DRO-10 | 2026-09-05 12:23:48 | 45.78219 | 14.01918 | 10° | 16km/h | 24071m | 4.1m/s | -51.8°C | 3.8% | 0hPa | 2.6V | 00:00:00 | 00:00:00 | 00:00:00 | |
| IV3AMH | 2026-09-05 12:23:45 | 45.78212 | 14.01912 | 60° | 15km/h | 24060m | 5.2m/s | -52.0°C | 1.0% | 0hPa | 2.7V | 00:00:00 | 00:00:00 | 00:00:00 | |
| NBG1-10 | 2026-09-05 12:23:44 | 45.78207 | 14.01902 | 46° | 15km/h | 24052m | 4.5m/s | -52.0°C | 3.7% | 0hPa | 2.7V | 00:00:00 | 01:56:34 | 00:00:00 | |
| 9A1FER-3 | 2026-09-05 12:23:42 | 45.78197 | 14.01897 | 7° | 15km/h | 24041m | 4.9m/s | -51.8°C | 3.7% | 0hPa | 2.7V | 00:00:00 | 01:56:32 | 00:00:00 | |
| DO3MHA-11 | 2026-09-05 12:23:41 | 45.78191 | 14.01896 | 359° | 15km/h | 24037m | 4.0m/s | -51.6°C | 3.6% | 0hPa | 2.7V | 00:00:00 | 01:56:31 | 00:00:00 | |
| IN3HCDX1 | 2026-09-05 12:23:40 | 45.78191 | 14.01896 | 360° | 26km/h | 24037m | 4.0m/s | -51.7°C | 1.0% | 0hPa | 2.7V | 00:00:00 | 00:00:00 | 00:00:00 | |
| OE8JPQ-2 | 2026-09-05 12:23:38 | 45.78179 | 14.01897 | 13° | 15km/h | 24022m | 4.8m/s | -51.9°C | 3.8% | 0hPa | 2.7V | 00:00:00 | 01:56:28 | 00:00:00 | |
| S52SK | 2026-09-05 12:23:35 | 45.78176 | 14.01896 | 356° | 9km/h | 24012m | 5.4m/s | -52.0°C | 1.0% | 0hPa | 2.7V | 00:00:00 | 00:00:00 | 00:00:00 | |
| DO3MHA-11 | 2026-09-05 12:23:31 | 45.78155 | 14.01897 | 18° | 15km/h | 23987m | 4.7m/s | -52.2°C | 3.8% | 0hPa | 2.7V | 00:00:00 | 01:56:21 | 00:00:00 | |
| OE5DRO-10 | 2026-09-05 12:23:29 | 45.78151 | 14.01898 | 324° | 18km/h | 23979m | 4.7m/s | -52.2°C | 3.8% | 0hPa | 2.7V | 00:00:00 | 00:00:00 | 00:00:00 | |
| 9A1FER-3 | 2026-09-05 12:23:27 | 45.78144 | 14.01906 | 322° | 18km/h | 23968m | 5.3m/s | -52.2°C | 3.8% | 0hPa | 2.7V | 00:00:00 | 01:56:17 | 00:00:00 | |
| OE5DXL-15 | 2026-09-05 12:23:22 | 45.78124 | 14.01916 | 21° | 16km/h | 23943m | 5.2m/s | -52.2°C | 3.8% | 0hPa | 2.7V | 00:00:00 | 00:00:00 | 00:00:00 | |
| DO3MHA-11 | 2026-09-05 12:23:21 | 45.78121 | 14.01916 | 1° | 18km/h | 23937m | 5.1m/s | -52.3°C | 3.9% | 0hPa | 2.7V | 00:00:00 | 01:56:11 | 00:00:00 | |
| IN3HCDX1 | 2026-09-05 12:23:19 | 45.78117 | 14.01916 | 344° | 15km/h | 23933m | 4.2m/s | -52.3°C | 1.1% | 0hPa | 2.6V | 00:00:00 | 00:00:00 | 00:00:00 | |
| OE8JPQ-2 | 2026-09-05 12:23:18 | 45.78111 | 14.01921 | 330° | 16km/h | 23923m | 5.7m/s | -52.3°C | 3.9% | 0hPa | 2.6V | 00:00:00 | 00:00:00 | 00:00:00 | |
| 9A1FER-3 | 2026-09-05 12:23:12 | 45.78082 | 14.01926 | 42° | 15km/h | 23895m | 5.6m/s | -52.7°C | 3.9% | 0hPa | 2.6V | 00:00:00 | 01:56:02 | 00:00:00 | |
| OE5DRO-10 | 2026-09-05 12:23:10 | 45.78080 | 14.01917 | 102° | 18km/h | 23884m | 3.7m/s | -52.4°C | 3.8% | 0hPa | 2.7V | 00:00:00 | 00:00:00 | 00:00:00 | |
| IV3AMH | 2026-09-05 12:23:08 | 45.78080 | 14.01915 | 311° | 9km/h | 23876m | 5.8m/s | -52.6°C | 1.1% | 0hPa | 2.7V | 00:00:00 | 00:00:00 | 00:00:00 | |
| NBG1-10 | 2026-09-05 12:23:03 | 45.78060 | 14.01935 | 23° | 22km/h | 23851m | 5.5m/s | -52.5°C | 3.9% | 0hPa | 2.7V | 00:00:00 | 01:55:53 | 00:00:00 | |
| DO3MHA-11 | 2026-09-05 12:23:01 | 45.78056 | 14.01929 | 47° | 22km/h | 23841m | 4.7m/s | -52.4°C | 3.8% | 0hPa | 2.7V | 00:00:00 | 01:55:51 | 00:00:00 | |
| IN3HCDX1 | 2026-09-05 12:22:59 | 45.78053 | 14.01927 | 13° | 11km/h | 23836m | 5.1m/s | -52.5°C | 1.0% | 0hPa | 2.7V | 00:00:00 | 00:00:00 | 00:00:00 | |
| OE8JPQ-2 | 2026-09-05 12:22:58 | 45.78046 | 14.01930 | 335° | 24km/h | 23827m | 4.5m/s | -52.5°C | 4.0% | 0hPa | 2.7V | 00:00:00 | 00:00:00 | 00:00:00 | |
| 9A1FER-3 | 2026-09-05 12:22:57 | 45.78042 | 14.01933 | 336° | 24km/h | 23822m | 5.5m/s | -52.6°C | 4.0% | 0hPa | 2.7V | 00:00:00 | 01:55:47 | 00:00:00 | |
| OE5DXL-15 | 2026-09-05 12:22:52 | 45.78014 | 14.01937 | 7° | 24km/h | 23797m | 4.1m/s | -52.5°C | 3.9% | 0hPa | 2.7V | 00:00:00 | 00:00:00 | 00:00:00 | |
| OE5DRO-10 | 2026-09-05 12:22:51 | 45.78006 | 14.01934 | 19° | 24km/h | 23793m | 4.5m/s | -52.7°C | 3.9% | 0hPa | 2.6V | 00:00:00 | 00:00:00 | 00:00:00 | |
| DO3MHA-11 | 2026-09-05 12:22:50 | 45.78000 | 14.01930 | 32° | 24km/h | 23788m | 6.2m/s | -52.8°C | 3.9% | 0hPa | 2.6V | 00:00:00 | 01:55:40 | 08:30:00 | |
| 9A1FER-3 | 2026-09-05 12:22:42 | 45.77958 | 14.01931 | 17° | 24km/h | 23747m | 4.8m/s | -52.7°C | 3.9% | 0hPa | 2.6V | 00:00:00 | 01:55:32 | 00:00:00 | |
| PG1ADW-2 | 2026-09-05 12:22:41 | 45.77954 | 14.01928 | 30° | 22km/h | 23743m | 4.3m/s | -52.8°C | 4.0% | 0hPa | 2.6V | 00:00:00 | 01:55:31 | 00:00:00 | |
| DO3MHA-11 | 2026-09-05 12:22:40 | 45.77948 | 14.01924 | 27° | 24km/h | 23738m | 4.4m/s | -52.7°C | 3.9% | 0hPa | 2.6V | 00:00:00 | 01:55:30 | 00:00:00 | |
| OE8JPQ-2 | 2026-09-05 12:22:38 | 45.77934 | 14.01919 | 4° | 22km/h | 23728m | 4.8m/s | -52.8°C | 3.9% | 0hPa | 2.6V | 00:00:00 | 01:55:28 | 00:00:00 | |
| DO3MHA-11 | 2026-09-05 12:22:30 | 45.77896 | 14.01940 | 16° | 22km/h | 23690m | 4.8m/s | -53.1°C | 4.0% | 0hPa | 2.6V | 00:00:00 | 01:55:20 | 00:00:00 | |
| 9A1FER-3 | 2026-09-05 12:22:27 | 45.77881 | 14.01925 | 34° | 20km/h | 23675m | 3.3m/s | -52.9°C | 3.9% | 0hPa | 2.6V | 00:00:00 | 01:55:17 | 08:30:00 | |
| NBG1-10 | 2026-09-05 12:22:25 | 45.77872 | 14.01925 | 331° | 18km/h | 23665m | 6.3m/s | -52.9°C | 4.0% | 0hPa | 2.7V | 00:00:00 | 01:55:15 | 00:00:00 | |
| OE5DXL-15 | 2026-09-05 12:22:22 | 45.77860 | 14.01945 | 305° | 20km/h | 23650m | 4.7m/s | -52.9°C | 4.1% | 0hPa | 2.7V | 00:00:00 | 00:00:00 | 00:00:00 | |
| PG1ADW-2 | 2026-09-05 12:22:21 | 45.77858 | 14.01947 | 348° | 13km/h | 23645m | 4.4m/s | -53.0°C | 4.0% | 0hPa | 2.7V | 00:00:00 | 00:00:00 | 00:00:00 | |
| DO3MHA-11 | 2026-09-05 12:22:20 | 45.77856 | 14.01946 | 43° | 20km/h | 23641m | 4.3m/s | -53.1°C | 4.0% | 0hPa | 2.7V | 00:00:00 | 01:55:10 | 00:00:00 | |
| OE8JPQ-2 | 2026-09-05 12:22:18 | 45.77847 | 14.01937 | 30° | 20km/h | 23631m | 5.7m/s | -53.2°C | 4.0% | 0hPa | 2.7V | 00:00:00 | 00:00:00 | 08:30:00 | |
| IN3HCDX1 | 2026-09-05 12:22:17 | 45.77847 | 14.01937 | 31° | 29km/h | 23631m | 5.8m/s | -53.2°C | 1.1% | 0hPa | 2.6V | 00:00:00 | 00:00:00 | 00:00:00 | |
| OE5DRO-10 | 2026-09-05 12:22:13 | 45.77821 | 14.01927 | 306° | 22km/h | 23606m | 4.5m/s | -53.1°C | 4.0% | 0hPa | 2.6V | 00:00:00 | 00:00:00 | 00:00:00 | |
| 9A1FER-3 | 2026-09-05 12:22:12 | 45.77820 | 14.01930 | 289° | 20km/h | 23601m | 5.0m/s | -53.1°C | 4.0% | 0hPa | 2.6V | 00:00:00 | 01:55:02 | 00:00:00 | |
| DO3MHA-11 | 2026-09-05 12:22:09 | 45.77812 | 14.01934 | 31° | 20km/h | 23588m | 5.2m/s | -53.3°C | 4.1% | 0hPa | 2.6V | 00:00:00 | 01:54:59 | 00:00:00 | |
| DO3MHA-11 | 2026-09-05 12:21:59 | 45.77781 | 14.01908 | 98° | 22km/h | 23541m | 4.7m/s | -53.4°C | 4.0% | 0hPa | 2.6V | 00:00:00 | 01:54:49 | 00:00:00 | |
| OE8JPQ-2 | 2026-09-05 12:21:58 | 45.77780 | 14.01901 | 78° | 20km/h | 23536m | 4.9m/s | -53.4°C | 4.0% | 0hPa | 2.6V | 00:00:00 | 00:00:00 | 00:00:00 | |
| 9A1FER-3 | 2026-09-05 12:21:57 | 45.77778 | 14.01891 | 61° | 18km/h | 23531m | 5.4m/s | -53.4°C | 4.0% | 0hPa | 2.6V | 00:00:00 | 01:54:47 | 00:00:00 | |
| IN3HCDX1 | 2026-09-05 12:21:56 | 45.77778 | 14.01891 | 61° | 33km/h | 23531m | 5.4m/s | -53.4°C | 1.1% | 0hPa | 2.6V | 00:00:00 | 00:00:00 | 00:00:00 | |
| PG1ADW-2 | 2026-09-05 12:21:55 | 45.77766 | 14.01875 | 28° | 18km/h | 23522m | 4.2m/s | -53.2°C | 4.0% | 0hPa | 2.6V | 00:00:00 | 00:00:00 | 00:00:00 | |
| OE5DRO-10 | 2026-09-05 12:21:54 | 45.77760 | 14.01871 | 16° | 16km/h | 23517m | 4.3m/s | -53.2°C | 4.0% | 0hPa | 2.6V | 00:00:00 | 00:00:00 | 08:30:00 | |
| S52SK | 2026-09-05 12:21:53 | 45.77760 | 14.01871 | 17° | 26km/h | 23517m | 4.4m/s | -53.2°C | 1.1% | 0hPa | 2.6V | 00:00:00 | 00:00:00 | 00:00:00 | |
| OE5DXL-15 | 2026-09-05 12:21:52 | 45.77750 | 14.01869 | 6° | 20km/h | 23508m | 4.7m/s | -53.3°C | 4.1% | 0hPa | 2.6V | 00:00:00 | 00:00:00 | 00:00:00 | |
| NBG1-10 | 2026-09-05 12:21:50 | 45.77745 | 14.01868 | 2° | 22km/h | 23499m | 4.6m/s | -53.3°C | 4.2% | 0hPa | 2.6V | 00:00:00 | 01:54:40 | 00:00:00 | |
| DO3MHA-11 | 2026-09-05 12:21:49 | 45.77743 | 14.01868 | 358° | 20km/h | 23494m | 4.8m/s | -53.3°C | 4.2% | 0hPa | 2.6V | 00:00:00 | 01:54:39 | 00:00:00 | |
| S52SK | 2026-09-05 12:21:48 | 45.77743 | 14.01868 | 358° | 9km/h | 23494m | 4.8m/s | -53.4°C | 1.1% | 0hPa | 2.7V | 00:00:00 | 00:00:00 | 00:00:00 | |
| IV3AMH | 2026-09-05 12:21:45 | 45.77736 | 14.01864 | 52° | 15km/h | 23481m | 5.4m/s | -53.5°C | 1.2% | 0hPa | 2.7V | 00:00:00 | 00:00:00 | 00:00:00 | |
| 9A1FER-3 | 2026-09-05 12:21:42 | 45.77721 | 14.01843 | 13° | 22km/h | 23461m | 6.4m/s | -53.5°C | 4.1% | 0hPa | 2.7V | 00:00:00 | 01:54:32 | 00:00:00 | |
| DO3MHA-11 | 2026-09-05 12:21:39 | 45.77701 | 14.01848 | 338° | 18km/h | 23448m | 4.9m/s | -53.4°C | 4.1% | 0hPa | 2.7V | 00:00:00 | 01:54:29 | 00:00:00 | |
| OE8JPQ-2 | 2026-09-05 12:21:38 | 45.77698 | 14.01849 | 358° | 22km/h | 23443m | 5.6m/s | -53.3°C | 4.1% | 0hPa | 2.7V | 00:00:00 | 01:54:28 | 00:00:00 | |
| IN3HCDX1 | 2026-09-05 12:21:36 | 45.77697 | 14.01848 | 81° | 9km/h | 23438m | 4.9m/s | -53.2°C | 1.1% | 0hPa | 2.7V | 00:00:00 | 00:00:00 | 00:00:00 | |
| PG1ADW-2 | 2026-09-05 12:21:35 | 45.77694 | 14.01838 | 57° | 24km/h | 23429m | 4.7m/s | -53.3°C | 4.1% | 0hPa | 2.7V | 00:00:00 | 00:00:00 | 00:00:00 | |
| OE5DXL-15 | 2026-09-05 12:21:22 | 45.77624 | 14.01801 | 22° | 29km/h | 23365m | 4.3m/s | -53.0°C | 4.1% | 0hPa | 2.6V | 00:00:00 | 00:00:00 | 08:30:00 | |
| OE8JPQ-2 | 2026-09-05 12:21:18 | 45.77595 | 14.01797 | 1° | 29km/h | 23346m | 3.1m/s | -53.2°C | 4.0% | 0hPa | 2.5V | 00:00:00 | 00:00:00 | 00:00:00 | |
| OE5DRO-10 | 2026-09-05 12:21:16 | 45.77586 | 14.01794 | 48° | 31km/h | 23336m | 5.9m/s | -53.0°C | 4.1% | 0hPa | 2.7V | 00:00:00 | 00:00:00 | 00:00:00 | |
| PG1ADW-2 | 2026-09-05 12:21:15 | 45.77583 | 14.01789 | 66° | 31km/h | 23331m | 3.9m/s | -52.9°C | 4.0% | 0hPa | 2.7V | 00:00:00 | 01:54:05 | 00:00:00 | |
| 9A1FER-3 | 2026-09-05 12:21:12 | 45.77567 | 14.01765 | 29° | 33km/h | 23317m | 5.2m/s | -52.9°C | 4.0% | 0hPa | 2.7V | 00:00:00 | 01:54:02 | 00:00:00 | |
| IV3AMH | 2026-09-05 12:21:07 | 45.77531 | 14.01747 | 21° | 18km/h | 23299m | 5.5m/s | -52.8°C | 1.2% | 0hPa | 2.7V | 00:00:00 | 00:00:00 | 00:00:00 | |
| DO3MHA-11 | 2026-09-05 12:21:04 | 45.77514 | 14.01733 | 26° | 31km/h | 23280m | 5.3m/s | -53.0°C | 4.1% | 0hPa | 2.7V | 00:00:00 | 01:53:54 | 00:00:00 | |
| OE8JPQ-2 | 2026-09-05 12:20:58 | 45.77463 | 14.01698 | 21° | 27km/h | 23253m | 4.6m/s | -52.6°C | 4.0% | 0hPa | 2.7V | 00:00:00 | 00:00:00 | 00:00:00 | |
| 9A1FER-3 | 2026-09-05 12:20:57 | 45.77456 | 14.01696 | 8° | 27km/h | 23247m | 5.6m/s | -52.5°C | 3.9% | 0hPa | 2.7V | 00:00:00 | 01:53:47 | 00:00:00 | |
| PG1ADW-2 | 2026-09-05 12:20:55 | 45.77442 | 14.01695 | 2° | 27km/h | 23238m | 3.5m/s | -52.5°C | 4.0% | 0hPa | 2.6V | 00:00:00 | 00:00:00 | 00:00:00 | |
| DO3MHA-11 | 2026-09-05 12:20:54 | 45.77436 | 14.01694 | 14° | 26km/h | 23234m | 5.2m/s | -52.6°C | 4.0% | 0hPa | 2.6V | 00:00:00 | 01:53:44 | 08:30:00 | |
| OE5DXL-15 | 2026-09-05 12:20:52 | 45.77425 | 14.01686 | 42° | 26km/h | 23223m | 4.2m/s | -52.6°C | 4.0% | 0hPa | 2.7V | 00:00:00 | 00:00:00 | 00:00:00 | |
| 9A1FER-3 | 2026-09-05 12:20:42 | 45.77360 | 14.01661 | 15° | 27km/h | 23175m | 4.5m/s | -52.3°C | 3.9% | 0hPa | 2.7V | 00:00:00 | 01:53:32 | 00:00:00 | |
| OE8JPQ-2 | 2026-09-05 12:20:38 | 45.77332 | 14.01649 | 25° | 26km/h | 23157m | 4.7m/s | -51.9°C | 3.8% | 0hPa | 2.7V | 00:00:00 | 01:53:28 | 00:00:00 | |
| PG1ADW-2 | 2026-09-05 12:20:35 | 45.77313 | 14.01643 | 3° | 24km/h | 23142m | 5.3m/s | -52.0°C | 3.8% | 0hPa | 2.7V | 00:00:00 | 00:00:00 | 08:30:00 | |
| IN3HCDX1 | 2026-09-05 12:20:34 | 45.77313 | 14.01643 | 4° | 33km/h | 23142m | 5.4m/s | -52.1°C | 1.1% | 0hPa | 2.7V | 00:00:00 | 00:00:00 | 00:00:00 | |
| IV3AMH | 2026-09-05 12:20:30 | 45.77283 | 14.01637 | 22° | 22km/h | 23122m | 4.8m/s | -52.0°C | 1.1% | 0hPa | 2.7V | 00:00:00 | 00:00:00 | 00:00:00 | |
| 9A1FER-3 | 2026-09-05 12:20:27 | 45.77260 | 14.01631 | 358° | 24km/h | 23102m | 4.8m/s | -52.1°C | 3.9% | 0hPa | 2.7V | 00:00:00 | 01:53:17 | 00:00:00 | |
| OE5DXL-15 | 2026-09-05 12:20:22 | 45.77232 | 14.01636 | 355° | 24km/h | 23078m | 4.6m/s | -52.2°C | 3.9% | 0hPa | 2.7V | 00:00:00 | 00:00:00 | 00:00:00 | |
| OE8JPQ-2 | 2026-09-05 12:20:18 | 45.77209 | 14.01632 | 17° | 24km/h | 23059m | 3.6m/s | -52.2°C | 3.8% | 0hPa | 2.7V | 00:00:00 | 00:00:00 | 00:00:00 | |
| PG1ADW-2 | 2026-09-05 12:20:15 | 45.77192 | 14.01633 | 344° | 24km/h | 23045m | 4.6m/s | -52.3°C | 3.9% | 0hPa | 2.6V | 00:00:00 | 00:00:00 | 00:00:00 | |
| IN3HCDX1 | 2026-09-05 12:20:14 | 45.77185 | 14.01636 | 340° | 27km/h | 23040m | 4.1m/s | -52.4°C | 1.1% | 0hPa | 2.6V | 00:00:00 | 00:00:00 | 00:00:00 | |
| 9A1FER-3 | 2026-09-05 12:20:12 | 45.77175 | 14.01642 | 342° | 22km/h | 23030m | 5.2m/s | -52.3°C | 3.8% | 0hPa | 2.6V | 00:00:00 | 01:53:02 | 08:30:00 | |
| OE8JPQ-2 | 2026-09-05 12:19:58 | 45.77097 | 14.01664 | 5° | 26km/h | 22963m | 5.0m/s | -52.2°C | 3.7% | 0hPa | 2.7V | 00:00:00 | 00:00:00 | 00:00:00 | |
| 9A1FER-3 | 2026-09-05 12:19:57 | 45.77092 | 14.01663 | 13° | 26km/h | 22958m | 4.0m/s | -52.2°C | 3.8% | 0hPa | 2.7V | 00:00:00 | 01:52:47 | 00:00:00 | |
| PG1ADW-2 | 2026-09-05 12:19:55 | 45.77079 | 14.01661 | 359° | 26km/h | 22949m | 5.0m/s | -52.3°C | 3.9% | 0hPa | 2.7V | 00:00:00 | 01:52:45 | 00:00:00 | |
| OE5DRO-10 | 2026-09-05 12:19:54 | 45.77064 | 14.01666 | 340° | 26km/h | 22940m | 4.8m/s | -52.4°C | 3.9% | 0hPa | 2.7V | 00:00:00 | 00:00:00 | 00:00:00 | |
| OE5DXL-15 | 2026-09-05 12:19:52 | 45.77058 | 14.01670 | 330° | 24km/h | 22934m | 5.7m/s | -52.4°C | 4.0% | 0hPa | 2.7V | 00:00:00 | 00:00:00 | 00:00:00 | |
| S52SK | 2026-09-05 12:19:50 | 45.77053 | 14.01674 | 326° | 22km/h | 22929m | 4.2m/s | -52.5°C | 1.1% | 0hPa | 2.6V | 00:00:00 | 00:00:00 | 00:00:00 | |
| NBG1-10 | 2026-09-05 12:19:45 | 45.77014 | 14.01686 | 352° | 20km/h | 22900m | 4.9m/s | -52.5°C | 4.0% | 0hPa | 2.6V | 00:00:00 | 01:52:35 | 00:00:00 | |
| 9A1FER-3 | 2026-09-05 12:19:42 | 45.76998 | 14.01699 | 323° | 26km/h | 22886m | 5.4m/s | -52.6°C | 3.9% | 0hPa | 2.6V | 00:00:00 | 01:52:32 | 00:00:00 | |
| S52SK | 2026-09-05 12:19:40 | 45.76985 | 14.01713 | 325° | 29km/h | 22876m | 4.6m/s | -52.7°C | 1.1% | 0hPa | 2.6V | 00:00:00 | 00:00:00 | 00:00:00 | |
| OE8JPQ-2 | 2026-09-05 12:19:38 | 45.76975 | 14.01721 | 347° | 22km/h | 22866m | 4.6m/s | -52.5°C | 4.0% | 0hPa | 2.6V | 00:00:00 | 01:52:28 | 00:00:00 | |
| PG1ADW-2 | 2026-09-05 12:19:35 | 45.76959 | 14.01723 | 347° | 20km/h | 22851m | 4.2m/s | -52.5°C | 4.1% | 0hPa | 2.6V | 00:00:00 | 00:00:00 | 00:00:00 | |
| OE5DRO-10 | 2026-09-05 12:19:34 | 45.76953 | 14.01726 | 333° | 20km/h | 22848m | 4.2m/s | -52.4°C | 4.0% | 0hPa | 2.7V | 00:00:00 | 00:00:00 | 00:00:00 | |
| IN3HCDX1 | 2026-09-05 12:19:32 | 45.76948 | 14.01731 | 317° | 24km/h | 22842m | 6.1m/s | -52.5°C | 1.1% | 0hPa | 2.7V | 00:00:00 | 00:00:00 | 00:00:00 | |
| 9A1FER-3 | 2026-09-05 12:19:27 | 45.76923 | 14.01767 | 351° | 20km/h | 22812m | 5.9m/s | -52.4°C | 4.0% | 0hPa | 2.7V | 00:00:00 | 01:52:17 | 00:00:00 | |
| OE5DXL-15 | 2026-09-05 12:19:22 | 45.76906 | 14.01778 | 312° | 18km/h | 22786m | 4.7m/s | -52.1°C | 4.0% | 0hPa | 2.6V | 00:00:00 | 00:00:00 | 00:00:00 | |
| OE8JPQ-2 | 2026-09-05 12:19:18 | 45.76895 | 14.01809 | 295° | 18km/h | 22767m | 3.8m/s | -52.2°C | 4.0% | 0hPa | 2.6V | 00:00:00 | 00:00:00 | 08:30:00 | |
| OE5DRO-10 | 2026-09-05 12:19:15 | 45.76882 | 14.01823 | 318° | 18km/h | 22747m | 5.5m/s | -51.9°C | 3.9% | 0hPa | 2.7V | 00:00:00 | 00:00:00 | 00:00:00 | |
| IN3HCDX1 | 2026-09-05 12:19:11 | 45.76879 | 14.01834 | 279° | 18km/h | 22736m | 4.5m/s | -51.9°C | 1.0% | 0hPa | 2.7V | 00:00:00 | 00:00:00 | 00:00:00 | |
| 9A1FER-3 | 2026-09-05 12:19:09 | 45.76873 | 14.01856 | 304° | 16km/h | 22721m | 4.3m/s | -51.6°C | 3.8% | 0hPa | 2.7V | 00:00:00 | 01:51:59 | 00:00:00 | |
| NBG1-10 | 2026-09-05 12:19:00 | 45.76857 | 14.01903 | 267° | 18km/h | 22675m | 5.4m/s | -51.3°C | 3.9% | 0hPa | 2.7V | 00:00:00 | 01:51:50 | 00:00:00 | |
| OE8JPQ-2 | 2026-09-05 12:18:58 | 45.76859 | 14.01919 | 264° | 16km/h | 22666m | 5.2m/s | -51.4°C | 3.9% | 0hPa | 2.7V | 00:00:00 | 00:00:00 | 00:00:00 | |
| OE5DRO-10 | 2026-09-05 12:18:56 | 45.76859 | 14.01929 | 278° | 16km/h | 22656m | 4.2m/s | -51.4°C | 3.9% | 0hPa | 2.7V | 00:00:00 | 00:00:00 | 08:30:00 | |
| PG1ADW-2 | 2026-09-05 12:18:55 | 45.76859 | 14.01932 | 267° | 15km/h | 22651m | 5.1m/s | -51.3°C | 3.9% | 0hPa | 2.6V | 00:00:00 | 00:00:00 | 00:00:00 | |
| 9A1FER-3 | 2026-09-05 12:18:54 | 45.76859 | 14.01936 | 251° | 16km/h | 22646m | 5.8m/s | -51.2°C | 3.8% | 0hPa | 2.6V | 00:00:00 | 01:51:44 | 00:00:00 | |
| IN3HCDX1 | 2026-09-05 12:18:52 | 45.76861 | 14.01945 | 267° | 16km/h | 22636m | 4.0m/s | -51.3°C | 1.1% | 0hPa | 2.6V | 00:00:00 | 00:00:00 | 00:00:00 | |
| IV3AMH | 2026-09-05 12:18:39 | 45.76872 | 14.02021 | 259° | 29km/h | 22573m | 3.9m/s | -50.8°C | 1.1% | 0hPa | 2.6V | 00:00:00 | 00:00:00 | 00:00:00 | |
| OE8JPQ-2 | 2026-09-05 12:18:38 | 45.76873 | 14.02030 | 262° | 18km/h | 22569m | 4.5m/s | -50.8°C | 3.7% | 0hPa | 2.6V | 00:00:00 | 01:51:28 | 00:00:00 | |
| OE5DRO-10 | 2026-09-05 12:18:37 | 45.76874 | 14.02038 | 265° | 18km/h | 22564m | 5.2m/s | -50.8°C | 3.7% | 0hPa | 2.6V | 00:00:00 | 00:00:00 | 00:00:00 | |
| IN3HCDX1 | 2026-09-05 12:18:30 | 45.76893 | 14.02059 | 235° | 22km/h | 22536m | 4.6m/s | -50.6°C | 1.0% | 0hPa | 2.6V | 00:00:00 | 00:00:00 | 00:00:00 | |
| PG1ADW-2 | 2026-09-05 12:18:29 | 45.76896 | 14.02073 | 276° | 20km/h | 22525m | 5.0m/s | -50.7°C | 3.6% | 0hPa | 2.6V | 00:00:00 | 01:51:19 | 00:00:00 | |
| NBG1-10 | 2026-09-05 12:18:27 | 45.76895 | 14.02087 | 265° | 18km/h | 22517m | 4.0m/s | -50.6°C | 3.6% | 0hPa | 2.7V | 00:00:00 | 01:51:17 | 00:00:00 | |
| DB0ND-19 | 2026-09-05 12:18:26 | 45.76912 | 14.02116 | 215° | 24km/h | 22498m | 4.2m/s | 0°C | -1.0% | -1.0hPa | 2.7V | 00:00:00 | 00:00:00 | 00:00:00 | |
| 9A1FER-3 | 2026-09-05 12:18:23 | 45.76912 | 14.02116 | 216° | 16km/h | 22498m | 4.1m/s | -50.6°C | 3.7% | 0hPa | 2.7V | 00:00:00 | 01:51:13 | 00:00:00 | |
| OE5DXL-15 | 2026-09-05 12:18:22 | 45.76916 | 14.02120 | 217° | 15km/h | 22493m | 6.1m/s | -50.7°C | 3.7% | 0hPa | 2.7V | 00:00:00 | 00:00:00 | 00:00:00 | |
| OE8JPQ-2 | 2026-09-05 12:18:18 | 45.76922 | 14.02132 | 232° | 18km/h | 22473m | 5.3m/s | -50.4°C | 3.6% | 0hPa | 2.6V | 00:00:00 | 00:00:00 | 00:00:00 | |
| IN3HCDX1 | 2026-09-05 12:18:10 | 45.76946 | 14.02161 | 211° | 18km/h | 22438m | 5.9m/s | -50.8°C | 1.0% | 0hPa | 2.6V | 00:00:00 | 00:00:00 | 00:00:00 | |
| 9A1FER-3 | 2026-09-05 12:18:08 | 45.76959 | 14.02172 | 204° | 15km/h | 22424m | 4.3m/s | -50.6°C | 3.5% | 0hPa | 2.6V | 00:00:00 | 01:50:58 | 00:00:00 | |
| PG1ADW-2 | 2026-09-05 12:18:07 | 45.76962 | 14.02173 | 184° | 15km/h | 22418m | 6.0m/s | -50.6°C | 3.5% | 0hPa | 2.6V | 00:00:00 | 00:00:00 | 00:00:00 | |
| S52SK | 2026-09-05 12:18:05 | 45.76963 | 14.02172 | 103° | 4km/h | 22413m | 4.8m/s | -50.7°C | 1.0% | 0hPa | 2.6V | 00:00:00 | 00:00:00 | 00:00:00 | |
| DB0ND-19 | 2026-09-05 12:17:55 | 45.76997 | 14.02179 | 270° | 7km/h | 22363m | 4.6m/s | 0°C | -1.0% | -1.0hPa | 2.6V | 00:00:00 | 00:00:00 | 00:00:00 | |
| NBG1-10 | 2026-09-05 12:17:54 | 45.76998 | 14.02182 | 231° | 18km/h | 22358m | 4.7m/s | -51.1°C | 3.6% | 0hPa | 2.6V | 00:00:00 | 01:50:44 | 08:30:00 | |
| 9A1FER-3 | 2026-09-05 12:17:53 | 45.77000 | 14.02184 | 205° | 9km/h | 22353m | 5.2m/s | -51.2°C | 3.6% | 0hPa | 2.6V | 00:00:00 | 01:50:43 | 08:30:00 | |
| OE5DXL-15 | 2026-09-05 12:17:52 | 45.77004 | 14.02186 | 184° | 11km/h | 22348m | 5.5m/s | -51.2°C | 3.6% | 0hPa | 2.7V | 00:00:00 | 00:00:00 | 00:00:00 | |
| IN3HCDX1 | 2026-09-05 12:17:50 | 45.77011 | 14.02184 | 161° | 11km/h | 22338m | 3.6m/s | -51.4°C | 1.0% | 0hPa | 2.7V | 00:00:00 | 00:00:00 | 00:00:00 | |
| PG1ADW-2 | 2026-09-05 12:17:46 | 45.77014 | 14.02189 | 318° | 9km/h | 22319m | 5.2m/s | -51.5°C | 3.6% | 0hPa | 2.7V | 00:00:00 | 00:00:00 | 00:00:00 | |
| IN3HCDX | 2026-09-05 12:17:43 | 45.77010 | 14.02191 | 7° | 7km/h | 22309m | 4.1m/s | -51.7°C | 1.0% | 0hPa | 2.7V | 00:00:00 | 00:00:00 | 00:00:00 | |
| OE5DRO-10 | 2026-09-05 12:17:40 | 45.77013 | 14.02195 | 217° | 13km/h | 22291m | 3.7m/s | -51.7°C | 3.8% | 0hPa | 2.7V | 00:00:00 | 00:00:00 | 00:00:00 | |
| 9A1FER-3 | 2026-09-05 12:17:38 | 45.77014 | 14.02195 | 57° | 13km/h | 22281m | 5.5m/s | -51.6°C | 3.7% | 0hPa | 2.7V | 00:00:00 | 01:50:28 | 00:00:00 | |
| IN3HCDX1 | 2026-09-05 12:17:29 | 45.77013 | 14.02178 | 97° | 18km/h | 22242m | 5.4m/s | -52.2°C | 1.0% | 0hPa | 2.7V | 00:00:00 | 00:00:00 | 00:00:00 | |
| PG1ADW-2 | 2026-09-05 12:17:26 | 45.77016 | 14.02155 | 136° | 16km/h | 22223m | 4.6m/s | -52.1°C | 3.7% | 0hPa | 2.7V | 00:00:00 | 00:00:00 | 08:30:00 | |
| DB0ND-19 | 2026-09-05 12:17:24 | 45.77024 | 14.02143 | 117° | 18km/h | 22208m | 5.3m/s | 0°C | -1.0% | -1.0hPa | 2.6V | 00:00:00 | 00:00:00 | 00:00:00 | |
| 9A1FER-3 | 2026-09-05 12:17:23 | 45.77024 | 14.02143 | 118° | 15km/h | 22209m | 5.3m/s | -52.0°C | 3.7% | 0hPa | 2.6V | 00:00:00 | 01:50:13 | 00:00:00 | |
| OE5DXL-15 | 2026-09-05 12:17:22 | 45.77026 | 14.02136 | 112° | 16km/h | 22203m | 4.5m/s | -52.0°C | 3.8% | 0hPa | 2.6V | 00:00:00 | 00:00:00 | 00:00:00 | |
| OE5DRO-10 | 2026-09-05 12:17:21 | 45.77027 | 14.02130 | 114° | 15km/h | 22199m | 4.4m/s | -52.1°C | 3.8% | 0hPa | 2.6V | 00:00:00 | 00:00:00 | 00:00:00 | |
| OE8JPQ-2 | 2026-09-05 12:17:18 | 45.77050 | 14.02117 | 119° | 15km/h | 22184m | 4.4m/s | -52.2°C | 3.8% | 0hPa | 2.6V | 00:00:00 | 00:00:00 | 00:00:00 | |
| IN3HCDX1 | 2026-09-05 12:17:09 | 45.77040 | 14.02079 | 95° | 15km/h | 22143m | 5.8m/s | -52.9°C | 1.1% | 0hPa | 2.6V | 00:00:00 | 00:00:00 | 00:00:00 | |
| 9A1FER-3 | 2026-09-05 12:17:08 | 45.77040 | 14.02068 | 83° | 18km/h | 22133m | 5.7m/s | -52.9°C | 4.0% | 0hPa | 2.6V | 00:00:00 | 01:49:58 | 00:00:00 | |
| PG1ADW-2 | 2026-09-05 12:17:06 | 45.77038 | 14.02056 | 66° | 11km/h | 22123m | 4.4m/s | -53.0°C | 4.0% | 0hPa | 2.7V | 00:00:00 | 01:49:56 | 00:00:00 | |
| OE5DRO-10 | 2026-09-05 12:17:02 | 45.77029 | 14.02036 | 66° | 18km/h | 22104m | 6.1m/s | -53.0°C | 4.0% | 0hPa | 2.7V | 00:00:00 | 00:00:00 | 00:00:00 | |
| OE8JPQ-2 | 2026-09-05 12:16:58 | 45.77030 | 14.02021 | 75° | 20km/h | 22085m | 6.2m/s | -53.0°C | 4.0% | 0hPa | 2.7V | 00:00:00 | 00:00:00 | 00:00:00 | |
| 9A1FER-3 | 2026-09-05 12:16:53 | 45.77013 | 14.01988 | 25° | 18km/h | 22059m | 5.1m/s | -53.1°C | 4.0% | 0hPa | 2.7V | 00:00:00 | 01:49:43 | 00:00:00 | |
| OE5DXL-15 | 2026-09-05 12:16:52 | 45.77012 | 14.01987 | 69° | 18km/h | 22054m | 4.2m/s | -53.1°C | 4.0% | 0hPa | 2.7V | 00:00:00 | 00:00:00 | 08:30:00 | |
| IN3HCDX | 2026-09-05 12:16:50 | 45.77012 | 14.01985 | 80° | 7km/h | 22050m | 4.4m/s | -53.2°C | 1.2% | 0hPa | 2.6V | 00:00:00 | 00:00:00 | 00:00:00 | |
| IN3HCDX1 | 2026-09-05 12:16:49 | 45.77009 | 14.01975 | 61° | 26km/h | 22039m | 5.2m/s | -53.2°C | 1.2% | 0hPa | 2.6V | 00:00:00 | 00:00:00 | 00:00:00 | |
| PG1ADW-2 | 2026-09-05 12:16:46 | 45.76997 | 14.01950 | 50° | 18km/h | 22024m | 5.1m/s | -53.1°C | 4.1% | 0hPa | 2.6V | 00:00:00 | 00:00:00 | 00:00:00 | |
| OE5DRO-10 | 2026-09-05 12:16:44 | 45.76986 | 14.01930 | 62° | 18km/h | 22005m | 5.4m/s | -52.9°C | 4.0% | 0hPa | 2.6V | 00:00:00 | 00:00:00 | 00:00:00 | |
| 9A1FER-3 | 2026-09-05 12:16:39 | 45.76974 | 14.01909 | 25° | 18km/h | 21985m | 5.4m/s | -53.0°C | 4.0% | 0hPa | 2.6V | 00:00:00 | 01:49:28 | 00:00:00 | |
| IN3HCDX1 | 2026-09-05 12:16:28 | 45.76946 | 14.01868 | 26° | 15km/h | 21937m | 5.6m/s | -52.9°C | 1.1% | 0hPa | 2.6V | 00:00:00 | 00:00:00 | 00:00:00 | |
| IN3HCDX | 2026-09-05 12:16:27 | 45.76938 | 14.01860 | 42° | 22km/h | 21928m | 3.9m/s | -53.0°C | 1.1% | 0hPa | 2.6V | 00:00:00 | 00:00:00 | 00:00:00 | |
| OE5DRO-10 | 2026-09-05 12:16:24 | 45.76931 | 14.01851 | 32° | 20km/h | 21918m | 5.1m/s | -52.9°C | 3.9% | 0hPa | 2.6V | 00:00:00 | 00:00:00 | 00:00:00 | |
| 9A1FER-3 | 2026-09-05 12:16:23 | 45.76927 | 14.01849 | 30° | 20km/h | 21913m | 4.8m/s | -52.9°C | 3.9% | 0hPa | 2.6V | 00:00:00 | 01:49:13 | 00:00:00 | |
| OE5DXL-15 | 2026-09-05 12:16:22 | 45.76924 | 14.01845 | 38° | 18km/h | 21908m | 4.4m/s | -52.9°C | 3.9% | 0hPa | 2.6V | 00:00:00 | 00:00:00 | 00:00:00 | |
| OE8JPQ-2 | 2026-09-05 12:16:18 | 45.76909 | 14.01829 | 12° | 20km/h | 21889m | 5.7m/s | -53.1°C | 3.9% | 0hPa | 2.6V | 00:00:00 | 00:00:00 | 08:30:00 | |
| IV3AMH | 2026-09-05 12:16:09 | 45.76867 | 14.01810 | 21° | 16km/h | 21850m | 5.2m/s | -53.7°C | 1.2% | 0hPa | 2.6V | 00:00:00 | 00:00:00 | 00:00:00 | |
| 9A1FER-3 | 2026-09-05 12:16:08 | 45.76860 | 14.01808 | 11° | 16km/h | 21841m | 4.6m/s | -53.7°C | 4.2% | 0hPa | 2.6V | 00:00:00 | 01:48:58 | 00:00:00 | |
| IN3HCDX1 | 2026-09-05 12:16:07 | 45.76860 | 14.01808 | 11° | 13km/h | 21841m | 4.7m/s | -53.7°C | 1.2% | 0hPa | 2.6V | 00:00:00 | 00:00:00 | 00:00:00 | |
| PG1ADW-2 | 2026-09-05 12:16:06 | 45.76854 | 14.01803 | 47° | 16km/h | 21830m | 4.7m/s | -53.6°C | 4.1% | 0hPa | 2.6V | 00:00:00 | 00:00:00 | 00:00:00 | |
| OE5DRO-10 | 2026-09-05 12:16:05 | 45.76851 | 14.01798 | 44° | 16km/h | 21826m | 4.2m/s | -53.7°C | 4.2% | 0hPa | 2.6V | 00:00:00 | 00:00:00 | 08:30:00 | |
| IN3HCDX | 2026-09-05 12:16:02 | 45.76842 | 14.01790 | 25° | 22km/h | 21816m | 4.6m/s | -53.7°C | 1.2% | 0hPa | 2.6V | 00:00:00 | 00:00:00 | 00:00:00 | |
| OE8JPQ-2 | 2026-09-05 12:15:58 | 45.76821 | 14.01768 | 33° | 11km/h | 21793m | 4.8m/s | -53.8°C | 4.2% | 0hPa | 2.6V | 00:00:00 | 00:00:00 | 00:00:00 | |
| 9A1FER-3 | 2026-09-05 12:15:53 | 45.76810 | 14.01764 | 65° | 11km/h | 21768m | 4.4m/s | -53.7°C | 4.2% | 0hPa | 2.6V | 00:00:00 | 01:48:43 | 00:00:00 | |
| OE5DXL-15 | 2026-09-05 12:15:52 | 45.76808 | 14.01760 | 56° | 11km/h | 21763m | 4.3m/s | -53.8°C | 4.1% | 0hPa | 2.6V | 00:00:00 | 00:00:00 | 00:00:00 | |
| NBG1-10 | 2026-09-05 12:15:51 | 45.76806 | 14.01756 | 39° | 15km/h | 21758m | 5.7m/s | -53.7°C | 4.1% | 0hPa | 2.6V | 00:00:00 | 01:48:41 | 00:00:00 | |
| PG1ADW-2 | 2026-09-05 12:15:46 | 45.76788 | 14.01748 | 41° | 9km/h | 21733m | 4.7m/s | -53.6°C | 4.2% | 0hPa | 2.6V | 00:00:00 | 01:48:36 | 00:00:00 | |
| S52SK | 2026-09-05 12:15:45 | 45.76788 | 14.01748 | 41° | 7km/h | 21733m | 4.8m/s | -53.6°C | 1.2% | 0hPa | 2.6V | 00:00:00 | 00:00:00 | 00:00:00 | |
| 9A1FER-3 | 2026-09-05 12:15:38 | 45.76775 | 14.01740 | 3° | 9km/h | 21695m | 5.7m/s | -53.6°C | 4.1% | 0hPa | 2.6V | 00:00:00 | 01:48:28 | 08:30:00 | |
| IN3HCDX | 2026-09-05 12:15:33 | 45.76768 | 14.01740 | 120° | 9km/h | 21675m | 5.9m/s | -53.8°C | 1.2% | 0hPa | 2.7V | 00:00:00 | 00:00:00 | 00:00:00 | |
| IV3AMH | 2026-09-05 12:15:32 | 45.76769 | 14.01737 | 123° | 13km/h | 21670m | 4.5m/s | -53.8°C | 1.2% | 0hPa | 2.7V | 00:00:00 | 00:00:00 | 00:00:00 | |
| OE5DRO-10 | 2026-09-05 12:15:27 | 45.76768 | 14.01720 | 75° | 13km/h | 21640m | 5.1m/s | -53.7°C | 4.1% | 0hPa | 2.7V | 00:00:00 | 00:00:00 | 00:00:00 | |
| PG1ADW-2 | 2026-09-05 12:15:26 | 45.76767 | 14.01715 | 86° | 13km/h | 21636m | 3.7m/s | -53.9°C | 4.2% | 0hPa | 2.7V | 00:00:00 | 00:00:00 | 00:00:00 | |
| IN3HCDX1 | 2026-09-05 12:15:25 | 45.76767 | 14.01715 | 86° | 15km/h | 21636m | 3.8m/s | -53.9°C | 1.2% | 0hPa | 2.7V | 00:00:00 | 00:00:00 | 00:00:00 | |
| 9A1FER-3 | 2026-09-05 12:15:23 | 45.76768 | 14.01706 | 122° | 13km/h | 21621m | 3.8m/s | -54.1°C | 4.3% | 0hPa | 2.7V | 00:00:00 | 01:48:13 | 00:00:00 | |
| OE5DXL-15 | 2026-09-05 12:15:22 | 45.76769 | 14.01704 | 110° | 15km/h | 21617m | 4.8m/s | -54.1°C | 4.3% | 0hPa | 2.7V | 00:00:00 | 00:00:00 | 00:00:00 | |
| OE8JPQ-2 | 2026-09-05 12:15:18 | 45.76762 | 14.01687 | 27° | 15km/h | 21597m | 5.8m/s | -54.0°C | 4.1% | 0hPa | 2.6V | 00:00:00 | 00:00:00 | 00:00:00 | |
| 9A1FER-3 | 2026-09-05 12:15:08 | 45.76749 | 14.01652 | 45° | 13km/h | 21549m | 5.2m/s | -54.0°C | 4.1% | 0hPa | 2.6V | 00:00:00 | 01:47:58 | 00:00:00 | |
| PG1ADW-2 | 2026-09-05 12:15:05 | 45.76746 | 14.01639 | 92° | 16km/h | 21535m | 4.5m/s | -54.5°C | 4.3% | 0hPa | 2.6V | 00:00:00 | 00:00:00 | 00:00:00 | |
| OE8JPQ-2 | 2026-09-05 12:14:58 | 45.76751 | 14.01601 | 108° | 16km/h | 21503m | 3.4m/s | -54.8°C | 4.3% | 0hPa | 2.6V | 00:00:00 | 00:00:00 | 00:00:00 | |
| IV3AMH | 2026-09-05 12:14:54 | 45.76753 | 14.01584 | 97° | 9km/h | 21489m | 4.6m/s | -54.7°C | 1.3% | 0hPa | 2.6V | 00:00:00 | 00:00:00 | 00:00:00 | |
| 9A1FER-3 | 2026-09-05 12:14:53 | 45.76756 | 14.01578 | 121° | 16km/h | 21479m | 4.3m/s | -54.7°C | 4.4% | 0hPa | 2.6V | 00:00:00 | 01:47:43 | 00:00:00 | |
| OE5DXL-15 | 2026-09-05 12:14:52 | 45.76757 | 14.01573 | 113° | 20km/h | 21475m | 3.5m/s | -54.7°C | 4.4% | 0hPa | 2.6V | 00:00:00 | 00:00:00 | 00:00:00 | |
| OE5DRO-10 | 2026-09-05 12:14:49 | 45.76758 | 14.01552 | 80° | 18km/h | 21461m | 4.2m/s | -54.8°C | 4.4% | 0hPa | 2.6V | 00:00:00 | 00:00:00 | 00:00:00 | |
| PG1ADW-2 | 2026-09-05 12:14:45 | 45.76760 | 14.01519 | 100° | 18km/h | 21443m | 3.9m/s | -54.9°C | 4.3% | 0hPa | 2.6V | 00:00:00 | 00:00:00 | 00:00:00 | |
| IN3HCDX1 | 2026-09-05 12:14:44 | 45.76760 | 14.01519 | 100° | 18km/h | 21443m | 4.0m/s | -54.9°C | 1.2% | 0hPa | 2.6V | 00:00:00 | 00:00:00 | 00:00:00 | |
| OE8JPQ-2 | 2026-09-05 12:14:38 | 45.76752 | 14.01484 | 78° | 22km/h | 21409m | 5.2m/s | -54.9°C | 4.3% | 0hPa | 2.6V | 00:00:00 | 01:47:28 | 00:00:00 | |
| OE5DRO-10 | 2026-09-05 12:14:30 | 45.76743 | 14.01431 | 40° | 20km/h | 21372m | 3.5m/s | -55.4°C | 4.3% | 0hPa | 2.6V | 00:00:00 | 00:00:00 | 00:00:00 | |
| IN3HCDX | 2026-09-05 12:14:28 | 45.76738 | 14.01424 | 48° | 27km/h | 21368m | 4.7m/s | -55.4°C | 1.3% | 0hPa | 2.6V | 00:00:00 | 00:00:00 | 00:00:00 | |
| PG1ADW-2 | 2026-09-05 12:14:25 | 45.76730 | 14.01386 | 79° | 16km/h | 21349m | 4.4m/s | -55.5°C | 4.5% | 0hPa | 2.6V | 00:00:00 | 01:47:15 | 08:30:00 | |
| IN3HCDX1 | 2026-09-05 12:14:23 | 45.76728 | 14.01378 | 73° | 22km/h | 21345m | 3.7m/s | -55.5°C | 1.4% | 0hPa | 2.7V | 00:00:00 | 00:00:00 | 00:00:00 | |
| OE5DXL-15 | 2026-09-05 12:14:22 | 45.76725 | 14.01367 | 66° | 18km/h | 21336m | 5.4m/s | -55.5°C | 4.6% | 0hPa | 2.7V | 00:00:00 | 00:00:00 | 00:00:00 | |
| IV3AMH | 2026-09-05 12:14:18 | 45.76713 | 14.01350 | 41° | 29km/h | 21317m | 4.6m/s | -55.7°C | 1.4% | 0hPa | 2.7V | 00:00:00 | 00:00:00 | 00:00:00 | |
| OE5DRO-10 | 2026-09-05 12:14:11 | 45.76696 | 14.01318 | 12° | 18km/h | 21286m | 4.6m/s | -55.7°C | 4.5% | 0hPa | 2.7V | 00:00:00 | 00:00:00 | 00:00:00 | |
| 9A1FER-3 | 2026-09-05 12:14:08 | 45.76682 | 14.01312 | 28° | 18km/h | 21271m | 4.7m/s | -55.7°C | 4.5% | 0hPa | 2.6V | 00:00:00 | 01:46:58 | 00:00:00 | |
| IN3HCDX | 2026-09-05 12:14:07 | 45.76682 | 14.01312 | 29° | 20km/h | 21271m | 4.7m/s | -55.8°C | 1.3% | 0hPa | 2.7V | 00:00:00 | 00:00:00 | 00:00:00 | |
| PG1ADW-2 | 2026-09-05 12:14:05 | 45.76670 | 14.01298 | 53° | 16km/h | 21258m | 3.3m/s | -55.4°C | 4.6% | 0hPa | 2.7V | 00:00:00 | 00:00:00 | 00:00:00 | |
| IN3HCDX1 | 2026-09-05 12:14:02 | 45.76668 | 14.01289 | 104° | 11km/h | 21249m | 6.1m/s | -55.6°C | 1.3% | 0hPa | 2.7V | 00:00:00 | 00:00:00 | 00:00:00 | |
| OE8JPQ-2 | 2026-09-05 12:13:58 | 45.76659 | 14.01271 | 36° | 16km/h | 21225m | 3.1m/s | -56.0°C | 4.5% | 0hPa | 2.7V | 00:00:00 | 00:00:00 | 00:00:00 | |
| 9A1FER-3 | 2026-09-05 12:13:53 | 45.76653 | 14.01235 | 134° | 15km/h | 21203m | 4.6m/s | -55.8°C | 4.6% | 0hPa | 2.7V | 00:00:00 | 01:46:43 | 00:00:00 | |
| OE5DXL-15 | 2026-09-05 12:13:52 | 45.76656 | 14.01231 | 128° | 13km/h | 21198m | 4.6m/s | -55.7°C | 4.6% | 0hPa | 2.7V | 00:00:00 | 00:00:00 | 00:00:00 | |
| S52SK | 2026-09-05 12:13:49 | 45.76655 | 14.01223 | 48° | 11km/h | 21186m | 4.7m/s | -55.8°C | 1.3% | 0hPa | 2.6V | 00:00:00 | 00:00:00 | 00:00:00 | |
| IN3HCDX | 2026-09-05 12:13:48 | 45.76653 | 14.01219 | 64° | 13km/h | 21181m | 5.1m/s | -55.7°C | 1.3% | 0hPa | 2.6V | 00:00:00 | 00:00:00 | 00:00:00 | |
| PG1ADW-2 | 2026-09-05 12:13:45 | 45.76648 | 14.01198 | 72° | 15km/h | 21167m | 4.4m/s | -55.6°C | 4.3% | 0hPa | 2.6V | 00:00:00 | 00:00:00 | 00:00:00 | |
| S52SK | 2026-09-05 12:13:43 | 45.76646 | 14.01190 | 76° | 24km/h | 21163m | 2.9m/s | -55.8°C | 1.3% | 0hPa | 2.6V | 00:00:00 | 00:00:00 | 00:00:00 | |
| IN3HCDX1 | 2026-09-05 12:13:41 | 45.76645 | 14.01176 | 111° | 13km/h | 21156m | 5.3m/s | -56.1°C | 1.3% | 0hPa | 2.6V | 00:00:00 | 00:00:00 | 00:00:00 | |
| IV3AMH | 2026-09-05 12:13:39 | 45.76648 | 14.01173 | 237° | 4km/h | 21148m | 3.8m/s | -56.1°C | 1.4% | 0hPa | 2.6V | 00:00:00 | 00:00:00 | 00:00:00 | |
| 9A1FER-3 | 2026-09-05 12:13:38 | 45.76645 | 14.01176 | 351° | 13km/h | 21138m | 4.7m/s | -56.1°C | 4.6% | 0hPa | 2.6V | 00:00:00 | 01:46:28 | 00:00:00 | |
| S52SK | 2026-09-05 12:13:37 | 45.76645 | 14.01176 | 352° | 16km/h | 21138m | 4.8m/s | -56.1°C | 1.4% | 0hPa | 2.6V | 00:00:00 | 00:00:00 | 00:00:00 | |
| OE5DRO-10 | 2026-09-05 12:13:33 | 45.76638 | 14.01158 | 152° | 9km/h | 21117m | 4.0m/s | -56.0°C | 4.7% | 0hPa | 2.6V | 00:00:00 | 00:00:00 | 00:00:00 | |
| IN3HCDX | 2026-09-05 12:13:26 | 45.76634 | 14.01150 | 12° | 15km/h | 21092m | 4.2m/s | -56.2°C | 1.4% | 0hPa | 2.6V | 00:00:00 | 00:00:00 | 00:00:00 | |
| 9A1FER-3 | 2026-09-05 12:13:23 | 45.76633 | 14.01151 | 169° | 9km/h | 21074m | 4.3m/s | -55.9°C | 4.5% | 0hPa | 2.6V | 00:00:00 | 01:46:13 | 08:30:00 | |
| OE5DXL-15 | 2026-09-05 12:13:22 | 45.76635 | 14.01150 | 129° | 13km/h | 21069m | 5.6m/s | -56.0°C | 4.5% | 0hPa | 2.6V | 00:00:00 | 00:00:00 | 00:00:00 | |
| IN3HCDX1 | 2026-09-05 12:13:21 | 45.76635 | 14.01150 | 130° | 9km/h | 21069m | 5.7m/s | -56.1°C | 1.3% | 0hPa | 2.6V | 00:00:00 | 00:00:00 | 00:00:00 | |
| OE8JPQ-2 | 2026-09-05 12:13:18 | 45.76635 | 14.01141 | 275° | 11km/h | 21049m | 4.8m/s | -55.7°C | 4.5% | 0hPa | 2.6V | 00:00:00 | 00:00:00 | 08:30:00 | |
| OE5DRO-10 | 2026-09-05 12:13:14 | 45.76636 | 14.01141 | 110° | 13km/h | 21031m | 4.3m/s | -55.6°C | 4.6% | 0hPa | 2.6V | 00:00:00 | 00:00:00 | 08:30:00 | |
| 9A1FER-3 | 2026-09-05 12:13:08 | 45.76649 | 14.01130 | 99° | 16km/h | 21003m | 5.5m/s | -55.7°C | 4.4% | 0hPa | 2.6V | 00:00:00 | 01:45:58 | 00:00:00 | |
| PG1ADW-2 | 2026-09-05 12:13:05 | 45.76650 | 14.01119 | 126° | 11km/h | 20989m | 5.0m/s | 0°C | 0% | 0hPa | 2.6V | 00:00:00 | 00:00:00 | 00:00:00 | |
| IV3AMH | 2026-09-05 12:13:02 | 45.76655 | 14.01114 | 149° | 13km/h | 20980m | 4.6m/s | -56.1°C | 1.4% | 0hPa | 2.6V | 00:00:00 | 00:00:00 | 00:00:00 | |
| IN3HCDX1 | 2026-09-05 12:13:01 | 45.76661 | 14.01108 | 139° | 16km/h | 20969m | 5.1m/s | -56.1°C | 1.4% | 0hPa | 2.6V | 00:00:00 | 00:00:00 | 00:00:00 | |
| OE8JPQ-2 | 2026-09-05 12:12:58 | 45.76673 | 14.01099 | 166° | 18km/h | 20954m | 4.4m/s | -56.1°C | 4.7% | 0hPa | 2.6V | 00:00:00 | 00:00:00 | 00:00:00 | |
| OE5DRO-10 | 2026-09-05 12:12:55 | 45.76685 | 14.01088 | 116° | 18km/h | 20942m | 5.5m/s | -56.2°C | 4.8% | 0hPa | 2.6V | 00:00:00 | 00:00:00 | 00:00:00 | |
| 9A1FER-3 | 2026-09-05 12:12:53 | 45.76689 | 14.01072 | 111° | 16km/h | 20933m | 5.0m/s | -56.0°C | 4.6% | 0hPa | 2.6V | 00:00:00 | 01:45:43 | 00:00:00 | |
| OE5DXL-15 | 2026-09-05 12:12:52 | 45.76692 | 14.01063 | 121° | 18km/h | 20928m | 4.1m/s | -56.1°C | 4.7% | 0hPa | 2.6V | 00:00:00 | 00:00:00 | 00:00:00 | |
| NBG1-10 | 2026-09-05 12:12:49 | 45.76701 | 14.01047 | 129° | 13km/h | 20914m | 5.1m/s | -56.1°C | 4.7% | 0hPa | 2.6V | 00:00:00 | 01:45:39 | 00:00:00 | |
| PG1ADW-2 | 2026-09-05 12:12:45 | 45.76709 | 14.01040 | 150° | 18km/h | 20897m | 3.5m/s | 0°C | 0% | 0hPa | 2.6V | 00:00:00 | 01:45:35 | 00:00:00 | |
| IN3HCDX | 2026-09-05 12:12:42 | 45.76715 | 14.01030 | 111° | 20km/h | 20889m | 5.5m/s | -56.2°C | 1.4% | 0hPa | 2.6V | 00:00:00 | 00:00:00 | 00:00:00 | |
| IN3HCDX1 | 2026-09-05 12:12:40 | 45.76716 | 14.01015 | 96° | 18km/h | 20881m | 3.1m/s | -56.0°C | 1.4% | 0hPa | 2.6V | 00:00:00 | 00:00:00 | 00:00:00 | |
| OE8JPQ-2 | 2026-09-05 12:12:38 | 45.76724 | 14.01003 | 170° | 22km/h | 20867m | 4.0m/s | -55.9°C | 4.7% | 0hPa | 2.6V | 00:00:00 | 01:45:28 | 00:00:00 | |
| OE5DRO-10 | 2026-09-05 12:12:36 | 45.76733 | 14.01000 | 153° | 22km/h | 20858m | 4.5m/s | -55.8°C | 4.7% | 0hPa | 2.6V | 00:00:00 | 00:00:00 | 00:00:00 | |
| IV3AMH | 2026-09-05 12:12:25 | 45.76760 | 14.00945 | 163° | 26km/h | 20816m | 3.7m/s | -55.9°C | 1.4% | 0hPa | 2.6V | 00:00:00 | 00:00:00 | 00:00:00 | |
| PG1ADW-2 | 2026-09-05 12:12:24 | 45.76772 | 14.00935 | 136° | 20km/h | 20809m | 4.8m/s | 0°C | 0% | 0hPa | 2.6V | 00:00:00 | 00:00:00 | 00:00:00 | |
| 9A1FER-3 | 2026-09-05 12:12:23 | 45.76776 | 14.00927 | 112° | 24km/h | 20804m | 5.3m/s | -55.9°C | 4.6% | 0hPa | 2.6V | 00:00:00 | 01:45:13 | 00:00:00 | |
| IN3HCDX | 2026-09-05 12:12:22 | 45.76778 | 14.00916 | 94° | 31km/h | 20800m | 4.1m/s | -55.9°C | 1.4% | 0hPa | 2.6V | 00:00:00 | 00:00:00 | 00:00:00 | |
| IN3HCDX1 | 2026-09-05 12:12:19 | 45.76777 | 14.00897 | 87° | 18km/h | 20791m | 4.3m/s | -55.6°C | 1.4% | 0hPa | 2.6V | 00:00:00 | 00:00:00 | 00:00:00 | |
| OE8JPQ-2 | 2026-09-05 12:12:18 | 45.76779 | 14.00888 | 135° | 22km/h | 20784m | 3.1m/s | -55.5°C | 4.5% | 0hPa | 2.6V | 00:00:00 | 00:00:00 | 00:00:00 | |
| OE5DRO-10 | 2026-09-05 12:12:17 | 45.76782 | 14.00884 | 136° | 24km/h | 20780m | 4.6m/s | -55.5°C | 4.5% | 0hPa | 2.7V | 00:00:00 | 00:00:00 | 00:00:00 | |
| 9A1FER-3 | 2026-09-05 12:12:08 | 45.76805 | 14.00813 | 88° | 26km/h | 20740m | 3.6m/s | -55.6°C | 4.4% | 0hPa | 2.6V | 00:00:00 | 01:44:58 | 00:00:00 | |
| IN3HCDX | 2026-09-05 12:12:01 | 45.76814 | 14.00760 | 98° | 27km/h | 20711m | 4.0m/s | -55.7°C | 1.3% | 0hPa | 2.6V | 00:00:00 | 00:00:00 | 00:00:00 | |
| PG1ADW-2 | 2026-09-05 12:12:00 | 45.76814 | 14.00751 | 92° | 29km/h | 20706m | 4.9m/s | 0°C | 0% | 0hPa | 2.6V | 00:00:00 | 00:00:00 | 00:00:00 | |
| IN3HCDX1 | 2026-09-05 12:11:59 | 45.76814 | 14.00751 | 93° | 24km/h | 20706m | 5.0m/s | -55.8°C | 1.3% | 0hPa | 2.6V | 00:00:00 | 00:00:00 | 00:00:00 | |
| OE8JPQ-2 | 2026-09-05 12:11:58 | 45.76814 | 14.00736 | 91° | 33km/h | 20698m | 3.2m/s | -55.7°C | 4.4% | 0hPa | 2.6V | 00:00:00 | 00:00:00 | 00:00:00 | |
| S52SK | 2026-09-05 12:11:56 | 45.76814 | 14.00727 | 96° | 27km/h | 20694m | 5.3m/s | -55.9°C | 1.3% | 0hPa | 2.6V | 00:00:00 | 00:00:00 | 00:00:00 | |
| DO3MHA-11 | 2026-09-05 12:11:54 | 45.76820 | 14.00692 | 110° | 35km/h | 20679m | 4.9m/s | -56.1°C | 4.6% | 0hPa | 2.6V | 00:00:00 | 01:44:44 | 00:00:00 | |
| 9A1FER-3 | 2026-09-05 12:11:53 | 45.76823 | 14.00682 | 112° | 33km/h | 20675m | 3.8m/s | -56.2°C | 4.6% | 0hPa | 2.6V | 00:00:00 | 01:44:43 | 00:00:00 | |
| S52SK | 2026-09-05 12:11:50 | 45.76828 | 14.00660 | 105° | 33km/h | 20667m | 4.7m/s | -56.2°C | 1.4% | 0hPa | 2.6V | 00:00:00 | 00:00:00 | 00:00:00 | |
| IV3AMH | 2026-09-05 12:11:48 | 45.76830 | 14.00620 | 84° | 37km/h | 20654m | 3.8m/s | -56.3°C | 1.4% | 0hPa | 2.6V | 00:00:00 | 00:00:00 | 00:00:00 | |
| DO3MHA-11 | 2026-09-05 12:11:44 | 45.76826 | 14.00575 | 94° | 35km/h | 20635m | 5.4m/s | -56.7°C | 4.9% | 0hPa | 2.6V | 00:00:00 | 01:44:34 | 00:00:00 | |
| IN3HCDX | 2026-09-05 12:11:39 | 45.76825 | 14.00514 | 75° | 37km/h | 20612m | 4.3m/s | -56.8°C | 1.5% | 0hPa | 2.6V | 00:00:00 | 00:00:00 | 00:00:00 | |
| 9A1FER-3 | 2026-09-05 12:11:38 | 45.76822 | 14.00501 | 75° | 31km/h | 20608m | 5.0m/s | -56.6°C | 4.8% | 0hPa | 2.6V | 00:00:00 | 01:44:28 | 00:00:00 | |
| DO3MHA-11 | 2026-09-05 12:11:33 | 45.76810 | 14.00446 | 77° | 29km/h | 20586m | 3.7m/s | -56.6°C | 4.8% | 0hPa | 2.6V | 00:00:00 | 01:44:23 | 00:00:00 | |
| 9A1FER-3 | 2026-09-05 12:11:23 | 45.76795 | 14.00347 | 78° | 24km/h | 20544m | 3.9m/s | -56.4°C | 4.7% | 0hPa | 2.7V | 00:00:00 | 01:44:13 | 00:00:00 | |
| IW2NTF | 2026-09-05 12:11:22 | 45.76789 | 14.00290 | 69° | 24km/h | 20512m | 4.7m/s | -56.1°C | 4.7% | 0hPa | 2.7V | 08:30:00 | 01:44:06 | 00:00:00 | |
| OE5DRO-10 | 2026-09-05 12:11:20 | 45.76792 | 14.00319 | 83° | 22km/h | 20530m | 3.7m/s | -56.2°C | 4.8% | 0hPa | 2.6V | 00:00:00 | 00:00:00 | 00:00:00 | |
| OE8JPQ-2 | 2026-09-05 12:11:18 | 45.76791 | 14.00306 | 90° | 22km/h | 20521m | 5.0m/s | -56.1°C | 4.8% | 0hPa | 2.6V | 00:00:00 | 00:00:00 | 00:00:00 | |
| PG1ADW-2 | 2026-09-05 12:11:15 | 45.76786 | 14.00282 | 58° | 20km/h | 20508m | 5.0m/s | 0°C | 0% | 0hPa | 2.7V | 00:00:00 | 01:44:05 | 00:00:00 | |
| DO3MHA-11 | 2026-09-05 12:11:11 | 45.76777 | 14.00249 | 90° | 22km/h | 20490m | 4.0m/s | -56.2°C | 4.8% | 0hPa | 2.7V | 00:00:00 | 01:44:01 | 00:00:00 | |
| IV3AMH | 2026-09-05 12:11:09 | 45.76777 | 14.00241 | 92° | 20km/h | 20486m | 4.7m/s | -56.3°C | 1.5% | 0hPa | 2.7V | 00:00:00 | 00:00:00 | 00:00:00 | |
| IW2NTF | 2026-09-05 12:11:06 | 45.76774 | 14.00219 | 74° | 20km/h | 20468m | 4.6m/s | -56°C | 4.7% | 0hPa | 2.7V | 08:30:00 | 01:43:56 | 00:00:00 | |
| DO3MHA-11 | 2026-09-05 12:11:01 | 45.76757 | 14.00181 | 62° | 18km/h | 20447m | 4.6m/s | -55.8°C | 4.6% | 0hPa | 2.7V | 00:00:00 | 01:43:51 | 00:00:00 | |
| IW2NTF | 2026-09-05 12:11:00 | 45.76747 | 14.00142 | 50° | 20km/h | 20416m | 5m/s | -55.7°C | 4.6% | 0hPa | 2.6V | 08:30:00 | 01:43:44 | 00:00:00 | |
| OE8JPQ-2 | 2026-09-05 12:10:58 | 45.76755 | 14.00159 | 96° | 18km/h | 20432m | 4.1m/s | -55.7°C | 4.6% | 0hPa | 2.7V | 00:00:00 | 00:00:00 | 00:00:00 | |
| IN3HCDX | 2026-09-05 12:10:57 | 45.76755 | 14.00159 | 97° | 16km/h | 20432m | 4.2m/s | -55.7°C | 1.4% | 0hPa | 2.7V | 00:00:00 | 00:00:00 | 00:00:00 | |
| PG1ADW-2 | 2026-09-05 12:10:54 | 45.76747 | 14.00142 | 51° | 18km/h | 20416m | 5.0m/s | 0°C | 0% | 0hPa | 2.7V | 00:00:00 | 00:00:00 | 08:30:00 | |
| 9A1FER-3 | 2026-09-05 12:10:53 | 45.76744 | 14.00135 | 63° | 18km/h | 20411m | 4.3m/s | -55.7°C | 4.6% | 0hPa | 2.7V | 00:00:00 | 01:43:43 | 00:00:00 | |
| OE5DXL-15 | 2026-09-05 12:10:52 | 45.76742 | 14.00128 | 65° | 16km/h | 20407m | 3.9m/s | -55.7°C | 4.6% | 0hPa | 2.7V | 00:00:00 | 00:00:00 | 00:00:00 | |
| DO3MHA-11 | 2026-09-05 12:10:51 | 45.76739 | 14.00121 | 62° | 18km/h | 20402m | 4.9m/s | -55.6°C | 4.6% | 0hPa | 2.6V | 00:00:00 | 01:43:41 | 00:00:00 | |
| IW2NTF | 2026-09-05 12:10:47 | 45.76724 | 14.00084 | 46° | 22km/h | 20371m | 5.4m/s | -55.6°C | 4.4% | 0hPa | 2.6V | 08:30:00 | 01:43:34 | 00:00:00 | |
| OE5DRO-10 | 2026-09-05 12:10:42 | 45.76715 | 14.00076 | 27° | 16km/h | 20362m | 3.7m/s | -55.6°C | 4.4% | 0hPa | 2.7V | 00:00:00 | 00:00:00 | 00:00:00 | |
| DO3MHA-11 | 2026-09-05 12:10:41 | 45.76710 | 14.00071 | 37° | 16km/h | 20357m | 5.3m/s | -55.5°C | 4.4% | 0hPa | 2.7V | 00:00:00 | 01:43:31 | 00:00:00 | |
| 9A1FER-3 | 2026-09-05 12:10:38 | 45.76703 | 14.00056 | 63° | 16km/h | 20343m | 5.2m/s | -55.4°C | 4.4% | 0hPa | 2.7V | 00:00:00 | 01:43:28 | 00:00:00 | |
| IN3HCDX1 | 2026-09-05 12:10:37 | 45.76703 | 14.00056 | 64° | 13km/h | 20343m | 5.2m/s | -55.4°C | 1.3% | 0hPa | 2.7V | 00:00:00 | 00:00:00 | 00:00:00 | |
| IW2NTF | 2026-09-05 12:10:35 | 45.76693 | 14.00044 | 51° | 18km/h | 20325m | 5.3m/s | -55.7°C | 4.6% | 0hPa | 2.7V | 08:30:00 | 01:43:24 | 00:00:00 | |
| PG1ADW-2 | 2026-09-05 12:10:34 | 45.76693 | 14.00044 | 52° | 13km/h | 20325m | 5.3m/s | 0°C | 0% | 0hPa | 2.6V | 00:00:00 | 00:00:00 | 00:00:00 | |
| DO3MHA-11 | 2026-09-05 12:10:31 | 45.76685 | 14.00027 | 39° | 16km/h | 20312m | 4.5m/s | 0°C | 0% | 0hPa | 2.6V | 00:00:00 | 01:43:21 | 08:30:00 | |
| DO3MHA-12 | 2026-09-05 12:10:29 | 45.76677 | 14.00025 | 349° | 15km/h | 20302m | 4.4m/s | -55.8°C | 4.6% | 0hPa | 2.7V | 00:00:00 | 01:43:19 | 00:00:00 | |
| IW2NTF | 2026-09-05 12:10:28 | 45.76661 | 14.00013 | 50° | 18km/h | 20279m | 4.5m/s | -56.1°C | 4.6% | 0hPa | 2.7V | 08:30:00 | 01:43:14 | 00:00:00 | |
| S52SK | 2026-09-05 12:10:24 | 45.76664 | 14.00018 | 57° | 20km/h | 20283m | 3.9m/s | -56.0°C | 1.4% | 0hPa | 2.7V | 00:00:00 | 00:00:00 | 00:00:00 | |
| 9A1FER-3 | 2026-09-05 12:10:23 | 45.76658 | 14.00009 | 30° | 9km/h | 20274m | 5.3m/s | -55.9°C | 4.6% | 0hPa | 2.7V | 00:00:00 | 01:43:13 | 00:00:00 | |
| OE5DXL-15 | 2026-09-05 12:10:22 | 45.76654 | 14.00008 | 359° | 5km/h | 20269m | 4.6m/s | -55.9°C | 4.5% | 0hPa | 2.7V | 00:00:00 | 00:00:00 | 00:00:00 | |
| DO3MHA-11 | 2026-09-05 12:10:21 | 45.76651 | 14.00008 | 341° | 7km/h | 20265m | 3.9m/s | -55.8°C | 4.6% | 0hPa | 2.7V | 00:00:00 | 01:43:11 | 00:00:00 | |
| DO3MHA-12 | 2026-09-05 12:10:18 | 45.76645 | 14.00008 | 53° | 7km/h | 20251m | 4.6m/s | -55.8°C | 4.6% | 0hPa | 2.7V | 00:00:00 | 01:43:08 | 00:00:00 | |
| IW2NTF | 2026-09-05 12:10:17 | 45.76636 | 14.00005 | 340° | 4km/h | 20227m | 5.5m/s | -55.8°C | 4.7% | 0hPa | 2.7V | 08:30:00 | 01:43:03 | 00:00:00 | |
| IN3HCDX | 2026-09-05 12:10:16 | 45.76644 | 14.00005 | 53° | 9km/h | 20247m | 4.4m/s | -55.7°C | 1.4% | 0hPa | 2.6V | 00:00:00 | 00:00:00 | 00:00:00 | |
| PG1ADW-2 | 2026-09-05 12:10:14 | 45.76638 | 14.00004 | 336° | 5km/h | 20232m | 3.8m/s | 0°C | 0% | 0hPa | 2.6V | 00:00:00 | 00:00:00 | 00:00:00 | |
| S52SK | 2026-09-05 12:10:13 | 45.76638 | 14.00004 | 336° | 7km/h | 20232m | 3.8m/s | -55.9°C | 1.4% | 0hPa | 2.6V | 00:00:00 | 00:00:00 | 00:00:00 | |
| DO3MHA-11 | 2026-09-05 12:10:11 | 45.76635 | 14.00003 | 84° | 4km/h | 20218m | 4.2m/s | -55.6°C | 4.7% | 0hPa | 2.6V | 00:00:00 | 01:43:01 | 00:00:00 | |
| 9A1FER-3 | 2026-09-05 12:10:08 | 45.76634 | 14.00002 | 343° | 5km/h | 20204m | 3.6m/s | -55.6°C | 4.6% | 0hPa | 2.6V | 00:00:00 | 01:42:58 | 00:00:00 | |
| DO3MHA-12 | 2026-09-05 12:10:06 | 45.76650 | 14.00001 | 120° | 4km/h | 20194m | 5.8m/s | -55.5°C | 4.6% | 0hPa | 2.6V | 00:00:00 | 01:42:56 | 08:30:00 | |
| IW2NTF | 2026-09-05 12:10:05 | 45.76636 | 13.99997 | 279° | 2km/h | 20178m | 5.6m/s | -55.6°C | 4.5% | 0hPa | 2.7V | 08:30:00 | 01:42:53 | 00:00:00 | |
| OE5DRO-10 | 2026-09-05 12:10:04 | 45.76635 | 13.99997 | 139° | 5km/h | 20184m | 4.8m/s | -55.6°C | 4.5% | 0hPa | 2.6V | 00:00:00 | 00:00:00 | 00:00:00 | |
| DO3MHA-11 | 2026-09-05 12:10:01 | 45.76634 | 14.00001 | 289° | 5km/h | 20170m | 3.8m/s | -55.4°C | 4.4% | 0hPa | 2.6V | 00:00:00 | 01:42:51 | 00:00:00 | |
| IW2NTF | 2026-09-05 12:09:58 | 45.76639 | 13.99999 | 131° | 7km/h | 20131m | 4.7m/s | -55.1°C | 4.5% | 0hPa | 2.7V | 08:30:00 | 01:42:43 | 00:00:00 | |
| OE8JPQ-2 | 2026-09-05 12:09:58 | 45.76636 | 14.00004 | 161° | 7km/h | 20155m | 3.9m/s | -55.3°C | 4.5% | 0hPa | 2.7V | 00:00:00 | 00:00:00 | 00:00:00 | |
| IN3HCDX1 | 2026-09-05 12:09:55 | 45.76638 | 14.00003 | 117° | 2km/h | 20146m | 4.6m/s | -55.3°C | 1.4% | 0hPa | 2.7V | 00:00:00 | 00:00:00 | 00:00:00 | |
| DO3MHA-12 | 2026-09-05 12:09:54 | 45.76638 | 14.00001 | 110° | 7km/h | 20137m | 5.4m/s | -55.2°C | 4.5% | 0hPa | 2.7V | 00:00:00 | 01:42:44 | 00:00:00 | |
| 9A1FER-3 | 2026-09-05 12:09:53 | 45.76639 | 13.99999 | 132° | 9km/h | 20132m | 4.6m/s | -55.1°C | 4.5% | 0hPa | 2.7V | 00:00:00 | 01:42:43 | 00:00:00 | |
| OE5DXL-15 | 2026-09-05 12:09:52 | 45.76640 | 13.99998 | 152° | 13km/h | 20127m | 3.4m/s | -55.0°C | 4.4% | 0hPa | 2.7V | 00:00:00 | 00:00:00 | 00:00:00 | |
| DO3MHA-11 | 2026-09-05 12:09:51 | 45.76641 | 13.99997 | 194° | 9km/h | 20123m | 5.0m/s | -55.0°C | 4.4% | 0hPa | 2.7V | 00:00:00 | 01:42:41 | 00:00:00 | |
| IW2NTF | 2026-09-05 12:09:45 | 45.76653 | 13.99984 | 99° | 4km/h | 20088m | 5.3m/s | -55.2°C | 4.5% | 0hPa | 2.7V | 08:30:00 | 01:42:33 | 00:00:00 | |
| DO3MHA-12 | 2026-09-05 12:09:44 | 45.76652 | 13.99987 | 126° | 11km/h | 20092m | 3.5m/s | -55.2°C | 4.5% | 0hPa | 2.7V | 00:00:00 | 01:42:34 | 00:00:00 | |
| NBG1-10 | 2026-09-05 12:09:43 | 45.76653 | 13.99984 | 100° | 15km/h | 20088m | 5.2m/s | -55.2°C | 4.5% | 0hPa | 2.7V | 00:00:00 | 01:42:33 | 00:00:00 | |
| DO3MHA-11 | 2026-09-05 12:09:41 | 45.76651 | 13.99987 | 306° | 16km/h | 20078m | 3.4m/s | -55.1°C | 4.5% | 0hPa | 2.7V | 00:00:00 | 01:42:31 | 00:00:00 | |
| IW2NTF | 2026-09-05 12:09:39 | 45.76664 | 13.99954 | 75° | 11km/h | 20042m | 5m/s | -55°C | 4.4% | 0hPa | 2.7V | 08:30:00 | 01:42:23 | 00:00:00 | |
| 9A1FER-3 | 2026-09-05 12:09:38 | 45.76654 | 13.99989 | 146° | 16km/h | 20065m | 5.6m/s | -55.1°C | 4.5% | 0hPa | 2.7V | 00:00:00 | 01:42:28 | 00:00:00 | |
| IN3HCDX1 | 2026-09-05 12:09:36 | 45.76662 | 13.99975 | 119° | 27km/h | 20056m | 4.9m/s | -55.0°C | 1.4% | 0hPa | 2.6V | 00:00:00 | 00:00:00 | 00:00:00 | |
| IN3HCDX | 2026-09-05 12:09:35 | 45.76664 | 13.99967 | 102° | 24km/h | 20051m | 4.7m/s | -54.9°C | 1.3% | 0hPa | 2.6V | 00:00:00 | 00:00:00 | 00:00:00 | |
| PG1ADW-2 | 2026-09-05 12:09:33 | 45.76663 | 13.99954 | 76° | 18km/h | 20042m | 5.0m/s | 0°C | 0% | 0hPa | 2.6V | 00:00:00 | 00:00:00 | 00:00:00 | |
| DO3MHA-11 | 2026-09-05 12:09:31 | 45.76664 | 13.99950 | 160° | 15km/h | 20031m | 4.9m/s | -54.8°C | 4.3% | 0hPa | 2.6V | 00:00:00 | 01:42:21 | 00:00:00 | |
| OE5DRO-10 | 2026-09-05 12:09:26 | 45.76667 | 13.99930 | 90° | 22km/h | 20009m | 3.6m/s | -54.6°C | 4.1% | 0hPa | 2.7V | 00:00:00 | 00:00:00 | 00:00:00 | |
| IW2NTF | 2026-09-05 12:09:25 | 45.76672 | 13.99907 | 126° | 22km/h | 19995m | 4.3m/s | -54.8°C | 4.3% | 0hPa | 2.6V | 08:30:00 | 01:42:13 | 00:00:00 | |
| 9A1FER-3 | 2026-09-05 12:09:23 | 45.76672 | 13.99907 | 127° | 22km/h | 19995m | 4.3m/s | -54.7°C | 4.3% | 0hPa | 2.6V | 00:00:00 | 01:42:13 | 00:00:00 | |
| OE5DXL-15 | 2026-09-05 12:09:22 | 45.76675 | 13.99901 | 122° | 27km/h | 19990m | 4.9m/s | -54.6°C | 4.2% | 0hPa | 2.6V | 00:00:00 | 00:00:00 | 00:00:00 | |
| DO3MHA-11 | 2026-09-05 12:09:21 | 45.76677 | 13.99896 | 103° | 20km/h | 19985m | 4.7m/s | -54.6°C | 4.2% | 0hPa | 2.6V | 00:00:00 | 01:42:11 | 00:00:00 | |
| IW2NTF | 2026-09-05 12:09:19 | 45.76679 | 13.99835 | 95° | 20km/h | 19948m | 5.1m/s | -55.4°C | 4.4% | 0hPa | 2.6V | 08:30:00 | 01:42:03 | 00:00:00 | |
| OE8JPQ-2 | 2026-09-05 12:09:18 | 45.76677 | 13.99875 | 96° | 27km/h | 19972m | 5.2m/s | -54.8°C | 4.3% | 0hPa | 2.6V | 00:00:00 | 00:00:00 | 00:00:00 | |
| IN3HCDX1 | 2026-09-05 12:09:16 | 45.76679 | 13.99858 | 97° | 24km/h | 19963m | 4.2m/s | -55.0°C | 1.3% | 0hPa | 2.7V | 00:00:00 | 00:00:00 | 00:00:00 | |
| PG1ADW-2 | 2026-09-05 12:09:13 | 45.76679 | 13.99835 | 96° | 27km/h | 19948m | 5.1m/s | 0°C | 0% | 0hPa | 2.7V | 00:00:00 | 00:00:00 | 00:00:00 | |
| DO3MHA-11 | 2026-09-05 12:09:11 | 45.76682 | 13.99819 | 106° | 31km/h | 19938m | 4.0m/s | -55.5°C | 4.4% | 0hPa | 2.7V | 00:00:00 | 01:42:01 | 00:00:00 | |
| NBG1-10 | 2026-09-05 12:09:10 | 45.76683 | 13.99810 | 96° | 31km/h | 19934m | 5.4m/s | -55.6°C | 4.4% | 0hPa | 2.7V | 00:00:00 | 01:42:00 | 00:00:00 | |
| 9A1FER-3 | 2026-09-05 12:09:08 | 45.76682 | 13.99789 | 83° | 33km/h | 19924m | 4.3m/s | -55.6°C | 4.6% | 0hPa | 2.6V | 00:00:00 | 01:41:58 | 00:00:00 | |
| OE5DRO-10 | 2026-09-05 12:09:07 | 45.76681 | 13.99777 | 86° | 31km/h | 19919m | 5.4m/s | -55.5°C | 4.5% | 0hPa | 2.6V | 00:00:00 | 00:00:00 | 00:00:00 | |
| IW2NTF | 2026-09-05 12:09:06 | 45.76679 | 13.99728 | 81° | 33km/h | 19901m | 4.3m/s | -55.4°C | 4.6% | 0hPa | 2.6V | 08:30:00 | 01:41:53 | 00:00:00 | |
| DO3MHA-11 | 2026-09-05 12:09:01 | 45.76678 | 13.99704 | 97° | 31km/h | 19893m | 4.4m/s | -55.4°C | 4.5% | 0hPa | 2.7V | 00:00:00 | 01:41:51 | 08:30:00 | |
| OE8JPQ-2 | 2026-09-05 12:08:58 | 45.76686 | 13.99672 | 110° | 29km/h | 19879m | 3.7m/s | -55.6°C | 4.6% | 0hPa | 2.6V | 00:00:00 | 00:00:00 | 00:00:00 | |
| IW2NTF | 2026-09-05 12:08:54 | 45.76685 | 13.99613 | 96° | 26km/h | 19856m | 5.2m/s | -55.5°C | 4.5% | 0hPa | 2.6V | 08:30:00 | 01:41:43 | 00:00:00 | |
| IN3HCDX1 | 2026-09-05 12:08:54 | 45.76686 | 13.99635 | 81° | 35km/h | 19865m | 3.4m/s | -55.7°C | 1.4% | 0hPa | 2.6V | 00:00:00 | 00:00:00 | 00:00:00 | |
| 9A1FER-3 | 2026-09-05 12:08:53 | 45.76685 | 13.99613 | 97° | 29km/h | 19856m | 5.1m/s | -55.5°C | 4.5% | 0hPa | 2.6V | 00:00:00 | 01:41:43 | 08:30:00 | |
| OE5DXL-15 | 2026-09-05 12:08:52 | 45.76687 | 13.99604 | 110° | 27km/h | 19851m | 4.4m/s | -55.3°C | 4.5% | 0hPa | 2.6V | 00:00:00 | 00:00:00 | 00:00:00 | |
| DO3MHA-11 | 2026-09-05 12:08:51 | 45.76689 | 13.99596 | 113° | 29km/h | 19846m | 4.9m/s | -55.3°C | 4.4% | 0hPa | 2.6V | 00:00:00 | 01:41:41 | 00:00:00 | |
| DO3MHA-12 | 2026-09-05 12:08:49 | 45.76694 | 13.99577 | 107° | 29km/h | 19837m | 3.9m/s | -55.4°C | 4.5% | 0hPa | 2.6V | 00:00:00 | 01:41:39 | 00:00:00 | |
| IW2NTF | 2026-09-05 12:08:48 | 45.76709 | 13.99492 | 120° | 26km/h | 19800m | 5.5m/s | -55.4°C | 4.4% | 0hPa | 2.6V | 08:30:00 | 01:41:31 | 00:00:00 | |
| OE5DRO-10 | 2026-09-05 12:08:48 | 45.76696 | 13.99566 | 109° | 27km/h | 19833m | 4.7m/s | -55.4°C | 4.5% | 0hPa | 2.6V | 00:00:00 | 00:00:00 | 00:00:00 | |
| PG1ADW-2 | 2026-09-05 12:08:43 | 45.76705 | 13.99511 | 95° | 26km/h | 19809m | 3.3m/s | 0°C | 0% | 0hPa | 2.6V | 00:00:00 | 00:00:00 | 00:00:00 | |
| DO3MHA-11 | 2026-09-05 12:08:41 | 45.76709 | 13.99492 | 121° | 27km/h | 19800m | 5.4m/s | -55.4°C | 4.4% | 0hPa | 2.6V | 00:00:00 | 01:41:31 | 00:00:00 | |
| OE8JPQ-2 | 2026-09-05 12:08:38 | 45.76722 | 13.99467 | 119° | 27km/h | 19786m | 5.2m/s | -55.4°C | 4.4% | 0hPa | 2.6V | 00:00:00 | 01:41:28 | 00:00:00 | |
| NBG1-10 | 2026-09-05 12:08:37 | 45.76725 | 13.99458 | 106° | 27km/h | 19781m | 4.1m/s | -55.5°C | 4.4% | 0hPa | 2.6V | 00:00:00 | 01:41:27 | 00:00:00 | |
| IW2NTF | 2026-09-05 12:08:36 | 45.76745 | 13.99391 | 95° | 33km/h | 19746m | 3.8m/s | -55.6°C | 4.6% | 0hPa | 2.6V | 08:30:00 | 01:41:19 | 00:00:00 | |
| IN3HCDX1 | 2026-09-05 12:08:34 | 45.76730 | 13.99430 | 121° | 22km/h | 19768m | 5.2m/s | -55.5°C | 1.3% | 0hPa | 2.6V | 00:00:00 | 00:00:00 | 00:00:00 | |
| DO3MHA-12 | 2026-09-05 12:08:33 | 45.76734 | 13.99424 | 134° | 26km/h | 19764m | 4.3m/s | -55.4°C | 4.4% | 0hPa | 2.6V | 00:00:00 | 01:41:23 | 00:00:00 | |
| DO3MHA-11 | 2026-09-05 12:08:31 | 45.76741 | 13.99410 | 121° | 27km/h | 19755m | 4.9m/s | -55.5°C | 4.5% | 0hPa | 2.6V | 00:00:00 | 01:41:21 | 00:00:00 | |
| IN3HCDX | 2026-09-05 12:08:30 | 45.76741 | 13.99410 | 121° | 26km/h | 19755m | 4.9m/s | -55.5°C | 1.4% | 0hPa | 2.6V | 00:00:00 | 00:00:00 | 00:00:00 | |
| OE5DRO-10 | 2026-09-05 12:08:29 | 45.76745 | 13.99391 | 96° | 27km/h | 19746m | 3.7m/s | -55.5°C | 4.6% | 0hPa | 2.6V | 00:00:00 | 00:00:00 | 00:00:00 | |
| IW2NTF | 2026-09-05 12:08:24 | 45.76760 | 13.99290 | 104° | 31km/h | 19700m | 3.4m/s | -55.6°C | 4.4% | 0hPa | 2.6V | 08:30:00 | 01:41:09 | 00:00:00 | |
| 9A1FER-3 | 2026-09-05 12:08:23 | 45.76753 | 13.99334 | 98° | 27km/h | 19718m | 4.4m/s | -55.8°C | 4.6% | 0hPa | 2.6V | 00:00:00 | 01:41:13 | 00:00:00 | |
| OE5DXL-15 | 2026-09-05 12:08:22 | 45.76754 | 13.99323 | 99° | 27km/h | 19714m | 3.9m/s | -55.8°C | 4.6% | 0hPa | 2.6V | 00:00:00 | 00:00:00 | 00:00:00 | |
| DO3MHA-11 | 2026-09-05 12:08:21 | 45.76756 | 13.99312 | 104° | 27km/h | 19709m | 5.0m/s | -55.7°C | 4.5% | 0hPa | 2.6V | 00:00:00 | 01:41:11 | 00:00:00 | |
| OE8JPQ-2 | 2026-09-05 12:08:18 | 45.76761 | 13.99279 | 97° | 27km/h | 19696m | 5.2m/s | -55.6°C | 4.5% | 0hPa | 2.6V | 00:00:00 | 00:00:00 | 00:00:00 | |
| IW2NTF | 2026-09-05 12:08:13 | 45.76756 | 13.99193 | 95° | 26km/h | 19653m | 5.4m/s | -55.7°C | 4.5% | 0hPa | 2.7V | 08:30:00 | 01:40:59 | 00:00:00 | |
| IN3HCDX | 2026-09-05 12:08:11 | 45.76756 | 13.99214 | 86° | 29km/h | 19663m | 4.0m/s | -55.6°C | 1.3% | 0hPa | 2.6V | 00:00:00 | 00:00:00 | 00:00:00 | |
| OE5DRO-10 | 2026-09-05 12:08:10 | 45.76755 | 13.99203 | 90° | 27km/h | 19658m | 4.2m/s | -55.6°C | 4.4% | 0hPa | 2.6V | 00:00:00 | 00:00:00 | 00:00:00 | |
| 9A1FER-3 | 2026-09-05 12:08:08 | 45.76756 | 13.99184 | 98° | 27km/h | 19649m | 4.5m/s | -55.6°C | 4.5% | 0hPa | 2.6V | 00:00:00 | 01:40:58 | 00:00:00 | |
| NBG1-10 | 2026-09-05 12:08:04 | 45.76752 | 13.99144 | 70° | 24km/h | 19631m | 4.1m/s | 0°C | 0% | 0hPa | 2.6V | 00:00:00 | 01:40:54 | 00:00:00 | |
| DO3MHA-12 | 2026-09-05 12:08:01 | 45.76747 | 13.99117 | 86° | 26km/h | 19617m | 4.1m/s | -55.9°C | 4.7% | 0hPa | 2.6V | 00:00:00 | 01:40:51 | 00:00:00 | |
| OE8JPQ-2 | 2026-09-05 12:07:58 | 45.76744 | 13.99086 | 76° | 24km/h | 19603m | 3.8m/s | -55.8°C | 4.6% | 0hPa | 2.6V | 00:00:00 | 00:00:00 | 00:00:00 | |
| 9A1FER-3 | 2026-09-05 12:07:53 | 45.76732 | 13.99044 | 68° | 22km/h | 19579m | 4.8m/s | -55.9°C | 4.6% | 0hPa | 2.6V | 00:00:00 | 01:40:43 | 00:00:00 | |
| PG1ADW-2 | 2026-09-05 12:07:52 | 45.76730 | 13.99034 | 74° | 20km/h | 19574m | 4.0m/s | 0°C | 0% | 0hPa | 2.6V | 00:00:00 | 00:00:00 | 00:00:00 | |
| DO3MHA-12 | 2026-09-05 12:07:51 | 45.76728 | 13.99024 | 80° | 22km/h | 19570m | 5.5m/s | -55.7°C | 4.5% | 0hPa | 2.6V | 00:00:00 | 01:40:41 | 08:30:00 | |
| IN3HCDX | 2026-09-05 12:07:50 | 45.76728 | 13.99024 | 80° | 27km/h | 19570m | 5.5m/s | -55.8°C | 1.4% | 0hPa | 2.7V | 00:00:00 | 00:00:00 | 00:00:00 | |
| DO3MHA-12 | 2026-09-05 12:07:41 | 45.76719 | 13.98952 | 91° | 18km/h | 19523m | 4.0m/s | -55.5°C | 4.6% | 0hPa | 2.7V | 00:00:00 | 01:40:31 | 00:00:00 | |
| 9A1FER-3 | 2026-09-05 12:07:38 | 45.76720 | 13.98929 | 85° | 16km/h | 19509m | 3.9m/s | -55.4°C | 4.6% | 0hPa | 2.7V | 00:00:00 | 01:40:28 | 00:00:00 | |
| OE5DRO-10 | 2026-09-05 12:07:33 | 45.76711 | 13.98893 | 76° | 13km/h | 19482m | 3.4m/s | -55.3°C | 4.4% | 0hPa | 2.7V | 00:00:00 | 00:00:00 | 08:30:00 | |
| IN3HCDX1 | 2026-09-05 12:07:31 | 45.76711 | 13.98893 | 77° | 13km/h | 19482m | 3.5m/s | -55.4°C | 1.3% | 0hPa | 2.6V | 00:00:00 | 00:00:00 | 00:00:00 | |
| IN3HCDX | 2026-09-05 12:07:30 | 45.76710 | 13.98881 | 93° | 22km/h | 19473m | 4.2m/s | -55.3°C | 1.3% | 0hPa | 2.6V | 00:00:00 | 00:00:00 | 00:00:00 | |
| 9A1FER-3 | 2026-09-05 12:07:23 | 45.76710 | 13.98845 | 81° | 13km/h | 19443m | 3.3m/s | -55.2°C | 4.6% | 0hPa | 2.6V | 00:00:00 | 01:40:13 | 00:00:00 | |
| OE5DXL-15 | 2026-09-05 12:07:22 | 45.76709 | 13.98840 | 77° | 13km/h | 19438m | 5.2m/s | -55.2°C | 4.5% | 0hPa | 2.7V | 00:00:00 | 00:00:00 | 00:00:00 | |
| DO3MHA-12 | 2026-09-05 12:07:21 | 45.76708 | 13.98836 | 72° | 11km/h | 19433m | 4.4m/s | -55.1°C | 4.6% | 0hPa | 2.7V | 00:00:00 | 01:40:11 | 00:00:00 | |
| OE5DRO-10 | 2026-09-05 12:07:13 | 45.76704 | 13.98806 | 170° | 11km/h | 19398m | 4.1m/s | -54.8°C | 4.5% | 0hPa | 2.7V | 00:00:00 | 00:00:00 | 00:00:00 | |
| DO3MHA-12 | 2026-09-05 12:07:11 | 45.76706 | 13.98801 | 92° | 11km/h | 19390m | 3.5m/s | -54.9°C | 4.4% | 0hPa | 2.7V | 00:00:00 | 01:40:01 | 00:00:00 | |
| 9A1FER-3 | 2026-09-05 12:07:08 | 45.76703 | 13.98786 | 69° | 11km/h | 19377m | 4.0m/s | -54.8°C | 4.4% | 0hPa | 2.7V | 00:00:00 | 01:39:58 | 00:00:00 | |
| DO3MHA-12 | 2026-09-05 12:07:01 | 45.76707 | 13.98765 | 63° | 13km/h | 19347m | 3.0m/s | -54.4°C | 4.3% | 0hPa | 2.7V | 00:00:00 | 01:39:51 | 00:00:00 | |
| OE8JPQ-2 | 2026-09-05 12:06:58 | 45.76705 | 13.98751 | 81° | 16km/h | 19335m | 3.1m/s | -54.3°C | 4.3% | 0hPa | 2.7V | 00:00:00 | 00:00:00 | 00:00:00 | |
| OE5DRO-10 | 2026-09-05 12:06:54 | 45.76706 | 13.98732 | 147° | 16km/h | 19318m | 4.8m/s | -54.4°C | 4.3% | 0hPa | 2.7V | 00:00:00 | 00:00:00 | 00:00:00 | |
| 9A1FER-3 | 2026-09-05 12:06:53 | 45.76709 | 13.98729 | 148° | 16km/h | 19313m | 4.5m/s | -54.4°C | 4.3% | 0hPa | 2.7V | 00:00:00 | 01:39:43 | 00:00:00 | |
| OE5DXL-15 | 2026-09-05 12:06:52 | 45.76712 | 13.98726 | 143° | 22km/h | 19309m | 2.9m/s | -54.4°C | 4.3% | 0hPa | 2.7V | 00:00:00 | 00:00:00 | 00:00:00 | |
| IW2NTF | 2026-09-05 12:06:51 | 45.76719 | 13.98696 | 105° | 26km/h | 19283m | 3.1m/s | -54.5°C | 4.2% | 0hPa | 2.7V | 08:30:00 | 01:39:36 | 00:00:00 | |
| DO3MHA-12 | 2026-09-05 12:06:51 | 45.76714 | 13.98723 | 137° | 15km/h | 19305m | 4.7m/s | -54.4°C | 4.2% | 0hPa | 2.7V | 00:00:00 | 01:39:41 | 00:00:00 | |
| S52SK | 2026-09-05 12:06:50 | 45.76714 | 13.98723 | 138° | 11km/h | 19305m | 4.7m/s | -54.5°C | 1.3% | 0hPa | 2.6V | 00:00:00 | 00:00:00 | 00:00:00 | |
| IN3HCDX | 2026-09-05 12:06:47 | 45.76717 | 13.98712 | 97° | 16km/h | 19292m | 4.8m/s | -54.5°C | 1.3% | 0hPa | 2.6V | 00:00:00 | 00:00:00 | 00:00:00 | |
| S52SK | 2026-09-05 12:06:46 | 45.76719 | 13.98696 | 107° | 26km/h | 19283m | 3.1m/s | -54.5°C | 1.3% | 0hPa | 2.6V | 00:00:00 | 00:00:00 | 00:00:00 | |
| IV3AMH | 2026-09-05 12:06:45 | 45.76719 | 13.98696 | 107° | 26km/h | 19283m | 3.1m/s | -54.5°C | 1.3% | 0hPa | 2.6V | 00:00:00 | 00:00:00 | 00:00:00 | |
| DO3MHA-12 | 2026-09-05 12:06:41 | 45.76728 | 13.98669 | 124° | 22km/h | 19263m | 4.5m/s | -54.5°C | 4.2% | 0hPa | 2.6V | 00:00:00 | 01:39:31 | 00:00:00 | |
| IW2NTF | 2026-09-05 12:06:38 | 45.76736 | 13.98632 | 97° | 24km/h | 19241m | 3.6m/s | -54.6°C | 4.3% | 0hPa | 2.6V | 08:30:00 | 01:39:26 | 00:00:00 | |
| OE5DRO-10 | 2026-09-05 12:06:35 | 45.76737 | 13.98623 | 99° | 26km/h | 19237m | 4.8m/s | -54.5°C | 4.3% | 0hPa | 2.7V | 00:00:00 | 00:00:00 | 00:00:00 | |
| DO3MHA-12 | 2026-09-05 12:06:31 | 45.76743 | 13.98593 | 116° | 27km/h | 19219m | 3.9m/s | -54.7°C | 4.2% | 0hPa | 2.7V | 00:00:00 | 01:39:21 | 00:00:00 | |
| IW2NTF | 2026-09-05 12:06:30 | 45.76752 | 13.98511 | 94° | 31km/h | 19186m | 5m/s | -54.9°C | 4.4% | 0hPa | 2.7V | 08:30:00 | 01:39:13 | 00:00:00 | |
| IN3HCDX | 2026-09-05 12:06:26 | 45.76749 | 13.98559 | 99° | 37km/h | 19203m | 4.4m/s | -55.1°C | 1.4% | 0hPa | 2.7V | 00:00:00 | 00:00:00 | 00:00:00 | |
| 9A1FER-3 | 2026-09-05 12:06:23 | 45.76753 | 13.98511 | 95° | 27km/h | 19186m | 4.9m/s | -54.9°C | 4.4% | 0hPa | 2.7V | 00:00:00 | 01:39:13 | 00:00:00 | |
| OE5DXL-15 | 2026-09-05 12:06:22 | 45.76753 | 13.98500 | 90° | 26km/h | 19182m | 3.3m/s | -54.9°C | 4.5% | 0hPa | 2.7V | 00:00:00 | 00:00:00 | 00:00:00 | |
| DO3MHA-12 | 2026-09-05 12:06:21 | 45.76752 | 13.98490 | 84° | 27km/h | 19178m | 4.6m/s | -54.8°C | 4.4% | 0hPa | 2.6V | 00:00:00 | 01:39:11 | 08:30:00 | |
| IW2NTF | 2026-09-05 12:06:18 | 45.76752 | 13.98396 | 68° | 22km/h | 19134m | 4.8m/s | -55.1°C | 4.3% | 0hPa | 2.7V | 08:30:00 | 01:39:01 | 00:00:00 | |
| OE5DRO-10 | 2026-09-05 12:06:16 | 45.76750 | 13.98446 | 100° | 24km/h | 19155m | 3.8m/s | -54.9°C | 4.3% | 0hPa | 2.7V | 00:00:00 | 00:00:00 | 00:00:00 | |
| DO3MHA-12 | 2026-09-05 12:06:11 | 45.76753 | 13.98396 | 69° | 24km/h | 19135m | 4.8m/s | -55.0°C | 4.3% | 0hPa | 2.7V | 00:00:00 | 01:39:01 | 00:00:00 | |
| IN3HCDX1 | 2026-09-05 12:06:10 | 45.76752 | 13.98396 | 70° | 22km/h | 19135m | 4.8m/s | -55.1°C | 1.3% | 0hPa | 2.7V | 00:00:00 | 00:00:00 | 00:00:00 | |
| 9A1FER-3 | 2026-09-05 12:06:08 | 45.76747 | 13.98372 | 78° | 24km/h | 19123m | 4.6m/s | -55.2°C | 4.5% | 0hPa | 2.7V | 00:00:00 | 01:38:58 | 00:00:00 | |
| IW2NTF | 2026-09-05 12:06:06 | 45.76749 | 13.98298 | 87° | 18km/h | 19083m | 4.8m/s | -55°C | 4.3% | 0hPa | 2.7V | 08:30:00 | 01:38:49 | 00:00:00 | |
| IN3HCDX | 2026-09-05 12:06:05 | 45.76746 | 13.98358 | 100° | 20km/h | 19114m | 3.7m/s | -55.1°C | 1.4% | 0hPa | 2.7V | 00:00:00 | 00:00:00 | 00:00:00 | |
| DO3MHA-12 | 2026-09-05 12:06:01 | 45.76749 | 13.98311 | 96° | 24km/h | 19091m | 5.0m/s | -54.9°C | 4.3% | 0hPa | 2.7V | 00:00:00 | 01:38:51 | 00:00:00 | |
| OE8JPQ-2 | 2026-09-05 12:05:58 | 45.76749 | 13.98291 | 90° | 26km/h | 19079m | 3.8m/s | -55.0°C | 4.3% | 0hPa | 2.7V | 00:00:00 | 00:00:00 | 00:00:00 | |
| OE5DRO-10 | 2026-09-05 12:05:57 | 45.76749 | 13.98283 | 102° | 26km/h | 19074m | 4.5m/s | -55.0°C | 4.4% | 0hPa | 2.7V | 00:00:00 | 00:00:00 | 00:00:00 | |
| IW2NTF | 2026-09-05 12:05:53 | 45.76769 | 13.98203 | 107° | 22km/h | 19029m | 4.7m/s | -54.9°C | 4.3% | 0hPa | 2.7V | 08:30:00 | 01:38:37 | 00:00:00 | |
| 9A1FER-3 | 2026-09-05 12:05:53 | 45.76761 | 13.98247 | 107° | 26km/h | 19055m | 5.0m/s | -54.6°C | 4.3% | 0hPa | 2.6V | 00:00:00 | 01:38:43 | 00:00:00 | |
| OE5DXL-15 | 2026-09-05 12:05:52 | 45.76762 | 13.98237 | 99° | 31km/h | 19050m | 3.7m/s | -54.6°C | 4.3% | 0hPa | 2.6V | 00:00:00 | 00:00:00 | 00:00:00 | |
| DO3MHA-12 | 2026-09-05 12:05:51 | 45.76763 | 13.98228 | 97° | 26km/h | 19046m | 4.5m/s | -54.7°C | 4.3% | 0hPa | 2.6V | 00:00:00 | 01:38:41 | 00:00:00 | |
| IN3HCDX1 | 2026-09-05 12:05:49 | 45.76764 | 13.98220 | 104° | 18km/h | 19041m | 5.2m/s | -54.8°C | 1.3% | 0hPa | 2.7V | 00:00:00 | 00:00:00 | 00:00:00 | |
| IN3HCDX | 2026-09-05 12:05:45 | 45.76773 | 13.98184 | 112° | 31km/h | 19020m | 4.0m/s | -55.0°C | 1.3% | 0hPa | 2.7V | 00:00:00 | 00:00:00 | 00:00:00 | |
| IW2NTF | 2026-09-05 12:05:42 | 45.76795 | 13.98111 | 124° | 20km/h | 18985m | 3.9m/s | -55°C | 4.3% | 0hPa | 2.7V | 08:30:00 | 01:38:27 | 00:00:00 | |
| DO3MHA-11 | 2026-09-05 12:05:41 | 45.76788 | 13.98144 | 110° | 31km/h | 19002m | 4.9m/s | -54.8°C | 4.1% | 0hPa | 2.6V | 00:00:00 | 01:38:31 | 00:00:00 | |
| 9A1FER-3 | 2026-09-05 12:05:38 | 45.76793 | 13.98117 | 112° | 31km/h | 18990m | 5.3m/s | -55.0°C | 4.2% | 0hPa | 2.6V | 00:00:00 | 01:38:28 | 00:00:00 | |
| DO3MHA-12 | 2026-09-05 12:05:31 | 45.76824 | 13.98040 | 124° | 46km/h | 18959m | 3.9m/s | -55.4°C | 4.4% | 0hPa | 2.6V | 00:00:00 | 01:38:21 | 00:00:00 | |
| IV3AMH | 2026-09-05 12:05:30 | 45.76824 | 13.98040 | 124° | 40km/h | 18959m | 3.9m/s | -55.4°C | 1.4% | 0hPa | 2.6V | 00:00:00 | 00:00:00 | 00:00:00 | |
| IN3HCDX1 | 2026-09-05 12:05:29 | 45.76829 | 13.98029 | 121° | 33km/h | 18955m | 4.4m/s | -55.6°C | 1.4% | 0hPa | 2.6V | 00:00:00 | 00:00:00 | 00:00:00 | |
| IW2NTF | 2026-09-05 12:05:28 | 45.76840 | 13.97979 | 112° | 37km/h | 18934m | 3.4m/s | -56°C | 4.4% | 0hPa | 2.6V | 08:30:00 | 01:38:15 | 00:00:00 | |
| IN3HCDX | 2026-09-05 12:05:24 | 45.76840 | 13.97979 | 114° | 37km/h | 18934m | 3.4m/s | -56.0°C | 1.4% | 0hPa | 2.6V | 00:00:00 | 00:00:00 | 00:00:00 | |
| 9A1FER-3 | 2026-09-05 12:05:23 | 45.76849 | 13.97948 | 110° | 44km/h | 18924m | 5.3m/s | -56.2°C | 4.6% | 0hPa | 2.6V | 00:00:00 | 01:38:13 | 00:00:00 | |
| OE5DXL-15 | 2026-09-05 12:05:22 | 45.76853 | 13.97928 | 110° | 40km/h | 18920m | 3.5m/s | -56.1°C | 4.6% | 0hPa | 2.6V | 00:00:00 | 00:00:00 | 00:00:00 | |
| IW2NTF | 2026-09-05 12:05:20 | 45.76878 | 13.97824 | 94° | 42km/h | 18892m | 3.9m/s | -56.2°C | 4.8% | 0hPa | 2.6V | 08:30:00 | 01:38:05 | 00:00:00 | |
| OE5DRO-10 | 2026-09-05 12:05:19 | 45.76869 | 13.97876 | 118° | 40km/h | 18908m | 4.1m/s | -56.2°C | 4.7% | 0hPa | 2.7V | 00:00:00 | 00:00:00 | 00:00:00 | |
| DO3MHA-12 | 2026-09-05 12:05:18 | 45.76873 | 13.97863 | 112° | 42km/h | 18904m | 4.0m/s | -56.1°C | 4.7% | 0hPa | 2.7V | 00:00:00 | 01:38:08 | 00:00:00 | |
| IN3HCDX1 | 2026-09-05 12:05:09 | 45.76890 | 13.97748 | 101° | 44km/h | 18872m | 4.6m/s | -56.0°C | 1.4% | 0hPa | 2.7V | 00:00:00 | 00:00:00 | 00:00:00 | |
| IW2NTF | 2026-09-05 12:05:08 | 45.76902 | 13.97677 | 108° | 35km/h | 18850m | 3.4m/s | -56°C | 4.6% | 0hPa | 2.7V | 08:30:00 | 01:37:55 | 00:00:00 | |
| 9A1FER-3 | 2026-09-05 12:05:07 | 45.76895 | 13.97702 | 106° | 35km/h | 18859m | 5.0m/s | -55.9°C | 4.5% | 0hPa | 2.6V | 00:00:00 | 01:37:57 | 00:00:00 | |
| IN3HCDX | 2026-09-05 12:05:04 | 45.76901 | 13.97677 | 110° | 35km/h | 18851m | 3.4m/s | -56.0°C | 1.4% | 0hPa | 2.7V | 00:00:00 | 00:00:00 | 00:00:00 | |
| IW2NTF | 2026-09-05 12:05:00 | 45.76914 | 13.97550 | 109° | 31km/h | 18807m | 4.7m/s | 0°C | 0% | 0hPa | 2.7V | 08:30:00 | 01:37:45 | 00:00:00 | |
| OE5DRO-10 | 2026-09-05 12:05:00 | 45.76908 | 13.97613 | 99° | 31km/h | 18829m | 3.9m/s | -55.8°C | 4.6% | 0hPa | 2.6V | 00:00:00 | 00:00:00 | 00:00:00 | |
| DO3MHA-12 | 2026-09-05 12:04:58 | 45.76910 | 13.97587 | 94° | 35km/h | 18820m | 4.7m/s | -55.8°C | 4.7% | 0hPa | 2.6V | 00:00:00 | 01:37:48 | 00:00:00 | |
| S52SK | 2026-09-05 12:04:54 | 45.76917 | 13.97540 | 111° | 31km/h | 18803m | 3.4m/s | -55.8°C | 1.5% | 0hPa | 2.6V | 00:00:00 | 00:00:00 | 00:00:00 | |
| IV3AMH | 2026-09-05 12:04:53 | 45.76917 | 13.97540 | 111° | 31km/h | 18803m | 3.4m/s | -55.8°C | 1.5% | 0hPa | 2.6V | 00:00:00 | 00:00:00 | 00:00:00 | |
| 9A1FER-3 | 2026-09-05 12:04:52 | 45.76920 | 13.97516 | 91° | 29km/h | 18794m | 4.7m/s | -55.6°C | 4.5% | 0hPa | 2.6V | 00:00:00 | 01:37:42 | 00:00:00 | |
| IN3HCDX1 | 2026-09-05 12:04:50 | 45.76918 | 13.97490 | 85° | 37km/h | 18786m | 4.1m/s | -55.9°C | 1.4% | 0hPa | 2.6V | 00:00:00 | 00:00:00 | 00:00:00 | |
| IW2NTF | 2026-09-05 12:04:48 | 45.76920 | 13.97438 | 88° | 27km/h | 18763m | 4m/s | 0°C | 0% | 0hPa | 2.6V | 08:30:00 | 01:37:35 | 00:00:00 | |
| S52SK | 2026-09-05 12:04:42 | 45.76920 | 13.97418 | 90° | 27km/h | 18754m | 5.2m/s | -55.8°C | 1.4% | 0hPa | 2.6V | 00:00:00 | 00:00:00 | 00:00:00 | |
| OE5DRO-10 | 2026-09-05 12:04:41 | 45.76920 | 13.97399 | 85° | 24km/h | 18745m | 3.9m/s | -55.6°C | 4.6% | 0hPa | 2.6V | 00:00:00 | 00:00:00 | 08:30:00 | |
| DO3MHA-12 | 2026-09-05 12:04:38 | 45.76914 | 13.97370 | 70° | 24km/h | 18732m | 4.0m/s | -55.7°C | 4.6% | 0hPa | 2.7V | 00:00:00 | 01:37:28 | 00:00:00 | |
| IW2NTF | 2026-09-05 12:04:37 | 45.76910 | 13.97348 | 84° | 18km/h | 18718m | 4.5m/s | 0°C | 0% | 0hPa | 2.7V | 08:30:00 | 01:37:25 | 00:00:00 | |
| IW2NTF | 2026-09-05 12:04:31 | 45.76892 | 13.97260 | 83° | 18km/h | 18674m | 5.5m/s | 0°C | 0% | 0hPa | 2.7V | 08:30:00 | 01:37:15 | 00:00:00 | |
| IN3HCDX1 | 2026-09-05 12:04:30 | 45.76905 | 13.97305 | 75° | 26km/h | 18696m | 4.0m/s | -56.2°C | 1.5% | 0hPa | 2.6V | 00:00:00 | 00:00:00 | 00:00:00 | |
| DO3MHA-11 | 2026-09-05 12:04:28 | 45.76899 | 13.97286 | 64° | 27km/h | 18686m | 4.6m/s | -56.2°C | 4.5% | 0hPa | 2.6V | 00:00:00 | 01:37:18 | 08:30:00 | |
| IN3HCDX | 2026-09-05 12:04:23 | 45.76892 | 13.97254 | 100° | 16km/h | 18669m | 4.2m/s | -55.9°C | 1.4% | 0hPa | 2.6V | 00:00:00 | 00:00:00 | 00:00:00 | |
| OE5DXL-15 | 2026-09-05 12:04:22 | 45.76893 | 13.97238 | 93° | 35km/h | 18660m | 4.3m/s | -55.8°C | 4.5% | 0hPa | 2.6V | 00:00:00 | 00:00:00 | 00:00:00 | |
| 9A1FER-3 | 2026-09-05 12:04:21 | 45.76893 | 13.97226 | 88° | 31km/h | 18656m | 3.6m/s | -55.9°C | 4.5% | 0hPa | 2.6V | 00:00:00 | 01:37:11 | 08:30:00 | |
| IW2NTF | 2026-09-05 12:04:20 | 45.76894 | 13.97139 | 102° | 26km/h | 18619m | 5.8m/s | 0°C | 0% | 0hPa | 2.6V | 08:30:00 | 01:37:03 | 00:00:00 | |
| DO3MHA-11 | 2026-09-05 12:04:18 | 45.76892 | 13.97191 | 88° | 31km/h | 18642m | 4.2m/s | -56.2°C | 4.6% | 0hPa | 2.6V | 00:00:00 | 01:37:08 | 00:00:00 | |
| IV3AMH | 2026-09-05 12:04:15 | 45.76892 | 13.97171 | 92° | 29km/h | 18633m | 5.3m/s | -56.3°C | 1.5% | 0hPa | 2.6V | 00:00:00 | 00:00:00 | 00:00:00 | |
| DO3MHA-11 | 2026-09-05 12:04:08 | 45.76904 | 13.97081 | 104° | 37km/h | 18597m | 4.5m/s | -56.8°C | 4.8% | 0hPa | 2.6V | 00:00:00 | 01:36:58 | 00:00:00 | |
| IW2NTF | 2026-09-05 12:04:08 | 45.76918 | 13.96989 | 104° | 37km/h | 18565m | 4.8m/s | 0°C | 0% | 0hPa | 2.7V | 08:30:00 | 01:36:51 | 00:00:00 | |
| 9A1FER-3 | 2026-09-05 12:04:06 | 45.76909 | 13.97055 | 105° | 38km/h | 18587m | 3.7m/s | -56.6°C | 4.7% | 0hPa | 2.6V | 00:00:00 | 01:36:56 | 00:00:00 | |
| OE5DRO-10 | 2026-09-05 12:04:03 | 45.76914 | 13.97016 | 99° | 42km/h | 18574m | 3.8m/s | -56.7°C | 4.7% | 0hPa | 2.6V | 00:00:00 | 00:00:00 | 00:00:00 | |
| IN3HCDX | 2026-09-05 12:04:01 | 45.76916 | 13.97002 | 102° | 38km/h | 18570m | 4.1m/s | -56.7°C | 1.5% | 0hPa | 2.6V | 00:00:00 | 00:00:00 | 00:00:00 | |
| DO3MHA-12 | 2026-09-05 12:03:58 | 45.76925 | 13.96952 | 105° | 42km/h | 18552m | 5.1m/s | -56.6°C | 4.8% | 0hPa | 2.6V | 00:00:00 | 01:36:48 | 00:00:00 | |
| IW2NTF | 2026-09-05 12:03:54 | 45.76954 | 13.96854 | 112° | 44km/h | 18519m | 4.4m/s | 0°C | 0% | 0hPa | 2.6V | 08:30:00 | 01:36:41 | 00:00:00 | |
| OE5DXL-15 | 2026-09-05 12:03:52 | 45.76949 | 13.96868 | 118° | 47km/h | 18525m | 5.1m/s | -56.8°C | 4.9% | 0hPa | 2.7V | 00:00:00 | 00:00:00 | 00:00:00 | |
| 9A1FER-3 | 2026-09-05 12:03:51 | 45.76954 | 13.96853 | 113° | 46km/h | 18520m | 4.4m/s | -56.8°C | 4.8% | 0hPa | 2.7V | 00:00:00 | 01:36:41 | 00:00:00 | |
| DO3MHA-12 | 2026-09-05 12:03:48 | 45.76967 | 13.96811 | 120° | 46km/h | 18507m | 5.1m/s | -57.0°C | 4.8% | 0hPa | 2.7V | 00:00:00 | 01:36:38 | 00:00:00 | |
| IN3HCDX1 | 2026-09-05 12:03:47 | 45.76967 | 13.96811 | 120° | 40km/h | 18507m | 5.1m/s | -57.0°C | 1.5% | 0hPa | 2.7V | 00:00:00 | 00:00:00 | 00:00:00 | |
| IW2NTF | 2026-09-05 12:03:46 | 45.77005 | 13.96708 | 121° | 46km/h | 18473m | 4.8m/s | 0°C | 0% | 0hPa | 2.7V | 08:30:00 | 01:36:31 | 00:00:00 | |
| OE5DRO-10 | 2026-09-05 12:03:44 | 45.76988 | 13.96753 | 115° | 49km/h | 18488m | 4.3m/s | -57.1°C | 4.9% | 0hPa | 2.6V | 00:00:00 | 00:00:00 | 00:00:00 | |
| IN3HCDX | 2026-09-05 12:03:41 | 45.77005 | 13.96708 | 122° | 46km/h | 18474m | 4.8m/s | -57.0°C | 1.6% | 0hPa | 2.7V | 00:00:00 | 00:00:00 | 00:00:00 | |
| IV3AMH | 2026-09-05 12:03:39 | 45.77017 | 13.96680 | 124° | 46km/h | 18464m | 3.8m/s | -57.0°C | 1.7% | 0hPa | 2.7V | 00:00:00 | 00:00:00 | 00:00:00 | |
| DO3MHA-12 | 2026-09-05 12:03:38 | 45.77023 | 13.96666 | 127° | 49km/h | 18460m | 5.4m/s | -56.9°C | 4.9% | 0hPa | 2.7V | 00:00:00 | 01:36:28 | 00:00:00 | |
| 9A1FER-3 | 2026-09-05 12:03:36 | 45.77038 | 13.96638 | 123° | 49km/h | 18451m | 3.8m/s | -57.0°C | 4.9% | 0hPa | 2.7V | 00:00:00 | 01:36:26 | 00:00:00 | |
| IW2NTF | 2026-09-05 12:03:34 | 45.77065 | 13.96557 | 127° | 46km/h | 18429m | 4.7m/s | 0°C | 0% | 0hPa | 2.7V | 08:30:00 | 01:36:21 | 00:00:00 | |
| DO3MHA-11 | 2026-09-05 12:03:28 | 45.77088 | 13.96518 | 127° | 51km/h | 18416m | 4.4m/s | -57.2°C | 4.9% | 0hPa | 2.6V | 00:00:00 | 01:36:18 | 00:00:00 | |
| IN3HCDX1 | 2026-09-05 12:03:26 | 45.77096 | 13.96502 | 123° | 53km/h | 18412m | 4.2m/s | -57.2°C | 1.6% | 0hPa | 2.6V | 00:00:00 | 00:00:00 | 00:00:00 | |
| IW2NTF | 2026-09-05 12:03:25 | 45.77145 | 13.96370 | 115° | 49km/h | 18375m | 5.3m/s | 0°C | 0% | 0hPa | 2.6V | 08:30:00 | 01:36:09 | 00:00:00 | |
| OE5DRO-10 | 2026-09-05 12:03:25 | 45.77109 | 13.96470 | 121° | 49km/h | 18403m | 5.0m/s | -57.1°C | 4.9% | 0hPa | 2.6V | 00:00:00 | 00:00:00 | 00:00:00 | |
| OE5DXL-15 | 2026-09-05 12:03:22 | 45.77128 | 13.96422 | 116° | 49km/h | 18389m | 5.4m/s | -57.3°C | 4.9% | 0hPa | 2.6V | 00:00:00 | 01:36:12 | 08:30:00 | |
| IN3HCDX | 2026-09-05 12:03:19 | 45.77139 | 13.96386 | 114° | 55km/h | 18380m | 3.5m/s | -57.3°C | 1.6% | 0hPa | 2.7V | 00:00:00 | 00:00:00 | 00:00:00 | |
| DO3MHA-12 | 2026-09-05 12:03:17 | 45.77155 | 13.96341 | 116° | 49km/h | 18366m | 3.5m/s | -57.4°C | 5.0% | 0hPa | 2.7V | 00:00:00 | 01:36:07 | 08:30:00 | |
| IW2NTF | 2026-09-05 12:03:14 | 45.77182 | 13.96207 | 105° | 57km/h | 18329m | 5.1m/s | 0°C | 0% | 0hPa | 2.6V | 00:00:00 | 01:35:59 | 00:00:00 | |
| S52SK | 2026-09-05 12:03:10 | 45.77173 | 13.96244 | 110° | 51km/h | 18339m | 3.8m/s | -57.6°C | 1.7% | 0hPa | 2.7V | 00:00:00 | 00:00:00 | 00:00:00 | |
| DO3MHA-11 | 2026-09-05 12:03:09 | 45.77186 | 13.96187 | 105° | 51km/h | 18325m | 3.8m/s | -57.7°C | 5.0% | 0hPa | 2.7V | 00:00:00 | 01:35:58 | 00:00:00 | |
| DO3MHA-12 | 2026-09-05 12:03:07 | 45.77189 | 13.96168 | 107° | 51km/h | 18321m | 4.5m/s | -57.6°C | 5.0% | 0hPa | 2.7V | 00:00:00 | 01:35:57 | 00:00:00 | |
| 9A1FER-3 | 2026-09-05 12:03:06 | 45.77193 | 13.96150 | 109° | 51km/h | 18316m | 4.7m/s | -57.6°C | 5.0% | 0hPa | 2.7V | 00:00:00 | 01:35:56 | 00:00:00 | |
| S52SK | 2026-09-05 12:03:05 | 45.77197 | 13.96134 | 109° | 46km/h | 18312m | 3.2m/s | -57.6°C | 1.7% | 0hPa | 2.7V | 00:00:00 | 00:00:00 | 00:00:00 | |
| IW2NTF | 2026-09-05 12:03:04 | 45.77208 | 13.96024 | 106° | 55km/h | 18285m | 4.3m/s | 0°C | 0% | 0hPa | 2.7V | 00:00:00 | 01:35:49 | 00:00:00 | |
| IV3AMH | 2026-09-05 12:03:01 | 45.77203 | 13.96082 | 93° | 53km/h | 18298m | 4.6m/s | -57.7°C | 1.7% | 0hPa | 2.6V | 00:00:00 | 00:00:00 | 00:00:00 | |
| S52SK | 2026-09-05 12:02:59 | 45.77205 | 13.96043 | 101° | 55km/h | 18290m | 5.2m/s | -57.8°C | 1.7% | 0hPa | 2.6V | 00:00:00 | 00:00:00 | 00:00:00 | |
| DO3MHA-11 | 2026-09-05 12:02:58 | 45.77212 | 13.96005 | 108° | 53km/h | 18281m | 3.5m/s | -57.8°C | 5.0% | 0hPa | 2.6V | 00:00:00 | 01:35:48 | 08:30:00 | |
| DO3MHA-12 | 2026-09-05 12:02:57 | 45.77216 | 13.95987 | 103° | 53km/h | 18277m | 5.0m/s | -57.9°C | 5.0% | 0hPa | 2.7V | 00:00:00 | 01:35:47 | 00:00:00 | |
| IW2NTF | 2026-09-05 12:02:54 | 45.77221 | 13.95838 | 93° | 58km/h | 18239m | 4.4m/s | 0°C | 0% | 0hPa | 2.7V | 00:00:00 | 01:35:39 | 00:00:00 | |
| OE5DXL-15 | 2026-09-05 12:02:52 | 45.77220 | 13.95899 | 94° | 44km/h | 18254m | 4.0m/s | -58.3°C | 5.2% | 0hPa | 2.6V | 00:00:00 | 00:00:00 | 00:00:00 | |
| 9A1FER-3 | 2026-09-05 12:02:51 | 45.77220 | 13.95880 | 92° | 47km/h | 18249m | 5.6m/s | -58.5°C | 5.3% | 0hPa | 2.6V | 00:00:00 | 01:35:41 | 00:00:00 | |
| DO3MHA-11 | 2026-09-05 12:02:48 | 45.77223 | 13.95818 | 97° | 46km/h | 18235m | 5.0m/s | -58.4°C | 5.3% | 0hPa | 2.7V | 00:00:00 | 01:35:38 | 00:00:00 | |
| DO3MHA-12 | 2026-09-05 12:02:47 | 45.77224 | 13.95799 | 96° | 46km/h | 18230m | 3.6m/s | -58.5°C | 5.3% | 0hPa | 2.7V | 00:00:00 | 01:35:37 | 00:00:00 | |
| IW2NTF | 2026-09-05 12:02:44 | 45.77220 | 13.95671 | 89° | 46km/h | 18193m | 4.4m/s | 0°C | 0% | 0hPa | 2.6V | 00:00:00 | 01:35:29 | 00:00:00 | |
| IN3HCDX | 2026-09-05 12:02:38 | 45.77220 | 13.95654 | 94° | 44km/h | 18188m | 4.4m/s | -58.7°C | 1.8% | 0hPa | 2.6V | 00:00:00 | 00:00:00 | 00:00:00 | |
| DO3MHA-12 | 2026-09-05 12:02:37 | 45.77221 | 13.95639 | 97° | 40km/h | 18184m | 4.9m/s | -58.5°C | 5.2% | 0hPa | 2.6V | 00:00:00 | 01:35:27 | 00:00:00 | |
| 9A1FER-3 | 2026-09-05 12:02:36 | 45.77222 | 13.95624 | 97° | 37km/h | 18179m | 3.7m/s | -58.6°C | 5.2% | 0hPa | 2.6V | 00:00:00 | 01:35:26 | 00:00:00 | |
| DO3MHA-11 | 2026-09-05 12:02:28 | 45.77221 | 13.95511 | 98° | 33km/h | 18143m | 4.8m/s | -59.1°C | 5.5% | 0hPa | 2.6V | 00:00:00 | 01:35:18 | 00:00:00 | |
| DO3MHA-12 | 2026-09-05 12:02:27 | 45.77222 | 13.95497 | 93° | 31km/h | 18139m | 3.8m/s | -59.2°C | 5.6% | 0hPa | 2.6V | 00:00:00 | 01:35:17 | 00:00:00 | |
| IV3AMH | 2026-09-05 12:02:25 | 45.77222 | 13.95470 | 89° | 33km/h | 18130m | 4.9m/s | -59.3°C | 2.0% | 0hPa | 2.6V | 00:00:00 | 00:00:00 | 00:00:00 | |
| IN3HCDX1 | 2026-09-05 12:02:23 | 45.77222 | 13.95459 | 84° | 29km/h | 18126m | 4.3m/s | -59.2°C | 2.0% | 0hPa | 2.6V | 00:00:00 | 00:00:00 | 00:00:00 | |
| OE5DXL-15 | 2026-09-05 12:02:22 | 45.77218 | 13.95440 | 66° | 31km/h | 18116m | 5.3m/s | -59.3°C | 5.7% | 0hPa | 2.6V | 00:00:00 | 00:00:00 | 00:00:00 | |
| 9A1FER-3 | 2026-09-05 12:02:21 | 45.77214 | 13.95429 | 68° | 29km/h | 18112m | 3.8m/s | -59.3°C | 5.7% | 0hPa | 2.6V | 00:00:00 | 01:35:11 | 00:00:00 | |
| DO3MHA-11 | 2026-09-05 12:02:18 | 45.77212 | 13.95398 | 106° | 27km/h | 18099m | 3.6m/s | -59.4°C | 5.7% | 0hPa | 2.6V | 00:00:00 | 01:35:08 | 00:00:00 | |
| DO3MHA-12 | 2026-09-05 12:02:17 | 45.77214 | 13.95388 | 106° | 27km/h | 18095m | 3.8m/s | -59.5°C | 5.8% | 0hPa | 2.6V | 00:00:00 | 01:35:07 | 00:00:00 | |
| IN3HCDX | 2026-09-05 12:02:16 | 45.77214 | 13.95388 | 107° | 29km/h | 18095m | 3.9m/s | -59.5°C | 2.0% | 0hPa | 2.7V | 00:00:00 | 00:00:00 | 00:00:00 | |
| OE5DRO-10 | 2026-09-05 12:02:09 | 45.77218 | 13.95312 | 98° | 33km/h | 18060m | 5.7m/s | -59.2°C | 5.6% | 0hPa | 2.7V | 00:00:00 | 00:00:00 | 00:00:00 | |
| DO3MHA-11 | 2026-09-05 12:02:08 | 45.77219 | 13.95299 | 96° | 33km/h | 18055m | 4.2m/s | -59.2°C | 5.6% | 0hPa | 2.7V | 00:00:00 | 01:34:58 | 00:00:00 | |
| DO3MHA-12 | 2026-09-05 12:02:07 | 45.77219 | 13.95286 | 97° | 33km/h | 18051m | 4.7m/s | -59.0°C | 5.5% | 0hPa | 2.7V | 00:00:00 | 01:34:57 | 00:00:00 | |
| 9A1FER-3 | 2026-09-05 12:02:06 | 45.77221 | 13.95273 | 99° | 33km/h | 18046m | 4.9m/s | -59.0°C | 5.6% | 0hPa | 2.7V | 00:00:00 | 01:34:56 | 08:30:00 | |
| IN3HCDX1 | 2026-09-05 12:02:03 | 45.77225 | 13.95239 | 103° | 33km/h | 18032m | 5.3m/s | -59.1°C | 1.9% | 0hPa | 2.6V | 00:00:00 | 00:00:00 | 00:00:00 | |
| OE8JPQ-2 | 2026-09-05 12:01:58 | 45.77240 | 13.95186 | 102° | 38km/h | 18009m | 5.2m/s | -59.1°C | 5.5% | 0hPa | 2.6V | 00:00:00 | 00:00:00 | 00:00:00 | |
| DO3MHA-12 | 2026-09-05 12:01:57 | 45.77241 | 13.95173 | 92° | 35km/h | 18005m | 4.1m/s | -59.1°C | 5.5% | 0hPa | 2.6V | 00:00:00 | 01:34:47 | 00:00:00 | |
| IN3HCDX | 2026-09-05 12:01:56 | 45.77242 | 13.95160 | 92° | 37km/h | 18001m | 3.6m/s | -59.2°C | 1.9% | 0hPa | 2.6V | 00:00:00 | 00:00:00 | 00:00:00 | |
| OE5DXL-15 | 2026-09-05 12:01:52 | 45.77250 | 13.95117 | 115° | 46km/h | 17983m | 4.3m/s | -59.3°C | 5.4% | 0hPa | 2.6V | 00:00:00 | 00:00:00 | 00:00:00 | |
| 9A1FER-3 | 2026-09-05 12:01:51 | 45.77253 | 13.95106 | 109° | 40km/h | 17978m | 5.0m/s | -59.3°C | 5.5% | 0hPa | 2.7V | 00:00:00 | 01:34:41 | 00:00:00 | |
| OE5DRO-10 | 2026-09-05 12:01:50 | 45.77256 | 13.95093 | 106° | 44km/h | 17973m | 4.1m/s | -59.3°C | 5.4% | 0hPa | 2.7V | 00:00:00 | 00:00:00 | 08:30:00 | |
| DO3MHA-12 | 2026-09-05 12:01:47 | 45.77266 | 13.95052 | 114° | 42km/h | 17959m | 4.5m/s | -59.1°C | 5.5% | 0hPa | 2.6V | 00:00:00 | 01:34:37 | 08:30:00 | |
| IN3HCDX1 | 2026-09-05 12:01:42 | 45.77276 | 13.94995 | 103° | 46km/h | 17940m | 5.1m/s | -59.4°C | 2.0% | 0hPa | 2.6V | 00:00:00 | 00:00:00 | 00:00:00 | |
| OE8JPQ-2 | 2026-09-05 12:01:38 | 45.77294 | 13.94922 | 104° | 49km/h | 17914m | 4.4m/s | -59.8°C | 5.8% | 0hPa | 2.6V | 00:00:00 | 01:34:28 | 00:00:00 | |
| DO3MHA-12 | 2026-09-05 12:01:37 | 45.77296 | 13.94909 | 105° | 49km/h | 17910m | 4.0m/s | -60.0°C | 5.8% | 0hPa | 2.6V | 00:00:00 | 01:34:27 | 00:00:00 | |
| 9A1FER-3 | 2026-09-05 12:01:36 | 45.77299 | 13.94895 | 110° | 53km/h | 17906m | 4.7m/s | -60.1°C | 5.9% | 0hPa | 2.6V | 00:00:00 | 01:34:26 | 00:00:00 | |
| IN3HCDX | 2026-09-05 12:01:35 | 45.77303 | 13.94880 | 115° | 47km/h | 17901m | 4.5m/s | -60.2°C | 2.1% | 0hPa | 2.6V | 00:00:00 | 00:00:00 | 00:00:00 | |
| OE5DRO-10 | 2026-09-05 12:01:31 | 45.77318 | 13.94810 | 97° | 53km/h | 17882m | 4.0m/s | -60.1°C | 6.0% | 0hPa | 2.6V | 00:00:00 | 00:00:00 | 00:00:00 | |
| DO3MHA-12 | 2026-09-05 12:01:27 | 45.77332 | 13.94737 | 113° | 53km/h | 17865m | 3.3m/s | -60.0°C | 5.8% | 0hPa | 2.6V | 00:00:00 | 01:34:17 | 00:00:00 | |
| OE5DXL-15 | 2026-09-05 12:01:22 | 45.77349 | 13.94640 | 101° | 55km/h | 17841m | 4.2m/s | -60.0°C | 6.0% | 0hPa | 2.6V | 00:00:00 | 00:00:00 | 00:00:00 | |
| 9A1FER-3 | 2026-09-05 12:01:21 | 45.77351 | 13.94623 | 101° | 53km/h | 17838m | 3.4m/s | -59.8°C | 6.0% | 0hPa | 2.6V | 00:00:00 | 01:34:11 | 00:00:00 | |
| OE8JPQ-2 | 2026-09-05 12:01:18 | 45.77356 | 13.94570 | 100° | 55km/h | 17824m | 4.0m/s | -59.8°C | 5.9% | 0hPa | 2.6V | 00:00:00 | 00:00:00 | 08:30:00 | |
| IW2NTF | 2026-09-05 12:01:17 | 45.77367 | 13.94512 | 108° | 55km/h | 17811m | 3.9m/s | 0°C | 0% | 0hPa | 2.7V | 00:00:00 | 01:34:05 | 00:00:00 | |
| DO3MHA-11 | 2026-09-05 12:01:17 | 45.77359 | 13.94550 | 104° | 53km/h | 17820m | 4.3m/s | -59.8°C | 5.9% | 0hPa | 2.6V | 00:00:00 | 01:34:07 | 00:00:00 | |
| S52SK | 2026-09-05 12:01:15 | 45.77363 | 13.94531 | 108° | 55km/h | 17816m | 4.8m/s | -59.9°C | 2.1% | 0hPa | 2.6V | 00:00:00 | 00:00:00 | 00:00:00 | |
| IN3HCDX | 2026-09-05 12:01:13 | 45.77371 | 13.94493 | 107° | 55km/h | 17807m | 5.1m/s | -59.9°C | 2.1% | 0hPa | 2.6V | 00:00:00 | 00:00:00 | 00:00:00 | |
| OE5DRO-10 | 2026-09-05 12:01:12 | 45.77377 | 13.94454 | 100° | 57km/h | 17797m | 4.5m/s | -59.8°C | 5.8% | 0hPa | 2.6V | 00:00:00 | 00:00:00 | 00:00:00 | |
| IW2NTF | 2026-09-05 12:01:10 | 45.77400 | 13.94320 | 114° | 58km/h | 17766m | 4.3m/s | 0°C | 0% | 0hPa | 2.6V | 00:00:00 | 01:33:55 | 00:00:00 | |
| IV3AMH | 2026-09-05 12:01:09 | 45.77382 | 13.94418 | 101° | 49km/h | 17788m | 3.4m/s | -59.7°C | 2.1% | 0hPa | 2.6V | 00:00:00 | 00:00:00 | 00:00:00 | |
| DO3MHA-12 | 2026-09-05 12:01:07 | 45.77390 | 13.94360 | 106° | 57km/h | 17775m | 3.5m/s | -59.8°C | 5.7% | 0hPa | 2.6V | 00:00:00 | 01:33:57 | 00:00:00 | |
| 9A1FER-3 | 2026-09-05 12:01:06 | 45.77394 | 13.94340 | 110° | 57km/h | 17771m | 4.9m/s | -59.8°C | 5.8% | 0hPa | 2.6V | 00:00:00 | 01:33:56 | 00:00:00 | |
| IN3HCDX1 | 2026-09-05 12:01:00 | 45.77417 | 13.94241 | 99° | 57km/h | 17749m | 3.7m/s | -59.8°C | 2.1% | 0hPa | 2.6V | 00:00:00 | 00:00:00 | 00:00:00 | |
| OE8JPQ-2 | 2026-09-05 12:00:58 | 45.77425 | 13.94185 | 108° | 55km/h | 17736m | 3.6m/s | -60.0°C | 5.8% | 0hPa | 2.6V | 00:00:00 | 00:00:00 | 00:00:00 | |
| DO3MHA-12 | 2026-09-05 12:00:57 | 45.77430 | 13.94166 | 110° | 55km/h | 17732m | 5.1m/s | -60.1°C | 5.8% | 0hPa | 2.6V | 00:00:00 | 01:33:47 | 00:00:00 | |
| IW2NTF | 2026-09-05 12:00:55 | 45.77451 | 13.94084 | 108° | 53km/h | 17713m | 4.3m/s | 0°C | 0% | 0hPa | 2.6V | 00:00:00 | 01:33:43 | 00:00:00 | |
| IN3HCDX | 2026-09-05 12:00:53 | 45.77451 | 13.94084 | 110° | 53km/h | 17714m | 4.3m/s | -60.2°C | 2.2% | 0hPa | 2.7V | 00:00:00 | 00:00:00 | 00:00:00 | |
| OE5DXL-15 | 2026-09-05 12:00:52 | 45.77454 | 13.94066 | 106° | 51km/h | 17709m | 4.6m/s | -60.3°C | 6.0% | 0hPa | 2.7V | 00:00:00 | 00:00:00 | 00:00:00 | |
| 9A1FER-3 | 2026-09-05 12:00:51 | 45.77457 | 13.94048 | 103° | 51km/h | 17704m | 4.8m/s | -60.3°C | 6.0% | 0hPa | 2.7V | 00:00:00 | 01:33:41 | 00:00:00 | |
| DO3MHA-11 | 2026-09-05 12:00:47 | 45.77474 | 13.93977 | 117° | 55km/h | 17687m | 3.5m/s | -60.6°C | 6.1% | 0hPa | 2.7V | 00:00:00 | 01:33:37 | 00:00:00 | |
| IW2NTF | 2026-09-05 12:00:45 | 45.77509 | 13.93826 | 107° | 44km/h | 17650m | 4m/s | 0°C | 0% | 0hPa | 2.7V | 00:00:00 | 01:33:29 | 00:00:00 | |
| IN3HCDX1 | 2026-09-05 12:00:40 | 45.77506 | 13.93842 | 106° | 46km/h | 17655m | 5.2m/s | -60.7°C | 2.2% | 0hPa | 2.6V | 00:00:00 | 00:00:00 | 00:00:00 | |
| OE8JPQ-2 | 2026-09-05 12:00:38 | 45.77512 | 13.93811 | 109° | 47km/h | 17646m | 4.8m/s | -60.6°C | 6.3% | 0hPa | 2.6V | 00:00:00 | 01:33:28 | 00:00:00 | |
| DO3MHA-11 | 2026-09-05 12:00:37 | 45.77516 | 13.93797 | 108° | 46km/h | 17641m | 4.9m/s | -60.7°C | 6.4% | 0hPa | 2.6V | 00:00:00 | 01:33:27 | 00:00:00 | |
| 9A1FER-3 | 2026-09-05 12:00:36 | 45.77519 | 13.93783 | 106° | 47km/h | 17637m | 3.4m/s | -60.5°C | 6.3% | 0hPa | 2.6V | 00:00:00 | 01:33:26 | 00:00:00 | |
| OE5DRO-10 | 2026-09-05 12:00:34 | 45.77524 | 13.93747 | 100° | 47km/h | 17628m | 4.7m/s | -60.5°C | 6.4% | 0hPa | 2.6V | 00:00:00 | 00:00:00 | 00:00:00 | |
| IN3HCDX | 2026-09-05 12:00:32 | 45.77526 | 13.93727 | 97° | 58km/h | 17624m | 3.2m/s | -60.5°C | 2.3% | 0hPa | 2.6V | 00:00:00 | 00:00:00 | 00:00:00 | |
| IV3AMH | 2026-09-05 12:00:31 | 45.77527 | 13.93706 | 94° | 55km/h | 17620m | 4.4m/s | -60.6°C | 2.4% | 0hPa | 2.6V | 00:00:00 | 00:00:00 | 00:00:00 | |
| DO3MHA-12 | 2026-09-05 12:00:27 | 45.77535 | 13.93628 | 105° | 47km/h | 17598m | 4.2m/s | -60.7°C | 6.3% | 0hPa | 2.6V | 00:00:00 | 01:33:17 | 00:00:00 | |
| OE5DXL-15 | 2026-09-05 12:00:22 | 45.77544 | 13.93540 | 98° | 46km/h | 17575m | 5.2m/s | -60.5°C | 6.2% | 0hPa | 2.6V | 00:00:00 | 00:00:00 | 00:00:00 | |
| 9A1FER-3 | 2026-09-05 12:00:21 | 45.77546 | 13.93523 | 102° | 46km/h | 17571m | 4.5m/s | -60.4°C | 6.1% | 0hPa | 2.7V | 00:00:00 | 01:33:11 | 00:00:00 | |
| DO3MHA-12 | 2026-09-05 12:00:19 | 45.77552 | 13.93458 | 93° | 46km/h | 17554m | 3.7m/s | -60.2°C | 6.2% | 0hPa | 2.7V | 00:00:00 | 01:33:07 | 08:30:00 | |
| OE5DRO-10 | 2026-09-05 12:00:15 | 45.77554 | 13.93425 | 100° | 46km/h | 17544m | 4.9m/s | -60.1°C | 6.3% | 0hPa | 2.7V | 00:00:00 | 00:00:00 | 00:00:00 | |
| IN3HCDX | 2026-09-05 12:00:12 | 45.77558 | 13.93373 | 94° | 46km/h | 17530m | 3.4m/s | -60.1°C | 2.3% | 0hPa | 2.7V | 00:00:00 | 00:00:00 | 00:00:00 | |
| DO3MHA-12 | 2026-09-05 12:00:07 | 45.77558 | 13.93293 | 87° | 46km/h | 17508m | 3.3m/s | -60.0°C | 6.1% | 0hPa | 2.7V | 00:00:00 | 01:32:57 | 00:00:00 | |
| DO3MHA-11 | 2026-09-05 12:00:06 | 45.77558 | 13.93277 | 94° | 46km/h | 17504m | 4.9m/s | -60.1°C | 6.1% | 0hPa | 2.7V | 00:00:00 | 01:32:56 | 00:00:00 | |
| OE8JPQ-2 | 2026-09-05 11:59:58 | 45.77565 | 13.93144 | 90° | 44km/h | 17469m | 4.1m/s | -59.8°C | 6.0% | 0hPa | 2.7V | 00:00:00 | 00:00:00 | 00:00:00 | |
| DO3MHA-12 | 2026-09-05 11:59:57 | 45.77565 | 13.93128 | 89° | 44km/h | 17465m | 3.7m/s | -59.9°C | 6.0% | 0hPa | 2.7V | 00:00:00 | 01:32:47 | 00:00:00 | |
| DO3MHA-11 | 2026-09-05 11:59:56 | 45.77564 | 13.93111 | 86° | 44km/h | 17461m | 5.0m/s | -59.9°C | 6.1% | 0hPa | 2.7V | 00:00:00 | 01:32:46 | 08:30:00 | |
| IV3AMH | 2026-09-05 11:59:54 | 45.77563 | 13.93095 | 83° | 47km/h | 17456m | 3.9m/s | -59.9°C | 2.4% | 0hPa | 2.6V | 00:00:00 | 00:00:00 | 00:00:00 | |
| OE5DXL-15 | 2026-09-05 11:59:52 | 45.77561 | 13.93043 | 95° | 42km/h | 17443m | 4.2m/s | -59.7°C | 6.0% | 0hPa | 2.6V | 00:00:00 | 00:00:00 | 00:00:00 | |
| 9A1FER-3 | 2026-09-05 11:59:51 | 45.77562 | 13.93026 | 94° | 42km/h | 17439m | 3.5m/s | -59.7°C | 5.9% | 0hPa | 2.6V | 00:00:00 | 01:32:41 | 08:30:00 | |
| IN3HCDX | 2026-09-05 11:59:50 | 45.77562 | 13.93026 | 94° | 46km/h | 17439m | 3.6m/s | -59.7°C | 2.2% | 0hPa | 2.6V | 00:00:00 | 00:00:00 | 00:00:00 | |
| DO3MHA-12 | 2026-09-05 11:59:47 | 45.77556 | 13.92970 | 80° | 44km/h | 17422m | 4.6m/s | -59.5°C | 5.8% | 0hPa | 2.6V | 00:00:00 | 01:32:37 | 00:00:00 | |
| DO3MHA-11 | 2026-09-05 11:59:46 | 45.77555 | 13.92957 | 86° | 44km/h | 17418m | 4.0m/s | -59.5°C | 5.8% | 0hPa | 2.6V | 00:00:00 | 01:32:36 | 00:00:00 | |
| S52SK | 2026-09-05 11:59:41 | 45.77549 | 13.92877 | 84° | 47km/h | 17397m | 4.2m/s | -59.8°C | 2.3% | 0hPa | 2.6V | 00:00:00 | 00:00:00 | 00:00:00 | |
| OE8JPQ-2 | 2026-09-05 11:59:38 | 45.77548 | 13.92827 | 88° | 42km/h | 17384m | 4.2m/s | -60.0°C | 6.0% | 0hPa | 2.6V | 00:00:00 | 01:32:28 | 00:00:00 | |
| IN3HCDX1 | 2026-09-05 11:59:37 | 45.77547 | 13.92812 | 81° | 42km/h | 17379m | 4.9m/s | -60.2°C | 2.4% | 0hPa | 2.6V | 00:00:00 | 00:00:00 | 00:00:00 | |
| 9A1FER-3 | 2026-09-05 11:59:36 | 45.77544 | 13.92797 | 74° | 42km/h | 17375m | 4.1m/s | -60.3°C | 6.2% | 0hPa | 2.6V | 00:00:00 | 01:32:26 | 00:00:00 | |
| S52SK | 2026-09-05 11:59:35 | 45.77544 | 13.92797 | 75° | 46km/h | 17375m | 4.1m/s | -60.3°C | 2.4% | 0hPa | 2.6V | 00:00:00 | 00:00:00 | 00:00:00 | |
| IN3HCDX | 2026-09-05 11:59:30 | 45.77532 | 13.92704 | 77° | 37km/h | 17350m | 3.9m/s | -60.5°C | 2.4% | 0hPa | 2.6V | 00:00:00 | 00:00:00 | 00:00:00 | |
| S52SK | 2026-09-05 11:59:29 | 45.77532 | 13.92704 | 77° | 37km/h | 17350m | 3.9m/s | -60.5°C | 2.4% | 0hPa | 2.6V | 00:00:00 | 00:00:00 | 00:00:00 | |
| DO3MHA-12 | 2026-09-05 11:59:27 | 45.77526 | 13.92669 | 80° | 44km/h | 17337m | 4.2m/s | -60.7°C | 6.4% | 0hPa | 2.6V | 00:00:00 | 01:32:17 | 00:00:00 | |
| DO3MHA-11 | 2026-09-05 11:59:25 | 45.77522 | 13.92643 | 76° | 46km/h | 17328m | 4.5m/s | -60.4°C | 6.3% | 0hPa | 2.6V | 00:00:00 | 01:32:15 | 00:00:00 | |
| OE5DXL-15 | 2026-09-05 11:59:22 | 45.77517 | 13.92591 | 89° | 47km/h | 17315m | 4.4m/s | -60.6°C | 6.3% | 0hPa | 2.6V | 00:00:00 | 00:00:00 | 00:00:00 | |
| 9A1FER-3 | 2026-09-05 11:59:21 | 45.77517 | 13.92573 | 90° | 49km/h | 17311m | 3.9m/s | -60.7°C | 6.3% | 0hPa | 2.6V | 00:00:00 | 01:32:11 | 00:00:00 | |
| IN3HCDX1 | 2026-09-05 11:59:18 | 45.77515 | 13.92509 | 91° | 37km/h | 17294m | 4.4m/s | -60.7°C | 2.4% | 0hPa | 2.6V | 00:00:00 | 00:00:00 | 00:00:00 | |
| IV3AMH | 2026-09-05 11:59:17 | 45.77515 | 13.92509 | 91° | 37km/h | 17294m | 4.4m/s | -60.7°C | 2.4% | 0hPa | 2.6V | 00:00:00 | 00:00:00 | 00:00:00 | |
| DO3MHA-11 | 2026-09-05 11:59:15 | 45.77514 | 13.92482 | 82° | 51km/h | 17286m | 4.5m/s | -60.9°C | 6.4% | 0hPa | 2.6V | 00:00:00 | 01:32:05 | 00:00:00 | |
| IN3HCDX | 2026-09-05 11:59:09 | 45.77507 | 13.92384 | 95° | 55km/h | 17265m | 3.3m/s | -61.2°C | 2.6% | 0hPa | 2.6V | 00:00:00 | 00:00:00 | 00:00:00 | |
| DO3MHA-12 | 2026-09-05 11:59:07 | 45.77507 | 13.92328 | 85° | 47km/h | 17254m | 3.2m/s | -60.9°C | 6.7% | 0hPa | 2.6V | 00:00:00 | 01:31:57 | 00:00:00 | |
| 9A1FER-3 | 2026-09-05 11:59:06 | 45.77506 | 13.92311 | 85° | 47km/h | 17250m | 4.2m/s | -60.9°C | 6.6% | 0hPa | 2.6V | 00:00:00 | 01:31:56 | 00:00:00 | |
| DO3MHA-11 | 2026-09-05 11:59:05 | 45.77505 | 13.92295 | 87° | 47km/h | 17245m | 5.0m/s | -60.9°C | 6.6% | 0hPa | 2.7V | 00:00:00 | 01:31:55 | 00:00:00 | |
| OE5DRO-10 | 2026-09-05 11:58:59 | 45.77494 | 13.92191 | 90° | 46km/h | 17220m | 5.0m/s | -60.8°C | 6.6% | 0hPa | 2.7V | 00:00:00 | 00:00:00 | 08:30:00 | |
| OE8JPQ-2 | 2026-09-05 11:58:58 | 45.77495 | 13.92175 | 97° | 46km/h | 17216m | 3.4m/s | -60.7°C | 6.6% | 0hPa | 2.6V | 00:00:00 | 00:00:00 | 00:00:00 | |
| DO3MHA-12 | 2026-09-05 11:58:57 | 45.77496 | 13.92159 | 97° | 46km/h | 17212m | 3.6m/s | -60.7°C | 6.5% | 0hPa | 2.6V | 00:00:00 | 01:31:47 | 00:00:00 | |
| IN3HCDX1 | 2026-09-05 11:58:56 | 45.77496 | 13.92159 | 97° | 46km/h | 17212m | 3.7m/s | -60.7°C | 2.5% | 0hPa | 2.6V | 00:00:00 | 00:00:00 | 00:00:00 | |
| DO3MHA-11 | 2026-09-05 11:58:55 | 45.77496 | 13.92124 | 84° | 46km/h | 17204m | 3.8m/s | -60.7°C | 6.5% | 0hPa | 2.6V | 00:00:00 | 01:31:45 | 00:00:00 | |
| OE5DXL-15 | 2026-09-05 11:58:52 | 45.77490 | 13.92073 | 81° | 44km/h | 17192m | 3.7m/s | -60.5°C | 6.5% | 0hPa | 2.7V | 00:00:00 | 00:00:00 | 08:30:00 | |
| 9A1FER-3 | 2026-09-05 11:58:51 | 45.77488 | 13.92058 | 81° | 44km/h | 17188m | 4.5m/s | -60.6°C | 6.5% | 0hPa | 2.7V | 00:00:00 | 01:31:41 | 00:00:00 | |
| IN3HCDX | 2026-09-05 11:58:49 | 45.77487 | 13.92041 | 84° | 47km/h | 17183m | 3.8m/s | -60.6°C | 2.5% | 0hPa | 2.7V | 00:00:00 | 00:00:00 | 00:00:00 | |
| DO3MHA-12 | 2026-09-05 11:58:47 | 45.77486 | 13.91993 | 96° | 44km/h | 17171m | 3.9m/s | -60.4°C | 6.4% | 0hPa | 2.7V | 00:00:00 | 01:31:37 | 08:30:00 | |
| DO3MHA-11 | 2026-09-05 11:58:45 | 45.77486 | 13.91962 | 85° | 44km/h | 17164m | 4.9m/s | -60.3°C | 6.4% | 0hPa | 2.6V | 00:00:00 | 01:31:35 | 00:00:00 | |
| OE5DRO-10 | 2026-09-05 11:58:40 | 45.77474 | 13.91880 | 90° | 42km/h | 17144m | 3.7m/s | -60.3°C | 6.6% | 0hPa | 2.6V | 00:00:00 | 00:00:00 | 00:00:00 | |
| OE8JPQ-2 | 2026-09-05 11:58:38 | 45.77475 | 13.91852 | 91° | 40km/h | 17136m | 4.0m/s | -60.2°C | 6.6% | 0hPa | 2.6V | 00:00:00 | 01:31:28 | 00:00:00 | |
| DO3MHA-12 | 2026-09-05 11:58:37 | 45.77474 | 13.91836 | 85° | 42km/h | 17132m | 3.4m/s | -60.2°C | 6.5% | 0hPa | 2.6V | 00:00:00 | 01:31:27 | 00:00:00 | |
| 9A1FER-3 | 2026-09-05 11:58:36 | 45.77472 | 13.91821 | 79° | 42km/h | 17129m | 3.1m/s | -60.2°C | 6.4% | 0hPa | 2.6V | 00:00:00 | 01:31:26 | 00:00:00 | |
| DO3MHA-11 | 2026-09-05 11:58:35 | 45.77470 | 13.91806 | 75° | 40km/h | 17125m | 4.2m/s | -60.3°C | 6.6% | 0hPa | 2.6V | 00:00:00 | 01:31:25 | 00:00:00 | |
| IN3HCDX | 2026-09-05 11:58:28 | 45.77464 | 13.91718 | 96° | 46km/h | 17099m | 4.6m/s | -60.0°C | 2.5% | 0hPa | 2.6V | 00:00:00 | 00:00:00 | 00:00:00 | |
| DO3MHA-12 | 2026-09-05 11:58:27 | 45.77466 | 13.91688 | 92° | 38km/h | 17091m | 3.5m/s | -59.9°C | 6.5% | 0hPa | 2.6V | 00:00:00 | 01:31:17 | 00:00:00 | |
| DO3MHA-11 | 2026-09-05 11:58:25 | 45.77464 | 13.91660 | 82° | 42km/h | 17083m | 4.8m/s | -59.8°C | 6.4% | 0hPa | 2.6V | 00:00:00 | 01:31:15 | 08:30:00 | |
| OE5DXL-15 | 2026-09-05 11:58:22 | 45.77458 | 13.91615 | 78° | 40km/h | 17071m | 4.9m/s | -59.7°C | 6.3% | 0hPa | 2.7V | 00:00:00 | 00:00:00 | 00:00:00 | |
| 9A1FER-3 | 2026-09-05 11:58:21 | 45.77456 | 13.91602 | 83° | 40km/h | 17066m | 4.7m/s | -59.7°C | 6.4% | 0hPa | 2.7V | 00:00:00 | 01:31:11 | 00:00:00 | |
| OE8JPQ-2 | 2026-09-05 11:58:18 | 45.77455 | 13.91564 | 89° | 40km/h | 17053m | 4.7m/s | -59.5°C | 6.3% | 0hPa | 2.6V | 00:00:00 | 00:00:00 | 08:30:00 | |
| DO3MHA-12 | 2026-09-05 11:58:17 | 45.77454 | 13.91548 | 91° | 40km/h | 17049m | 3.2m/s | -59.5°C | 6.2% | 0hPa | 2.6V | 00:00:00 | 01:31:07 | 00:00:00 | |
| DO3MHA-11 | 2026-09-05 11:58:15 | 45.77456 | 13.91514 | 99° | 40km/h | 17041m | 4.7m/s | -59.5°C | 6.3% | 0hPa | 2.6V | 00:00:00 | 01:31:05 | 00:00:00 | |
| IN3HCDX1 | 2026-09-05 11:58:14 | 45.77456 | 13.91514 | 99° | 44km/h | 17041m | 4.7m/s | -59.5°C | 2.5% | 0hPa | 2.6V | 00:00:00 | 00:00:00 | 00:00:00 | |
| DO3MHA-12 | 2026-09-05 11:58:07 | 45.77459 | 13.91403 | 90° | 40km/h | 17006m | 4.7m/s | -59.2°C | 6.3% | 0hPa | 2.6V | 00:00:00 | 01:30:57 | 00:00:00 | |
| 9A1FER-3 | 2026-09-05 11:58:06 | 45.77459 | 13.91387 | 90° | 40km/h | 17002m | 3.2m/s | -59.1°C | 6.3% | 0hPa | 2.6V | 00:00:00 | 01:30:56 | 00:00:00 | |
| DO3MHA-11 | 2026-09-05 11:58:05 | 45.77459 | 13.91371 | 92° | 40km/h | 16998m | 3.7m/s | -59.2°C | 6.3% | 0hPa | 2.6V | 00:00:00 | 01:30:55 | 00:00:00 | |
| OE5DRO-10 | 2026-09-05 11:58:02 | 45.77463 | 13.91331 | 100° | 38km/h | 16986m | 3.8m/s | -59.0°C | 6.2% | 0hPa | 2.6V | 00:00:00 | 00:00:00 | 00:00:00 | |
| IV3AMH | 2026-09-05 11:58:01 | 45.77463 | 13.91331 | 100° | 35km/h | 16986m | 3.8m/s | -59.1°C | 2.6% | 0hPa | 2.6V | 00:00:00 | 00:00:00 | 00:00:00 | |
| OE8JPQ-2 | 2026-09-05 11:57:58 | 45.77467 | 13.91272 | 98° | 37km/h | 16969m | 5.0m/s | -59.2°C | 6.3% | 0hPa | 2.6V | 00:00:00 | 00:00:00 | 00:00:00 | |
| DO3MHA-12 | 2026-09-05 11:57:57 | 45.77469 | 13.91258 | 101° | 38km/h | 16965m | 4.2m/s | -59.1°C | 6.2% | 0hPa | 2.6V | 00:00:00 | 01:30:47 | 00:00:00 | |
| DO3MHA-11 | 2026-09-05 11:57:55 | 45.77472 | 13.91230 | 97° | 38km/h | 16956m | 4.3m/s | -59.2°C | 6.2% | 0hPa | 2.6V | 00:00:00 | 01:30:45 | 00:00:00 | |
| S52SK | 2026-09-05 11:57:54 | 45.77472 | 13.91230 | 98° | 38km/h | 16956m | 4.3m/s | -59.2°C | 2.5% | 0hPa | 2.7V | 00:00:00 | 00:00:00 | 00:00:00 | |
| IN3HCDX1 | 2026-09-05 11:57:53 | 45.77473 | 13.91216 | 96° | 38km/h | 16953m | 3.0m/s | -59.1°C | 2.4% | 0hPa | 2.7V | 00:00:00 | 00:00:00 | 00:00:00 | |
| OE5DXL-15 | 2026-09-05 11:57:52 | 45.77476 | 13.91190 | 102° | 38km/h | 16944m | 4.5m/s | -59.1°C | 6.1% | 0hPa | 2.7V | 00:00:00 | 00:00:00 | 00:00:00 | |
| 9A1FER-3 | 2026-09-05 11:57:51 | 45.77477 | 13.91177 | 103° | 37km/h | 16940m | 3.4m/s | -59.0°C | 6.1% | 0hPa | 2.7V | 00:00:00 | 01:30:41 | 00:00:00 | |
| S52SK | 2026-09-05 11:57:49 | 45.77480 | 13.91164 | 101° | 38km/h | 16936m | 5.0m/s | -59.2°C | 2.5% | 0hPa | 2.7V | 00:00:00 | 00:00:00 | 00:00:00 | |
| DO3MHA-12 | 2026-09-05 11:57:47 | 45.77484 | 13.91120 | 103° | 35km/h | 16924m | 5.4m/s | -59.1°C | 6.2% | 0hPa | 2.7V | 00:00:00 | 01:30:37 | 00:00:00 | |
| IN3HCDX | 2026-09-05 11:57:46 | 45.77484 | 13.91120 | 104° | 38km/h | 16924m | 5.4m/s | -59.2°C | 2.5% | 0hPa | 2.7V | 00:00:00 | 00:00:00 | 00:00:00 | |
| DO3MHA-11 | 2026-09-05 11:57:45 | 45.77489 | 13.91096 | 105° | 35km/h | 16915m | 3.5m/s | -59.1°C | 6.3% | 0hPa | 2.7V | 00:00:00 | 01:30:35 | 00:00:00 | |
| OE5DRO-10 | 2026-09-05 11:57:43 | 45.77491 | 13.91072 | 93° | 38km/h | 16907m | 3.9m/s | -59.2°C | 6.3% | 0hPa | 2.7V | 00:00:00 | 00:00:00 | 00:00:00 | |
| OE8JPQ-2 | 2026-09-05 11:57:38 | 45.77501 | 13.91011 | 109° | 40km/h | 16888m | 3.8m/s | -59.5°C | 6.5% | 0hPa | 2.7V | 00:00:00 | 01:30:28 | 00:00:00 | |
| DO3MHA-12 | 2026-09-05 11:57:37 | 45.77503 | 13.90999 | 100° | 40km/h | 16883m | 5.2m/s | -59.4°C | 6.4% | 0hPa | 2.7V | 00:00:00 | 01:30:27 | 00:00:00 | |
| 9A1FER-3 | 2026-09-05 11:57:36 | 45.77504 | 13.90986 | 91° | 40km/h | 16879m | 4.2m/s | -59.4°C | 6.5% | 0hPa | 2.7V | 00:00:00 | 01:30:26 | 08:30:00 | |
| DO3MHA-11 | 2026-09-05 11:57:35 | 45.77504 | 13.90973 | 88° | 40km/h | 16874m | 5.3m/s | -59.4°C | 6.5% | 0hPa | 2.7V | 00:00:00 | 01:30:25 | 00:00:00 | |
| IN3HCDX1 | 2026-09-05 11:57:33 | 45.77504 | 13.90962 | 94° | 33km/h | 16869m | 4.6m/s | -59.4°C | 2.8% | 0hPa | 2.7V | 00:00:00 | 00:00:00 | 00:00:00 | |
| DO3MHA-12 | 2026-09-05 11:57:27 | 45.77523 | 13.90860 | 96° | 46km/h | 16839m | 3.5m/s | -59.7°C | 6.5% | 0hPa | 2.7V | 00:00:00 | 01:30:17 | 00:00:00 | |
| IN3HCDX | 2026-09-05 11:57:26 | 45.77523 | 13.90860 | 97° | 35km/h | 16839m | 3.6m/s | -59.8°C | 2.7% | 0hPa | 2.7V | 00:00:00 | 00:00:00 | 00:00:00 | |
| DO3MHA-11 | 2026-09-05 11:57:25 | 45.77522 | 13.90832 | 83° | 47km/h | 16830m | 4.2m/s | -59.8°C | 6.5% | 0hPa | 2.7V | 00:00:00 | 01:30:15 | 00:00:00 | |
| OE5DRO-10 | 2026-09-05 11:57:24 | 45.77521 | 13.90817 | 84° | 47km/h | 16826m | 2.9m/s | -59.8°C | 6.6% | 0hPa | 2.6V | 00:00:00 | 00:00:00 | 00:00:00 | |
| IV3AMH | 2026-09-05 11:57:23 | 45.77521 | 13.90817 | 84° | 46km/h | 16826m | 2.9m/s | -59.8°C | 2.8% | 0hPa | 2.6V | 00:00:00 | 00:00:00 | 00:00:00 | |
| OE5DXL-15 | 2026-09-05 11:57:22 | 45.77521 | 13.90785 | 99° | 49km/h | 16819m | 4.3m/s | -59.6°C | 6.5% | 0hPa | 2.6V | 00:00:00 | 00:00:00 | 00:00:00 | |
| 9A1FER-3 | 2026-09-05 11:57:21 | 45.77523 | 13.90770 | 109° | 49km/h | 16815m | 3.7m/s | -59.6°C | 6.5% | 0hPa | 2.6V | 00:00:00 | 01:30:11 | 00:00:00 | |
| OE8JPQ-2 | 2026-09-05 11:57:18 | 45.77536 | 13.90719 | 108° | 49km/h | 16803m | 3.8m/s | -59.7°C | 6.7% | 0hPa | 2.6V | 00:00:00 | 00:00:00 | 00:00:00 | |
| DO3MHA-12 | 2026-09-05 11:57:17 | 45.77540 | 13.90699 | 106° | 49km/h | 16799m | 3.1m/s | -59.7°C | 6.7% | 0hPa | 2.6V | 00:00:00 | 01:30:07 | 08:30:00 | |
| DO3MHA-11 | 2026-09-05 11:57:15 | 45.77547 | 13.90663 | 103° | 47km/h | 16791m | 4.0m/s | -59.5°C | 6.8% | 0hPa | 2.6V | 00:00:00 | 01:30:05 | 00:00:00 | |
| IN3HCDX1 | 2026-09-05 11:57:12 | 45.77549 | 13.90632 | 93° | 44km/h | 16783m | 5.0m/s | -59.6°C | 2.8% | 0hPa | 2.6V | 00:00:00 | 00:00:00 | 00:00:00 | |
| DO3MHA-12 | 2026-09-05 11:57:07 | 45.77567 | 13.90532 | 109° | 49km/h | 16758m | 3.9m/s | -59.5°C | 6.6% | 0hPa | 2.6V | 00:00:00 | 01:29:57 | 00:00:00 | |
| 9A1FER-3 | 2026-09-05 11:57:06 | 45.77570 | 13.90514 | 98° | 49km/h | 16754m | 4.9m/s | -59.6°C | 6.7% | 0hPa | 2.6V | 00:00:00 | 01:29:56 | 00:00:00 | |
| DO3MHA-11 | 2026-09-05 11:57:05 | 45.77570 | 13.90495 | 87° | 49km/h | 16749m | 4.0m/s | -59.5°C | 6.5% | 0hPa | 2.6V | 00:00:00 | 01:29:55 | 00:00:00 | |
| OE8JPQ-2 | 2026-09-05 11:56:58 | 45.77577 | 13.90377 | 101° | 53km/h | 16720m | 3.2m/s | -60.2°C | 6.8% | 0hPa | 2.6V | 00:00:00 | 00:00:00 | 00:00:00 | |
| DO3MHA-12 | 2026-09-05 11:56:57 | 45.77579 | 13.90357 | 97° | 51km/h | 16716m | 4.4m/s | -60.3°C | 6.9% | 0hPa | 2.6V | 00:00:00 | 01:29:47 | 00:00:00 | |
| DO3MHA-11 | 2026-09-05 11:56:55 | 45.77580 | 13.90322 | 84° | 53km/h | 16707m | 3.9m/s | -60.2°C | 6.8% | 0hPa | 2.6V | 00:00:00 | 01:29:45 | 08:30:00 | |
| OE5DXL-15 | 2026-09-05 11:56:52 | 45.77573 | 13.90269 | 83° | 53km/h | 16694m | 4.0m/s | -60.3°C | 6.8% | 0hPa | 2.6V | 00:00:00 | 00:00:00 | 00:00:00 | |
| 9A1FER-3 | 2026-09-05 11:56:51 | 45.77572 | 13.90250 | 85° | 55km/h | 16690m | 4.9m/s | -60.2°C | 6.8% | 0hPa | 2.6V | 00:00:00 | 01:29:41 | 00:00:00 | |
| OM5KV | 2026-09-05 11:56:50 | 45.77572 | 13.90250 | 86° | 53km/h | 16690m | 4.9m/s | -60.3°C | 2.9% | 0hPa | 2.7V | 00:00:00 | 00:00:00 | 00:00:00 | |
| OM5KV | 2026-09-05 11:56:48 | 45.77571 | 13.90212 | 92° | 55km/h | 16681m | 3.6m/s | -60.3°C | 2.9% | 0hPa | 2.7V | 00:00:00 | 00:00:00 | 00:00:00 | |
| DO3MHA-12 | 2026-09-05 11:56:47 | 45.77571 | 13.90170 | 88° | 55km/h | 16673m | 3.6m/s | -60.4°C | 7.0% | 0hPa | 2.7V | 00:00:00 | 01:29:37 | 00:00:00 | |
| OE5DRO-10 | 2026-09-05 11:56:46 | 45.77570 | 13.90149 | 84° | 53km/h | 16669m | 3.9m/s | -60.6°C | 7.1% | 0hPa | 2.6V | 00:00:00 | 00:00:00 | 00:00:00 | |
| DO3MHA-11 | 2026-09-05 11:56:45 | 45.77568 | 13.90130 | 80° | 53km/h | 16664m | 5.0m/s | -60.5°C | 7.1% | 0hPa | 2.6V | 00:00:00 | 01:29:35 | 00:00:00 | |
| OM5KV | 2026-09-05 11:56:43 | 45.77565 | 13.90112 | 78° | 47km/h | 16660m | 3.7m/s | -60.6°C | 3.1% | 0hPa | 2.6V | 00:00:00 | 00:00:00 | 00:00:00 | |
| OE8JPQ-2 | 2026-09-05 11:56:38 | 45.77559 | 13.89995 | 88° | 51km/h | 16635m | 3.9m/s | -60.7°C | 7.3% | 0hPa | 2.6V | 00:00:00 | 01:29:28 | 00:00:00 | |
| DO3MHA-12 | 2026-09-05 11:56:37 | 45.77558 | 13.89976 | 82° | 51km/h | 16631m | 3.9m/s | -60.7°C | 7.3% | 0hPa | 2.6V | 00:00:00 | 01:29:27 | 00:00:00 | |
| 9A1FER-3 | 2026-09-05 11:56:36 | 45.77555 | 13.89957 | 76° | 51km/h | 16626m | 5.3m/s | -60.8°C | 7.3% | 0hPa | 2.6V | 00:00:00 | 01:29:26 | 00:00:00 | |
| DO3MHA-11 | 2026-09-05 11:56:35 | 45.77551 | 13.89939 | 71° | 51km/h | 16622m | 4.0m/s | -60.8°C | 7.3% | 0hPa | 2.6V | 00:00:00 | 01:29:25 | 00:00:00 | |
| IV3AMH | 2026-09-05 11:56:34 | 45.77551 | 13.89939 | 72° | 53km/h | 16622m | 4.0m/s | -60.9°C | 3.2% | 0hPa | 2.6V | 00:00:00 | 00:00:00 | 00:00:00 | |
| IN3HCDX1 | 2026-09-05 11:56:30 | 45.77538 | 13.89873 | 88° | 46km/h | 16605m | 4.1m/s | -60.8°C | 3.1% | 0hPa | 2.6V | 00:00:00 | 00:00:00 | 00:00:00 | |
| OM5KV | 2026-09-05 11:56:29 | 45.77537 | 13.89855 | 92° | 51km/h | 16600m | 5.9m/s | -60.8°C | 3.1% | 0hPa | 2.6V | 00:00:00 | 00:00:00 | 00:00:00 | |
| DO3MHA-12 | 2026-09-05 11:56:27 | 45.77537 | 13.89795 | 85° | 53km/h | 16587m | 5.0m/s | -60.7°C | 7.2% | 0hPa | 2.6V | 00:00:00 | 01:29:17 | 00:00:00 | |
| DO3MHA-11 | 2026-09-05 11:56:25 | 45.77532 | 13.89760 | 71° | 53km/h | 16577m | 4.8m/s | -60.5°C | 7.2% | 0hPa | 2.6V | 00:00:00 | 01:29:15 | 00:00:00 | |
| OM5KV | 2026-09-05 11:56:23 | 45.77527 | 13.89743 | 69° | 51km/h | 16572m | 5.2m/s | -60.5°C | 3.1% | 0hPa | 2.7V | 00:00:00 | 00:00:00 | 00:00:00 | |
| OE5DXL-15 | 2026-09-05 11:56:22 | 45.77518 | 13.89706 | 77° | 53km/h | 16563m | 3.4m/s | -60.4°C | 7.2% | 0hPa | 2.7V | 00:00:00 | 00:00:00 | 00:00:00 | |
| 9A1FER-3 | 2026-09-05 11:56:21 | 45.77516 | 13.89687 | 83° | 55km/h | 16559m | 5.2m/s | -60.4°C | 7.2% | 0hPa | 2.7V | 00:00:00 | 01:29:11 | 00:00:00 | |
| OM5KV | 2026-09-05 11:56:20 | 45.77516 | 13.89687 | 84° | 53km/h | 16559m | 5.3m/s | -60.5°C | 3.1% | 0hPa | 2.7V | 00:00:00 | 00:00:00 | 00:00:00 | |
| OE8JPQ-2 | 2026-09-05 11:56:18 | 45.77516 | 13.89630 | 92° | 51km/h | 16545m | 5.0m/s | -60.3°C | 7.3% | 0hPa | 2.7V | 00:00:00 | 00:00:00 | 00:00:00 | |
| DO3MHA-12 | 2026-09-05 11:56:17 | 45.77515 | 13.89610 | 86° | 55km/h | 16540m | 3.5m/s | -60.2°C | 7.5% | 0hPa | 2.7V | 00:00:00 | 01:29:07 | 00:00:00 | |
| DO3MHA-11 | 2026-09-05 11:56:15 | 45.77511 | 13.89572 | 75° | 53km/h | 16531m | 5.8m/s | -60.2°C | 7.4% | 0hPa | 2.7V | 00:00:00 | 01:29:05 | 00:00:00 | |
| OM5KV | 2026-09-05 11:56:14 | 45.77511 | 13.89572 | 76° | 47km/h | 16531m | 5.8m/s | -60.2°C | 3.2% | 0hPa | 2.7V | 00:00:00 | 00:00:00 | 00:00:00 | |
| OM5KV | 2026-09-05 11:56:13 | 45.77507 | 13.89556 | 73° | 46km/h | 16526m | 4.3m/s | -60.2°C | 3.2% | 0hPa | 2.7V | 00:00:00 | 00:00:00 | 00:00:00 | |
| IN3HCDX1 | 2026-09-05 11:56:09 | 45.77493 | 13.89480 | 83° | 68km/h | 16507m | 3.6m/s | -60.0°C | 3.1% | 0hPa | 2.7V | 00:00:00 | 00:00:00 | 00:00:00 | |
| OE5DRO-10 | 2026-09-05 11:56:08 | 45.77491 | 13.89434 | 93° | 49km/h | 16495m | 6.5m/s | -59.9°C | 7.2% | 0hPa | 2.7V | 00:00:00 | 00:00:00 | 08:30:00 | |
| DO3MHA-12 | 2026-09-05 11:56:06 | 45.77493 | 13.89402 | 98° | 49km/h | 16484m | 3.6m/s | -59.7°C | 7.2% | 0hPa | 2.6V | 00:00:00 | 01:28:56 | 00:00:00 | |
| S52SK | 2026-09-05 11:56:03 | 45.77492 | 13.89373 | 78° | 46km/h | 16474m | 6.3m/s | -59.7°C | 3.1% | 0hPa | 2.6V | 00:00:00 | 00:00:00 | 00:00:00 | |
| OM5KV | 2026-09-05 11:56:00 | 45.77474 | 13.89299 | 82° | 49km/h | 16452m | 5.5m/s | -59.6°C | 3.0% | 0hPa | 2.6V | 00:00:00 | 00:00:00 | 00:00:00 | |
| OE8JPQ-2 | 2026-09-05 11:55:58 | 45.77477 | 13.89266 | 110° | 53km/h | 16442m | 5.3m/s | -59.4°C | 6.8% | 0hPa | 2.6V | 00:00:00 | 00:00:00 | 00:00:00 | |
| S52SK | 2026-09-05 11:55:57 | 45.77477 | 13.89266 | 110° | 49km/h | 16442m | 5.4m/s | -59.5°C | 3.0% | 0hPa | 2.6V | 00:00:00 | 00:00:00 | 00:00:00 | |
| DO3MHA-12 | 2026-09-05 11:55:56 | 45.77486 | 13.89227 | 104° | 53km/h | 16431m | 4.0m/s | -59.3°C | 6.8% | 0hPa | 2.6V | 00:00:00 | 01:28:46 | 00:00:00 | |
| DO3MHA-11 | 2026-09-05 11:55:55 | 45.77488 | 13.89207 | 95° | 53km/h | 16427m | 4.4m/s | -59.4°C | 6.8% | 0hPa | 2.6V | 00:00:00 | 01:28:45 | 00:00:00 | |
| OM5KV | 2026-09-05 11:55:54 | 45.77488 | 13.89207 | 96° | 57km/h | 16427m | 4.5m/s | -59.5°C | 3.0% | 0hPa | 2.7V | 00:00:00 | 00:00:00 | 00:00:00 | |
| OM5KV | 2026-09-05 11:55:53 | 45.77488 | 13.89187 | 86° | 53km/h | 16422m | 5.2m/s | -59.5°C | 3.0% | 0hPa | 2.7V | 00:00:00 | 00:00:00 | 00:00:00 | |
| OE5DXL-15 | 2026-09-05 11:55:52 | 45.77483 | 13.89154 | 74° | 55km/h | 16411m | 5.3m/s | -59.4°C | 6.8% | 0hPa | 2.7V | 00:00:00 | 00:00:00 | 00:00:00 | |
| 9A1FER-3 | 2026-09-05 11:55:51 | 45.77481 | 13.89140 | 80° | 55km/h | 16406m | 4.2m/s | -59.2°C | 6.8% | 0hPa | 2.6V | 00:00:00 | 01:28:41 | 00:00:00 | |
| OE5DRO-10 | 2026-09-05 11:55:49 | 45.77479 | 13.89106 | 89° | 55km/h | 16397m | 6.6m/s | -59.3°C | 6.8% | 0hPa | 2.6V | 00:00:00 | 00:00:00 | 00:00:00 | |
| OM5KV | 2026-09-05 11:55:48 | 45.77479 | 13.89106 | 90° | 55km/h | 16397m | 6.7m/s | -59.4°C | 3.0% | 0hPa | 2.6V | 00:00:00 | 00:00:00 | 00:00:00 | |
| DO3MHA-12 | 2026-09-05 11:55:46 | 45.77480 | 13.89039 | 95° | 55km/h | 16382m | 3.9m/s | -59.3°C | 6.7% | 0hPa | 2.6V | 00:00:00 | 01:28:36 | 08:30:00 | |
| DO3MHA-11 | 2026-09-05 11:55:45 | 45.77482 | 13.89020 | 98° | 55km/h | 16378m | 5.0m/s | -59.4°C | 6.7% | 0hPa | 2.6V | 00:00:00 | 01:28:35 | 00:00:00 | |
| OM5KV | 2026-09-05 11:55:43 | 45.77483 | 13.89004 | 98° | 38km/h | 16373m | 4.3m/s | -59.5°C | 3.0% | 0hPa | 2.6V | 00:00:00 | 00:00:00 | 00:00:00 | |
| OE8JPQ-2 | 2026-09-05 11:55:38 | 45.77481 | 13.88890 | 97° | 58km/h | 16350m | 4.2m/s | -59.6°C | 6.7% | 0hPa | 2.6V | 00:00:00 | 01:28:28 | 00:00:00 | |
| 9A1FER-3 | 2026-09-05 11:55:36 | 45.77488 | 13.88845 | 107° | 57km/h | 16341m | 3.8m/s | -59.7°C | 6.6% | 0hPa | 2.6V | 00:00:00 | 01:28:26 | 00:00:00 | |
| DO3MHA-11 | 2026-09-05 11:55:35 | 45.77492 | 13.88827 | 105° | 53km/h | 16337m | 5.1m/s | -60.0°C | 6.7% | 0hPa | 2.6V | 00:00:00 | 01:28:25 | 00:00:00 | |
| OM5KV | 2026-09-05 11:55:32 | 45.77494 | 13.88794 | 89° | 46km/h | 16327m | 3.7m/s | -60.3°C | 3.1% | 0hPa | 2.6V | 00:00:00 | 00:00:00 | 00:00:00 | |
| OM5KV | 2026-09-05 11:55:31 | 45.77494 | 13.88777 | 89° | 49km/h | 16324m | 3.7m/s | -60.4°C | 3.1% | 0hPa | 2.6V | 00:00:00 | 00:00:00 | 00:00:00 | |
| OE5DRO-10 | 2026-09-05 11:55:30 | 45.77496 | 13.88738 | 101° | 62km/h | 16315m | 4.3m/s | -60.3°C | 7.2% | 0hPa | 2.6V | 00:00:00 | 00:00:00 | 00:00:00 | |
| IN3HCDX1 | 2026-09-05 11:55:29 | 45.77496 | 13.88738 | 101° | 62km/h | 16315m | 4.3m/s | -60.4°C | 3.2% | 0hPa | 2.6V | 00:00:00 | 00:00:00 | 00:00:00 | |
| OM5KV | 2026-09-05 11:55:27 | 45.77503 | 13.88690 | 104° | 71km/h | 16307m | 3.6m/s | -60.5°C | 3.2% | 0hPa | 2.6V | 00:00:00 | 00:00:00 | 00:00:00 | |
| OM5KV | 2026-09-05 11:55:26 | 45.77507 | 13.88666 | 101° | 69km/h | 16303m | 4.1m/s | -60.5°C | 3.2% | 0hPa | 2.6V | 00:00:00 | 00:00:00 | 00:00:00 | |
| DO3MHA-11 | 2026-09-05 11:55:25 | 45.77511 | 13.88620 | 98° | 64km/h | 16295m | 4.6m/s | -60.6°C | 7.3% | 0hPa | 2.6V | 00:00:00 | 01:28:15 | 08:30:00 | |
| OE5DXL-15 | 2026-09-05 11:55:22 | 45.77517 | 13.88562 | 95° | 58km/h | 16284m | 4.2m/s | -60.7°C | 7.6% | 0hPa | 2.6V | 00:00:00 | 00:00:00 | 00:00:00 | |
| 9A1FER-3 | 2026-09-05 11:55:21 | 45.77518 | 13.88541 | 94° | 62km/h | 16280m | 3.0m/s | -60.6°C | 7.5% | 0hPa | 2.6V | 00:00:00 | 01:28:11 | 08:30:00 | |
| OM5KV | 2026-09-05 11:55:20 | 45.77518 | 13.88540 | 94° | 62km/h | 16280m | 3.1m/s | -60.7°C | 3.4% | 0hPa | 2.7V | 00:00:00 | 00:00:00 | 00:00:00 | |
| OE8JPQ-2 | 2026-09-05 11:55:18 | 45.77525 | 13.88469 | 105° | 58km/h | 16268m | 3.9m/s | -60.9°C | 7.6% | 0hPa | 2.7V | 00:00:00 | 00:00:00 | 08:30:00 | |
| DO3MHA-11 | 2026-09-05 11:55:16 | 45.77537 | 13.88394 | 100° | 57km/h | 16257m | 2.9m/s | -60.8°C | 7.6% | 0hPa | 2.6V | 00:00:00 | 01:28:05 | 00:00:00 | |
| OM5KV | 2026-09-05 11:55:15 | 45.77538 | 13.88394 | 100° | 66km/h | 16257m | 2.9m/s | -60.8°C | 3.4% | 0hPa | 2.6V | 00:00:00 | 00:00:00 | 00:00:00 | |
| OE5DRO-10 | 2026-09-05 11:55:11 | 45.77543 | 13.88317 | 90° | 57km/h | 16240m | 4.0m/s | -61.0°C | 7.4% | 0hPa | 2.6V | 00:00:00 | 00:00:00 | 00:00:00 | |
| OM5KV | 2026-09-05 11:55:10 | 45.77543 | 13.88298 | 89° | 53km/h | 16236m | 4.3m/s | -61.2°C | 3.4% | 0hPa | 2.6V | 00:00:00 | 00:00:00 | 00:00:00 | |
| IN3HCDX1 | 2026-09-05 11:55:08 | 45.77543 | 13.88278 | 91° | 58km/h | 16232m | 3.2m/s | -61.2°C | 3.4% | 0hPa | 2.6V | 00:00:00 | 00:00:00 | 00:00:00 | |
| 9A1FER-3 | 2026-09-05 11:55:06 | 45.77549 | 13.88213 | 106° | 66km/h | 16220m | 3.4m/s | -61.0°C | 7.6% | 0hPa | 2.6V | 00:00:00 | 01:27:56 | 00:00:00 | |
| DO3MHA-11 | 2026-09-05 11:55:05 | 45.77553 | 13.88192 | 105° | 57km/h | 16217m | 3.3m/s | -61.0°C | 7.7% | 0hPa | 2.6V | 00:00:00 | 01:27:55 | 00:00:00 | |
| OM5KV | 2026-09-05 11:55:04 | 45.77556 | 13.88171 | 101° | 60km/h | 16213m | 4.3m/s | -61.1°C | 3.5% | 0hPa | 2.6V | 00:00:00 | 00:00:00 | 00:00:00 | |
| IN3HCDX | 2026-09-05 11:55:02 | 45.77560 | 13.88129 | 93° | 55km/h | 16205m | 4.0m/s | -61.0°C | 3.5% | 0hPa | 2.6V | 00:00:00 | 00:00:00 | 00:00:00 | |
| OE8JPQ-2 | 2026-09-05 11:54:58 | 45.77561 | 13.88053 | 94° | 55km/h | 16188m | 4.1m/s | -60.8°C | 7.8% | 0hPa | 2.6V | 00:00:00 | 00:00:00 | 00:00:00 | |
| OM5KV | 2026-09-05 11:54:56 | 45.77563 | 13.88032 | 98° | 62km/h | 16184m | 3.9m/s | -60.8°C | 3.6% | 0hPa | 2.6V | 00:00:00 | 00:00:00 | 00:00:00 | |
| DO3MHA-11 | 2026-09-05 11:54:55 | 45.77568 | 13.87988 | 100° | 53km/h | 16176m | 3.0m/s | -60.6°C | 7.9% | 0hPa | 2.6V | 00:00:00 | 01:27:45 | 00:00:00 | |
| OE5DXL-15 | 2026-09-05 11:54:52 | 45.77570 | 13.87926 | 85° | 57km/h | 16165m | 2.9m/s | -60.4°C | 7.4% | 0hPa | 2.6V | 00:00:00 | 00:00:00 | 00:00:00 | |
| OM5KV | 2026-09-05 11:54:51 | 45.77569 | 13.87926 | 86° | 55km/h | 16165m | 2.9m/s | -60.5°C | 3.4% | 0hPa | 2.6V | 00:00:00 | 00:00:00 | 00:00:00 | |
| OM5KV | 2026-09-05 11:54:50 | 45.77568 | 13.87908 | 86° | 49km/h | 16162m | 2.6m/s | -60.6°C | 3.4% | 0hPa | 2.6V | 00:00:00 | 00:00:00 | 00:00:00 | |
| IN3HCDX1 | 2026-09-05 11:54:48 | 45.77569 | 13.87874 | 102° | 46km/h | 16154m | 3.7m/s | -60.7°C | 3.5% | 0hPa | 2.6V | 00:00:00 | 00:00:00 | 00:00:00 | |
| OM5KV | 2026-09-05 11:54:46 | 45.77575 | 13.87840 | 103° | 55km/h | 16146m | 4.4m/s | -60.5°C | 3.5% | 0hPa | 2.6V | 00:00:00 | 00:00:00 | 00:00:00 | |
| DO3MHA-11 | 2026-09-05 11:54:45 | 45.77579 | 13.87797 | 97° | 58km/h | 16138m | 3.7m/s | -60.4°C | 7.5% | 0hPa | 2.6V | 00:00:00 | 01:27:35 | 00:00:00 | |
| IV3AMH | 2026-09-05 11:54:41 | 45.77586 | 13.87733 | 101° | 53km/h | 16126m | 3.4m/s | -60.4°C | 3.5% | 0hPa | 2.6V | 00:00:00 | 00:00:00 | 00:00:00 | |
| OE8JPQ-2 | 2026-09-05 11:54:38 | 45.77593 | 13.87660 | 104° | 60km/h | 16110m | 4.9m/s | -60.5°C | 7.6% | 0hPa | 2.6V | 00:00:00 | 01:27:28 | 00:00:00 | |
| IN3HCDX | 2026-09-05 11:54:37 | 45.77593 | 13.87660 | 104° | 55km/h | 16110m | 4.9m/s | -60.6°C | 3.5% | 0hPa | 2.6V | 00:00:00 | 00:00:00 | 00:00:00 | |
| DO3MHA-11 | 2026-09-05 11:54:35 | 45.77605 | 13.87595 | 102° | 64km/h | 16097m | 4.0m/s | -60.7°C | 7.7% | 0hPa | 2.6V | 00:00:00 | 01:27:25 | 00:00:00 | |
| OM5KV | 2026-09-05 11:54:34 | 45.77605 | 13.87595 | 102° | 66km/h | 16097m | 4.1m/s | -60.7°C | 3.6% | 0hPa | 2.6V | 00:00:00 | 00:00:00 | 00:00:00 | |
| OE5DRO-10 | 2026-09-05 11:54:33 | 45.77612 | 13.87550 | 103° | 60km/h | 16090m | 5.1m/s | -60.7°C | 7.7% | 0hPa | 2.6V | 00:00:00 | 00:00:00 | 00:00:00 | |
| OM5KV | 2026-09-05 11:54:27 | 45.77626 | 13.87454 | 104° | 57km/h | 16071m | 3.3m/s | -60.7°C | 3.6% | 0hPa | 2.6V | 00:00:00 | 00:00:00 | 00:00:00 | |
| DO3MHA-11 | 2026-09-05 11:54:25 | 45.77642 | 13.87389 | 109° | 62km/h | 16057m | 3.9m/s | -60.8°C | 7.8% | 0hPa | 2.6V | 00:00:00 | 01:27:15 | 00:00:00 | |
| OE5DXL-15 | 2026-09-05 11:54:22 | 45.77653 | 13.87320 | 102° | 69km/h | 16047m | 2.6m/s | -60.8°C | 7.6% | 0hPa | 2.7V | 00:00:00 | 00:00:00 | 08:30:00 | |
| OM5KV | 2026-09-05 11:54:21 | 45.77653 | 13.87320 | 102° | 58km/h | 16047m | 2.7m/s | -60.8°C | 3.6% | 0hPa | 2.7V | 00:00:00 | 00:00:00 | 00:00:00 | |
| OE8JPQ-2 | 2026-09-05 11:54:18 | 45.77670 | 13.87240 | 108° | 71km/h | 16031m | 3.7m/s | -61.3°C | 8.0% | 0hPa | 2.7V | 00:00:00 | 00:00:00 | 00:00:00 | |
| OM5KV | 2026-09-05 11:54:17 | 45.77670 | 13.87240 | 109° | 62km/h | 16031m | 3.8m/s | -61.4°C | 3.7% | 0hPa | 2.6V | 00:00:00 | 00:00:00 | 00:00:00 | |
| IN3HCDX | 2026-09-05 11:54:16 | 45.77675 | 13.87218 | 107° | 66km/h | 16028m | 3.1m/s | -61.5°C | 3.8% | 0hPa | 2.6V | 00:00:00 | 00:00:00 | 00:00:00 | |
| DO3MHA-11 | 2026-09-05 11:54:14 | 45.77691 | 13.87149 | 113° | 73km/h | 16017m | 3.4m/s | -61.6°C | 8.1% | 0hPa | 2.6V | 00:00:00 | 01:27:04 | 00:00:00 | |
| OM5KV | 2026-09-05 11:54:11 | 45.77708 | 13.87075 | 106° | 75km/h | 16005m | 3.0m/s | -61.7°C | 3.8% | 0hPa | 2.6V | 00:00:00 | 00:00:00 | 00:00:00 | |
| IN3HCDX1 | 2026-09-05 11:54:07 | 45.77727 | 13.87000 | 118° | 73km/h | 15994m | 3.5m/s | -61.6°C | 3.8% | 0hPa | 2.6V | 00:00:00 | 00:00:00 | 00:00:00 | |
| DO3MHA-11 | 2026-09-05 11:54:04 | 45.77759 | 13.86901 | 111° | 69km/h | 15981m | 2.7m/s | -61.7°C | 8.4% | 0hPa | 2.6V | 00:00:00 | 01:26:54 | 00:00:00 | |
| OM5KV | 2026-09-05 11:54:00 | 45.77780 | 13.86832 | 119° | 68km/h | 15971m | 2.9m/s | -61.8°C | 4.1% | 0hPa | 2.6V | 00:00:00 | 00:00:00 | 00:00:00 | |
| OE8JPQ-2 | 2026-09-05 11:53:58 | 45.77805 | 13.86759 | 115° | 75km/h | 15961m | 2.9m/s | -61.7°C | 8.6% | 0hPa | 2.6V | 00:00:00 | 00:00:00 | 00:00:00 | |
| S52SK | 2026-09-05 11:53:57 | 45.77805 | 13.86759 | 115° | 80km/h | 15961m | 2.9m/s | -61.7°C | 4.1% | 0hPa | 2.6V | 00:00:00 | 00:00:00 | 00:00:00 | |
| OE5DRO-10 | 2026-09-05 11:53:55 | 45.77828 | 13.86684 | 111° | 77km/h | 15950m | 3.4m/s | -61.8°C | 8.3% | 0hPa | 2.6V | 00:00:00 | 00:00:00 | 00:00:00 | |
| DO3MHA-11 | 2026-09-05 11:53:54 | 45.77833 | 13.86660 | 108° | 77km/h | 15946m | 3.8m/s | -61.9°C | 8.3% | 0hPa | 2.6V | 00:00:00 | 01:26:44 | 08:30:00 | |
| 9A1FER-3 | 2026-09-05 11:53:53 | 45.77838 | 13.86636 | 106° | 77km/h | 15942m | 3.6m/s | -61.9°C | 8.3% | 0hPa | 2.7V | 00:00:00 | 01:26:43 | 00:00:00 | |
| OE5DXL-15 | 2026-09-05 11:53:52 | 45.77843 | 13.86612 | 108° | 77km/h | 15939m | 2.6m/s | -62.1°C | 8.5% | 0hPa | 2.7V | 00:00:00 | 00:00:00 | 00:00:00 | |
| S52SK | 2026-09-05 11:53:51 | 45.77843 | 13.86612 | 109° | 73km/h | 15939m | 2.7m/s | -62.1°C | 4.1% | 0hPa | 2.7V | 00:00:00 | 00:00:00 | 00:00:00 | |
| OM5KV | 2026-09-05 11:53:49 | 45.77857 | 13.86562 | 118° | 77km/h | 15931m | 3.6m/s | -62.1°C | 4.1% | 0hPa | 2.7V | 00:00:00 | 00:00:00 | 00:00:00 | |
| OM5KV | 2026-09-05 11:53:48 | 45.77866 | 13.86537 | 119° | 82km/h | 15928m | 4.0m/s | 0°C | 0% | 0hPa | 2.7V | 00:00:00 | 00:00:00 | 00:00:00 | |
| IN3HCDX1 | 2026-09-05 11:53:47 | 45.77876 | 13.86511 | 117° | 84km/h | 15924m | 3.3m/s | -61.8°C | 4.1% | 0hPa | 2.7V | 00:00:00 | 00:00:00 | 00:00:00 | |
| DO3MHA-11 | 2026-09-05 11:53:44 | 45.77904 | 13.86410 | 109° | 77km/h | 15910m | 2.9m/s | -62.0°C | 8.8% | 0hPa | 2.7V | 00:00:00 | 01:26:34 | 00:00:00 | |
| OM5KV | 2026-09-05 11:53:43 | 45.77905 | 13.86410 | 110° | 68km/h | 15910m | 3.0m/s | -62.0°C | 4.2% | 0hPa | 2.7V | 00:00:00 | 00:00:00 | 00:00:00 | |
| OM5KV | 2026-09-05 11:53:42 | 45.77910 | 13.86386 | 110° | 71km/h | 15906m | 3.9m/s | 0°C | 0% | 0hPa | 2.7V | 00:00:00 | 00:00:00 | 00:00:00 | |
| 9A1FER-3 | 2026-09-05 11:53:38 | 45.77952 | 13.86254 | 116° | 78km/h | 15888m | 3.6m/s | -62.0°C | 8.8% | 0hPa | 2.7V | 00:00:00 | 01:26:28 | 00:00:00 | |
| OM5KV | 2026-09-05 11:53:37 | 45.77952 | 13.86254 | 116° | 88km/h | 15888m | 3.6m/s | -62.0°C | 4.2% | 0hPa | 2.7V | 00:00:00 | 00:00:00 | 00:00:00 | |
| OE5DRO-10 | 2026-09-05 11:53:36 | 45.77968 | 13.86199 | 110° | 78km/h | 15882m | 3.5m/s | -62.1°C | 8.6% | 0hPa | 2.7V | 00:00:00 | 00:00:00 | 00:00:00 | |
| DO3MHA-11 | 2026-09-05 11:53:34 | 45.77979 | 13.86153 | 108° | 78km/h | 15874m | 2.9m/s | -62.2°C | 8.7% | 0hPa | 2.7V | 00:00:00 | 01:26:24 | 00:00:00 | |
| OM5KV | 2026-09-05 11:53:33 | 45.77983 | 13.86131 | 110° | 64km/h | 15871m | 2.6m/s | -62.2°C | 4.2% | 0hPa | 2.7V | 00:00:00 | 00:00:00 | 00:00:00 | |
| OM5KV | 2026-09-05 11:53:31 | 45.77989 | 13.86108 | 110° | 73km/h | 15868m | 3.9m/s | 0°C | 0% | 0hPa | 2.7V | 00:00:00 | 00:00:00 | 00:00:00 | |
| IN3HCDX1 | 2026-09-05 11:53:26 | 45.78028 | 13.85966 | 114° | 78km/h | 15849m | 3.3m/s | -62.0°C | 4.2% | 0hPa | 2.7V | 00:00:00 | 00:00:00 | 00:00:00 | |
| OM5KV | 2026-09-05 11:53:25 | 45.78036 | 13.85940 | 114° | 77km/h | 15846m | 3.5m/s | 0°C | 0% | 0hPa | 2.7V | 00:00:00 | 00:00:00 | 00:00:00 | |
| 9A1FER-3 | 2026-09-05 11:53:23 | 45.78058 | 13.85862 | 112° | 78km/h | 15835m | 3.2m/s | -62.1°C | 8.8% | 0hPa | 2.7V | 00:00:00 | 01:26:13 | 00:00:00 | |
| OE5DXL-15 | 2026-09-05 11:53:22 | 45.78065 | 13.85837 | 112° | 80km/h | 15831m | 4.1m/s | -62.1°C | 8.9% | 0hPa | 2.7V | 00:00:00 | 00:00:00 | 00:00:00 | |
| IV3AMH | 2026-09-05 11:53:21 | 45.78065 | 13.85837 | 113° | 73km/h | 15831m | 4.1m/s | -62.2°C | 4.4% | 0hPa | 2.7V | 00:00:00 | 00:00:00 | 00:00:00 | |
| OM5KV | 2026-09-05 11:53:20 | 45.78071 | 13.85812 | 111° | 75km/h | 15827m | 3.0m/s | -62.2°C | 4.3% | 0hPa | 2.7V | 00:00:00 | 00:00:00 | 00:00:00 | |
| OE8JPQ-2 | 2026-09-05 11:53:18 | 45.78091 | 13.85727 | 108° | 80km/h | 15817m | 3.2m/s | -62.2°C | 8.8% | 0hPa | 2.7V | 00:00:00 | 00:00:00 | 00:00:00 | |
| OE5DRO-10 | 2026-09-05 11:53:17 | 45.78097 | 13.85697 | 107° | 80km/h | 15813m | 4.4m/s | -62.1°C | 8.7% | 0hPa | 2.7V | 00:00:00 | 00:00:00 | 08:30:00 | |
| OM5KV | 2026-09-05 11:53:16 | 45.78103 | 13.85669 | 109° | 80km/h | 15809m | 3.6m/s | -62.3°C | 0% | 0hPa | 2.6V | 00:00:00 | 00:00:00 | 00:00:00 | |
| DO3MHA-11 | 2026-09-05 11:53:14 | 45.78117 | 13.85616 | 112° | 80km/h | 15801m | 4.5m/s | -62.4°C | 8.8% | 0hPa | 2.6V | 00:00:00 | 01:26:04 | 00:00:00 | |
| IN3HCDX | 2026-09-05 11:53:13 | 45.78117 | 13.85616 | 113° | 78km/h | 15801m | 4.5m/s | -62.4°C | 4.3% | 0hPa | 2.6V | 00:00:00 | 00:00:00 | 00:00:00 | |
| OM5KV | 2026-09-05 11:53:09 | 45.78149 | 13.85512 | 114° | 75km/h | 15787m | 3.3m/s | -62.8°C | 0% | 0hPa | 2.6V | 00:00:00 | 00:00:00 | 00:00:00 | |
| 9A1FER-3 | 2026-09-05 11:53:08 | 45.78162 | 13.85459 | 109° | 82km/h | 15780m | 4.2m/s | -62.9°C | 9.4% | 0hPa | 2.6V | 00:00:00 | 01:25:58 | 00:00:00 | |
| IN3HCDX1 | 2026-09-05 11:53:06 | 45.78169 | 13.85430 | 108° | 86km/h | 15776m | 3.4m/s | -62.9°C | 4.6% | 0hPa | 2.6V | 00:00:00 | 00:00:00 | 00:00:00 | |
| DO3MHA-11 | 2026-09-05 11:53:04 | 45.78185 | 13.85343 | 103° | 82km/h | 15765m | 3.3m/s | -62.9°C | 9.4% | 0hPa | 2.6V | 00:00:00 | 01:25:54 | 00:00:00 | |
| OM5KV | 2026-09-05 11:53:03 | 45.78184 | 13.85343 | 103° | 78km/h | 15765m | 3.3m/s | 0°C | 0% | 0hPa | 2.6V | 00:00:00 | 00:00:00 | 00:00:00 | |
| OM5KV | 2026-09-05 11:53:02 | 45.78189 | 13.85315 | 103° | 80km/h | 15762m | 4.2m/s | 0°C | 0% | 0hPa | 2.6V | 00:00:00 | 00:00:00 | 00:00:00 | |
| DO3MHA-12 | 2026-09-05 11:53:00 | 45.78205 | 13.85230 | 108° | 77km/h | 15750m | 4.4m/s | -62.9°C | 9.4% | 0hPa | 2.6V | 00:00:00 | 01:25:50 | 00:00:00 | |
| OE8JPQ-2 | 2026-09-05 11:52:58 | 45.78217 | 13.85174 | 107° | 78km/h | 15743m | 3.8m/s | -62.8°C | 9.4% | 0hPa | 2.6V | 00:00:00 | 00:00:00 | 00:00:00 | |
| OM5KV | 2026-09-05 11:52:57 | 45.78217 | 13.85174 | 107° | 84km/h | 15743m | 3.9m/s | 0°C | 0% | 0hPa | 2.6V | 00:00:00 | 00:00:00 | 00:00:00 | |
| OM5KV | 2026-09-05 11:52:56 | 45.78223 | 13.85144 | 104° | 86km/h | 15739m | 3.5m/s | 0°C | 0% | 0hPa | 2.6V | 00:00:00 | 00:00:00 | 00:00:00 | |
| DO3MHA-11 | 2026-09-05 11:52:54 | 45.78233 | 13.85056 | 99° | 78km/h | 15728m | 3.6m/s | -62.7°C | 9.3% | 0hPa | 2.6V | 00:00:00 | 01:25:44 | 00:00:00 | |
| 9A1FER-3 | 2026-09-05 11:52:53 | 45.78236 | 13.85029 | 100° | 69km/h | 15724m | 3.2m/s | -62.7°C | 9.2% | 0hPa | 2.6V | 00:00:00 | 01:25:43 | 00:00:00 | |
| OE5DXL-15 | 2026-09-05 11:52:52 | 45.78240 | 13.85003 | 102° | 75km/h | 15720m | 4.1m/s | -62.7°C | 9.3% | 0hPa | 2.6V | 00:00:00 | 00:00:00 | 00:00:00 | |
| IN3HCDX | 2026-09-05 11:52:51 | 45.78239 | 13.85003 | 102° | 77km/h | 15720m | 4.1m/s | -62.8°C | 4.5% | 0hPa | 2.6V | 00:00:00 | 00:00:00 | 00:00:00 | |
| OM5KV | 2026-09-05 11:52:50 | 45.78244 | 13.84975 | 105° | 78km/h | 15716m | 3.6m/s | 0°C | 0% | 0hPa | 2.6V | 00:00:00 | 00:00:00 | 00:00:00 | |
| DO3MHA-12 | 2026-09-05 11:52:49 | 45.78254 | 13.84921 | 107° | 75km/h | 15708m | 4.1m/s | -62.7°C | 9.3% | 0hPa | 2.6V | 00:00:00 | 01:25:39 | 00:00:00 | |
| IN3HCDX1 | 2026-09-05 11:52:45 | 45.78269 | 13.84838 | 103° | 82km/h | 15697m | 3.0m/s | -62.6°C | 4.5% | 0hPa | 2.7V | 00:00:00 | 00:00:00 | 00:00:00 | |
| OM5KV | 2026-09-05 11:52:44 | 45.78273 | 13.84809 | 100° | 78km/h | 15693m | 3.8m/s | 0°C | 0% | 0hPa | 2.7V | 00:00:00 | 00:00:00 | 00:00:00 | |
| DO3MHA-11 | 2026-09-05 11:52:43 | 45.78279 | 13.84756 | 99° | 77km/h | 15685m | 3.1m/s | -62.5°C | 9.2% | 0hPa | 2.7V | 00:00:00 | 01:25:33 | 00:00:00 | |
| DO3MHA-12 | 2026-09-05 11:52:39 | 45.78295 | 13.84650 | 103° | 75km/h | 15670m | 4.3m/s | -62.5°C | 9.0% | 0hPa | 2.7V | 00:00:00 | 01:25:29 | 00:00:00 | |
| OE8JPQ-2 | 2026-09-05 11:52:38 | 45.78299 | 13.84623 | 100° | 73km/h | 15666m | 3.8m/s | -62.5°C | 8.8% | 0hPa | 2.7V | 00:00:00 | 01:25:28 | 00:00:00 | |
| OM5KV | 2026-09-05 11:52:36 | 45.78301 | 13.84595 | 98° | 80km/h | 15662m | 4.2m/s | 0°C | 0% | 0hPa | 2.7V | 00:00:00 | 00:00:00 | 00:00:00 | |
| DO3MHA-11 | 2026-09-05 11:52:33 | 45.78309 | 13.84484 | 99° | 73km/h | 15647m | 4.2m/s | -62.4°C | 8.8% | 0hPa | 2.7V | 00:00:00 | 01:25:23 | 00:00:00 | |
| OM5KV | 2026-09-05 11:52:30 | 45.78316 | 13.84436 | 105° | 71km/h | 15639m | 3.8m/s | 0°C | 0% | 0hPa | 2.7V | 00:00:00 | 00:00:00 | 00:00:00 | |
| DO3MHA-12 | 2026-09-05 11:52:29 | 45.78324 | 13.84383 | 100° | 73km/h | 15631m | 4.0m/s | -62.4°C | 8.9% | 0hPa | 2.7V | 00:00:00 | 01:25:19 | 00:00:00 | |
| IN3HCDX1 | 2026-09-05 11:52:24 | 45.78334 | 13.84275 | 100° | 73km/h | 15615m | 4.5m/s | -62.7°C | 4.5% | 0hPa | 2.7V | 00:00:00 | 00:00:00 | 00:00:00 | |
| DO3MHA-11 | 2026-09-05 11:52:23 | 45.78340 | 13.84224 | 101° | 73km/h | 15608m | 4.4m/s | -62.8°C | 9.3% | 0hPa | 2.7V | 00:00:00 | 01:25:13 | 08:30:00 | |
| OE5DXL-15 | 2026-09-05 11:52:22 | 45.78343 | 13.84201 | 98° | 71km/h | 15603m | 4.5m/s | -62.8°C | 9.2% | 0hPa | 2.6V | 00:00:00 | 00:00:00 | 00:00:00 | |
| OE5DRO-10 | 2026-09-05 11:52:20 | 45.78346 | 13.84153 | 95° | 73km/h | 15595m | 3.6m/s | -62.7°C | 9.1% | 0hPa | 2.6V | 00:00:00 | 00:00:00 | 00:00:00 | |
| DO3MHA-12 | 2026-09-05 11:52:19 | 45.78347 | 13.84127 | 96° | 73km/h | 15591m | 4.7m/s | -62.8°C | 9.0% | 0hPa | 2.7V | 00:00:00 | 01:25:09 | 00:00:00 | |
| OE8JPQ-2 | 2026-09-05 11:52:18 | 45.78349 | 13.84098 | 97° | 73km/h | 15587m | 3.2m/s | -62.7°C | 9.0% | 0hPa | 2.7V | 00:00:00 | 00:00:00 | 08:30:00 | |
| DO3MHA-11 | 2026-09-05 11:52:13 | 45.78351 | 13.83959 | 94° | 71km/h | 15567m | 4.3m/s | -62.6°C | 8.9% | 0hPa | 2.6V | 00:00:00 | 01:25:03 | 00:00:00 | |
| S52SK | 2026-09-05 11:52:12 | 45.78351 | 13.83959 | 95° | 66km/h | 15567m | 4.3m/s | -62.6°C | 4.3% | 0hPa | 2.6V | 00:00:00 | 00:00:00 | 00:00:00 | |
| DO3MHA-12 | 2026-09-05 11:52:09 | 45.78362 | 13.83860 | 95° | 71km/h | 15552m | 4.5m/s | -62.4°C | 9.0% | 0hPa | 2.6V | 00:00:00 | 01:24:59 | 00:00:00 | |
| S52SK | 2026-09-05 11:52:07 | 45.78362 | 13.83834 | 90° | 71km/h | 15547m | 4.9m/s | -62.4°C | 4.4% | 0hPa | 2.6V | 00:00:00 | 00:00:00 | 00:00:00 | |
| DO3MHA-11 | 2026-09-05 11:52:03 | 45.78366 | 13.83704 | 97° | 71km/h | 15526m | 4.6m/s | -62.2°C | 8.8% | 0hPa | 2.6V | 00:00:00 | 01:24:53 | 00:00:00 | |
| OE5DRO-10 | 2026-09-05 11:52:01 | 45.78368 | 13.83653 | 92° | 71km/h | 15516m | 4.5m/s | -62.1°C | 8.8% | 0hPa | 2.6V | 00:00:00 | 00:00:00 | 00:00:00 | |
| DO3MHA-12 | 2026-09-05 11:51:59 | 45.78370 | 13.83602 | 97° | 71km/h | 15508m | 4.5m/s | 0°C | 0% | 0hPa | 2.6V | 00:00:00 | 01:24:49 | 00:00:00 | |
| OE8JPQ-2 | 2026-09-05 11:51:58 | 45.78373 | 13.83576 | 101° | 69km/h | 15503m | 4.8m/s | -62.0°C | 8.8% | 0hPa | 2.6V | 00:00:00 | 00:00:00 | 00:00:00 | |
| DO3MHA-11 | 2026-09-05 11:51:53 | 45.78380 | 13.83449 | 91° | 69km/h | 15482m | 4.2m/s | -61.9°C | 8.8% | 0hPa | 2.6V | 00:00:00 | 01:24:43 | 00:00:00 | |
| OE5DXL-15 | 2026-09-05 11:51:52 | 45.78380 | 13.83423 | 94° | 68km/h | 15478m | 4.0m/s | -61.8°C | 8.9% | 0hPa | 2.7V | 00:00:00 | 00:00:00 | 00:00:00 | |
| IN3HCDX | 2026-09-05 11:51:49 | 45.78384 | 13.83351 | 94° | 66km/h | 15466m | 3.4m/s | -61.8°C | 4.2% | 0hPa | 2.7V | 00:00:00 | 00:00:00 | 00:00:00 | |
| DO3MHA-11 | 2026-09-05 11:51:42 | 45.78388 | 13.83173 | 95° | 66km/h | 15438m | 4.5m/s | -61.6°C | 8.5% | 0hPa | 2.7V | 00:00:00 | 01:24:32 | 00:00:00 | |
| DO3MHA-12 | 2026-09-05 11:51:39 | 45.78395 | 13.83099 | 98° | 68km/h | 15424m | 4.9m/s | 0°C | 0% | 0hPa | 2.7V | 00:00:00 | 01:24:29 | 00:00:00 | |
| OE8JPQ-2 | 2026-09-05 11:51:38 | 45.78397 | 13.83075 | 95° | 66km/h | 15420m | 4.1m/s | -61.4°C | 8.5% | 0hPa | 2.7V | 00:00:00 | 01:24:28 | 00:00:00 | |
| DO3MHA-11 | 2026-09-05 11:51:32 | 45.78403 | 13.82935 | 98° | 68km/h | 15393m | 3.0m/s | -61.2°C | 8.4% | 0hPa | 2.7V | 00:00:00 | 01:24:22 | 00:00:00 | |
| DO3MHA-12 | 2026-09-05 11:51:29 | 45.78409 | 13.82864 | 95° | 66km/h | 15379m | 4.6m/s | 0°C | 0% | 0hPa | 2.7V | 00:00:00 | 01:24:19 | 00:00:00 | |
| IN3HCDX | 2026-09-05 11:51:28 | 45.78409 | 13.82864 | 95° | 69km/h | 15379m | 4.6m/s | -61.2°C | 4.0% | 0hPa | 2.7V | 00:00:00 | 00:00:00 | 00:00:00 | |
| IV3AMH | 2026-09-05 11:51:25 | 45.78410 | 13.82790 | 92° | 68km/h | 15366m | 4.0m/s | -61.2°C | 4.1% | 0hPa | 2.7V | 00:00:00 | 00:00:00 | 00:00:00 | |
| OE5DRO-10 | 2026-09-05 11:51:23 | 45.78416 | 13.82717 | 102° | 66km/h | 15353m | 3.8m/s | -61.1°C | 8.4% | 0hPa | 2.7V | 00:00:00 | 00:00:00 | 00:00:00 | |
| DO3MHA-11 | 2026-09-05 11:51:22 | 45.78419 | 13.82694 | 101° | 66km/h | 15349m | 4.6m/s | -61.1°C | 8.4% | 0hPa | 2.7V | 00:00:00 | 01:24:12 | 00:00:00 | |
| IN3HCDX1 | 2026-09-05 11:51:21 | 45.78419 | 13.82694 | 101° | 60km/h | 15349m | 4.7m/s | -61.1°C | 4.1% | 0hPa | 2.7V | 00:00:00 | 00:00:00 | 00:00:00 | |
| DO3MHA-12 | 2026-09-05 11:51:17 | 45.78426 | 13.82579 | 99° | 66km/h | 15328m | 3.7m/s | 0°C | 0% | 0hPa | 2.7V | 00:00:00 | 01:24:07 | 00:00:00 | |
| DO3MHA-11 | 2026-09-05 11:51:11 | 45.78443 | 13.82437 | 95° | 66km/h | 15303m | 4.2m/s | -60.8°C | 8.3% | 0hPa | 2.7V | 00:00:00 | 01:24:01 | 00:00:00 | |
| IN3HCDX | 2026-09-05 11:51:08 | 45.78446 | 13.82390 | 96° | 62km/h | 15293m | 3.7m/s | -60.8°C | 4.1% | 0hPa | 2.7V | 00:00:00 | 00:00:00 | 00:00:00 | |
| OE5DRO-10 | 2026-09-05 11:51:04 | 45.78458 | 13.82273 | 101° | 68km/h | 15271m | 4.0m/s | -60.6°C | 8.4% | 0hPa | 2.7V | 00:00:00 | 00:00:00 | 00:00:00 | |
| 9A1FER-3 | 2026-09-05 11:51:03 | 45.78462 | 13.82251 | 101° | 66km/h | 15267m | 3.6m/s | -60.5°C | 8.4% | 0hPa | 2.7V | 00:00:00 | 01:23:53 | 00:00:00 | |
| DO3MHA-11 | 2026-09-05 11:51:01 | 45.78465 | 13.82202 | 94° | 68km/h | 15258m | 3.4m/s | -60.5°C | 8.2% | 0hPa | 2.7V | 00:00:00 | 01:23:51 | 00:00:00 | |
| IN3HCDX1 | 2026-09-05 11:51:00 | 45.78465 | 13.82202 | 95° | 71km/h | 15258m | 3.5m/s | -60.5°C | 4.0% | 0hPa | 2.7V | 00:00:00 | 00:00:00 | 00:00:00 | |
| OE8JPQ-2 | 2026-09-05 11:50:58 | 45.78468 | 13.82131 | 95° | 68km/h | 15246m | 3.7m/s | -60.4°C | 8.3% | 0hPa | 2.7V | 00:00:00 | 00:00:00 | 00:00:00 | |
| OE5DXL-15 | 2026-09-05 11:50:52 | 45.78485 | 13.81985 | 104° | 69km/h | 15222m | 4.5m/s | -60.2°C | 8.3% | 0hPa | 2.7V | 00:00:00 | 00:00:00 | 00:00:00 | |
| DO3MHA-11 | 2026-09-05 11:50:51 | 45.78489 | 13.81963 | 103° | 66km/h | 15217m | 3.4m/s | -60.2°C | 8.3% | 0hPa | 2.7V | 00:00:00 | 01:23:41 | 08:30:00 | |
| IN3HCDX | 2026-09-05 11:50:47 | 45.78498 | 13.81895 | 98° | 69km/h | 15205m | 4.3m/s | -60.2°C | 4.1% | 0hPa | 2.6V | 00:00:00 | 00:00:00 | 00:00:00 | |
| 9A1FER-3 | 2026-09-05 11:50:45 | 45.78503 | 13.81821 | 95° | 69km/h | 15192m | 4.4m/s | -60.1°C | 8.3% | 0hPa | 2.6V | 00:00:00 | 01:23:35 | 00:00:00 | |
| IV3AMH | 2026-09-05 11:50:42 | 45.78508 | 13.81775 | 105° | 68km/h | 15184m | 4.5m/s | -60.1°C | 4.2% | 0hPa | 2.6V | 00:00:00 | 00:00:00 | 00:00:00 | |
| DO3MHA-11 | 2026-09-05 11:50:41 | 45.78518 | 13.81725 | 108° | 69km/h | 15175m | 4.0m/s | -60.0°C | 8.3% | 0hPa | 2.6V | 00:00:00 | 01:23:31 | 00:00:00 | |
| IN3HCDX1 | 2026-09-05 11:50:40 | 45.78518 | 13.81725 | 109° | 75km/h | 15175m | 4.1m/s | -60.1°C | 4.1% | 0hPa | 2.6V | 00:00:00 | 00:00:00 | 00:00:00 | |
| OE8JPQ-2 | 2026-09-05 11:50:38 | 45.78532 | 13.81651 | 101° | 73km/h | 15163m | 3.7m/s | -60.1°C | 8.4% | 0hPa | 2.6V | 00:00:00 | 01:23:28 | 00:00:00 | |
| DO3MHA-11 | 2026-09-05 11:50:31 | 45.78545 | 13.81478 | 97° | 75km/h | 15134m | 3.8m/s | -60.1°C | 8.5% | 0hPa | 2.6V | 00:00:00 | 01:23:21 | 00:00:00 | |
| 9A1FER-3 | 2026-09-05 11:50:30 | 45.78548 | 13.81452 | 98° | 77km/h | 15130m | 4.5m/s | -60.2°C | 8.6% | 0hPa | 2.6V | 00:00:00 | 01:23:20 | 08:30:00 | |
| OE5DRO-10 | 2026-09-05 11:50:26 | 45.78561 | 13.81342 | 104° | 77km/h | 15112m | 3.9m/s | -60.1°C | 8.6% | 0hPa | 2.7V | 00:00:00 | 00:00:00 | 08:30:00 | |
| OE5DXL-15 | 2026-09-05 11:50:22 | 45.78580 | 13.81238 | 104° | 80km/h | 15094m | 3.9m/s | -60.0°C | 8.6% | 0hPa | 2.7V | 00:00:00 | 00:00:00 | 00:00:00 | |
| DO3MHA-11 | 2026-09-05 11:50:21 | 45.78583 | 13.81212 | 100° | 77km/h | 15090m | 3.6m/s | -59.9°C | 8.5% | 0hPa | 2.7V | 00:00:00 | 01:23:11 | 00:00:00 | |
| IN3HCDX1 | 2026-09-05 11:50:20 | 45.78584 | 13.81212 | 100° | 75km/h | 15090m | 3.6m/s | -60.0°C | 4.3% | 0hPa | 2.6V | 00:00:00 | 00:00:00 | 00:00:00 | |
| OE8JPQ-2 | 2026-09-05 11:50:18 | 45.78591 | 13.81126 | 97° | 78km/h | 15077m | 3.5m/s | -59.9°C | 8.4% | 0hPa | 2.6V | 00:00:00 | 00:00:00 | 00:00:00 | |
| DO3MHA-11 | 2026-09-05 11:50:10 | 45.78621 | 13.80910 | 99° | 78km/h | 15042m | 4.9m/s | -59.8°C | 8.8% | 0hPa | 2.7V | 00:00:00 | 01:23:00 | 00:00:00 | |
| OE5DRO-10 | 2026-09-05 11:50:07 | 45.78630 | 13.80827 | 100° | 84km/h | 15028m | 5.0m/s | -60.0°C | 8.9% | 0hPa | 2.7V | 00:00:00 | 00:00:00 | 00:00:00 | |
| IN3HCDX | 2026-09-05 11:50:06 | 45.78634 | 13.80798 | 103° | 84km/h | 15023m | 4.4m/s | -60.0°C | 4.7% | 0hPa | 2.7V | 00:00:00 | 00:00:00 | 00:00:00 | |
| DO3MHA-11 | 2026-09-05 11:50:00 | 45.78655 | 13.80627 | 98° | 84km/h | 14995m | 5.0m/s | -60.1°C | 8.9% | 0hPa | 2.7V | 00:00:00 | 01:22:50 | 00:00:00 | |
| IN3HCDX1 | 2026-09-05 11:49:59 | 45.78655 | 13.80627 | 98° | 78km/h | 14995m | 5.0m/s | -60.1°C | 4.7% | 0hPa | 2.7V | 00:00:00 | 00:00:00 | 00:00:00 | |
| OE8JPQ-2 | 2026-09-05 11:49:58 | 45.78662 | 13.80568 | 101° | 84km/h | 14986m | 5.3m/s | -60.0°C | 8.9% | 0hPa | 2.7V | 00:00:00 | 00:00:00 | 00:00:00 | |
| DO3MHA-11 | 2026-09-05 11:49:50 | 45.78695 | 13.80325 | 98° | 84km/h | 14950m | 4.0m/s | -59.8°C | 8.9% | 0hPa | 2.7V | 00:00:00 | 01:22:40 | 00:00:00 | |
| S52SK | 2026-09-05 11:49:49 | 45.78695 | 13.80325 | 99° | 88km/h | 14950m | 4.0m/s | -59.8°C | 4.8% | 0hPa | 2.7V | 00:00:00 | 00:00:00 | 00:00:00 | |
| OE5DRO-10 | 2026-09-05 11:49:48 | 45.78702 | 13.80266 | 100° | 84km/h | 14941m | 4.0m/s | -59.8°C | 9.0% | 0hPa | 2.7V | 00:00:00 | 00:00:00 | 00:00:00 | |
| DO3MHA-12 | 2026-09-05 11:49:45 | 45.78713 | 13.80176 | 100° | 84km/h | 14928m | 4.0m/s | 0°C | 0% | 0hPa | 2.7V | 00:00:00 | 01:22:35 | 00:00:00 | |
| IN3HCDX | 2026-09-05 11:49:44 | 45.78713 | 13.80176 | 100° | 86km/h | 14928m | 4.1m/s | -60.1°C | 5.0% | 0hPa | 2.7V | 00:00:00 | 00:00:00 | 00:00:00 | |
| S52SK | 2026-09-05 11:49:43 | 45.78716 | 13.80146 | 99° | 84km/h | 14923m | 4.7m/s | -60.1°C | 5.1% | 0hPa | 2.7V | 00:00:00 | 00:00:00 | 00:00:00 | |
| DO3MHA-11 | 2026-09-05 11:49:40 | 45.78726 | 13.80027 | 94° | 84km/h | 14905m | 4.9m/s | -60.2°C | 9.5% | 0hPa | 2.7V | 00:00:00 | 01:22:30 | 00:00:00 | |
| OE8JPQ-2 | 2026-09-05 11:49:38 | 45.78729 | 13.79966 | 97° | 88km/h | 14895m | 4.8m/s | -60.2°C | 9.7% | 0hPa | 2.7V | 00:00:00 | 01:22:28 | 00:00:00 | |
| DO3MHA-12 | 2026-09-05 11:49:35 | 45.78740 | 13.79877 | 101° | 88km/h | 14882m | 5.1m/s | 0°C | 0% | 0hPa | 2.7V | 00:00:00 | 01:22:25 | 00:00:00 | |
| DO3MHA-11 | 2026-09-05 11:49:30 | 45.78758 | 13.79724 | 101° | 89km/h | 14859m | 5.1m/s | -60.3°C | 9.8% | 0hPa | 2.7V | 00:00:00 | 01:22:20 | 00:00:00 | |
| OE5DRO-10 | 2026-09-05 11:49:29 | 45.78762 | 13.79693 | 102° | 89km/h | 14854m | 5.0m/s | -60.3°C | 10.0% | 0hPa | 2.7V | 00:00:00 | 00:00:00 | 00:00:00 | |
| 9A1FER-3 | 2026-09-05 11:49:26 | 45.78776 | 13.79599 | 102° | 89km/h | 14839m | 4.3m/s | -60.3°C | 10.2% | 0hPa | 2.7V | 00:00:00 | 01:22:16 | 00:00:00 | |
| DO3MHA-12 | 2026-09-05 11:49:25 | 45.78780 | 13.79567 | 103° | 89km/h | 14835m | 5.3m/s | 0°C | 0% | 0hPa | 2.7V | 00:00:00 | 01:22:15 | 00:00:00 | |
| IN3HCDX | 2026-09-05 11:49:24 | 45.78781 | 13.79567 | 104° | 93km/h | 14835m | 5.4m/s | -60.3°C | 5.7% | 0hPa | 2.7V | 00:00:00 | 00:00:00 | 00:00:00 | |
| OE5DXL-15 | 2026-09-05 11:49:22 | 45.78796 | 13.79469 | 103° | 89km/h | 14820m | 4.3m/s | -60.2°C | 10.4% | 0hPa | 2.7V | 00:00:00 | 00:00:00 | 00:00:00 | |
| DO3MHA-11 | 2026-09-05 11:49:20 | 45.78806 | 13.79407 | 103° | 91km/h | 14811m | 5.2m/s | -60.3°C | 10.5% | 0hPa | 2.7V | 00:00:00 | 01:22:10 | 08:30:00 | |
| OE8JPQ-2 | 2026-09-05 11:49:18 | 45.78816 | 13.79343 | 104° | 89km/h | 14801m | 5.2m/s | -60.3°C | 10.7% | 0hPa | 2.7V | 00:00:00 | 00:00:00 | 08:30:00 | |
| DO3MHA-12 | 2026-09-05 11:49:15 | 45.78832 | 13.79247 | 104° | 91km/h | 14787m | 4.8m/s | 0°C | 0% | 0hPa | 2.7V | 00:00:00 | 01:22:05 | 00:00:00 | |
| DO3MHA-11 | 2026-09-05 11:49:10 | 45.78855 | 13.79088 | 101° | 89km/h | 14765m | 5.3m/s | -60.4°C | 11.4% | 0hPa | 2.7V | 00:00:00 | 01:22:00 | 00:00:00 | |
| DO3MHA-12 | 2026-09-05 11:49:04 | 45.78883 | 13.78893 | 102° | 89km/h | 14736m | 3.4m/s | 0°C | 0% | 0hPa | 2.7V | 00:00:00 | 01:21:54 | 00:00:00 | |
| IN3HCDX | 2026-09-05 11:49:03 | 45.78883 | 13.78893 | 102° | 93km/h | 14736m | 3.5m/s | -60.3°C | 7.0% | 0hPa | 2.7V | 00:00:00 | 00:00:00 | 00:00:00 | |
| DO3MHA-11 | 2026-09-05 11:49:00 | 45.78899 | 13.78769 | 100° | 89km/h | 14717m | 5.1m/s | -60.3°C | 11.7% | 0hPa | 2.7V | 00:00:00 | 01:21:50 | 00:00:00 | |
| OE8JPQ-2 | 2026-09-05 11:48:58 | 45.78906 | 13.78704 | 97° | 89km/h | 14708m | 4.5m/s | -60.3°C | 11.7% | 0hPa | 2.7V | 00:00:00 | 00:00:00 | 00:00:00 | |
| DO3MHA-12 | 2026-09-05 11:48:54 | 45.78920 | 13.78575 | 104° | 88km/h | 14689m | 4.6m/s | 0°C | 0% | 0hPa | 2.7V | 00:00:00 | 01:21:44 | 00:00:00 | |
| 9A1FER-3 | 2026-09-05 11:48:53 | 45.78925 | 13.78544 | 102° | 91km/h | 14685m | 3.6m/s | -60.2°C | 12.5% | 0hPa | 2.7V | 00:00:00 | 01:21:43 | 00:00:00 | |
| OE5DXL-15 | 2026-09-05 11:48:52 | 45.78929 | 13.78513 | 97° | 88km/h | 14680m | 4.8m/s | -60.2°C | 12.6% | 0hPa | 2.7V | 00:00:00 | 00:00:00 | 00:00:00 | |
| OE5DRO-10 | 2026-09-05 11:48:51 | 45.78931 | 13.78482 | 94° | 89km/h | 14676m | 4.3m/s | -60.3°C | 12.7% | 0hPa | 2.7V | 00:00:00 | 00:00:00 | 00:00:00 | |
| DO3MHA-11 | 2026-09-05 11:48:50 | 45.78932 | 13.78450 | 94° | 91km/h | 14672m | 3.7m/s | -60.3°C | 12.8% | 0hPa | 2.7V | 00:00:00 | 01:21:40 | 00:00:00 | |
| IN3HCDX | 2026-09-05 11:48:42 | 45.78955 | 13.78228 | 95° | 93km/h | 14642m | 4.4m/s | -61.3°C | 8.7% | 0hPa | 2.7V | 00:00:00 | 00:00:00 | 00:00:00 | |
| DO3MHA-11 | 2026-09-05 11:48:40 | 45.78961 | 13.78126 | 95° | 88km/h | 14629m | 3.7m/s | -61.4°C | 14.1% | 0hPa | 2.7V | 00:00:00 | 01:21:30 | 00:00:00 | |
| OE8JPQ-2 | 2026-09-05 11:48:38 | 45.78965 | 13.78063 | 96° | 88km/h | 14621m | 3.1m/s | -61.6°C | 14.4% | 0hPa | 2.7V | 00:00:00 | 01:21:28 | 00:00:00 | |
| IN3HCDX1 | 2026-09-05 11:48:37 | 45.78965 | 13.78063 | 96° | 80km/h | 14621m | 3.1m/s | -61.6°C | 9.1% | 0hPa | 2.7V | 00:00:00 | 00:00:00 | 00:00:00 | |
| OE5DRO-10 | 2026-09-05 11:48:32 | 45.78992 | 13.77880 | 100° | 89km/h | 14594m | 3.8m/s | -61.8°C | 15.9% | 0hPa | 2.7V | 00:00:00 | 00:00:00 | 00:00:00 | |
| DO3MHA-11 | 2026-09-05 11:48:30 | 45.79000 | 13.77816 | 100° | 86km/h | 14586m | 4.4m/s | -62.0°C | 16.3% | 0hPa | 2.7V | 00:00:00 | 01:21:20 | 00:00:00 | |
| OE5DXL-15 | 2026-09-05 11:48:22 | 45.79045 | 13.77578 | 105° | 97km/h | 14551m | 4.5m/s | -63.3°C | 19.7% | 0hPa | 2.7V | 00:00:00 | 00:00:00 | 00:00:00 | |
| IN3HCDX | 2026-09-05 11:48:21 | 45.79045 | 13.77578 | 106° | 97km/h | 14551m | 4.6m/s | -63.4°C | 13.0% | 0hPa | 2.7V | 00:00:00 | 00:00:00 | 00:00:00 | |
| DO3MHA-11 | 2026-09-05 11:48:20 | 45.79053 | 13.77511 | 97° | 95km/h | 14544m | 2.9m/s | -63.3°C | 19.3% | 0hPa | 2.7V | 00:00:00 | 01:21:10 | 00:00:00 | |
| OE8JPQ-2 | 2026-09-05 11:48:18 | 45.79059 | 13.77442 | 99° | 95km/h | 14536m | 3.7m/s | -63.3°C | 19.7% | 0hPa | 2.7V | 00:00:00 | 00:00:00 | 00:00:00 | |
| IN3HCDX1 | 2026-09-05 11:48:17 | 45.79060 | 13.77442 | 100° | 97km/h | 14536m | 3.8m/s | -63.3°C | 13.1% | 0hPa | 2.7V | 00:00:00 | 00:00:00 | 00:00:00 | |
| 9A1FER-3 | 2026-09-05 11:48:16 | 45.79070 | 13.77373 | 107° | 97km/h | 14529m | 3.4m/s | -63.3°C | 20.1% | 0hPa | 2.7V | 00:00:00 | 01:21:06 | 00:00:00 | |
| OE5DRO-10 | 2026-09-05 11:48:13 | 45.79094 | 13.77280 | 113° | 97km/h | 14515m | 3.3m/s | -63.2°C | 21.1% | 0hPa | 2.7V | 00:00:00 | 00:00:00 | 00:00:00 | |
| DO3MHA-11 | 2026-09-05 11:48:10 | 45.79116 | 13.77181 | 104° | 95km/h | 14505m | 4.2m/s | -63.1°C | 21.3% | 0hPa | 2.7V | 00:00:00 | 01:21:00 | 00:00:00 | |
| 9A1FER-3 | 2026-09-05 11:48:01 | 45.79175 | 13.76881 | 108° | 97km/h | 14469m | 3.2m/s | -63.6°C | 23.3% | 0hPa | 2.7V | 00:00:00 | 01:20:51 | 00:00:00 | |
| DO3MHA-11 | 2026-09-05 11:48:00 | 45.79182 | 13.76851 | 107° | 100km/h | 14466m | 4.2m/s | -63.6°C | 23.5% | 0hPa | 2.7V | 00:00:00 | 01:20:50 | 00:00:00 | |
| OE8JPQ-2 | 2026-09-05 11:47:58 | 45.79192 | 13.76786 | 103° | 100km/h | 14457m | 3.5m/s | -63.7°C | 23.8% | 0hPa | 2.7V | 00:00:00 | 00:00:00 | 00:00:00 | |
| S52SK | 2026-09-05 11:47:57 | 45.79192 | 13.76786 | 103° | 99km/h | 14457m | 3.6m/s | -63.7°C | 16.5% | 0hPa | 2.7V | 00:00:00 | 00:00:00 | 00:00:00 | |
| IN3HCDX1 | 2026-09-05 11:47:56 | 45.79197 | 13.76751 | 103° | 99km/h | 14454m | 4.1m/s | -63.8°C | 16.5% | 0hPa | 2.7V | 00:00:00 | 00:00:00 | 00:00:00 | |
| OE5DRO-10 | 2026-09-05 11:47:55 | 45.79218 | 13.76645 | 107° | 100km/h | 14442m | 3.6m/s | -64.2°C | 24.9% | 0hPa | 2.7V | 00:00:00 | 00:00:00 | 00:00:00 | |
| OE5DXL-15 | 2026-09-05 11:47:52 | 45.79232 | 13.76571 | 106° | 100km/h | 14434m | 3.1m/s | -64.4°C | 26.0% | 0hPa | 2.7V | 00:00:00 | 00:00:00 | 00:00:00 | |
| S52SK | 2026-09-05 11:47:51 | 45.79232 | 13.76571 | 106° | 108km/h | 14434m | 3.1m/s | -64.5°C | 18.1% | 0hPa | 2.7V | 00:00:00 | 00:00:00 | 00:00:00 | |
| DO3MHA-11 | 2026-09-05 11:47:50 | 45.79245 | 13.76500 | 105° | 99km/h | 14426m | 4.5m/s | -64.4°C | 26.3% | 0hPa | 2.7V | 00:00:00 | 01:20:40 | 08:30:00 | |
| 9A1FER-3 | 2026-09-05 11:47:46 | 45.79269 | 13.76368 | 103° | 102km/h | 14413m | 3.0m/s | -64.5°C | 27.9% | 0hPa | 2.7V | 00:00:00 | 01:20:36 | 00:00:00 | |
| DO3MHA-11 | 2026-09-05 11:47:40 | 45.79301 | 13.76150 | 98° | 100km/h | 14390m | 3.3m/s | -64.9°C | 29.5% | 0hPa | 2.7V | 00:00:00 | 01:20:30 | 00:00:00 | |
| OE8JPQ-2 | 2026-09-05 11:47:38 | 45.79309 | 13.76082 | 104° | 102km/h | 14382m | 3.5m/s | -65.0°C | 29.9% | 0hPa | 2.7V | 00:00:00 | 01:20:28 | 00:00:00 | |
| IN3HCDX1 | 2026-09-05 11:47:36 | 45.79315 | 13.76050 | 107° | 95km/h | 14380m | 1.9m/s | -65.0°C | 21.2% | 0hPa | 2.7V | 00:00:00 | 00:00:00 | 00:00:00 | |
| OE5DRO-10 | 2026-09-05 11:47:35 | 45.79329 | 13.75979 | 104° | 102km/h | 14373m | 4.0m/s | -65.0°C | 30.2% | 0hPa | 2.7V | 00:00:00 | 00:00:00 | 08:30:00 | |
| 9A1FER-3 | 2026-09-05 11:47:31 | 45.79347 | 13.75826 | 99° | 100km/h | 14360m | 3.7m/s | -65.2°C | 31.0% | 0hPa | 2.7V | 00:00:00 | 01:20:21 | 00:00:00 | |
| DO3MHA-11 | 2026-09-05 11:47:30 | 45.79350 | 13.75794 | 99° | 102km/h | 14357m | 2.6m/s | -65.2°C | 31.4% | 0hPa | 2.7V | 00:00:00 | 01:20:20 | 00:00:00 | |
| OE5DXL-15 | 2026-09-05 11:47:22 | 45.79380 | 13.75502 | 100° | 100km/h | 14330m | 3.9m/s | -65.1°C | 31.4% | 0hPa | 2.7V | 00:00:00 | 00:00:00 | 00:00:00 | |
| DO3MHA-11 | 2026-09-05 11:47:20 | 45.79388 | 13.75429 | 97° | 102km/h | 14323m | 2.7m/s | -65.1°C | 31.2% | 0hPa | 2.7V | 00:00:00 | 01:20:10 | 00:00:00 | |
| IN3HCDX | 2026-09-05 11:47:19 | 45.79388 | 13.75429 | 97° | 100km/h | 14323m | 2.7m/s | -65.1°C | 22.3% | 0hPa | 2.7V | 00:00:00 | 00:00:00 | 00:00:00 | |
| OE8JPQ-2 | 2026-09-05 11:47:18 | 45.79392 | 13.75358 | 94° | 102km/h | 14316m | 3.2m/s | -65.0°C | 30.7% | 0hPa | 2.7V | 00:00:00 | 00:00:00 | 00:00:00 | |
| 9A1FER-3 | 2026-09-05 11:47:16 | 45.79395 | 13.75286 | 92° | 102km/h | 14309m | 3.3m/s | -65.1°C | 30.4% | 0hPa | 2.7V | 00:00:00 | 01:20:06 | 00:00:00 | |
| DO3MHA-11 | 2026-09-05 11:47:10 | 45.79412 | 13.75058 | 98° | 100km/h | 14291m | 2.3m/s | -66.4°C | 36.6% | 0hPa | 2.7V | 00:00:00 | 01:20:00 | 00:00:00 | |
| 9A1FER-3 | 2026-09-05 11:47:01 | 45.79434 | 13.74733 | 105° | 95km/h | 14259m | 2.0m/s | -66.4°C | 37.7% | 0hPa | 2.7V | 00:00:00 | 01:19:51 | 08:30:00 | |
| DO3MHA-11 | 2026-09-05 11:47:00 | 45.79439 | 13.74699 | 103° | 99km/h | 14256m | 3.7m/s | -66.5°C | 37.1% | 0hPa | 2.7V | 00:00:00 | 01:19:50 | 00:00:00 | |
| OE8JPQ-2 | 2026-09-05 11:46:58 | 45.79445 | 13.74627 | 92° | 93km/h | 14247m | 5.8m/s | -66.5°C | 35.6% | 0hPa | 2.7V | 00:00:00 | 00:00:00 | 00:00:00 | |
| OE5DRO-10 | 2026-09-05 11:46:57 | 45.79445 | 13.74590 | 87° | 93km/h | 14241m | 5.8m/s | -66.5°C | 35.1% | 0hPa | 2.7V | 00:00:00 | 00:00:00 | 00:00:00 | |
| OE5DXL-15 | 2026-09-05 11:46:52 | 45.79457 | 13.74421 | 110° | 95km/h | 14215m | 4.9m/s | -66.2°C | 35.3% | 0hPa | 2.7V | 00:00:00 | 00:00:00 | 00:00:00 | |
| DO3MHA-11 | 2026-09-05 11:46:50 | 45.79468 | 13.74351 | 95° | 93km/h | 14205m | 5.5m/s | -66.0°C | 34.9% | 0hPa | 2.7V | 00:00:00 | 01:19:40 | 00:00:00 | |
| 9A1FER-3 | 2026-09-05 11:46:46 | 45.79464 | 13.74204 | 93° | 84km/h | 14184m | 3.4m/s | 0°C | 0% | 0hPa | 2.7V | 00:00:00 | 01:19:36 | 00:00:00 | |
| IV3AMH | 2026-09-05 11:46:43 | 45.79471 | 13.74136 | 106° | 93km/h | 14173m | 6.7m/s | -65.9°C | 25.8% | 0hPa | 2.7V | 00:00:00 | 00:00:00 | 00:00:00 | |
| DO3MHA-11 | 2026-09-05 11:46:40 | 45.79484 | 13.74025 | 79° | 91km/h | 14152m | 4.7m/s | -65.6°C | 34.0% | 0hPa | 2.7V | 00:00:00 | 01:19:30 | 00:00:00 | |
| OE8JPQ-2 | 2026-09-05 11:46:38 | 45.79475 | 13.73962 | 84° | 93km/h | 14143m | 5.3m/s | -65.6°C | 32.8% | 0hPa | 2.7V | 00:00:00 | 01:19:28 | 00:00:00 | |
| IN3HCDX | 2026-09-05 11:46:37 | 45.79475 | 13.73962 | 84° | 102km/h | 14143m | 5.3m/s | -65.6°C | 23.2% | 0hPa | 2.7V | 00:00:00 | 00:00:00 | 00:00:00 | |
| IN3HCDX1 | 2026-09-05 11:46:35 | 45.79477 | 13.73884 | 101° | 115km/h | 14130m | 9.0m/s | -65.5°C | 22.2% | 0hPa | 2.7V | 00:00:00 | 00:00:00 | 00:00:00 | |
| DO3MHA-11 | 2026-09-05 11:46:30 | 45.79502 | 13.73699 | 85° | 91km/h | 14090m | 5.0m/s | -65.1°C | 30.8% | 0hPa | 2.7V | 00:00:00 | 01:19:20 | 00:00:00 | |
| OE5DXL-15 | 2026-09-05 11:46:22 | 45.79519 | 13.73429 | 89° | 88km/h | 14042m | 5.1m/s | -64.7°C | 31.9% | 0hPa | 2.7V | 00:00:00 | 00:00:00 | 00:00:00 | |
| DO3MHA-11 | 2026-09-05 11:46:20 | 45.79521 | 13.73369 | 95° | 93km/h | 14029m | 8.3m/s | -64.6°C | 30.5% | 0hPa | 2.7V | 00:00:00 | 01:19:10 | 08:30:00 | |
| OE5DRO-10 | 2026-09-05 11:46:19 | 45.79523 | 13.73335 | 98° | 88km/h | 14020m | 8.1m/s | -64.6°C | 29.7% | 0hPa | 2.7V | 00:00:00 | 00:00:00 | 00:00:00 | |
| OE8JPQ-2 | 2026-09-05 11:46:18 | 45.79527 | 13.73297 | 97° | 89km/h | 14014m | 5.5m/s | -64.5°C | 29.2% | 0hPa | 2.7V | 00:00:00 | 00:00:00 | 08:30:00 | |
| IN3HCDX | 2026-09-05 11:46:16 | 45.79529 | 13.73257 | 94° | 111km/h | 14009m | 5.3m/s | -64.5°C | 20.2% | 0hPa | 2.7V | 00:00:00 | 00:00:00 | 00:00:00 | |
| IN3HCDX1 | 2026-09-05 11:46:15 | 45.79530 | 13.73218 | 91° | 106km/h | 14003m | 5.7m/s | -64.5°C | 20.0% | 0hPa | 2.7V | 00:00:00 | 00:00:00 | 00:00:00 | |
| DO3MHA-11 | 2026-09-05 11:46:10 | 45.79537 | 13.73043 | 101° | 86km/h | 13965m | 6.4m/s | -64.0°C | 29.3% | 0hPa | 2.7V | 00:00:00 | 01:19:00 | 00:00:00 | |
| IV3AMH | 2026-09-05 11:46:06 | 45.79544 | 13.72938 | 94° | 93km/h | 13949m | 4.5m/s | -63.9°C | 20.5% | 0hPa | 2.7V | 00:00:00 | 00:00:00 | 00:00:00 | |
| DO3MHA-11 | 2026-09-05 11:46:00 | 45.79559 | 13.72730 | 94° | 91km/h | 13905m | 6.1m/s | -63.5°C | 27.4% | 0hPa | 2.7V | 00:00:00 | 01:18:50 | 00:00:00 | |
| OE8JPQ-2 | 2026-09-05 11:45:58 | 45.79564 | 13.72651 | 99° | 89km/h | 13898m | 3.4m/s | -63.4°C | 27.9% | 0hPa | 2.7V | 00:00:00 | 00:00:00 | 00:00:00 | |
| S52SK | 2026-09-05 11:45:57 | 45.79565 | 13.72651 | 100° | 104km/h | 13898m | 3.4m/s | -63.5°C | 19.6% | 0hPa | 2.7V | 00:00:00 | 00:00:00 | 00:00:00 | |
| IN3HCDX | 2026-09-05 11:45:55 | 45.79572 | 13.72584 | 100° | 80km/h | 13887m | 7.4m/s | -63.4°C | 18.7% | 0hPa | 2.7V | 00:00:00 | 00:00:00 | 00:00:00 | |
| IN3HCDX1 | 2026-09-05 11:45:54 | 45.79574 | 13.72558 | 93° | 69km/h | 13880m | 7.3m/s | -63.3°C | 18.4% | 0hPa | 2.7V | 00:00:00 | 00:00:00 | 00:00:00 | |
| OE5DXL-15 | 2026-09-05 11:45:52 | 45.79566 | 13.72477 | 82° | 89km/h | 13864m | 2.5m/s | -63.1°C | 26.1% | 0hPa | 2.7V | 00:00:00 | 00:00:00 | 00:00:00 | |
| DO3MHA-11 | 2026-09-05 11:45:50 | 45.79564 | 13.72414 | 96° | 93km/h | 13853m | 7.9m/s | -63.0°C | 26.3% | 0hPa | 2.7V | 00:00:00 | 01:18:40 | 00:00:00 | |
| S52SK | 2026-09-05 11:45:47 | 45.79577 | 13.72353 | 117° | 89km/h | 13837m | 7.4m/s | -62.9°C | 18.8% | 0hPa | 2.7V | 00:00:00 | 00:00:00 | 00:00:00 | |
| OE5DRO-10 | 2026-09-05 11:45:41 | 45.79615 | 13.72126 | 89° | 88km/h | 13796m | 4.9m/s | -62.5°C | 24.2% | 0hPa | 2.7V | 00:00:00 | 00:00:00 | 00:00:00 | |
| DO3MHA-11 | 2026-09-05 11:45:40 | 45.79616 | 13.72092 | 96° | 88km/h | 13790m | 6.0m/s | -62.4°C | 24.0% | 0hPa | 2.7V | 00:00:00 | 01:18:30 | 00:00:00 | |
| OE8JPQ-2 | 2026-09-05 11:45:38 | 45.79627 | 13.72031 | 113° | 88km/h | 13777m | 8.0m/s | -62.3°C | 23.5% | 0hPa | 2.7V | 00:00:00 | 01:18:28 | 00:00:00 | |
| IN3HCDX | 2026-09-05 11:45:34 | 45.79649 | 13.71945 | 103° | 93km/h | 13757m | 6.7m/s | -62.1°C | 16.1% | 0hPa | 2.7V | 00:00:00 | 00:00:00 | 00:00:00 | |
| IN3HCDX1 | 2026-09-05 11:45:33 | 45.79653 | 13.71911 | 98° | 99km/h | 13752m | 4.5m/s | -62.0°C | 0% | 0hPa | 2.7V | 00:00:00 | 00:00:00 | 00:00:00 | |
| DO3MHA-11 | 2026-09-05 11:45:30 | 45.79663 | 13.71790 | 103° | 71km/h | 13731m | 3.6m/s | -61.7°C | 23.8% | 0hPa | 2.7V | 00:00:00 | 01:18:20 | 00:00:00 | |
| IV3AMH | 2026-09-05 11:45:28 | 45.79667 | 13.71765 | 106° | 77km/h | 13726m | 5.3m/s | -61.8°C | 16.8% | 0hPa | 2.7V | 00:00:00 | 00:00:00 | 00:00:00 | |
| OE5DXL-15 | 2026-09-05 11:45:22 | 45.79683 | 13.71547 | 93° | 86km/h | 13693m | 4.9m/s | -61.4°C | 22.6% | 0hPa | 2.7V | 00:00:00 | 00:00:00 | 08:30:00 | |
| DO3MHA-11 | 2026-09-05 11:45:19 | 45.79688 | 13.71447 | 98° | 88km/h | 13671m | 8.1m/s | -61.2°C | 22.1% | 0hPa | 2.7V | 00:00:00 | 01:18:09 | 00:00:00 | |
| OE8JPQ-2 | 2026-09-05 11:45:18 | 45.79692 | 13.71409 | 100° | 88km/h | 13664m | 5.0m/s | -61.2°C | 22.1% | 0hPa | 2.7V | 00:00:00 | 00:00:00 | 00:00:00 | |
| IN3HCDX1 | 2026-09-05 11:45:12 | 45.79720 | 13.71279 | 116° | 73km/h | 13635m | 3.6m/s | -60.9°C | 0% | 0hPa | 2.7V | 00:00:00 | 00:00:00 | 00:00:00 | |
| DO3MHA-11 | 2026-09-05 11:45:09 | 45.79745 | 13.71154 | 105° | 95km/h | 13613m | 3.9m/s | -60.7°C | 20.6% | 0hPa | 2.7V | 00:00:00 | 01:17:59 | 00:00:00 | |
| DO3MHA-11 | 2026-09-05 11:44:59 | 45.79793 | 13.70832 | 116° | 89km/h | 13567m | 8.0m/s | 0°C | 0% | 0hPa | 2.7V | 00:00:00 | 01:17:49 | 00:00:00 | |
| OE8JPQ-2 | 2026-09-05 11:44:58 | 45.79803 | 13.70806 | 126° | 82km/h | 13560m | 6.6m/s | -60.2°C | 20.7% | 0hPa | 2.7V | 00:00:00 | 00:00:00 | 00:00:00 | |
| OE5DXL-15 | 2026-09-05 11:44:52 | 45.79829 | 13.70643 | 86° | 71km/h | 13522m | 4.2m/s | -59.8°C | 20.1% | 0hPa | 2.7V | 00:00:00 | 00:00:00 | 00:00:00 | |
| IV3AMH | 2026-09-05 11:44:51 | 45.79829 | 13.70643 | 87° | 66km/h | 13522m | 4.3m/s | -59.9°C | 14.0% | 0hPa | 2.7V | 00:00:00 | 00:00:00 | 00:00:00 | |
| OE5DRO-10 | 2026-09-05 11:44:44 | 45.79874 | 13.70399 | 94° | 80km/h | 13483m | 4.6m/s | -59.5°C | 18.8% | 0hPa | 2.7V | 00:00:00 | 00:00:00 | 08:30:00 | |
| OE8JPQ-2 | 2026-09-05 11:44:38 | 45.79910 | 13.70250 | 109° | 77km/h | 13442m | 7.7m/s | -59.0°C | 18.6% | 0hPa | 2.7V | 00:00:00 | 01:17:28 | 00:00:00 | |
| IN3HCDX1 | 2026-09-05 11:44:31 | 45.79923 | 13.70066 | 99° | 62km/h | 13407m | 5.8m/s | 0°C | 0% | 0hPa | 2.7V | 00:00:00 | 00:00:00 | 00:00:00 | |
| 9A1FER-3 | 2026-09-05 11:44:26 | 45.79940 | 13.69899 | 106° | 91km/h | 13375m | 7.1m/s | 0°C | 0% | 0hPa | 2.7V | 00:00:00 | 01:17:16 | 00:00:00 | |
| OE5DRO-10 | 2026-09-05 11:44:25 | 45.79947 | 13.69874 | 113° | 82km/h | 13367m | 7.7m/s | 0°C | 0% | 0hPa | 2.7V | 00:00:00 | 00:00:00 | 00:00:00 | |
| OE5DXL-15 | 2026-09-05 11:44:22 | 45.79969 | 13.69818 | 119° | 86km/h | 13349m | 4.1m/s | -58.3°C | 18.0% | 0hPa | 2.7V | 00:00:00 | 00:00:00 | 00:00:00 | |
| OE8JPQ-2 | 2026-09-05 11:44:18 | 45.79986 | 13.69707 | 110° | 93km/h | 13327m | 3.5m/s | -58.2°C | 17.6% | 0hPa | 2.7V | 00:00:00 | 00:00:00 | 00:00:00 | |
| S52SK | 2026-09-05 11:44:13 | 45.80037 | 13.69594 | 136° | 66km/h | 13298m | 8.7m/s | -58.0°C | 12.0% | 0hPa | 2.7V | 00:00:00 | 00:00:00 | 00:00:00 | |
| IV3AMH | 2026-09-05 11:44:11 | 45.80060 | 13.69558 | 131° | 77km/h | 13287m | 3.4m/s | -57.8°C | 12.3% | 0hPa | 2.7V | 00:00:00 | 00:00:00 | 00:00:00 | |
| IN3HCDX1 | 2026-09-05 11:44:10 | 45.80073 | 13.69536 | 130° | 88km/h | 13283m | 6.7m/s | 0°C | 0% | 0hPa | 2.7V | 00:00:00 | 00:00:00 | 00:00:00 | |
| S52SK | 2026-09-05 11:44:07 | 45.80120 | 13.69452 | 129° | 97km/h | 13264m | 7.3m/s | -57.6°C | 12.0% | 0hPa | 2.7V | 00:00:00 | 00:00:00 | 00:00:00 | |
| OE5DRO-10 | 2026-09-05 11:44:06 | 45.80146 | 13.69404 | 127° | 88km/h | 13251m | 7.0m/s | 0°C | 0% | 0hPa | 2.7V | 00:00:00 | 00:00:00 | 00:00:00 | |
| DO3MHA-11 | 2026-09-05 11:43:59 | 45.80236 | 13.69204 | 125° | 84km/h | 13213m | 5.1m/s | 0°C | 0% | 0hPa | 2.7V | 00:00:00 | 01:16:49 | 08:30:00 | |
| OE8JPQ-2 | 2026-09-05 11:43:58 | 45.80247 | 13.69177 | 120° | 88km/h | 13208m | 6.4m/s | -57.1°C | 18.1% | 0hPa | 2.7V | 00:00:00 | 00:00:00 | 00:00:00 | |
| OE5DXL-15 | 2026-09-05 11:43:52 | 45.80327 | 13.69035 | 144° | 91km/h | 13175m | 4.4m/s | 0°C | 0% | 0hPa | 2.7V | 00:00:00 | 00:00:00 | 00:00:00 | |
| OE5DRO-10 | 2026-09-05 11:43:47 | 45.80382 | 13.68917 | 106° | 95km/h | 13145m | 5.1m/s | 0°C | 0% | 0hPa | 2.7V | 00:00:00 | 00:00:00 | 00:00:00 | |
| OE8JPQ-2 | 2026-09-05 11:43:38 | 45.80507 | 13.68686 | 117° | 91km/h | 13086m | 6.7m/s | -56.2°C | 18.1% | 0hPa | 2.7V | 00:00:00 | 01:16:28 | 00:00:00 | |
| OE5DRO-10 | 2026-09-05 11:43:28 | 45.80649 | 13.68434 | 120° | 97km/h | 13016m | 5.8m/s | 0°C | 0% | 0hPa | 2.7V | 00:00:00 | 00:00:00 | 00:00:00 | |
| DO3MHA-11 | 2026-09-05 11:43:25 | 45.80686 | 13.68364 | 137° | 99km/h | 12995m | 5.9m/s | 0°C | 0% | 0hPa | 2.7V | 00:00:00 | 01:16:15 | 00:00:00 | |
| OE5DXL-15 | 2026-09-05 11:43:20 | 45.80795 | 13.68237 | 130° | 113km/h | 12956m | 8.6m/s | 0°C | 0% | 0hPa | 2.7V | 00:00:00 | 00:00:00 | 00:00:00 | |
| OE8JPQ-2 | 2026-09-05 11:43:18 | 45.80812 | 13.68204 | 125° | 110km/h | 12947m | 7.7m/s | -55.5°C | 21.2% | 0hPa | 2.7V | 00:00:00 | 00:00:00 | 08:30:00 | |
| DO3MHA-11 | 2026-09-05 11:43:15 | 45.80852 | 13.68108 | 124° | 110km/h | 12933m | 2.4m/s | 0°C | 0% | 0hPa | 2.7V | 00:00:00 | 01:16:05 | 00:00:00 | |
| OE5DRO-10 | 2026-09-05 11:43:11 | 45.80971 | 13.67944 | 134° | 113km/h | 12892m | 6.1m/s | 0°C | 0% | 0hPa | 2.7V | 00:00:00 | 00:00:00 | 00:00:00 | |
| IV3AMH | 2026-09-05 11:43:07 | 45.81027 | 13.67854 | 132° | 102km/h | 12873m | 4.4m/s | -55.7°C | 18.5% | 0hPa | 2.7V | 00:00:00 | 00:00:00 | 00:00:00 | |
| DO3MHA-11 | 2026-09-05 11:43:06 | 45.81044 | 13.67826 | 131° | 113km/h | 12868m | 5.6m/s | 0°C | 0% | 0hPa | 2.7V | 00:00:00 | 01:15:55 | 00:00:00 | |
| OE8JPQ-2 | 2026-09-05 11:42:58 | 45.81194 | 13.67644 | 137° | 133km/h | 12832m | 5.4m/s | -56.0°C | 27.9% | 0hPa | 2.7V | 00:00:00 | 00:00:00 | 00:00:00 | |
| 9A1FER-3 | 2026-09-05 11:42:55 | 45.81251 | 13.67542 | 127° | 137km/h | 12816m | 4.2m/s | 0°C | 0% | 0hPa | 2.7V | 00:00:00 | 01:15:45 | 00:00:00 | |
| OE5DRO-10 | 2026-09-05 11:42:50 | 45.81364 | 13.67385 | 137° | 135km/h | 12791m | 6.1m/s | 0°C | 0% | 0hPa | 2.7V | 00:00:00 | 00:00:00 | 00:00:00 | |
| OE5DXL-15 | 2026-09-05 11:42:49 | 45.81388 | 13.67352 | 133° | 141km/h | 12785m | 6.0m/s | 0°C | 0% | 0hPa | 2.7V | 00:00:00 | 00:00:00 | 00:00:00 | |
| DO3MHA-11 | 2026-09-05 11:42:45 | 45.81486 | 13.67205 | 135° | 141km/h | 12763m | 3.0m/s | 0°C | 0% | 0hPa | 2.7V | 00:00:00 | 01:15:35 | 00:00:00 | |
| OE8JPQ-2 | 2026-09-05 11:42:38 | 45.81657 | 13.66942 | 135° | 141km/h | 12736m | 3.3m/s | -57.7°C | 33.5% | 0hPa | 2.7V | 00:00:00 | 01:15:28 | 00:00:00 | |
| DO3MHA-11 | 2026-09-05 11:42:35 | 45.81731 | 13.66833 | 132° | 141km/h | 12725m | 3.9m/s | 0°C | 0% | 0hPa | 2.7V | 00:00:00 | 01:15:25 | 00:00:00 | |
| S52SK | 2026-09-05 11:42:31 | 45.81797 | 13.66718 | 130° | 142km/h | 12714m | 2.8m/s | -57.8°C | 28.2% | 0hPa | 2.7V | 00:00:00 | 00:00:00 | 00:00:00 | |
| DO3MHA-11 | 2026-09-05 11:42:25 | 45.81962 | 13.66446 | 130° | 142km/h | 12690m | 3.6m/s | 0°C | 0% | 0hPa | 2.7V | 00:00:00 | 01:15:15 | 00:00:00 | |
| OE8JPQ-2 | 2026-09-05 11:42:19 | 45.82118 | 13.66162 | 129° | 141km/h | 12667m | 4.2m/s | -58.5°C | 38.5% | 0hPa | 2.7V | 00:00:00 | 00:00:00 | 00:00:00 | |
| 9A1FER-3 | 2026-09-05 11:42:15 | 45.82186 | 13.66042 | 128° | 141km/h | 12657m | 3.8m/s | 0°C | 0% | 0hPa | 2.7V | 00:00:00 | 01:15:05 | 00:00:00 | |
| DO3MHA-11 | 2026-09-05 11:42:14 | 45.82207 | 13.66000 | 126° | 141km/h | 12653m | 2.6m/s | 0°C | 0% | 0hPa | 2.7V | 00:00:00 | 01:15:04 | 00:00:00 | |
| DO3MHA-11 | 2026-09-05 11:42:04 | 45.82416 | 13.65593 | 128° | 117km/h | 12624m | 3.6m/s | 0°C | 0% | 0hPa | 2.7V | 00:00:00 | 01:14:54 | 00:00:00 | |
| 9A1FER-3 | 2026-09-05 11:42:00 | 45.82502 | 13.65432 | 126° | 126km/h | 12611m | 2.6m/s | 0°C | 0% | 0hPa | 2.7V | 00:00:00 | 01:14:50 | 00:00:00 | |
| OE8JPQ-2 | 2026-09-05 11:41:58 | 45.82542 | 13.65347 | 123° | 135km/h | 12604m | 2.8m/s | -58.7°C | 40.6% | 0hPa | 2.7V | 00:00:00 | 00:00:00 | 00:00:00 | |
| OE5DXL-15 | 2026-09-05 11:41:47 | 45.82752 | 13.64891 | 122° | 131km/h | 12567m | 2.8m/s | 0°C | 0% | 0hPa | 2.7V | 00:00:00 | 00:00:00 | 00:00:00 | |
| OE8JPQ-2 | 2026-09-05 11:41:38 | 45.82913 | 13.64535 | 123° | 130km/h | 12539m | 3.3m/s | -59.2°C | 47.6% | 0hPa | 2.7V | 00:00:00 | 01:14:28 | 00:00:00 | |
| OE8JPQ-2 | 2026-09-05 11:41:18 | 45.83280 | 13.63751 | 127° | 126km/h | 12475m | 2.3m/s | -58.7°C | 52.7% | 0hPa | 2.7V | 00:00:00 | 00:00:00 | 00:00:00 | |
| S52SK | 2026-09-05 11:41:11 | 45.83387 | 13.63518 | 123° | 128km/h | 12455m | 3.8m/s | -58.9°C | 44.1% | 0hPa | 2.7V | 00:00:00 | 00:00:00 | 00:00:00 | |
| IV3AMH | 2026-09-05 11:41:10 | 45.83404 | 13.63479 | 122° | 126km/h | 12452m | 3.3m/s | -58.9°C | 44.4% | 0hPa | 2.7V | 00:00:00 | 00:00:00 | 00:00:00 | |
| IN3HCDX1 | 2026-09-05 11:41:09 | 45.83421 | 13.63440 | 122° | 126km/h | 12449m | 3.0m/s | 0°C | 0% | 0hPa | 2.7V | 00:00:00 | 00:00:00 | 00:00:00 | |
| S52SK | 2026-09-05 11:41:05 | 45.83491 | 13.63285 | 124° | 128km/h | 12433m | 3.5m/s | -58.7°C | 45.0% | 0hPa | 2.7V | 00:00:00 | 00:00:00 | 00:00:00 | |
| OE5DXL-15 | 2026-09-05 11:41:04 | 45.83527 | 13.63208 | 125° | 122km/h | 12426m | 3.9m/s | 0°C | 0% | 0hPa | 2.7V | 00:00:00 | 01:13:54 | 00:00:00 | |
| S52SK | 2026-09-05 11:41:00 | 45.83579 | 13.63097 | 124° | 120km/h | 12415m | 3.1m/s | -58.6°C | 45.1% | 0hPa | 2.7V | 00:00:00 | 00:00:00 | 00:00:00 | |
| OE8JPQ-2 | 2026-09-05 11:40:58 | 45.83632 | 13.62983 | 126° | 126km/h | 12406m | 2.9m/s | -58.6°C | 56.7% | 0hPa | 2.7V | 00:00:00 | 00:00:00 | 00:00:00 | |
| OE8JPQ-2 | 2026-09-05 11:40:38 | 45.83982 | 13.62230 | 124° | 120km/h | 12333m | 3.7m/s | -58.1°C | 58.5% | 0hPa | 2.7V | 00:00:00 | 01:13:28 | 00:00:00 | |
| IV3AMH | 2026-09-05 11:40:33 | 45.84049 | 13.62086 | 124° | 124km/h | 12318m | 3.6m/s | -58.0°C | 49.4% | 0hPa | 2.7V | 00:00:00 | 00:00:00 | 00:00:00 | |
| OE5DXL-15 | 2026-09-05 11:40:28 | 45.84156 | 13.61870 | 131° | 119km/h | 12293m | 2.4m/s | 0°C | 0% | 0hPa | 2.7V | 00:00:00 | 00:00:00 | 00:00:00 | |
| OE8JPQ-2 | 2026-09-05 11:40:18 | 45.84323 | 13.61511 | 128° | 120km/h | 12247m | 3.1m/s | -57.6°C | 62.5% | 0hPa | 2.7V | 00:00:00 | 00:00:00 | 08:30:00 | |
| 9A1FER-3 | 2026-09-05 11:40:00 | 45.84607 | 13.60831 | 122° | 120km/h | 12176m | 3.3m/s | 0°C | 0% | 0hPa | 2.7V | 00:00:00 | 01:12:50 | 00:00:00 | |
| OE8JPQ-2 | 2026-09-05 11:39:58 | 45.84638 | 13.60755 | 119° | 124km/h | 12168m | 3.7m/s | -56.9°C | 61.9% | 0hPa | 2.7V | 00:00:00 | 00:00:00 | 00:00:00 | |
| IV3AMH | 2026-09-05 11:39:55 | 45.84667 | 13.60677 | 120° | 120km/h | 12159m | 5.4m/s | -56.9°C | 51.8% | 0hPa | 2.7V | 00:00:00 | 00:00:00 | 00:00:00 | |
| OE5DRO-10 | 2026-09-05 11:39:40 | 45.84912 | 13.60053 | 121° | 126km/h | 12101m | 3.4m/s | 0°C | 0% | 0hPa | 2.7V | 00:00:00 | 00:00:00 | 00:00:00 | |
| OE8JPQ-2 | 2026-09-05 11:39:38 | 45.84943 | 13.59972 | 119° | 124km/h | 12093m | 2.9m/s | -56.4°C | 62.8% | 0hPa | 2.7V | 00:00:00 | 01:12:28 | 00:00:00 | |
| S52SK | 2026-09-05 11:39:34 | 45.84990 | 13.59853 | 120° | 124km/h | 12082m | 3.2m/s | -56.4°C | 51.6% | 0hPa | 2.7V | 00:00:00 | 00:00:00 | 00:00:00 | |
| OE5DRO-10 | 2026-09-05 11:39:21 | 45.85195 | 13.59300 | 120° | 124km/h | 12027m | 3.6m/s | 0°C | 0% | 0hPa | 2.7V | 00:00:00 | 00:00:00 | 00:00:00 | |
| OE8JPQ-2 | 2026-09-05 11:39:18 | 45.85240 | 13.59183 | 118° | 120km/h | 12015m | 3.1m/s | -56.0°C | 63.6% | 0hPa | 2.7V | 00:00:00 | 00:00:00 | 00:00:00 | |
| IV3AMH | 2026-09-05 11:39:17 | 45.85240 | 13.59183 | 119° | 124km/h | 12015m | 3.1m/s | -56.1°C | 53.0% | 0hPa | 2.7V | 00:00:00 | 00:00:00 | 00:00:00 | |
| 9A1FER-3 | 2026-09-05 11:39:10 | 45.85354 | 13.58870 | 119° | 120km/h | 11983m | 4.0m/s | 0°C | 0% | 0hPa | 2.7V | 00:00:00 | 01:12:00 | 00:00:00 | |
| OE5DRO-10 | 2026-09-05 11:39:01 | 45.85480 | 13.58528 | 120° | 119km/h | 11946m | 3.9m/s | 0°C | 0% | 0hPa | 2.7V | 00:00:00 | 00:00:00 | 00:00:00 | |
| OE8JPQ-2 | 2026-09-05 11:38:58 | 45.85525 | 13.58415 | 118° | 117km/h | 11934m | 3.9m/s | -55.4°C | 63.0% | 0hPa | 2.7V | 00:00:00 | 00:00:00 | 00:00:00 | |
| 9A1FER-3 | 2026-09-05 11:38:55 | 45.85562 | 13.58299 | 114° | 115km/h | 11922m | 3.4m/s | 0°C | 0% | 0hPa | 2.7V | 00:00:00 | 01:11:45 | 00:00:00 | |
| OE8JPQ-2 | 2026-09-05 11:38:38 | 45.85801 | 13.57661 | 120° | 119km/h | 11854m | 3.3m/s | -54.7°C | 66.9% | 0hPa | 2.7V | 00:00:00 | 01:11:28 | 00:00:00 | |
| OE8JPQ-2 | 2026-09-05 11:38:18 | 45.86073 | 13.56899 | 114° | 119km/h | 11766m | 5.6m/s | -53.9°C | 64.8% | 0hPa | 2.7V | 00:00:00 | 00:00:00 | 00:00:00 | |
| S52SK | 2026-09-05 11:38:12 | 45.86134 | 13.56719 | 118° | 124km/h | 11743m | 5.0m/s | -53.8°C | 55.8% | 0hPa | 2.7V | 00:00:00 | 00:00:00 | 00:00:00 | |
| S52SK | 2026-09-05 11:38:07 | 45.86202 | 13.56518 | 119° | 113km/h | 11722m | 5.0m/s | -53.6°C | 56.0% | 0hPa | 2.7V | 00:00:00 | 00:00:00 | 00:00:00 | |
| IV3AMH | 2026-09-05 11:38:05 | 45.86227 | 13.56446 | 115° | 113km/h | 11714m | 3.4m/s | -53.5°C | 54.8% | 0hPa | 2.7V | 00:00:00 | 00:00:00 | 00:00:00 | |
| OE8JPQ-2 | 2026-09-05 11:37:58 | 45.86333 | 13.56130 | 117° | 115km/h | 11680m | 2.6m/s | -53.2°C | 66.6% | 0hPa | 2.7V | 00:00:00 | 00:00:00 | 00:00:00 | |
| OE8JPQ-2 | 2026-09-05 11:37:38 | 45.86589 | 13.55392 | 122° | 111km/h | 11584m | 4.2m/s | -52.5°C | 69.5% | 0hPa | 2.7V | 00:00:00 | 01:10:28 | 00:00:00 | |
| IV3AMH | 2026-09-05 11:37:28 | 45.86697 | 13.55060 | 118° | 111km/h | 11539m | 4.5m/s | -52.2°C | 56.8% | 0hPa | 2.7V | 00:00:00 | 00:00:00 | 00:00:00 | |
| OE8JPQ-2 | 2026-09-05 11:37:18 | 45.86836 | 13.54660 | 118° | 113km/h | 11477m | 5.5m/s | -51.6°C | 69.0% | 0hPa | 2.7V | 00:00:00 | 00:00:00 | 08:30:00 | |
| OE8JPQ-2 | 2026-09-05 11:36:58 | 45.87090 | 13.53924 | 122° | 110km/h | 11368m | 5.1m/s | -50.7°C | 67.8% | 0hPa | 2.9V | 00:00:00 | 00:00:00 | 00:00:00 | |
| IV3AMH | 2026-09-05 11:36:51 | 45.87165 | 13.53705 | 119° | 119km/h | 11343m | 4.0m/s | -50.4°C | 56.8% | 0hPa | 2.9V | 00:00:00 | 00:00:00 | 00:00:00 | |
| S52SK | 2026-09-05 11:36:40 | 45.87299 | 13.53318 | 117° | 99km/h | 11297m | 4.3m/s | -50.0°C | 57.3% | 0hPa | 2.9V | 00:00:00 | 00:00:00 | 00:00:00 | |
| OE8JPQ-2 | 2026-09-05 11:36:38 | 45.87337 | 13.53216 | 118° | 110km/h | 11285m | 4.0m/s | -49.8°C | 67.7% | 0hPa | 2.9V | 00:00:00 | 01:09:28 | 00:00:00 | |
| IV3AMH | 2026-09-05 11:36:22 | 45.87519 | 13.52682 | 118° | 102km/h | 11223m | 3.8m/s | -49.4°C | 56.9% | 0hPa | 2.9V | 00:00:00 | 00:00:00 | 00:00:00 | |
| OE8JPQ-2 | 2026-09-05 11:36:18 | 45.87578 | 13.52509 | 119° | 110km/h | 11203m | 5.1m/s | -49.2°C | 64.6% | 0hPa | 2.9V | 00:00:00 | 00:00:00 | 00:00:00 | |
| OE8JPQ-2 | 2026-09-05 11:35:58 | 45.87821 | 13.51805 | 120° | 106km/h | 11124m | 3.9m/s | -48.5°C | 65.2% | 0hPa | 2.7V | 00:00:00 | 00:00:00 | 00:00:00 | |
| OE8JPQ-2 | 2026-09-05 11:35:38 | 45.88063 | 13.51121 | 121° | 106km/h | 11044m | 3.9m/s | -47.9°C | 63.4% | 0hPa | 2.7V | 00:00:00 | 01:08:28 | 00:00:00 | |
| IV3AMH | 2026-09-05 11:35:21 | 45.88251 | 13.50566 | 117° | 110km/h | 10981m | 4.8m/s | -47.5°C | 54.8% | 0hPa | 2.7V | 00:00:00 | 00:00:00 | 00:00:00 | |
| S52SK | 2026-09-05 11:35:19 | 45.88277 | 13.50497 | 119° | 106km/h | 10973m | 4.0m/s | -47.4°C | 0% | 0hPa | 2.7V | 00:00:00 | 00:00:00 | 00:00:00 | |
| OE8JPQ-2 | 2026-09-05 11:35:18 | 45.88300 | 13.50428 | 114° | 106km/h | 10964m | 3.6m/s | -47.3°C | 62.9% | 0hPa | 2.7V | 00:00:00 | 00:00:00 | 00:00:00 | |
| S52SK | 2026-09-05 11:35:13 | 45.88342 | 13.50292 | 117° | 108km/h | 10949m | 4.6m/s | -47.2°C | 0% | 0hPa | 2.9V | 00:00:00 | 00:00:00 | 00:00:00 | |
| OE8JPQ-2 | 2026-09-05 11:34:58 | 45.88528 | 13.49729 | 114° | 108km/h | 10885m | 3.1m/s | -46.6°C | 61.6% | 0hPa | 2.9V | 00:00:00 | 00:00:00 | 00:00:00 | |
| OE8JPQ-2 | 2026-09-05 11:34:38 | 45.88764 | 13.49020 | 119° | 108km/h | 10809m | 3.3m/s | -46.1°C | 57.9% | 0hPa | 2.9V | 00:00:00 | 01:07:28 | 00:00:00 | |
| OE8JPQ-2 | 2026-09-05 11:34:18 | 45.89015 | 13.48324 | 117° | 108km/h | 10730m | 4.7m/s | -45.5°C | 63.5% | 0hPa | 2.9V | 00:00:00 | 00:00:00 | 08:30:00 | |
| OE8JPQ-2 | 2026-09-05 11:33:58 | 45.89259 | 13.47621 | 120° | 110km/h | 10652m | 2.4m/s | -44.9°C | 64.2% | 0hPa | 2.9V | 00:00:00 | 00:00:00 | 00:00:00 | |
| S52SK | 2026-09-05 11:33:53 | 45.89307 | 13.47472 | 114° | 120km/h | 10637m | 4.3m/s | -44.8°C | 0% | 0hPa | 2.9V | 00:00:00 | 00:00:00 | 00:00:00 | |
| S52SK | 2026-09-05 11:33:47 | 45.89378 | 13.47260 | 115° | 111km/h | 10614m | 3.9m/s | -44.6°C | 0% | 0hPa | 2.9V | 00:00:00 | 00:00:00 | 00:00:00 | |
| IV3AMH | 2026-09-05 11:33:43 | 45.89425 | 13.47113 | 115° | 110km/h | 10598m | 4.5m/s | -44.4°C | 55.1% | 0hPa | 2.9V | 00:00:00 | 00:00:00 | 00:00:00 | |
| OE8JPQ-2 | 2026-09-05 11:33:38 | 45.89498 | 13.46899 | 115° | 108km/h | 10574m | 4.8m/s | -44.2°C | 61.0% | 0hPa | 2.9V | 00:00:00 | 01:06:28 | 00:00:00 | |
| OE8JPQ-2 | 2026-09-05 11:33:18 | 45.89737 | 13.46202 | 115° | 106km/h | 10498m | 3.7m/s | -43.4°C | 59.3% | 0hPa | 2.9V | 00:00:00 | 00:00:00 | 00:00:00 | |
| IV3AMH | 2026-09-05 11:33:07 | 45.89857 | 13.45858 | 120° | 99km/h | 10460m | 3.0m/s | -43.2°C | 52.7% | 0hPa | 2.9V | 00:00:00 | 00:00:00 | 00:00:00 | |
| OE8JPQ-2 | 2026-09-05 11:32:58 | 45.89973 | 13.45512 | 116° | 104km/h | 10422m | 3.7m/s | -42.8°C | 59.5% | 0hPa | 2.9V | 00:00:00 | 00:00:00 | 00:00:00 | |
| OE8JPQ-2 | 2026-09-05 11:32:38 | 45.90214 | 13.44833 | 120° | 102km/h | 10347m | 3.0m/s | -42.1°C | 59.2% | 0hPa | 2.9V | 00:00:00 | 01:05:28 | 00:00:00 | |
| S52SK | 2026-09-05 11:32:32 | 45.90277 | 13.44665 | 119° | 100km/h | 10328m | 4.0m/s | -42.0°C | 0% | 0hPa | 2.9V | 00:00:00 | 00:00:00 | 00:00:00 | |
| S52SK | 2026-09-05 11:32:26 | 45.90351 | 13.44466 | 122° | 104km/h | 10306m | 2.6m/s | -41.8°C | 0% | 0hPa | 2.9V | 00:00:00 | 00:00:00 | 00:00:00 | |
| S52SK | 2026-09-05 11:32:21 | 45.90412 | 13.44310 | 120° | 99km/h | 10288m | 3.4m/s | -41.6°C | 0% | 0hPa | 2.9V | 00:00:00 | 00:00:00 | 00:00:00 | |
| OE8JPQ-2 | 2026-09-05 11:32:18 | 45.90457 | 13.44174 | 116° | 104km/h | 10273m | 3.8m/s | -41.4°C | 59.4% | 0hPa | 2.9V | 00:00:00 | 00:00:00 | 00:00:00 | |
| OE8JPQ-2 | 2026-09-05 11:31:58 | 45.90713 | 13.43528 | 116° | 102km/h | 10202m | 3.2m/s | -40.8°C | 58.5% | 0hPa | 2.9V | 00:00:00 | 00:00:00 | 00:00:00 | |
| IV3AMH | 2026-09-05 11:31:55 | 45.90738 | 13.43459 | 121° | 111km/h | 10194m | 3.4m/s | -40.8°C | 0% | 0hPa | 2.9V | 00:00:00 | 00:00:00 | 00:00:00 | |
| OE8JPQ-2 | 2026-09-05 11:31:38 | 45.90975 | 13.42883 | 115° | 102km/h | 10129m | 2.9m/s | -40.1°C | 57.6% | 0hPa | 2.9V | 00:00:00 | 01:04:28 | 00:00:00 | |
| OE8JPQ-2 | 2026-09-05 11:31:18 | 45.91235 | 13.42234 | 123° | 104km/h | 10056m | 4.5m/s | -39.5°C | 53.8% | 0hPa | 2.9V | 00:00:00 | 00:00:00 | 08:30:00 | |
| IV3AMH | 2026-09-05 11:31:17 | 45.91235 | 13.42234 | 124° | 106km/h | 10056m | 4.6m/s | -39.5°C | 0% | 0hPa | 2.9V | 00:00:00 | 00:00:00 | 00:00:00 | |
| S52SK | 2026-09-05 11:31:00 | 45.91455 | 13.41690 | 112° | 95km/h | 9988m | 4.5m/s | 0°C | 0% | 0hPa | 2.9V | 00:00:00 | 00:00:00 | 00:00:00 | |
| OE8JPQ-2 | 2026-09-05 11:30:58 | 45.91496 | 13.41597 | 129° | 97km/h | 9972m | 6.0m/s | -38.7°C | 47.2% | 0hPa | 2.9V | 00:00:00 | 00:00:00 | 00:00:00 | |
| S52SK | 2026-09-05 11:30:54 | 45.91535 | 13.41497 | 110° | 99km/h | 9955m | 4.9m/s | 0°C | 0% | 0hPa | 2.9V | 00:00:00 | 00:00:00 | 00:00:00 | |
| IV3AMH | 2026-09-05 11:30:48 | 45.91603 | 13.41332 | 130° | 100km/h | 9922m | 5.1m/s | -38.3°C | 0% | 0hPa | 2.9V | 00:00:00 | 00:00:00 | 00:00:00 | |
| OE8JPQ-2 | 2026-09-05 11:30:38 | 45.91739 | 13.40992 | 113° | 95km/h | 9874m | 4.5m/s | -37.9°C | 36.1% | 0hPa | 2.9V | 00:00:00 | 01:03:28 | 00:00:00 | |
| IV3AMH | 2026-09-05 11:30:27 | 45.91854 | 13.40686 | 121° | 99km/h | 9834m | 3.9m/s | -37.5°C | 0% | 0hPa | 2.9V | 00:00:00 | 00:00:00 | 00:00:00 | |
| OE8JPQ-2 | 2026-09-05 11:29:58 | 45.92212 | 13.39797 | 117° | 93km/h | 9710m | 4.4m/s | -36.3°C | 28.2% | 0hPa | 2.9V | 00:00:00 | 00:00:00 | 00:00:00 | |
| IV3AMH | 2026-09-05 11:29:50 | 45.92292 | 13.39592 | 127° | 100km/h | 9680m | 3.9m/s | -36.0°C | 0% | 0hPa | 2.9V | 00:00:00 | 00:00:00 | 00:00:00 | |
| OE8JPQ-2 | 2026-09-05 11:29:38 | 45.92432 | 13.39198 | 118° | 89km/h | 9619m | 4.1m/s | -35.4°C | 23.8% | 0hPa | 2.9V | 00:00:00 | 01:02:28 | 00:00:00 | |
| S52SK | 2026-09-05 11:29:34 | 45.92463 | 13.39116 | 119° | 91km/h | 9603m | 3.6m/s | 0°C | 0% | 0hPa | 2.9V | 00:00:00 | 00:00:00 | 00:00:00 | |
| S52SK | 2026-09-05 11:29:28 | 45.92523 | 13.38956 | 122° | 91km/h | 9569m | 4.2m/s | 0°C | 0% | 0hPa | 2.9V | 00:00:00 | 00:00:00 | 00:00:00 | |
| OE8JPQ-2 | 2026-09-05 11:29:19 | 45.92645 | 13.38627 | 115° | 93km/h | 9505m | 5.6m/s | -34.5°C | 24.3% | 0hPa | 2.9V | 00:00:00 | 00:00:00 | 00:00:00 | |
| IV3AMH | 2026-09-05 11:29:08 | 45.92759 | 13.38369 | 118° | 91km/h | 9457m | 7.5m/s | 0°C | 0% | 0hPa | 2.9V | 00:00:00 | 00:00:00 | 00:00:00 | |
| OE8JPQ-2 | 2026-09-05 11:28:58 | 45.92896 | 13.38055 | 130° | 91km/h | 9391m | 7.4m/s | -33.6°C | 25.2% | 0hPa | 2.9V | 00:00:00 | 00:00:00 | 00:00:00 | |
| OE8JPQ-2 | 2026-09-05 11:28:38 | 45.93147 | 13.37506 | 124° | 88km/h | 9280m | 6.0m/s | -32.6°C | 25.9% | 0hPa | 2.9V | 00:00:00 | 01:01:28 | 00:00:00 | |
| OE8JPQ-2 | 2026-09-05 11:28:18 | 45.93391 | 13.36976 | 122° | 88km/h | 9182m | 4.3m/s | -32.0°C | 29.5% | 0hPa | 2.9V | 00:00:00 | 00:00:00 | 08:30:00 | |
| IV3AMH | 2026-09-05 11:28:09 | 45.93479 | 13.36756 | 117° | 88km/h | 9149m | 5.9m/s | 0°C | 0% | 0hPa | 2.7V | 00:00:00 | 00:00:00 | 00:00:00 | |
| S52SK | 2026-09-05 11:28:03 | 45.93545 | 13.36597 | 131° | 89km/h | 9121m | 3.7m/s | 0°C | 0% | 0hPa | 2.7V | 00:00:00 | 00:00:00 | 00:00:00 | |
| OE8JPQ-2 | 2026-09-05 11:27:58 | 45.93601 | 13.36424 | 124° | 86km/h | 9096m | 6.3m/s | -31.3°C | 29.3% | 0hPa | 2.7V | 00:00:00 | 00:00:00 | 00:00:00 | |
| S52SK | 2026-09-05 11:27:57 | 45.93601 | 13.36424 | 124° | 82km/h | 9096m | 6.4m/s | 0°C | 0% | 0hPa | 2.7V | 00:00:00 | 00:00:00 | 00:00:00 | |
| OE8JPQ-2 | 2026-09-05 11:27:38 | 45.93802 | 13.35877 | 119° | 84km/h | 9008m | 3.7m/s | -30.5°C | 28.5% | 0hPa | 2.7V | 00:00:00 | 01:00:28 | 00:00:00 | |
| IV3AMH | 2026-09-05 11:27:35 | 45.93819 | 13.35821 | 111° | 77km/h | 8999m | 5.5m/s | 0°C | 0% | 0hPa | 2.7V | 00:00:00 | 00:00:00 | 00:00:00 | |
| OE8JPQ-2 | 2026-09-05 11:27:18 | 45.93979 | 13.35330 | 106° | 88km/h | 8914m | 6.6m/s | -29.7°C | 26.5% | 0hPa | 2.7V | 00:00:00 | 00:00:00 | 00:00:00 | |
| OE8JPQ-2 | 2026-09-05 11:26:58 | 45.94158 | 13.34749 | 115° | 89km/h | 8821m | 6.0m/s | -28.9°C | 24.6% | 0hPa | 2.9V | 00:00:00 | 00:00:00 | 00:00:00 | |
| OE8JPQ-2 | 2026-09-05 11:26:38 | 45.94307 | 13.34149 | 102° | 89km/h | 8730m | 5.4m/s | -28.1°C | 22.6% | 0hPa | 2.9V | 00:00:00 | 00:59:28 | 00:00:00 | |
| S52SK | 2026-09-05 11:26:37 | 45.94307 | 13.34149 | 102° | 82km/h | 8730m | 5.5m/s | 0°C | 0% | 0hPa | 2.9V | 00:00:00 | 00:00:00 | 00:00:00 | |
| S52SK | 2026-09-05 11:26:31 | 45.94356 | 13.33976 | 112° | 89km/h | 8704m | 7.7m/s | 0°C | 0% | 0hPa | 2.9V | 00:00:00 | 00:00:00 | 00:00:00 | |
| IV3AMH | 2026-09-05 11:26:30 | 45.94365 | 13.33945 | 115° | 93km/h | 8697m | 6.0m/s | 0°C | 0% | 0hPa | 2.9V | 00:00:00 | 00:00:00 | 00:00:00 | |
| OE8JPQ-2 | 2026-09-05 11:26:02 | 45.94586 | 13.33033 | 110° | 88km/h | 8545m | 4.5m/s | -27.1°C | 22.4% | 0hPa | 2.9V | 00:00:00 | 00:00:00 | 00:00:00 | |
| IV3AMH | 2026-09-05 11:25:53 | 45.94642 | 13.32797 | 112° | 84km/h | 8512m | 6.1m/s | 0°C | 0% | 0hPa | 2.9V | 00:00:00 | 00:00:00 | 00:00:00 | |
| OE8JPQ-2 | 2026-09-05 11:25:42 | 45.94734 | 13.32431 | 104° | 93km/h | 8454m | 3.1m/s | -26.7°C | 31.2% | 0hPa | 2.9V | 00:00:00 | 00:00:00 | 00:00:00 | |
| OE8JPQ-2 | 2026-09-05 11:25:22 | 45.94882 | 13.31800 | 111° | 93km/h | 8372m | 3.6m/s | -26.5°C | 43.5% | 0hPa | 2.9V | 00:00:00 | 00:58:12 | 00:00:00 | |
| S52SK | 2026-09-05 11:25:17 | 45.94903 | 13.31672 | 111° | 78km/h | 8356m | 4.1m/s | 0°C | 0% | 0hPa | 2.9V | 00:00:00 | 00:00:00 | 00:00:00 | |
| S52SK | 2026-09-05 11:25:11 | 45.94950 | 13.31475 | 107° | 82km/h | 8325m | 4.3m/s | 0°C | 0% | 0hPa | 2.9V | 00:00:00 | 00:00:00 | 00:00:00 | |
| IV3AMH | 2026-09-05 11:25:10 | 45.94956 | 13.31445 | 108° | 88km/h | 8321m | 3.4m/s | 0°C | 0% | 0hPa | 2.9V | 00:00:00 | 00:00:00 | 00:00:00 | |
| OE8JPQ-2 | 2026-09-05 11:25:01 | 45.95024 | 13.31121 | 113° | 95km/h | 8284m | 3.2m/s | -25.8°C | 41.8% | 0hPa | 2.9V | 00:00:00 | 00:00:00 | 08:30:00 | |
| OE8JPQ-2 | 2026-09-05 11:24:41 | 45.95172 | 13.30461 | 108° | 95km/h | 8211m | 5.7m/s | -25.3°C | 48.5% | 0hPa | 0V | 00:00:00 | 00:00:00 | 00:00:00 | |
| IV3AMH | 2026-09-05 11:24:40 | 45.95172 | 13.30462 | 108° | 91km/h | 8211m | 5.7m/s | 0°C | 0% | 0hPa | 0V | 00:00:00 | 00:00:00 | 00:00:00 | |
| OE8JPQ-2 | 2026-09-05 11:24:21 | 45.95321 | 13.29818 | 115° | 95km/h | 8134m | 5.6m/s | 0°C | 0% | 0hPa | 0V | 00:00:00 | 00:57:11 | 00:00:00 | |
| OE8JPQ-2 | 2026-09-05 11:23:59 | 45.95438 | 13.29081 | 112° | 91km/h | 8027m | 4.1m/s | 0°C | 0% | 0hPa | 0V | 00:00:00 | 00:00:00 | 00:00:00 | |
| S52SK | 2026-09-05 11:23:55 | 45.95453 | 13.28992 | 94° | 97km/h | 8011m | 6.2m/s | 0°C | 0% | 0hPa | 0V | 00:00:00 | 00:00:00 | 00:00:00 | |
| S52SK | 2026-09-05 11:23:50 | 45.95478 | 13.28818 | 110° | 104km/h | 7987m | 5.7m/s | 0°C | 0% | 0hPa | 0V | 00:00:00 | 00:00:00 | 00:00:00 | |
| S52SK | 2026-09-05 11:23:44 | 45.95505 | 13.28612 | 106° | 95km/h | 7965m | 2.0m/s | 0°C | 0% | 0hPa | 0V | 00:00:00 | 00:00:00 | 00:00:00 | |
| OE8JPQ-2 | 2026-09-05 11:23:38 | 45.95548 | 13.28389 | 103° | 95km/h | 7940m | 4.9m/s | 0°C | 0% | 0hPa | 0V | 00:00:00 | 00:00:00 | 00:00:00 | |
| OE8JPQ-2 | 2026-09-05 11:23:18 | 45.95665 | 13.27724 | 108° | 93km/h | 7861m | 1.9m/s | 0°C | 0% | 0hPa | 0V | 00:00:00 | 00:56:08 | 00:00:00 | |
| OE8JPQ-2 | 2026-09-05 11:22:57 | 45.95753 | 13.27014 | 102° | 104km/h | 7782m | 3.9m/s | 0°C | 0% | 0hPa | 0V | 00:00:00 | 00:00:00 | 00:00:00 | |
| OE8JPQ-2 | 2026-09-05 11:22:37 | 45.95842 | 13.26310 | 102° | 102km/h | 7719m | 5.1m/s | 0°C | 0% | 0hPa | 0V | 00:00:00 | 00:00:00 | 00:00:00 | |
| S52SK | 2026-09-05 11:22:30 | 45.95861 | 13.26086 | 103° | 80km/h | 7696m | 7.4m/s | 0°C | 0% | 0hPa | 0V | 00:00:00 | 00:00:00 | 00:00:00 | |
| S52SK | 2026-09-05 11:22:24 | 45.95887 | 13.25886 | 102° | 117km/h | 7669m | 5.7m/s | 0°C | 0% | 0hPa | 0V | 00:00:00 | 00:00:00 | 00:00:00 | |
| S52SK | 2026-09-05 11:22:19 | 45.95918 | 13.25712 | 100° | 75km/h | 7644m | 2.8m/s | 0°C | 0% | 0hPa | 0V | 00:00:00 | 00:00:00 | 00:00:00 | |
| OE8JPQ-2 | 2026-09-05 11:22:17 | 45.95937 | 13.25606 | 104° | 99km/h | 7627m | 5.0m/s | 0°C | 0% | 0hPa | 0V | 00:00:00 | 00:55:07 | 00:00:00 | |
| OE8JPQ-2 | 2026-09-05 11:21:52 | 45.96052 | 13.24717 | 110° | 100km/h | 7526m | 1.8m/s | 0°C | 0% | 0hPa | 0V | 00:00:00 | 00:00:00 | 00:00:00 | |
| S52SK | 2026-09-05 11:21:19 | 45.96226 | 13.23560 | 99° | 97km/h | 7418m | 3.1m/s | 0°C | 0% | 0hPa | 0V | 00:00:00 | 00:00:00 | 00:00:00 | |
| S52SK | 2026-09-05 11:21:12 | 45.96254 | 13.23350 | 97° | 102km/h | 7397m | 4.2m/s | 0°C | 0% | 0hPa | 0V | 00:00:00 | 00:00:00 | 00:00:00 | |
| IN3HCDX | 2026-09-05 11:20:44 | 45.96371 | 13.22396 | 88° | 104km/h | 7301m | 3.0m/s | -18.8°C | 71.1% | 0hPa | 0V | 00:00:00 | 00:00:00 | 00:00:00 | |
| IN3HCDX | 2026-09-05 11:20:21 | 45.96437 | 13.21632 | 102° | 93km/h | 7226m | 3.6m/s | -18.9°C | 84.1% | 0hPa | 0V | 00:00:00 | 00:00:00 | 00:00:00 | |
| S52SK | 2026-09-05 11:20:15 | 45.96454 | 13.21442 | 101° | 75km/h | 7209m | 2.5m/s | 0°C | 0% | 0hPa | 0V | 00:00:00 | 00:00:00 | 00:00:00 | |
| S52SK | 2026-09-05 11:20:10 | 45.96460 | 13.21278 | 87° | 95km/h | 7197m | 2.8m/s | 0°C | 0% | 0hPa | 0V | 00:00:00 | 00:00:00 | 00:00:00 | |
| S52SK | 2026-09-05 11:20:05 | 45.96476 | 13.21106 | 104° | 110km/h | 7182m | 3.2m/s | 0°C | 0% | 0hPa | 0V | 00:00:00 | 00:00:00 | 00:00:00 | |
| IN3HCDX | 2026-09-05 11:20:00 | 45.96491 | 13.20942 | 100° | 104km/h | 7163m | 3.6m/s | -18.4°C | 85.2% | 0hPa | 0V | 00:00:00 | 00:00:00 | 00:00:00 | |
| IN3HCDX | 2026-09-05 11:19:39 | 45.96541 | 13.20245 | 95° | 84km/h | 7085m | 3.9m/s | -18.1°C | 89.9% | 0hPa | 0V | 00:00:00 | 00:00:00 | 00:00:00 | |
| IN3HCDX | 2026-09-05 11:19:18 | 45.96559 | 13.19609 | 89° | 80km/h | 6991m | 4.2m/s | -17.4°C | 89.8% | 0hPa | 0V | 00:00:00 | 00:00:00 | 00:00:00 | |
| S52SK | 2026-09-05 11:19:02 | 45.96562 | 13.19140 | 84° | 86km/h | 6930m | 3.4m/s | 0°C | 0% | 0hPa | 0V | 00:00:00 | 00:00:00 | 00:00:00 | |
| IN3HCDX | 2026-09-05 11:18:58 | 45.96565 | 13.19031 | 92° | 80km/h | 6913m | 5.3m/s | -16.8°C | 87.1% | 0hPa | 0V | 00:00:00 | 00:00:00 | 00:00:00 | |
| S52SK | 2026-09-05 11:18:56 | 45.96563 | 13.18967 | 89° | 86km/h | 6905m | 2.9m/s | 0°C | 0% | 0hPa | 0V | 00:00:00 | 00:00:00 | 00:00:00 | |
| IN3HCDX | 2026-09-05 11:18:37 | 45.96575 | 13.18430 | 88° | 82km/h | 6834m | 3.5m/s | -16.4°C | 84.5% | 0hPa | 0V | 00:00:00 | 00:00:00 | 00:00:00 | |
| IN3HCDX | 2026-09-05 11:18:16 | 45.96597 | 13.17843 | 107° | 77km/h | 6761m | 4.1m/s | -15.8°C | 80.5% | 0hPa | 0V | 00:00:00 | 00:00:00 | 00:00:00 | |
| IV3AMH | 2026-09-05 11:18:03 | 45.96598 | 13.17485 | 85° | 68km/h | 6711m | 4.3m/s | 0°C | 0% | 0hPa | 0V | 00:00:00 | 00:00:00 | 00:00:00 | |
| S52SK | 2026-09-05 11:17:59 | 45.96599 | 13.17373 | 80° | 77km/h | 6689m | 3.0m/s | 0°C | 0% | 0hPa | 0V | 00:00:00 | 00:00:00 | 00:00:00 | |
| IN3HCDX | 2026-09-05 11:17:55 | 45.96601 | 13.17270 | 90° | 77km/h | 6675m | 4.8m/s | -15.3°C | 79.1% | 0hPa | 0V | 00:00:00 | 00:00:00 | 00:00:00 | |
| S52SK | 2026-09-05 11:17:54 | 45.96600 | 13.17242 | 90° | 73km/h | 6670m | 3.7m/s | 0°C | 0% | 0hPa | 0V | 00:00:00 | 00:00:00 | 00:00:00 | |
| S52SK | 2026-09-05 11:17:49 | 45.96593 | 13.17095 | 96° | 80km/h | 6646m | 5.4m/s | 0°C | 0% | 0hPa | 0V | 00:00:00 | 00:00:00 | 00:00:00 | |
| IN3HCDX | 2026-09-05 11:17:34 | 45.96602 | 13.16694 | 109° | 73km/h | 6567m | 6.6m/s | -14.5°C | 74.2% | 0hPa | 0V | 00:00:00 | 00:00:00 | 00:00:00 | |
| IN3HCDX | 2026-09-05 11:17:11 | 45.96615 | 13.16106 | 99° | 66km/h | 6454m | 4.8m/s | -13.3°C | 69.3% | 0hPa | 0V | 00:00:00 | 00:00:00 | 00:00:00 | |
| S52SK | 2026-09-05 11:16:48 | 45.96634 | 13.15466 | 98° | 84km/h | 6342m | 4.1m/s | 0°C | 0% | 0hPa | 0V | 00:00:00 | 00:00:00 | 00:00:00 | |
| IN3HCDX | 2026-09-05 11:16:46 | 45.96634 | 13.15410 | 91° | 66km/h | 6338m | 2.7m/s | -12.2°C | 64.2% | 0hPa | 0V | 00:00:00 | 00:00:00 | 00:00:00 | |
| IN3HCDX | 2026-09-05 11:16:25 | 45.96632 | 13.14833 | 87° | 73km/h | 6275m | 4.1m/s | -12.2°C | 77.1% | 0hPa | 0V | 00:00:00 | 00:00:00 | 00:00:00 | |
| IN3HCDX | 2026-09-05 11:16:04 | 45.96656 | 13.14340 | 100° | 60km/h | 6176m | 7.8m/s | -11.7°C | 82.6% | 0hPa | 0V | 00:00:00 | 00:00:00 | 00:00:00 | |
| IN3HCDX | 2026-09-05 11:15:39 | 45.96744 | 13.13725 | 101° | 75km/h | 6059m | 3.3m/s | -11.0°C | 83.4% | 0hPa | 0V | 00:00:00 | 00:00:00 | 00:00:00 | |
| IN3HCDX | 2026-09-05 11:15:18 | 45.96765 | 13.13241 | 110° | 62km/h | 5950m | 0.9m/s | -10.4°C | 88.2% | 0hPa | 0V | 00:00:00 | 00:00:00 | 00:00:00 | |
| IN3HCDX | 2026-09-05 11:14:58 | 45.96787 | 13.12744 | 86° | 64km/h | 5859m | 7.5m/s | -9.7°C | 81.7% | 0hPa | 0V | 00:00:00 | 00:00:00 | 00:00:00 | |
| IN3HCDX | 2026-09-05 11:14:35 | 45.96808 | 13.12163 | 85° | 80km/h | 5751m | 2.6m/s | -8.9°C | 45.3% | 0hPa | 0V | 00:00:00 | 00:00:00 | 00:00:00 | |
| IN3HCDX | 2026-09-05 11:14:14 | 45.96816 | 13.11655 | 79° | 64km/h | 5649m | 4.6m/s | -8.3°C | 35.1% | 0hPa | 0V | 00:00:00 | 00:00:00 | 00:00:00 | |
| IN3HCDX | 2026-09-05 11:13:53 | 45.96788 | 13.11118 | 89° | 95km/h | 5540m | 2.9m/s | -7.5°C | 29.3% | 0hPa | 0V | 00:00:00 | 00:00:00 | 00:00:00 | |
| IN3HCDX | 2026-09-05 11:13:32 | 45.96815 | 13.10605 | 100° | 73km/h | 5442m | 4.7m/s | -6.9°C | 23.4% | 0hPa | 0V | 00:00:00 | 00:00:00 | 00:00:00 | |
| IN3HCDX | 2026-09-05 11:13:11 | 45.96826 | 13.10084 | 89° | 73km/h | 5363m | 3.5m/s | -6.1°C | 0% | 0hPa | 0V | 00:00:00 | 00:00:00 | 00:00:00 | |
| IN3HCDX | 2026-09-05 11:12:51 | 45.96848 | 13.09626 | 108° | 57km/h | 5265m | 8.2m/s | -5.6°C | 0% | 0hPa | 0V | 00:00:00 | 00:00:00 | 00:00:00 | |
| IN3HCDX | 2026-09-05 11:12:25 | 45.96879 | 13.09033 | 88° | 38km/h | 5118m | 8.2m/s | -5.2°C | 0% | 0hPa | 0V | 00:00:00 | 00:00:00 | 00:00:00 | |
| IN3HCDX | 2026-09-05 11:12:04 | 45.96880 | 13.08649 | 62° | 46km/h | 4983m | 3.5m/s | -4.6°C | 0% | 0hPa | 0V | 00:00:00 | 00:00:00 | 00:00:00 | |
| IN3HCDX | 2026-09-05 11:11:42 | 45.96885 | 13.08254 | 82° | 49km/h | 4865m | 7.2m/s | -3.8°C | 0% | 0hPa | 0V | 00:00:00 | 00:00:00 | 00:00:00 | |
| IN3HCDX | 2026-09-05 11:10:50 | 45.96947 | 13.07463 | 83° | 27km/h | 4604m | 7.2m/s | 0°C | 0% | 0hPa | 0V | 00:00:00 | 00:00:00 | 00:00:00 |